<?xml version="1.0" encoding="UTF-8" standalone="no" ?>
<gpx xmlns="http://www.topografix.com/GPX/1/1" xmlns:xsi="http://www.w3.org/2001/XMLSchema-instance" xsi:schemaLocation="http://www.topografix.com/GPX/1/1 http://www.topografix.com/GPX/1/1/gpx.xsd" version="1.1" creator="VisuGPX - https://www.visugpx.com">
  <metadata>
    <name>Moucherolle pas de l\'Oeil</name>
    <desc><![CDATA[Moucherolle pas de l\'Oeil au départ de Prélenfrey]]></desc>
  </metadata>
  <trk>
    <name><![CDATA[Le Gua Course à pied]]></name>
    <trkseg>
      <trkpt lat="45.01677" lon="5.59602">
        <ele>1310.3</ele>
        <time>2015-07-04T07:32:08.000Z</time>
      </trkpt>
      <trkpt lat="45.01676" lon="5.59599">
        <ele>1311.2</ele>
        <time>2015-07-04T07:32:20.000Z</time>
      </trkpt>
      <trkpt lat="45.0168" lon="5.59601">
        <ele>1310.6</ele>
        <time>2015-07-04T07:32:42.000Z</time>
      </trkpt>
      <trkpt lat="45.01676" lon="5.59603">
        <ele>1309.9</ele>
        <time>2015-07-04T07:32:57.000Z</time>
      </trkpt>
      <trkpt lat="45.01677" lon="5.59602">
        <ele>1310.4</ele>
        <time>2015-07-04T07:33:01.000Z</time>
      </trkpt>
      <trkpt lat="45.01674" lon="5.59601">
        <ele>1310.6</ele>
        <time>2015-07-04T07:33:14.000Z</time>
      </trkpt>
      <trkpt lat="45.01677" lon="5.59602">
        <ele>1310.2</ele>
        <time>2015-07-04T07:33:18.000Z</time>
      </trkpt>
      <trkpt lat="45.01677" lon="5.59602">
        <ele>1310.3</ele>
        <time>2015-07-04T07:33:19.000Z</time>
      </trkpt>
      <trkpt lat="45.01674" lon="5.59602">
        <ele>1310.1</ele>
        <time>2015-07-04T07:33:26.000Z</time>
      </trkpt>
      <trkpt lat="45.01672" lon="5.59603">
        <ele>1309.9</ele>
        <time>2015-07-04T07:33:28.000Z</time>
      </trkpt>
      <trkpt lat="45.01673" lon="5.59602">
        <ele>1310.1</ele>
        <time>2015-07-04T07:33:30.000Z</time>
      </trkpt>
      <trkpt lat="45.01673" lon="5.59593">
        <ele>1312.9</ele>
        <time>2015-07-04T07:33:57.000Z</time>
      </trkpt>
      <trkpt lat="45.01673" lon="5.59592">
        <ele>1313.4</ele>
        <time>2015-07-04T07:34:00.000Z</time>
      </trkpt>
      <trkpt lat="45.01675" lon="5.59603">
        <ele>1309.9</ele>
        <time>2015-07-04T07:35:14.000Z</time>
      </trkpt>
      <trkpt lat="45.01672" lon="5.59599">
        <ele>1311</ele>
        <time>2015-07-04T07:35:17.000Z</time>
      </trkpt>
      <trkpt lat="45.01676" lon="5.596">
        <ele>1310.9</ele>
        <time>2015-07-04T07:35:26.000Z</time>
      </trkpt>
      <trkpt lat="45.01677" lon="5.596">
        <ele>1310.9</ele>
        <time>2015-07-04T07:35:28.000Z</time>
      </trkpt>
      <trkpt lat="45.01676" lon="5.596">
        <ele>1311</ele>
        <time>2015-07-04T07:35:32.000Z</time>
      </trkpt>
      <trkpt lat="45.01676" lon="5.59591">
        <ele>1313.7</ele>
        <time>2015-07-04T07:36:19.000Z</time>
      </trkpt>
      <trkpt lat="45.01671" lon="5.59587">
        <ele>1314.9</ele>
        <time>2015-07-04T07:36:24.000Z</time>
      </trkpt>
      <trkpt lat="45.0167" lon="5.59587">
        <ele>1314.9</ele>
        <time>2015-07-04T07:36:25.000Z</time>
      </trkpt>
      <trkpt lat="45.01662" lon="5.59588">
        <ele>1314.5</ele>
        <time>2015-07-04T07:36:31.000Z</time>
      </trkpt>
      <trkpt lat="45.01661" lon="5.59587">
        <ele>1314.6</ele>
        <time>2015-07-04T07:36:32.000Z</time>
      </trkpt>
      <trkpt lat="45.01655" lon="5.59588">
        <ele>1314</ele>
        <time>2015-07-04T07:36:39.000Z</time>
      </trkpt>
      <trkpt lat="45.01651" lon="5.59588">
        <ele>1313.9</ele>
        <time>2015-07-04T07:36:42.000Z</time>
      </trkpt>
      <trkpt lat="45.01649" lon="5.59583">
        <ele>1315.3</ele>
        <time>2015-07-04T07:36:45.000Z</time>
      </trkpt>
      <trkpt lat="45.01648" lon="5.59581">
        <ele>1316.2</ele>
        <time>2015-07-04T07:36:48.000Z</time>
      </trkpt>
      <trkpt lat="45.01645" lon="5.5958">
        <ele>1316.6</ele>
        <time>2015-07-04T07:36:51.000Z</time>
      </trkpt>
      <trkpt lat="45.01642" lon="5.59579">
        <ele>1316.8</ele>
        <time>2015-07-04T07:36:54.000Z</time>
      </trkpt>
      <trkpt lat="45.01638" lon="5.59578">
        <ele>1317</ele>
        <time>2015-07-04T07:36:57.000Z</time>
      </trkpt>
      <trkpt lat="45.01629" lon="5.59576">
        <ele>1317.6</ele>
        <time>2015-07-04T07:37:05.000Z</time>
      </trkpt>
      <trkpt lat="45.01624" lon="5.59573">
        <ele>1318.6</ele>
        <time>2015-07-04T07:37:09.000Z</time>
      </trkpt>
      <trkpt lat="45.01618" lon="5.59574">
        <ele>1318.5</ele>
        <time>2015-07-04T07:37:12.000Z</time>
      </trkpt>
      <trkpt lat="45.01613" lon="5.5957">
        <ele>1319.7</ele>
        <time>2015-07-04T07:37:19.000Z</time>
      </trkpt>
      <trkpt lat="45.01612" lon="5.59569">
        <ele>1320</ele>
        <time>2015-07-04T07:37:20.000Z</time>
      </trkpt>
      <trkpt lat="45.01606" lon="5.59567">
        <ele>1320.6</ele>
        <time>2015-07-04T07:37:25.000Z</time>
      </trkpt>
      <trkpt lat="45.01604" lon="5.59566">
        <ele>1320.8</ele>
        <time>2015-07-04T07:37:26.000Z</time>
      </trkpt>
      <trkpt lat="45.01602" lon="5.59563">
        <ele>1321.7</ele>
        <time>2015-07-04T07:37:30.000Z</time>
      </trkpt>
      <trkpt lat="45.01602" lon="5.59565">
        <ele>1321.3</ele>
        <time>2015-07-04T07:37:31.000Z</time>
      </trkpt>
      <trkpt lat="45.01599" lon="5.59564">
        <ele>1321.6</ele>
        <time>2015-07-04T07:37:33.000Z</time>
      </trkpt>
      <trkpt lat="45.01595" lon="5.59564">
        <ele>1321.3</ele>
        <time>2015-07-04T07:37:35.000Z</time>
      </trkpt>
      <trkpt lat="45.01589" lon="5.59564">
        <ele>1320.9</ele>
        <time>2015-07-04T07:37:42.000Z</time>
      </trkpt>
      <trkpt lat="45.01588" lon="5.59563">
        <ele>1321.4</ele>
        <time>2015-07-04T07:37:43.000Z</time>
      </trkpt>
      <trkpt lat="45.01584" lon="5.59563">
        <ele>1321</ele>
        <time>2015-07-04T07:37:48.000Z</time>
      </trkpt>
      <trkpt lat="45.01577" lon="5.5956">
        <ele>1322.1</ele>
        <time>2015-07-04T07:37:54.000Z</time>
      </trkpt>
      <trkpt lat="45.01576" lon="5.59559">
        <ele>1322.5</ele>
        <time>2015-07-04T07:37:56.000Z</time>
      </trkpt>
      <trkpt lat="45.01574" lon="5.59559">
        <ele>1322.6</ele>
        <time>2015-07-04T07:37:57.000Z</time>
      </trkpt>
      <trkpt lat="45.01569" lon="5.59558">
        <ele>1322.9</ele>
        <time>2015-07-04T07:38:01.000Z</time>
      </trkpt>
      <trkpt lat="45.01569" lon="5.59559">
        <ele>1322.6</ele>
        <time>2015-07-04T07:38:02.000Z</time>
      </trkpt>
      <trkpt lat="45.01568" lon="5.59559">
        <ele>1322.6</ele>
        <time>2015-07-04T07:38:03.000Z</time>
      </trkpt>
      <trkpt lat="45.01565" lon="5.59556">
        <ele>1323.7</ele>
        <time>2015-07-04T07:38:08.000Z</time>
      </trkpt>
      <trkpt lat="45.01561" lon="5.59557">
        <ele>1323.3</ele>
        <time>2015-07-04T07:38:11.000Z</time>
      </trkpt>
      <trkpt lat="45.01559" lon="5.59557">
        <ele>1323.4</ele>
        <time>2015-07-04T07:38:13.000Z</time>
      </trkpt>
      <trkpt lat="45.01558" lon="5.59557">
        <ele>1323.5</ele>
        <time>2015-07-04T07:38:14.000Z</time>
      </trkpt>
      <trkpt lat="45.01553" lon="5.59555">
        <ele>1324.2</ele>
        <time>2015-07-04T07:38:20.000Z</time>
      </trkpt>
      <trkpt lat="45.01547" lon="5.59554">
        <ele>1324.2</ele>
        <time>2015-07-04T07:38:25.000Z</time>
      </trkpt>
      <trkpt lat="45.0154" lon="5.59551">
        <ele>1325.5</ele>
        <time>2015-07-04T07:38:31.000Z</time>
      </trkpt>
      <trkpt lat="45.01536" lon="5.5955">
        <ele>1325.7</ele>
        <time>2015-07-04T07:38:35.000Z</time>
      </trkpt>
      <trkpt lat="45.01534" lon="5.59549">
        <ele>1326.2</ele>
        <time>2015-07-04T07:38:37.000Z</time>
      </trkpt>
      <trkpt lat="45.01525" lon="5.5955">
        <ele>1325.6</ele>
        <time>2015-07-04T07:38:42.000Z</time>
      </trkpt>
      <trkpt lat="45.01521" lon="5.5955">
        <ele>1325.8</ele>
        <time>2015-07-04T07:38:47.000Z</time>
      </trkpt>
      <trkpt lat="45.01513" lon="5.59545">
        <ele>1327.7</ele>
        <time>2015-07-04T07:38:54.000Z</time>
      </trkpt>
      <trkpt lat="45.01513" lon="5.59545">
        <ele>1327.9</ele>
        <time>2015-07-04T07:38:55.000Z</time>
      </trkpt>
      <trkpt lat="45.01507" lon="5.59541">
        <ele>1329.8</ele>
        <time>2015-07-04T07:39:00.000Z</time>
      </trkpt>
      <trkpt lat="45.01501" lon="5.5954">
        <ele>1330.1</ele>
        <time>2015-07-04T07:39:05.000Z</time>
      </trkpt>
      <trkpt lat="45.01498" lon="5.5954">
        <ele>1330.3</ele>
        <time>2015-07-04T07:39:08.000Z</time>
      </trkpt>
      <trkpt lat="45.01496" lon="5.59536">
        <ele>1332</ele>
        <time>2015-07-04T07:39:11.000Z</time>
      </trkpt>
      <trkpt lat="45.01493" lon="5.59536">
        <ele>1332.1</ele>
        <time>2015-07-04T07:39:14.000Z</time>
      </trkpt>
      <trkpt lat="45.0149" lon="5.59538">
        <ele>1331.3</ele>
        <time>2015-07-04T07:39:16.000Z</time>
      </trkpt>
      <trkpt lat="45.01484" lon="5.59536">
        <ele>1331.9</ele>
        <time>2015-07-04T07:39:23.000Z</time>
      </trkpt>
      <trkpt lat="45.01477" lon="5.59534">
        <ele>1333</ele>
        <time>2015-07-04T07:39:29.000Z</time>
      </trkpt>
      <trkpt lat="45.01471" lon="5.5953">
        <ele>1334.7</ele>
        <time>2015-07-04T07:39:35.000Z</time>
      </trkpt>
      <trkpt lat="45.01467" lon="5.5953">
        <ele>1334.5</ele>
        <time>2015-07-04T07:39:38.000Z</time>
      </trkpt>
      <trkpt lat="45.01465" lon="5.59531">
        <ele>1334.1</ele>
        <time>2015-07-04T07:39:41.000Z</time>
      </trkpt>
      <trkpt lat="45.01459" lon="5.59525">
        <ele>1336.8</ele>
        <time>2015-07-04T07:39:47.000Z</time>
      </trkpt>
      <trkpt lat="45.01451" lon="5.59522">
        <ele>1338.1</ele>
        <time>2015-07-04T07:39:54.000Z</time>
      </trkpt>
      <trkpt lat="45.01445" lon="5.59521">
        <ele>1338.7</ele>
        <time>2015-07-04T07:40:00.000Z</time>
      </trkpt>
      <trkpt lat="45.01442" lon="5.5952">
        <ele>1339.1</ele>
        <time>2015-07-04T07:40:02.000Z</time>
      </trkpt>
      <trkpt lat="45.01441" lon="5.59518">
        <ele>1339.8</ele>
        <time>2015-07-04T07:40:04.000Z</time>
      </trkpt>
      <trkpt lat="45.0144" lon="5.59518">
        <ele>1339.9</ele>
        <time>2015-07-04T07:40:05.000Z</time>
      </trkpt>
      <trkpt lat="45.01435" lon="5.59516">
        <ele>1340.6</ele>
        <time>2015-07-04T07:40:10.000Z</time>
      </trkpt>
      <trkpt lat="45.0143" lon="5.59512">
        <ele>1342.4</ele>
        <time>2015-07-04T07:40:16.000Z</time>
      </trkpt>
      <trkpt lat="45.01422" lon="5.59509">
        <ele>1343.6</ele>
        <time>2015-07-04T07:40:24.000Z</time>
      </trkpt>
      <trkpt lat="45.01415" lon="5.59505">
        <ele>1345.1</ele>
        <time>2015-07-04T07:40:31.000Z</time>
      </trkpt>
      <trkpt lat="45.0141" lon="5.59501">
        <ele>1346.3</ele>
        <time>2015-07-04T07:40:37.000Z</time>
      </trkpt>
      <trkpt lat="45.01407" lon="5.595">
        <ele>1346.7</ele>
        <time>2015-07-04T07:40:40.000Z</time>
      </trkpt>
      <trkpt lat="45.01405" lon="5.59498">
        <ele>1347.1</ele>
        <time>2015-07-04T07:40:42.000Z</time>
      </trkpt>
      <trkpt lat="45.01402" lon="5.59496">
        <ele>1347.9</ele>
        <time>2015-07-04T07:40:45.000Z</time>
      </trkpt>
      <trkpt lat="45.01401" lon="5.59495">
        <ele>1348</ele>
        <time>2015-07-04T07:40:46.000Z</time>
      </trkpt>
      <trkpt lat="45.01392" lon="5.59491">
        <ele>1348.8</ele>
        <time>2015-07-04T07:40:53.000Z</time>
      </trkpt>
      <trkpt lat="45.01384" lon="5.59484">
        <ele>1350.7</ele>
        <time>2015-07-04T07:41:01.000Z</time>
      </trkpt>
      <trkpt lat="45.01383" lon="5.59482">
        <ele>1351.4</ele>
        <time>2015-07-04T07:41:02.000Z</time>
      </trkpt>
      <trkpt lat="45.0138" lon="5.5948">
        <ele>1352.3</ele>
        <time>2015-07-04T07:41:06.000Z</time>
      </trkpt>
      <trkpt lat="45.01379" lon="5.59479">
        <ele>1352.4</ele>
        <time>2015-07-04T07:41:07.000Z</time>
      </trkpt>
      <trkpt lat="45.01373" lon="5.59475">
        <ele>1353.4</ele>
        <time>2015-07-04T07:41:14.000Z</time>
      </trkpt>
      <trkpt lat="45.01364" lon="5.59468">
        <ele>1355.1</ele>
        <time>2015-07-04T07:41:23.000Z</time>
      </trkpt>
      <trkpt lat="45.01358" lon="5.59462">
        <ele>1356.8</ele>
        <time>2015-07-04T07:41:30.000Z</time>
      </trkpt>
      <trkpt lat="45.01349" lon="5.59455">
        <ele>1358.5</ele>
        <time>2015-07-04T07:41:39.000Z</time>
      </trkpt>
      <trkpt lat="45.01341" lon="5.59452">
        <ele>1358.5</ele>
        <time>2015-07-04T07:41:48.000Z</time>
      </trkpt>
      <trkpt lat="45.01335" lon="5.59447">
        <ele>1359.1</ele>
        <time>2015-07-04T07:41:55.000Z</time>
      </trkpt>
      <trkpt lat="45.01325" lon="5.59441">
        <ele>1360.1</ele>
        <time>2015-07-04T07:42:04.000Z</time>
      </trkpt>
      <trkpt lat="45.0132" lon="5.59439">
        <ele>1360.4</ele>
        <time>2015-07-04T07:42:11.000Z</time>
      </trkpt>
      <trkpt lat="45.01313" lon="5.59436">
        <ele>1360.4</ele>
        <time>2015-07-04T07:42:16.000Z</time>
      </trkpt>
      <trkpt lat="45.01311" lon="5.59437">
        <ele>1359.8</ele>
        <time>2015-07-04T07:42:21.000Z</time>
      </trkpt>
      <trkpt lat="45.01309" lon="5.59436">
        <ele>1359.7</ele>
        <time>2015-07-04T07:42:25.000Z</time>
      </trkpt>
      <trkpt lat="45.01306" lon="5.59436">
        <ele>1359.4</ele>
        <time>2015-07-04T07:42:30.000Z</time>
      </trkpt>
      <trkpt lat="45.01306" lon="5.59433">
        <ele>1360.6</ele>
        <time>2015-07-04T07:42:32.000Z</time>
      </trkpt>
      <trkpt lat="45.01306" lon="5.5943">
        <ele>1361.7</ele>
        <time>2015-07-04T07:42:34.000Z</time>
      </trkpt>
      <trkpt lat="45.01305" lon="5.5943">
        <ele>1361.7</ele>
        <time>2015-07-04T07:42:35.000Z</time>
      </trkpt>
      <trkpt lat="45.01302" lon="5.59426">
        <ele>1362.8</ele>
        <time>2015-07-04T07:42:39.000Z</time>
      </trkpt>
      <trkpt lat="45.01304" lon="5.5942">
        <ele>1365.2</ele>
        <time>2015-07-04T07:42:44.000Z</time>
      </trkpt>
      <trkpt lat="45.01305" lon="5.59417">
        <ele>1367</ele>
        <time>2015-07-04T07:42:49.000Z</time>
      </trkpt>
      <trkpt lat="45.01307" lon="5.59413">
        <ele>1369</ele>
        <time>2015-07-04T07:42:53.000Z</time>
      </trkpt>
      <trkpt lat="45.0131" lon="5.59407">
        <ele>1372</ele>
        <time>2015-07-04T07:42:58.000Z</time>
      </trkpt>
      <trkpt lat="45.01315" lon="5.59405">
        <ele>1373.5</ele>
        <time>2015-07-04T07:43:02.000Z</time>
      </trkpt>
      <trkpt lat="45.01317" lon="5.59405">
        <ele>1374.3</ele>
        <time>2015-07-04T07:43:05.000Z</time>
      </trkpt>
      <trkpt lat="45.01317" lon="5.59404">
        <ele>1374.6</ele>
        <time>2015-07-04T07:43:07.000Z</time>
      </trkpt>
      <trkpt lat="45.01319" lon="5.594">
        <ele>1376.6</ele>
        <time>2015-07-04T07:43:15.000Z</time>
      </trkpt>
      <trkpt lat="45.01316" lon="5.59397">
        <ele>1377.5</ele>
        <time>2015-07-04T07:43:20.000Z</time>
      </trkpt>
      <trkpt lat="45.01314" lon="5.59395">
        <ele>1377.8</ele>
        <time>2015-07-04T07:43:25.000Z</time>
      </trkpt>
      <trkpt lat="45.01313" lon="5.5939">
        <ele>1379.9</ele>
        <time>2015-07-04T07:43:30.000Z</time>
      </trkpt>
      <trkpt lat="45.01312" lon="5.59388">
        <ele>1380.4</ele>
        <time>2015-07-04T07:43:31.000Z</time>
      </trkpt>
      <trkpt lat="45.01309" lon="5.59389">
        <ele>1379.6</ele>
        <time>2015-07-04T07:43:34.000Z</time>
      </trkpt>
      <trkpt lat="45.01308" lon="5.59388">
        <ele>1379.6</ele>
        <time>2015-07-04T07:43:35.000Z</time>
      </trkpt>
      <trkpt lat="45.01307" lon="5.59388">
        <ele>1379.8</ele>
        <time>2015-07-04T07:43:36.000Z</time>
      </trkpt>
      <trkpt lat="45.01306" lon="5.59388">
        <ele>1379.5</ele>
        <time>2015-07-04T07:43:38.000Z</time>
      </trkpt>
      <trkpt lat="45.01303" lon="5.59387">
        <ele>1379.5</ele>
        <time>2015-07-04T07:43:40.000Z</time>
      </trkpt>
      <trkpt lat="45.01301" lon="5.59384">
        <ele>1380.1</ele>
        <time>2015-07-04T07:43:43.000Z</time>
      </trkpt>
      <trkpt lat="45.01298" lon="5.59379">
        <ele>1381.6</ele>
        <time>2015-07-04T07:43:47.000Z</time>
      </trkpt>
      <trkpt lat="45.01298" lon="5.59378">
        <ele>1382</ele>
        <time>2015-07-04T07:43:48.000Z</time>
      </trkpt>
      <trkpt lat="45.013" lon="5.59377">
        <ele>1383.1</ele>
        <time>2015-07-04T07:43:51.000Z</time>
      </trkpt>
      <trkpt lat="45.01301" lon="5.59375">
        <ele>1384.1</ele>
        <time>2015-07-04T07:43:52.000Z</time>
      </trkpt>
      <trkpt lat="45.01302" lon="5.59371">
        <ele>1385.8</ele>
        <time>2015-07-04T07:43:55.000Z</time>
      </trkpt>
      <trkpt lat="45.01303" lon="5.59371">
        <ele>1386.2</ele>
        <time>2015-07-04T07:43:56.000Z</time>
      </trkpt>
      <trkpt lat="45.01307" lon="5.5937">
        <ele>1387.3</ele>
        <time>2015-07-04T07:44:00.000Z</time>
      </trkpt>
      <trkpt lat="45.01314" lon="5.59372">
        <ele>1387.9</ele>
        <time>2015-07-04T07:44:06.000Z</time>
      </trkpt>
      <trkpt lat="45.01318" lon="5.59371">
        <ele>1389.1</ele>
        <time>2015-07-04T07:44:11.000Z</time>
      </trkpt>
      <trkpt lat="45.0132" lon="5.59372">
        <ele>1389.1</ele>
        <time>2015-07-04T07:44:15.000Z</time>
      </trkpt>
      <trkpt lat="45.0132" lon="5.59372">
        <ele>1388.8</ele>
        <time>2015-07-04T07:44:16.000Z</time>
      </trkpt>
      <trkpt lat="45.01318" lon="5.59372">
        <ele>1388.4</ele>
        <time>2015-07-04T07:44:19.000Z</time>
      </trkpt>
      <trkpt lat="45.01316" lon="5.59371">
        <ele>1388.5</ele>
        <time>2015-07-04T07:44:22.000Z</time>
      </trkpt>
      <trkpt lat="45.01315" lon="5.59373">
        <ele>1387.5</ele>
        <time>2015-07-04T07:44:24.000Z</time>
      </trkpt>
      <trkpt lat="45.01316" lon="5.59373">
        <ele>1388</ele>
        <time>2015-07-04T07:44:27.000Z</time>
      </trkpt>
      <trkpt lat="45.01307" lon="5.59372">
        <ele>1386.8</ele>
        <time>2015-07-04T07:44:33.000Z</time>
      </trkpt>
      <trkpt lat="45.01301" lon="5.59366">
        <ele>1387.9</ele>
        <time>2015-07-04T07:44:39.000Z</time>
      </trkpt>
      <trkpt lat="45.01299" lon="5.59361">
        <ele>1389.9</ele>
        <time>2015-07-04T07:44:43.000Z</time>
      </trkpt>
      <trkpt lat="45.01296" lon="5.59356">
        <ele>1391.5</ele>
        <time>2015-07-04T07:44:48.000Z</time>
      </trkpt>
      <trkpt lat="45.01295" lon="5.59355">
        <ele>1391.6</ele>
        <time>2015-07-04T07:44:49.000Z</time>
      </trkpt>
      <trkpt lat="45.01294" lon="5.5935">
        <ele>1393.8</ele>
        <time>2015-07-04T07:44:53.000Z</time>
      </trkpt>
      <trkpt lat="45.01288" lon="5.59345">
        <ele>1394.5</ele>
        <time>2015-07-04T07:44:58.000Z</time>
      </trkpt>
      <trkpt lat="45.01285" lon="5.5934">
        <ele>1396.5</ele>
        <time>2015-07-04T07:45:02.000Z</time>
      </trkpt>
      <trkpt lat="45.01279" lon="5.59335">
        <ele>1397.5</ele>
        <time>2015-07-04T07:45:08.000Z</time>
      </trkpt>
      <trkpt lat="45.01279" lon="5.59334">
        <ele>1398.2</ele>
        <time>2015-07-04T07:45:09.000Z</time>
      </trkpt>
      <trkpt lat="45.01278" lon="5.59331">
        <ele>1399.1</ele>
        <time>2015-07-04T07:45:13.000Z</time>
      </trkpt>
      <trkpt lat="45.01275" lon="5.59327">
        <ele>1399.8</ele>
        <time>2015-07-04T07:45:18.000Z</time>
      </trkpt>
      <trkpt lat="45.01269" lon="5.5932">
        <ele>1401.5</ele>
        <time>2015-07-04T07:45:23.000Z</time>
      </trkpt>
      <trkpt lat="45.01266" lon="5.59317">
        <ele>1402.3</ele>
        <time>2015-07-04T07:45:27.000Z</time>
      </trkpt>
      <trkpt lat="45.01264" lon="5.59316">
        <ele>1402.1</ele>
        <time>2015-07-04T07:45:28.000Z</time>
      </trkpt>
      <trkpt lat="45.0126" lon="5.59311">
        <ele>1403</ele>
        <time>2015-07-04T07:45:31.000Z</time>
      </trkpt>
      <trkpt lat="45.01256" lon="5.59311">
        <ele>1402.3</ele>
        <time>2015-07-04T07:45:35.000Z</time>
      </trkpt>
      <trkpt lat="45.01255" lon="5.59308">
        <ele>1403.1</ele>
        <time>2015-07-04T07:45:40.000Z</time>
      </trkpt>
      <trkpt lat="45.01252" lon="5.59302">
        <ele>1405</ele>
        <time>2015-07-04T07:45:44.000Z</time>
      </trkpt>
      <trkpt lat="45.0125" lon="5.59298">
        <ele>1406.3</ele>
        <time>2015-07-04T07:45:48.000Z</time>
      </trkpt>
      <trkpt lat="45.01248" lon="5.59293">
        <ele>1407.6</ele>
        <time>2015-07-04T07:45:52.000Z</time>
      </trkpt>
      <trkpt lat="45.01247" lon="5.59293">
        <ele>1407.3</ele>
        <time>2015-07-04T07:45:53.000Z</time>
      </trkpt>
      <trkpt lat="45.01243" lon="5.59289">
        <ele>1407.9</ele>
        <time>2015-07-04T07:45:58.000Z</time>
      </trkpt>
      <trkpt lat="45.01238" lon="5.59282">
        <ele>1408.9</ele>
        <time>2015-07-04T07:46:03.000Z</time>
      </trkpt>
      <trkpt lat="45.01237" lon="5.5928">
        <ele>1409.2</ele>
        <time>2015-07-04T07:46:05.000Z</time>
      </trkpt>
      <trkpt lat="45.01233" lon="5.59278">
        <ele>1408.8</ele>
        <time>2015-07-04T07:46:08.000Z</time>
      </trkpt>
      <trkpt lat="45.01232" lon="5.59276">
        <ele>1409.2</ele>
        <time>2015-07-04T07:46:09.000Z</time>
      </trkpt>
      <trkpt lat="45.01228" lon="5.59271">
        <ele>1409.8</ele>
        <time>2015-07-04T07:46:13.000Z</time>
      </trkpt>
      <trkpt lat="45.01226" lon="5.59268">
        <ele>1410</ele>
        <time>2015-07-04T07:46:17.000Z</time>
      </trkpt>
      <trkpt lat="45.01225" lon="5.59267">
        <ele>1410</ele>
        <time>2015-07-04T07:46:18.000Z</time>
      </trkpt>
      <trkpt lat="45.01224" lon="5.59267">
        <ele>1410</ele>
        <time>2015-07-04T07:46:19.000Z</time>
      </trkpt>
      <trkpt lat="45.01221" lon="5.59259">
        <ele>1412.3</ele>
        <time>2015-07-04T07:46:25.000Z</time>
      </trkpt>
      <trkpt lat="45.01221" lon="5.59257">
        <ele>1412.5</ele>
        <time>2015-07-04T07:46:26.000Z</time>
      </trkpt>
      <trkpt lat="45.01217" lon="5.59249">
        <ele>1414.3</ele>
        <time>2015-07-04T07:46:31.000Z</time>
      </trkpt>
      <trkpt lat="45.01217" lon="5.59248">
        <ele>1414.4</ele>
        <time>2015-07-04T07:46:32.000Z</time>
      </trkpt>
      <trkpt lat="45.01215" lon="5.59243">
        <ele>1415.2</ele>
        <time>2015-07-04T07:46:35.000Z</time>
      </trkpt>
      <trkpt lat="45.01214" lon="5.59241">
        <ele>1415.4</ele>
        <time>2015-07-04T07:46:37.000Z</time>
      </trkpt>
      <trkpt lat="45.01213" lon="5.59239">
        <ele>1415.7</ele>
        <time>2015-07-04T07:46:39.000Z</time>
      </trkpt>
      <trkpt lat="45.0121" lon="5.59237">
        <ele>1414.8</ele>
        <time>2015-07-04T07:46:42.000Z</time>
      </trkpt>
      <trkpt lat="45.01208" lon="5.59234">
        <ele>1415.3</ele>
        <time>2015-07-04T07:46:45.000Z</time>
      </trkpt>
      <trkpt lat="45.01207" lon="5.59229">
        <ele>1416.4</ele>
        <time>2015-07-04T07:46:48.000Z</time>
      </trkpt>
      <trkpt lat="45.01202" lon="5.59223">
        <ele>1416.4</ele>
        <time>2015-07-04T07:46:53.000Z</time>
      </trkpt>
      <trkpt lat="45.01202" lon="5.59222">
        <ele>1416.5</ele>
        <time>2015-07-04T07:46:54.000Z</time>
      </trkpt>
      <trkpt lat="45.012" lon="5.59218">
        <ele>1416.8</ele>
        <time>2015-07-04T07:46:59.000Z</time>
      </trkpt>
      <trkpt lat="45.01196" lon="5.59213">
        <ele>1416.5</ele>
        <time>2015-07-04T07:47:04.000Z</time>
      </trkpt>
      <trkpt lat="45.01193" lon="5.59203">
        <ele>1418.4</ele>
        <time>2015-07-04T07:47:10.000Z</time>
      </trkpt>
      <trkpt lat="45.01187" lon="5.59192">
        <ele>1419.5</ele>
        <time>2015-07-04T07:47:17.000Z</time>
      </trkpt>
      <trkpt lat="45.01188" lon="5.5918">
        <ele>1423.2</ele>
        <time>2015-07-04T07:47:24.000Z</time>
      </trkpt>
      <trkpt lat="45.01187" lon="5.59175">
        <ele>1424.3</ele>
        <time>2015-07-04T07:47:26.000Z</time>
      </trkpt>
      <trkpt lat="45.01187" lon="5.5917">
        <ele>1425.9</ele>
        <time>2015-07-04T07:47:30.000Z</time>
      </trkpt>
      <trkpt lat="45.01186" lon="5.59167">
        <ele>1426.1</ele>
        <time>2015-07-04T07:47:32.000Z</time>
      </trkpt>
      <trkpt lat="45.01185" lon="5.59164">
        <ele>1426.4</ele>
        <time>2015-07-04T07:47:35.000Z</time>
      </trkpt>
      <trkpt lat="45.01182" lon="5.59161">
        <ele>1426.5</ele>
        <time>2015-07-04T07:47:38.000Z</time>
      </trkpt>
      <trkpt lat="45.01182" lon="5.59157">
        <ele>1427.2</ele>
        <time>2015-07-04T07:47:41.000Z</time>
      </trkpt>
      <trkpt lat="45.0118" lon="5.59157">
        <ele>1426.8</ele>
        <time>2015-07-04T07:47:42.000Z</time>
      </trkpt>
      <trkpt lat="45.01177" lon="5.59151">
        <ele>1426.6</ele>
        <time>2015-07-04T07:47:47.000Z</time>
      </trkpt>
      <trkpt lat="45.01174" lon="5.59145">
        <ele>1427.2</ele>
        <time>2015-07-04T07:47:52.000Z</time>
      </trkpt>
      <trkpt lat="45.01174" lon="5.59142">
        <ele>1427.6</ele>
        <time>2015-07-04T07:47:54.000Z</time>
      </trkpt>
      <trkpt lat="45.01172" lon="5.59138">
        <ele>1427.8</ele>
        <time>2015-07-04T07:47:58.000Z</time>
      </trkpt>
      <trkpt lat="45.01173" lon="5.59137">
        <ele>1428.5</ele>
        <time>2015-07-04T07:47:59.000Z</time>
      </trkpt>
      <trkpt lat="45.01172" lon="5.59131">
        <ele>1430</ele>
        <time>2015-07-04T07:48:02.000Z</time>
      </trkpt>
      <trkpt lat="45.01172" lon="5.5913">
        <ele>1430.4</ele>
        <time>2015-07-04T07:48:03.000Z</time>
      </trkpt>
      <trkpt lat="45.01172" lon="5.59127">
        <ele>1431.1</ele>
        <time>2015-07-04T07:48:05.000Z</time>
      </trkpt>
      <trkpt lat="45.0117" lon="5.59123">
        <ele>1431.1</ele>
        <time>2015-07-04T07:48:08.000Z</time>
      </trkpt>
      <trkpt lat="45.01169" lon="5.5912">
        <ele>1431.5</ele>
        <time>2015-07-04T07:48:10.000Z</time>
      </trkpt>
      <trkpt lat="45.01169" lon="5.59112">
        <ele>1433.7</ele>
        <time>2015-07-04T07:48:15.000Z</time>
      </trkpt>
      <trkpt lat="45.01168" lon="5.59108">
        <ele>1434.4</ele>
        <time>2015-07-04T07:48:19.000Z</time>
      </trkpt>
      <trkpt lat="45.01167" lon="5.59107">
        <ele>1434.6</ele>
        <time>2015-07-04T07:48:20.000Z</time>
      </trkpt>
      <trkpt lat="45.01167" lon="5.59098">
        <ele>1436.3</ele>
        <time>2015-07-04T07:48:25.000Z</time>
      </trkpt>
      <trkpt lat="45.01167" lon="5.59097">
        <ele>1436.9</ele>
        <time>2015-07-04T07:48:26.000Z</time>
      </trkpt>
      <trkpt lat="45.01168" lon="5.59094">
        <ele>1438</ele>
        <time>2015-07-04T07:48:29.000Z</time>
      </trkpt>
      <trkpt lat="45.01165" lon="5.59087">
        <ele>1438.1</ele>
        <time>2015-07-04T07:48:34.000Z</time>
      </trkpt>
      <trkpt lat="45.01164" lon="5.59081">
        <ele>1439.1</ele>
        <time>2015-07-04T07:48:37.000Z</time>
      </trkpt>
      <trkpt lat="45.01163" lon="5.59079">
        <ele>1439</ele>
        <time>2015-07-04T07:48:40.000Z</time>
      </trkpt>
      <trkpt lat="45.01164" lon="5.59077">
        <ele>1440</ele>
        <time>2015-07-04T07:48:41.000Z</time>
      </trkpt>
      <trkpt lat="45.01163" lon="5.59072">
        <ele>1441</ele>
        <time>2015-07-04T07:48:45.000Z</time>
      </trkpt>
      <trkpt lat="45.01164" lon="5.5907">
        <ele>1441.9</ele>
        <time>2015-07-04T07:48:46.000Z</time>
      </trkpt>
      <trkpt lat="45.01164" lon="5.59067">
        <ele>1442.3</ele>
        <time>2015-07-04T07:48:49.000Z</time>
      </trkpt>
      <trkpt lat="45.01163" lon="5.59066">
        <ele>1442.6</ele>
        <time>2015-07-04T07:48:50.000Z</time>
      </trkpt>
      <trkpt lat="45.01162" lon="5.59061">
        <ele>1443.2</ele>
        <time>2015-07-04T07:48:54.000Z</time>
      </trkpt>
      <trkpt lat="45.01158" lon="5.59058">
        <ele>1441.8</ele>
        <time>2015-07-04T07:48:57.000Z</time>
      </trkpt>
      <trkpt lat="45.01158" lon="5.59057">
        <ele>1441.6</ele>
        <time>2015-07-04T07:48:58.000Z</time>
      </trkpt>
      <trkpt lat="45.01154" lon="5.59047">
        <ele>1442.7</ele>
        <time>2015-07-04T07:49:04.000Z</time>
      </trkpt>
      <trkpt lat="45.01156" lon="5.59045">
        <ele>1443.8</ele>
        <time>2015-07-04T07:49:05.000Z</time>
      </trkpt>
      <trkpt lat="45.01153" lon="5.59042">
        <ele>1443</ele>
        <time>2015-07-04T07:49:09.000Z</time>
      </trkpt>
      <trkpt lat="45.0115" lon="5.59036">
        <ele>1443.1</ele>
        <time>2015-07-04T07:49:14.000Z</time>
      </trkpt>
      <trkpt lat="45.01149" lon="5.59034">
        <ele>1442.9</ele>
        <time>2015-07-04T07:49:16.000Z</time>
      </trkpt>
      <trkpt lat="45.01146" lon="5.59028">
        <ele>1443.2</ele>
        <time>2015-07-04T07:49:20.000Z</time>
      </trkpt>
      <trkpt lat="45.01146" lon="5.59023">
        <ele>1444.5</ele>
        <time>2015-07-04T07:49:22.000Z</time>
      </trkpt>
      <trkpt lat="45.01147" lon="5.59017">
        <ele>1446.2</ele>
        <time>2015-07-04T07:49:25.000Z</time>
      </trkpt>
      <trkpt lat="45.01146" lon="5.59013">
        <ele>1447</ele>
        <time>2015-07-04T07:49:28.000Z</time>
      </trkpt>
      <trkpt lat="45.01146" lon="5.5901">
        <ele>1447.7</ele>
        <time>2015-07-04T07:49:30.000Z</time>
      </trkpt>
      <trkpt lat="45.01144" lon="5.59006">
        <ele>1447.6</ele>
        <time>2015-07-04T07:49:33.000Z</time>
      </trkpt>
      <trkpt lat="45.01144" lon="5.59">
        <ele>1449.1</ele>
        <time>2015-07-04T07:49:37.000Z</time>
      </trkpt>
      <trkpt lat="45.01143" lon="5.58992">
        <ele>1450.5</ele>
        <time>2015-07-04T07:49:43.000Z</time>
      </trkpt>
      <trkpt lat="45.01143" lon="5.58988">
        <ele>1451.6</ele>
        <time>2015-07-04T07:49:46.000Z</time>
      </trkpt>
      <trkpt lat="45.01143" lon="5.58986">
        <ele>1452.4</ele>
        <time>2015-07-04T07:49:47.000Z</time>
      </trkpt>
      <trkpt lat="45.01144" lon="5.58985">
        <ele>1452.9</ele>
        <time>2015-07-04T07:49:48.000Z</time>
      </trkpt>
      <trkpt lat="45.01145" lon="5.58982">
        <ele>1454.7</ele>
        <time>2015-07-04T07:49:50.000Z</time>
      </trkpt>
      <trkpt lat="45.01146" lon="5.58979">
        <ele>1456.1</ele>
        <time>2015-07-04T07:49:53.000Z</time>
      </trkpt>
      <trkpt lat="45.01146" lon="5.58978">
        <ele>1456.3</ele>
        <time>2015-07-04T07:49:54.000Z</time>
      </trkpt>
      <trkpt lat="45.01146" lon="5.58974">
        <ele>1457.1</ele>
        <time>2015-07-04T07:49:57.000Z</time>
      </trkpt>
      <trkpt lat="45.01144" lon="5.5897">
        <ele>1457.3</ele>
        <time>2015-07-04T07:50:00.000Z</time>
      </trkpt>
      <trkpt lat="45.01143" lon="5.58968">
        <ele>1457.3</ele>
        <time>2015-07-04T07:50:02.000Z</time>
      </trkpt>
      <trkpt lat="45.01143" lon="5.58964">
        <ele>1458.9</ele>
        <time>2015-07-04T07:50:07.000Z</time>
      </trkpt>
      <trkpt lat="45.01141" lon="5.58964">
        <ele>1457.6</ele>
        <time>2015-07-04T07:50:11.000Z</time>
      </trkpt>
      <trkpt lat="45.01141" lon="5.58961">
        <ele>1458.8</ele>
        <time>2015-07-04T07:50:13.000Z</time>
      </trkpt>
      <trkpt lat="45.01142" lon="5.5896">
        <ele>1459.7</ele>
        <time>2015-07-04T07:50:21.000Z</time>
      </trkpt>
      <trkpt lat="45.0114" lon="5.58952">
        <ele>1461.5</ele>
        <time>2015-07-04T07:50:26.000Z</time>
      </trkpt>
      <trkpt lat="45.0114" lon="5.58949">
        <ele>1462</ele>
        <time>2015-07-04T07:50:30.000Z</time>
      </trkpt>
      <trkpt lat="45.01137" lon="5.58943">
        <ele>1462.5</ele>
        <time>2015-07-04T07:50:35.000Z</time>
      </trkpt>
      <trkpt lat="45.01136" lon="5.58939">
        <ele>1463.6</ele>
        <time>2015-07-04T07:50:39.000Z</time>
      </trkpt>
      <trkpt lat="45.01136" lon="5.58937">
        <ele>1464.1</ele>
        <time>2015-07-04T07:50:41.000Z</time>
      </trkpt>
      <trkpt lat="45.01135" lon="5.58935">
        <ele>1464.3</ele>
        <time>2015-07-04T07:50:44.000Z</time>
      </trkpt>
      <trkpt lat="45.01133" lon="5.58933">
        <ele>1464.5</ele>
        <time>2015-07-04T07:50:47.000Z</time>
      </trkpt>
      <trkpt lat="45.01133" lon="5.58932">
        <ele>1464.9</ele>
        <time>2015-07-04T07:50:49.000Z</time>
      </trkpt>
      <trkpt lat="45.01131" lon="5.58929">
        <ele>1465.1</ele>
        <time>2015-07-04T07:50:55.000Z</time>
      </trkpt>
      <trkpt lat="45.0113" lon="5.58925">
        <ele>1465.8</ele>
        <time>2015-07-04T07:50:59.000Z</time>
      </trkpt>
      <trkpt lat="45.01129" lon="5.58922">
        <ele>1466.3</ele>
        <time>2015-07-04T07:51:04.000Z</time>
      </trkpt>
      <trkpt lat="45.01129" lon="5.58917">
        <ele>1468.2</ele>
        <time>2015-07-04T07:51:09.000Z</time>
      </trkpt>
      <trkpt lat="45.01129" lon="5.58914">
        <ele>1468.9</ele>
        <time>2015-07-04T07:51:14.000Z</time>
      </trkpt>
      <trkpt lat="45.01127" lon="5.58913">
        <ele>1469.1</ele>
        <time>2015-07-04T07:51:18.000Z</time>
      </trkpt>
      <trkpt lat="45.01128" lon="5.58909">
        <ele>1470.7</ele>
        <time>2015-07-04T07:51:23.000Z</time>
      </trkpt>
      <trkpt lat="45.01127" lon="5.58904">
        <ele>1471.9</ele>
        <time>2015-07-04T07:51:30.000Z</time>
      </trkpt>
      <trkpt lat="45.01125" lon="5.58902">
        <ele>1472.3</ele>
        <time>2015-07-04T07:51:34.000Z</time>
      </trkpt>
      <trkpt lat="45.01124" lon="5.58898">
        <ele>1473.3</ele>
        <time>2015-07-04T07:51:38.000Z</time>
      </trkpt>
      <trkpt lat="45.01125" lon="5.58895">
        <ele>1474.8</ele>
        <time>2015-07-04T07:51:43.000Z</time>
      </trkpt>
      <trkpt lat="45.01122" lon="5.58892">
        <ele>1475.1</ele>
        <time>2015-07-04T07:51:48.000Z</time>
      </trkpt>
      <trkpt lat="45.01119" lon="5.58889">
        <ele>1475.3</ele>
        <time>2015-07-04T07:51:53.000Z</time>
      </trkpt>
      <trkpt lat="45.01117" lon="5.58887">
        <ele>1475.5</ele>
        <time>2015-07-04T07:51:57.000Z</time>
      </trkpt>
      <trkpt lat="45.01115" lon="5.58882">
        <ele>1476.8</ele>
        <time>2015-07-04T07:52:01.000Z</time>
      </trkpt>
      <trkpt lat="45.01117" lon="5.58878">
        <ele>1478.9</ele>
        <time>2015-07-04T07:52:05.000Z</time>
      </trkpt>
      <trkpt lat="45.01117" lon="5.58875">
        <ele>1480.2</ele>
        <time>2015-07-04T07:52:09.000Z</time>
      </trkpt>
      <trkpt lat="45.01116" lon="5.58872">
        <ele>1481</ele>
        <time>2015-07-04T07:52:13.000Z</time>
      </trkpt>
      <trkpt lat="45.01115" lon="5.58871">
        <ele>1481.3</ele>
        <time>2015-07-04T07:52:14.000Z</time>
      </trkpt>
      <trkpt lat="45.01114" lon="5.58867">
        <ele>1482.5</ele>
        <time>2015-07-04T07:52:17.000Z</time>
      </trkpt>
      <trkpt lat="45.01114" lon="5.58866">
        <ele>1483</ele>
        <time>2015-07-04T07:52:18.000Z</time>
      </trkpt>
      <trkpt lat="45.01113" lon="5.58861">
        <ele>1484.4</ele>
        <time>2015-07-04T07:52:23.000Z</time>
      </trkpt>
      <trkpt lat="45.01113" lon="5.5886">
        <ele>1485</ele>
        <time>2015-07-04T07:52:24.000Z</time>
      </trkpt>
      <trkpt lat="45.01112" lon="5.58857">
        <ele>1485.8</ele>
        <time>2015-07-04T07:52:27.000Z</time>
      </trkpt>
      <trkpt lat="45.0111" lon="5.58853">
        <ele>1486.9</ele>
        <time>2015-07-04T07:52:31.000Z</time>
      </trkpt>
      <trkpt lat="45.01108" lon="5.58848">
        <ele>1488.2</ele>
        <time>2015-07-04T07:52:36.000Z</time>
      </trkpt>
      <trkpt lat="45.01106" lon="5.58843">
        <ele>1489.9</ele>
        <time>2015-07-04T07:52:41.000Z</time>
      </trkpt>
      <trkpt lat="45.011" lon="5.58835">
        <ele>1491.5</ele>
        <time>2015-07-04T07:52:53.000Z</time>
      </trkpt>
      <trkpt lat="45.01098" lon="5.58831">
        <ele>1492.8</ele>
        <time>2015-07-04T07:52:57.000Z</time>
      </trkpt>
      <trkpt lat="45.01097" lon="5.58827">
        <ele>1494</ele>
        <time>2015-07-04T07:53:01.000Z</time>
      </trkpt>
      <trkpt lat="45.01096" lon="5.58823">
        <ele>1495.2</ele>
        <time>2015-07-04T07:53:04.000Z</time>
      </trkpt>
      <trkpt lat="45.01094" lon="5.58822">
        <ele>1495.3</ele>
        <time>2015-07-04T07:53:06.000Z</time>
      </trkpt>
      <trkpt lat="45.01092" lon="5.58819">
        <ele>1496.1</ele>
        <time>2015-07-04T07:53:10.000Z</time>
      </trkpt>
      <trkpt lat="45.01091" lon="5.58818">
        <ele>1496.4</ele>
        <time>2015-07-04T07:53:11.000Z</time>
      </trkpt>
      <trkpt lat="45.01089" lon="5.58813">
        <ele>1497.7</ele>
        <time>2015-07-04T07:53:16.000Z</time>
      </trkpt>
      <trkpt lat="45.01089" lon="5.58813">
        <ele>1497.8</ele>
        <time>2015-07-04T07:53:17.000Z</time>
      </trkpt>
      <trkpt lat="45.01088" lon="5.58811">
        <ele>1498.1</ele>
        <time>2015-07-04T07:53:19.000Z</time>
      </trkpt>
      <trkpt lat="45.01088" lon="5.58811">
        <ele>1498.1</ele>
        <time>2015-07-04T07:53:21.000Z</time>
      </trkpt>
      <trkpt lat="45.01085" lon="5.58808">
        <ele>1498.4</ele>
        <time>2015-07-04T07:53:25.000Z</time>
      </trkpt>
      <trkpt lat="45.01084" lon="5.58807">
        <ele>1498.8</ele>
        <time>2015-07-04T07:53:26.000Z</time>
      </trkpt>
      <trkpt lat="45.01082" lon="5.58804">
        <ele>1499.2</ele>
        <time>2015-07-04T07:53:29.000Z</time>
      </trkpt>
      <trkpt lat="45.01081" lon="5.58803">
        <ele>1499.5</ele>
        <time>2015-07-04T07:53:30.000Z</time>
      </trkpt>
      <trkpt lat="45.01078" lon="5.58798">
        <ele>1501.2</ele>
        <time>2015-07-04T07:53:35.000Z</time>
      </trkpt>
      <trkpt lat="45.01075" lon="5.58793">
        <ele>1502.6</ele>
        <time>2015-07-04T07:53:40.000Z</time>
      </trkpt>
      <trkpt lat="45.01074" lon="5.58791">
        <ele>1503.1</ele>
        <time>2015-07-04T07:53:41.000Z</time>
      </trkpt>
      <trkpt lat="45.01071" lon="5.58787">
        <ele>1504.1</ele>
        <time>2015-07-04T07:53:45.000Z</time>
      </trkpt>
      <trkpt lat="45.0107" lon="5.58785">
        <ele>1504.6</ele>
        <time>2015-07-04T07:53:46.000Z</time>
      </trkpt>
      <trkpt lat="45.01068" lon="5.58781">
        <ele>1505.8</ele>
        <time>2015-07-04T07:53:50.000Z</time>
      </trkpt>
      <trkpt lat="45.01064" lon="5.58775">
        <ele>1507</ele>
        <time>2015-07-04T07:53:55.000Z</time>
      </trkpt>
      <trkpt lat="45.0106" lon="5.58771">
        <ele>1507.6</ele>
        <time>2015-07-04T07:54:00.000Z</time>
      </trkpt>
      <trkpt lat="45.01055" lon="5.58766">
        <ele>1508.7</ele>
        <time>2015-07-04T07:54:06.000Z</time>
      </trkpt>
      <trkpt lat="45.01055" lon="5.58765">
        <ele>1508.8</ele>
        <time>2015-07-04T07:54:07.000Z</time>
      </trkpt>
      <trkpt lat="45.01051" lon="5.58761">
        <ele>1509.7</ele>
        <time>2015-07-04T07:54:12.000Z</time>
      </trkpt>
      <trkpt lat="45.01051" lon="5.5876">
        <ele>1509.9</ele>
        <time>2015-07-04T07:54:13.000Z</time>
      </trkpt>
      <trkpt lat="45.01049" lon="5.58758">
        <ele>1510.5</ele>
        <time>2015-07-04T07:54:16.000Z</time>
      </trkpt>
      <trkpt lat="45.01047" lon="5.58755">
        <ele>1511.3</ele>
        <time>2015-07-04T07:54:20.000Z</time>
      </trkpt>
      <trkpt lat="45.01045" lon="5.58753">
        <ele>1512</ele>
        <time>2015-07-04T07:54:24.000Z</time>
      </trkpt>
      <trkpt lat="45.01042" lon="5.5875">
        <ele>1512.8</ele>
        <time>2015-07-04T07:54:28.000Z</time>
      </trkpt>
      <trkpt lat="45.01041" lon="5.58747">
        <ele>1513.6</ele>
        <time>2015-07-04T07:54:32.000Z</time>
      </trkpt>
      <trkpt lat="45.01037" lon="5.58743">
        <ele>1514.6</ele>
        <time>2015-07-04T07:54:37.000Z</time>
      </trkpt>
      <trkpt lat="45.01033" lon="5.58738">
        <ele>1516</ele>
        <time>2015-07-04T07:54:42.000Z</time>
      </trkpt>
      <trkpt lat="45.01031" lon="5.58735">
        <ele>1517.2</ele>
        <time>2015-07-04T07:54:46.000Z</time>
      </trkpt>
      <trkpt lat="45.0103" lon="5.58734">
        <ele>1517.4</ele>
        <time>2015-07-04T07:54:47.000Z</time>
      </trkpt>
      <trkpt lat="45.01028" lon="5.58731">
        <ele>1518.2</ele>
        <time>2015-07-04T07:54:50.000Z</time>
      </trkpt>
      <trkpt lat="45.01025" lon="5.58728">
        <ele>1519.1</ele>
        <time>2015-07-04T07:54:54.000Z</time>
      </trkpt>
      <trkpt lat="45.01023" lon="5.58725">
        <ele>1519.7</ele>
        <time>2015-07-04T07:54:57.000Z</time>
      </trkpt>
      <trkpt lat="45.01021" lon="5.58723">
        <ele>1520.5</ele>
        <time>2015-07-04T07:55:00.000Z</time>
      </trkpt>
      <trkpt lat="45.01019" lon="5.58719">
        <ele>1521.5</ele>
        <time>2015-07-04T07:55:03.000Z</time>
      </trkpt>
      <trkpt lat="45.01017" lon="5.58716">
        <ele>1522.7</ele>
        <time>2015-07-04T07:55:07.000Z</time>
      </trkpt>
      <trkpt lat="45.01014" lon="5.58712">
        <ele>1523.7</ele>
        <time>2015-07-04T07:55:11.000Z</time>
      </trkpt>
      <trkpt lat="45.0101" lon="5.58707">
        <ele>1525.3</ele>
        <time>2015-07-04T07:55:16.000Z</time>
      </trkpt>
      <trkpt lat="45.01007" lon="5.58702">
        <ele>1526.9</ele>
        <time>2015-07-04T07:55:22.000Z</time>
      </trkpt>
      <trkpt lat="45.01004" lon="5.58698">
        <ele>1527.9</ele>
        <time>2015-07-04T07:55:26.000Z</time>
      </trkpt>
      <trkpt lat="45.01002" lon="5.58697">
        <ele>1528.1</ele>
        <time>2015-07-04T07:55:28.000Z</time>
      </trkpt>
      <trkpt lat="45.01002" lon="5.58697">
        <ele>1528</ele>
        <time>2015-07-04T07:55:29.000Z</time>
      </trkpt>
      <trkpt lat="45.01" lon="5.58696">
        <ele>1528.4</ele>
        <time>2015-07-04T07:55:31.000Z</time>
      </trkpt>
      <trkpt lat="45.00999" lon="5.58694">
        <ele>1528.8</ele>
        <time>2015-07-04T07:55:33.000Z</time>
      </trkpt>
      <trkpt lat="45.00998" lon="5.58692">
        <ele>1529.5</ele>
        <time>2015-07-04T07:55:35.000Z</time>
      </trkpt>
      <trkpt lat="45.00997" lon="5.5869">
        <ele>1530.4</ele>
        <time>2015-07-04T07:55:38.000Z</time>
      </trkpt>
      <trkpt lat="45.00996" lon="5.58689">
        <ele>1530.6</ele>
        <time>2015-07-04T07:55:39.000Z</time>
      </trkpt>
      <trkpt lat="45.00994" lon="5.58687">
        <ele>1531.3</ele>
        <time>2015-07-04T07:55:42.000Z</time>
      </trkpt>
      <trkpt lat="45.00991" lon="5.58685">
        <ele>1531.5</ele>
        <time>2015-07-04T07:55:46.000Z</time>
      </trkpt>
      <trkpt lat="45.00989" lon="5.58683">
        <ele>1532.1</ele>
        <time>2015-07-04T07:55:49.000Z</time>
      </trkpt>
      <trkpt lat="45.00989" lon="5.58682">
        <ele>1532.1</ele>
        <time>2015-07-04T07:55:50.000Z</time>
      </trkpt>
      <trkpt lat="45.00987" lon="5.58679">
        <ele>1533.5</ele>
        <time>2015-07-04T07:55:55.000Z</time>
      </trkpt>
      <trkpt lat="45.00986" lon="5.58676">
        <ele>1534.4</ele>
        <time>2015-07-04T07:56:00.000Z</time>
      </trkpt>
      <trkpt lat="45.00983" lon="5.58673">
        <ele>1535.5</ele>
        <time>2015-07-04T07:56:06.000Z</time>
      </trkpt>
      <trkpt lat="45.00981" lon="5.5867">
        <ele>1536.2</ele>
        <time>2015-07-04T07:56:10.000Z</time>
      </trkpt>
      <trkpt lat="45.00977" lon="5.58668">
        <ele>1536.3</ele>
        <time>2015-07-04T07:56:15.000Z</time>
      </trkpt>
      <trkpt lat="45.00974" lon="5.58664">
        <ele>1537.3</ele>
        <time>2015-07-04T07:56:19.000Z</time>
      </trkpt>
      <trkpt lat="45.00971" lon="5.58659">
        <ele>1539</ele>
        <time>2015-07-04T07:56:23.000Z</time>
      </trkpt>
      <trkpt lat="45.0097" lon="5.58656">
        <ele>1540.3</ele>
        <time>2015-07-04T07:56:26.000Z</time>
      </trkpt>
      <trkpt lat="45.00969" lon="5.58654">
        <ele>1541.2</ele>
        <time>2015-07-04T07:56:29.000Z</time>
      </trkpt>
      <trkpt lat="45.00965" lon="5.58654">
        <ele>1540.9</ele>
        <time>2015-07-04T07:56:34.000Z</time>
      </trkpt>
      <trkpt lat="45.0096" lon="5.5865">
        <ele>1542.2</ele>
        <time>2015-07-04T07:56:39.000Z</time>
      </trkpt>
      <trkpt lat="45.00957" lon="5.58648">
        <ele>1543</ele>
        <time>2015-07-04T07:56:43.000Z</time>
      </trkpt>
      <trkpt lat="45.00955" lon="5.58644">
        <ele>1544.4</ele>
        <time>2015-07-04T07:56:46.000Z</time>
      </trkpt>
      <trkpt lat="45.00952" lon="5.58643">
        <ele>1544.6</ele>
        <time>2015-07-04T07:56:49.000Z</time>
      </trkpt>
      <trkpt lat="45.00951" lon="5.58643">
        <ele>1544.7</ele>
        <time>2015-07-04T07:56:50.000Z</time>
      </trkpt>
      <trkpt lat="45.00943" lon="5.5864">
        <ele>1545.6</ele>
        <time>2015-07-04T07:56:57.000Z</time>
      </trkpt>
      <trkpt lat="45.00942" lon="5.58639">
        <ele>1545.8</ele>
        <time>2015-07-04T07:56:59.000Z</time>
      </trkpt>
      <trkpt lat="45.0094" lon="5.58639">
        <ele>1545.8</ele>
        <time>2015-07-04T07:57:00.000Z</time>
      </trkpt>
      <trkpt lat="45.00939" lon="5.58638">
        <ele>1546.1</ele>
        <time>2015-07-04T07:57:01.000Z</time>
      </trkpt>
      <trkpt lat="45.00933" lon="5.58637">
        <ele>1546.2</ele>
        <time>2015-07-04T07:57:07.000Z</time>
      </trkpt>
      <trkpt lat="45.00932" lon="5.58637">
        <ele>1546.2</ele>
        <time>2015-07-04T07:57:08.000Z</time>
      </trkpt>
      <trkpt lat="45.00931" lon="5.58636">
        <ele>1546.4</ele>
        <time>2015-07-04T07:57:10.000Z</time>
      </trkpt>
      <trkpt lat="45.0093" lon="5.58636">
        <ele>1546.4</ele>
        <time>2015-07-04T07:57:11.000Z</time>
      </trkpt>
      <trkpt lat="45.00926" lon="5.58637">
        <ele>1545.5</ele>
        <time>2015-07-04T07:57:15.000Z</time>
      </trkpt>
      <trkpt lat="45.00918" lon="5.58635">
        <ele>1545.8</ele>
        <time>2015-07-04T07:57:21.000Z</time>
      </trkpt>
      <trkpt lat="45.0091" lon="5.58634">
        <ele>1545.1</ele>
        <time>2015-07-04T07:57:27.000Z</time>
      </trkpt>
      <trkpt lat="45.00902" lon="5.5863">
        <ele>1545.7</ele>
        <time>2015-07-04T07:57:34.000Z</time>
      </trkpt>
      <trkpt lat="45.00893" lon="5.58628">
        <ele>1545.2</ele>
        <time>2015-07-04T07:57:41.000Z</time>
      </trkpt>
      <trkpt lat="45.00886" lon="5.58622">
        <ele>1546.6</ele>
        <time>2015-07-04T07:57:48.000Z</time>
      </trkpt>
      <trkpt lat="45.00885" lon="5.58621">
        <ele>1547</ele>
        <time>2015-07-04T07:57:49.000Z</time>
      </trkpt>
      <trkpt lat="45.00883" lon="5.58616">
        <ele>1548.7</ele>
        <time>2015-07-04T07:57:52.000Z</time>
      </trkpt>
      <trkpt lat="45.0088" lon="5.58611">
        <ele>1550.4</ele>
        <time>2015-07-04T07:57:56.000Z</time>
      </trkpt>
      <trkpt lat="45.00878" lon="5.58611">
        <ele>1550</ele>
        <time>2015-07-04T07:57:58.000Z</time>
      </trkpt>
      <trkpt lat="45.00877" lon="5.58611">
        <ele>1550.1</ele>
        <time>2015-07-04T07:58:00.000Z</time>
      </trkpt>
      <trkpt lat="45.00872" lon="5.58604">
        <ele>1551.6</ele>
        <time>2015-07-04T07:58:06.000Z</time>
      </trkpt>
      <trkpt lat="45.00871" lon="5.58602">
        <ele>1552.4</ele>
        <time>2015-07-04T07:58:07.000Z</time>
      </trkpt>
      <trkpt lat="45.00867" lon="5.58596">
        <ele>1554.1</ele>
        <time>2015-07-04T07:58:12.000Z</time>
      </trkpt>
      <trkpt lat="45.00866" lon="5.58595">
        <ele>1554.4</ele>
        <time>2015-07-04T07:58:13.000Z</time>
      </trkpt>
      <trkpt lat="45.0086" lon="5.58589">
        <ele>1555.6</ele>
        <time>2015-07-04T07:58:20.000Z</time>
      </trkpt>
      <trkpt lat="45.00852" lon="5.5859">
        <ele>1554.3</ele>
        <time>2015-07-04T07:58:27.000Z</time>
      </trkpt>
      <trkpt lat="45.00842" lon="5.58594">
        <ele>1551.4</ele>
        <time>2015-07-04T07:58:34.000Z</time>
      </trkpt>
      <trkpt lat="45.00833" lon="5.58593">
        <ele>1550.6</ele>
        <time>2015-07-04T07:58:41.000Z</time>
      </trkpt>
      <trkpt lat="45.00827" lon="5.58587">
        <ele>1552</ele>
        <time>2015-07-04T07:58:48.000Z</time>
      </trkpt>
      <trkpt lat="45.00826" lon="5.58587">
        <ele>1551.7</ele>
        <time>2015-07-04T07:58:50.000Z</time>
      </trkpt>
      <trkpt lat="45.00822" lon="5.58585">
        <ele>1552.1</ele>
        <time>2015-07-04T07:58:54.000Z</time>
      </trkpt>
      <trkpt lat="45.00821" lon="5.58584">
        <ele>1552.3</ele>
        <time>2015-07-04T07:58:56.000Z</time>
      </trkpt>
      <trkpt lat="45.0082" lon="5.58582">
        <ele>1553.3</ele>
        <time>2015-07-04T07:58:59.000Z</time>
      </trkpt>
      <trkpt lat="45.00811" lon="5.58567">
        <ele>1558.8</ele>
        <time>2015-07-04T07:59:16.000Z</time>
      </trkpt>
      <trkpt lat="45.00806" lon="5.58562">
        <ele>1560</ele>
        <time>2015-07-04T07:59:22.000Z</time>
      </trkpt>
      <trkpt lat="45.008" lon="5.58562">
        <ele>1559.9</ele>
        <time>2015-07-04T07:59:27.000Z</time>
      </trkpt>
      <trkpt lat="45.00799" lon="5.58562">
        <ele>1559.9</ele>
        <time>2015-07-04T07:59:28.000Z</time>
      </trkpt>
      <trkpt lat="45.00797" lon="5.5856">
        <ele>1561</ele>
        <time>2015-07-04T07:59:31.000Z</time>
      </trkpt>
      <trkpt lat="45.00794" lon="5.58558">
        <ele>1561.9</ele>
        <time>2015-07-04T07:59:34.000Z</time>
      </trkpt>
      <trkpt lat="45.00792" lon="5.58556">
        <ele>1562.6</ele>
        <time>2015-07-04T07:59:36.000Z</time>
      </trkpt>
      <trkpt lat="45.00791" lon="5.58556">
        <ele>1563</ele>
        <time>2015-07-04T07:59:37.000Z</time>
      </trkpt>
      <trkpt lat="45.00789" lon="5.58553">
        <ele>1564.2</ele>
        <time>2015-07-04T07:59:40.000Z</time>
      </trkpt>
      <trkpt lat="45.00787" lon="5.58552">
        <ele>1565</ele>
        <time>2015-07-04T07:59:42.000Z</time>
      </trkpt>
      <trkpt lat="45.00784" lon="5.58549">
        <ele>1566.6</ele>
        <time>2015-07-04T07:59:47.000Z</time>
      </trkpt>
      <trkpt lat="45.00783" lon="5.5855">
        <ele>1566.4</ele>
        <time>2015-07-04T07:59:48.000Z</time>
      </trkpt>
      <trkpt lat="45.0078" lon="5.58548">
        <ele>1567.6</ele>
        <time>2015-07-04T07:59:52.000Z</time>
      </trkpt>
      <trkpt lat="45.00778" lon="5.58547">
        <ele>1567.7</ele>
        <time>2015-07-04T07:59:53.000Z</time>
      </trkpt>
      <trkpt lat="45.00774" lon="5.58547">
        <ele>1568.5</ele>
        <time>2015-07-04T07:59:58.000Z</time>
      </trkpt>
      <trkpt lat="45.00769" lon="5.5855">
        <ele>1567.9</ele>
        <time>2015-07-04T08:00:03.000Z</time>
      </trkpt>
      <trkpt lat="45.00763" lon="5.58549">
        <ele>1569</ele>
        <time>2015-07-04T08:00:08.000Z</time>
      </trkpt>
      <trkpt lat="45.00758" lon="5.58551">
        <ele>1568.8</ele>
        <time>2015-07-04T08:00:14.000Z</time>
      </trkpt>
      <trkpt lat="45.00758" lon="5.58559">
        <ele>1565.2</ele>
        <time>2015-07-04T08:00:18.000Z</time>
      </trkpt>
      <trkpt lat="45.00758" lon="5.5856">
        <ele>1564.6</ele>
        <time>2015-07-04T08:00:19.000Z</time>
      </trkpt>
      <trkpt lat="45.00754" lon="5.58565">
        <ele>1563.4</ele>
        <time>2015-07-04T08:00:23.000Z</time>
      </trkpt>
      <trkpt lat="45.00752" lon="5.58566">
        <ele>1563.3</ele>
        <time>2015-07-04T08:00:25.000Z</time>
      </trkpt>
      <trkpt lat="45.00751" lon="5.58565">
        <ele>1563.8</ele>
        <time>2015-07-04T08:00:26.000Z</time>
      </trkpt>
      <trkpt lat="45.00747" lon="5.58564">
        <ele>1564.5</ele>
        <time>2015-07-04T08:00:30.000Z</time>
      </trkpt>
      <trkpt lat="45.00743" lon="5.58564">
        <ele>1565</ele>
        <time>2015-07-04T08:00:35.000Z</time>
      </trkpt>
      <trkpt lat="45.00742" lon="5.58559">
        <ele>1567.2</ele>
        <time>2015-07-04T08:00:40.000Z</time>
      </trkpt>
      <trkpt lat="45.00741" lon="5.58557">
        <ele>1568.1</ele>
        <time>2015-07-04T08:00:44.000Z</time>
      </trkpt>
      <trkpt lat="45.00737" lon="5.58557">
        <ele>1568.4</ele>
        <time>2015-07-04T08:00:49.000Z</time>
      </trkpt>
      <trkpt lat="45.00732" lon="5.58555">
        <ele>1569.7</ele>
        <time>2015-07-04T08:00:54.000Z</time>
      </trkpt>
      <trkpt lat="45.00726" lon="5.58551">
        <ele>1572.3</ele>
        <time>2015-07-04T08:01:01.000Z</time>
      </trkpt>
      <trkpt lat="45.00725" lon="5.58551">
        <ele>1572.1</ele>
        <time>2015-07-04T08:01:02.000Z</time>
      </trkpt>
      <trkpt lat="45.00721" lon="5.58549">
        <ele>1573.4</ele>
        <time>2015-07-04T08:01:06.000Z</time>
      </trkpt>
      <trkpt lat="45.00719" lon="5.58548">
        <ele>1574.1</ele>
        <time>2015-07-04T08:01:09.000Z</time>
      </trkpt>
      <trkpt lat="45.00716" lon="5.58545">
        <ele>1575.7</ele>
        <time>2015-07-04T08:01:12.000Z</time>
      </trkpt>
      <trkpt lat="45.00715" lon="5.58544">
        <ele>1576</ele>
        <time>2015-07-04T08:01:13.000Z</time>
      </trkpt>
      <trkpt lat="45.00714" lon="5.58538">
        <ele>1579.1</ele>
        <time>2015-07-04T08:01:18.000Z</time>
      </trkpt>
      <trkpt lat="45.00717" lon="5.5854">
        <ele>1578.4</ele>
        <time>2015-07-04T08:01:22.000Z</time>
      </trkpt>
      <trkpt lat="45.00723" lon="5.58537">
        <ele>1580</ele>
        <time>2015-07-04T08:01:28.000Z</time>
      </trkpt>
      <trkpt lat="45.00728" lon="5.58533">
        <ele>1582</ele>
        <time>2015-07-04T08:01:34.000Z</time>
      </trkpt>
      <trkpt lat="45.00732" lon="5.58528">
        <ele>1583.9</ele>
        <time>2015-07-04T08:01:39.000Z</time>
      </trkpt>
      <trkpt lat="45.00733" lon="5.58527">
        <ele>1584.8</ele>
        <time>2015-07-04T08:01:40.000Z</time>
      </trkpt>
      <trkpt lat="45.00737" lon="5.58522">
        <ele>1587.1</ele>
        <time>2015-07-04T08:01:45.000Z</time>
      </trkpt>
      <trkpt lat="45.00738" lon="5.58521">
        <ele>1587.6</ele>
        <time>2015-07-04T08:01:46.000Z</time>
      </trkpt>
      <trkpt lat="45.0074" lon="5.5852">
        <ele>1588.2</ele>
        <time>2015-07-04T08:01:49.000Z</time>
      </trkpt>
      <trkpt lat="45.00738" lon="5.58519">
        <ele>1588.7</ele>
        <time>2015-07-04T08:01:52.000Z</time>
      </trkpt>
      <trkpt lat="45.00732" lon="5.58517">
        <ele>1590.8</ele>
        <time>2015-07-04T08:01:58.000Z</time>
      </trkpt>
      <trkpt lat="45.00731" lon="5.58517">
        <ele>1590.8</ele>
        <time>2015-07-04T08:01:59.000Z</time>
      </trkpt>
      <trkpt lat="45.00726" lon="5.58518">
        <ele>1590.7</ele>
        <time>2015-07-04T08:02:03.000Z</time>
      </trkpt>
      <trkpt lat="45.00719" lon="5.58518">
        <ele>1591.3</ele>
        <time>2015-07-04T08:02:10.000Z</time>
      </trkpt>
      <trkpt lat="45.00716" lon="5.58512">
        <ele>1594.5</ele>
        <time>2015-07-04T08:02:15.000Z</time>
      </trkpt>
      <trkpt lat="45.00716" lon="5.5851">
        <ele>1595.5</ele>
        <time>2015-07-04T08:02:16.000Z</time>
      </trkpt>
      <trkpt lat="45.00714" lon="5.58504">
        <ele>1599.6</ele>
        <time>2015-07-04T08:02:21.000Z</time>
      </trkpt>
      <trkpt lat="45.00712" lon="5.58497">
        <ele>1603.2</ele>
        <time>2015-07-04T08:02:26.000Z</time>
      </trkpt>
      <trkpt lat="45.00711" lon="5.58493">
        <ele>1605.3</ele>
        <time>2015-07-04T08:02:29.000Z</time>
      </trkpt>
      <trkpt lat="45.00709" lon="5.58491">
        <ele>1605.9</ele>
        <time>2015-07-04T08:02:31.000Z</time>
      </trkpt>
      <trkpt lat="45.00708" lon="5.58491">
        <ele>1605.8</ele>
        <time>2015-07-04T08:02:32.000Z</time>
      </trkpt>
      <trkpt lat="45.00705" lon="5.58491">
        <ele>1605.7</ele>
        <time>2015-07-04T08:02:36.000Z</time>
      </trkpt>
      <trkpt lat="45.00703" lon="5.58491">
        <ele>1605.5</ele>
        <time>2015-07-04T08:02:37.000Z</time>
      </trkpt>
      <trkpt lat="45.007" lon="5.58492">
        <ele>1604.3</ele>
        <time>2015-07-04T08:02:40.000Z</time>
      </trkpt>
      <trkpt lat="45.00698" lon="5.5849">
        <ele>1605.2</ele>
        <time>2015-07-04T08:02:43.000Z</time>
      </trkpt>
      <trkpt lat="45.00698" lon="5.58491">
        <ele>1605.1</ele>
        <time>2015-07-04T08:02:44.000Z</time>
      </trkpt>
      <trkpt lat="45.00699" lon="5.5849">
        <ele>1605.9</ele>
        <time>2015-07-04T08:02:45.000Z</time>
      </trkpt>
      <trkpt lat="45.007" lon="5.58488">
        <ele>1606.8</ele>
        <time>2015-07-04T08:02:47.000Z</time>
      </trkpt>
      <trkpt lat="45.00701" lon="5.58487">
        <ele>1607.8</ele>
        <time>2015-07-04T08:02:49.000Z</time>
      </trkpt>
      <trkpt lat="45.00705" lon="5.58484">
        <ele>1609.4</ele>
        <time>2015-07-04T08:02:54.000Z</time>
      </trkpt>
      <trkpt lat="45.00708" lon="5.58482">
        <ele>1611.2</ele>
        <time>2015-07-04T08:02:58.000Z</time>
      </trkpt>
      <trkpt lat="45.00709" lon="5.58482">
        <ele>1611</ele>
        <time>2015-07-04T08:02:59.000Z</time>
      </trkpt>
      <trkpt lat="45.00713" lon="5.5848">
        <ele>1612.5</ele>
        <time>2015-07-04T08:03:04.000Z</time>
      </trkpt>
      <trkpt lat="45.00716" lon="5.58479">
        <ele>1613</ele>
        <time>2015-07-04T08:03:06.000Z</time>
      </trkpt>
      <trkpt lat="45.00717" lon="5.5848">
        <ele>1612.8</ele>
        <time>2015-07-04T08:03:08.000Z</time>
      </trkpt>
      <trkpt lat="45.00718" lon="5.58481">
        <ele>1612.3</ele>
        <time>2015-07-04T08:03:09.000Z</time>
      </trkpt>
      <trkpt lat="45.0072" lon="5.58483">
        <ele>1611.3</ele>
        <time>2015-07-04T08:03:12.000Z</time>
      </trkpt>
      <trkpt lat="45.00723" lon="5.58482">
        <ele>1611.8</ele>
        <time>2015-07-04T08:03:15.000Z</time>
      </trkpt>
      <trkpt lat="45.00723" lon="5.58482">
        <ele>1612</ele>
        <time>2015-07-04T08:03:16.000Z</time>
      </trkpt>
      <trkpt lat="45.00726" lon="5.58479">
        <ele>1612.6</ele>
        <time>2015-07-04T08:03:20.000Z</time>
      </trkpt>
      <trkpt lat="45.0073" lon="5.58474">
        <ele>1613.8</ele>
        <time>2015-07-04T08:03:25.000Z</time>
      </trkpt>
      <trkpt lat="45.00732" lon="5.58471">
        <ele>1614.9</ele>
        <time>2015-07-04T08:03:30.000Z</time>
      </trkpt>
      <trkpt lat="45.00729" lon="5.58471">
        <ele>1615.8</ele>
        <time>2015-07-04T08:03:34.000Z</time>
      </trkpt>
      <trkpt lat="45.00723" lon="5.58471">
        <ele>1617.4</ele>
        <time>2015-07-04T08:03:39.000Z</time>
      </trkpt>
      <trkpt lat="45.00714" lon="5.58467">
        <ele>1619.8</ele>
        <time>2015-07-04T08:03:48.000Z</time>
      </trkpt>
      <trkpt lat="45.0071" lon="5.58465">
        <ele>1620.7</ele>
        <time>2015-07-04T08:03:52.000Z</time>
      </trkpt>
      <trkpt lat="45.00708" lon="5.58464">
        <ele>1621.4</ele>
        <time>2015-07-04T08:03:56.000Z</time>
      </trkpt>
      <trkpt lat="45.00705" lon="5.58462">
        <ele>1622.5</ele>
        <time>2015-07-04T08:04:01.000Z</time>
      </trkpt>
      <trkpt lat="45.00701" lon="5.58461">
        <ele>1622.9</ele>
        <time>2015-07-04T08:04:06.000Z</time>
      </trkpt>
      <trkpt lat="45.00696" lon="5.58461">
        <ele>1623.2</ele>
        <time>2015-07-04T08:04:10.000Z</time>
      </trkpt>
      <trkpt lat="45.00694" lon="5.5846">
        <ele>1624</ele>
        <time>2015-07-04T08:04:12.000Z</time>
      </trkpt>
      <trkpt lat="45.00694" lon="5.58458">
        <ele>1625</ele>
        <time>2015-07-04T08:04:15.000Z</time>
      </trkpt>
      <trkpt lat="45.00691" lon="5.58455">
        <ele>1627.1</ele>
        <time>2015-07-04T08:04:19.000Z</time>
      </trkpt>
      <trkpt lat="45.0069" lon="5.5845">
        <ele>1630.5</ele>
        <time>2015-07-04T08:04:24.000Z</time>
      </trkpt>
      <trkpt lat="45.00685" lon="5.58447">
        <ele>1631.9</ele>
        <time>2015-07-04T08:04:29.000Z</time>
      </trkpt>
      <trkpt lat="45.00683" lon="5.58446">
        <ele>1632.8</ele>
        <time>2015-07-04T08:04:32.000Z</time>
      </trkpt>
      <trkpt lat="45.00682" lon="5.58444">
        <ele>1633.7</ele>
        <time>2015-07-04T08:04:35.000Z</time>
      </trkpt>
      <trkpt lat="45.00679" lon="5.58442">
        <ele>1635</ele>
        <time>2015-07-04T08:04:40.000Z</time>
      </trkpt>
      <trkpt lat="45.00676" lon="5.5844">
        <ele>1636.5</ele>
        <time>2015-07-04T08:04:44.000Z</time>
      </trkpt>
      <trkpt lat="45.00672" lon="5.58437">
        <ele>1638.6</ele>
        <time>2015-07-04T08:04:49.000Z</time>
      </trkpt>
      <trkpt lat="45.00663" lon="5.58438">
        <ele>1640.2</ele>
        <time>2015-07-04T08:04:56.000Z</time>
      </trkpt>
      <trkpt lat="45.00659" lon="5.58437">
        <ele>1643.5</ele>
        <time>2015-07-04T08:05:00.000Z</time>
      </trkpt>
      <trkpt lat="45.00656" lon="5.58438">
        <ele>1644.8</ele>
        <time>2015-07-04T08:05:04.000Z</time>
      </trkpt>
      <trkpt lat="45.00655" lon="5.58439">
        <ele>1644.7</ele>
        <time>2015-07-04T08:05:06.000Z</time>
      </trkpt>
      <trkpt lat="45.00653" lon="5.58447">
        <ele>1641.7</ele>
        <time>2015-07-04T08:05:14.000Z</time>
      </trkpt>
      <trkpt lat="45.00652" lon="5.58456">
        <ele>1638.2</ele>
        <time>2015-07-04T08:05:20.000Z</time>
      </trkpt>
      <trkpt lat="45.0065" lon="5.58461">
        <ele>1638</ele>
        <time>2015-07-04T08:05:25.000Z</time>
      </trkpt>
      <trkpt lat="45.00648" lon="5.58464">
        <ele>1638.4</ele>
        <time>2015-07-04T08:05:29.000Z</time>
      </trkpt>
      <trkpt lat="45.00646" lon="5.58468">
        <ele>1638.4</ele>
        <time>2015-07-04T08:05:33.000Z</time>
      </trkpt>
      <trkpt lat="45.00644" lon="5.58473">
        <ele>1638.1</ele>
        <time>2015-07-04T08:05:37.000Z</time>
      </trkpt>
      <trkpt lat="45.00643" lon="5.58475">
        <ele>1638.1</ele>
        <time>2015-07-04T08:05:39.000Z</time>
      </trkpt>
      <trkpt lat="45.00639" lon="5.58477">
        <ele>1641.2</ele>
        <time>2015-07-04T08:05:43.000Z</time>
      </trkpt>
      <trkpt lat="45.00638" lon="5.58477">
        <ele>1641.6</ele>
        <time>2015-07-04T08:05:44.000Z</time>
      </trkpt>
      <trkpt lat="45.00633" lon="5.58479">
        <ele>1643.1</ele>
        <time>2015-07-04T08:05:49.000Z</time>
      </trkpt>
      <trkpt lat="45.00627" lon="5.58482">
        <ele>1644.6</ele>
        <time>2015-07-04T08:05:55.000Z</time>
      </trkpt>
      <trkpt lat="45.00622" lon="5.58483">
        <ele>1646.2</ele>
        <time>2015-07-04T08:06:00.000Z</time>
      </trkpt>
      <trkpt lat="45.00621" lon="5.58484">
        <ele>1646.4</ele>
        <time>2015-07-04T08:06:01.000Z</time>
      </trkpt>
      <trkpt lat="45.00618" lon="5.58484">
        <ele>1647.5</ele>
        <time>2015-07-04T08:06:04.000Z</time>
      </trkpt>
      <trkpt lat="45.00616" lon="5.58485">
        <ele>1648.1</ele>
        <time>2015-07-04T08:06:06.000Z</time>
      </trkpt>
      <trkpt lat="45.0061" lon="5.58486">
        <ele>1649.8</ele>
        <time>2015-07-04T08:06:11.000Z</time>
      </trkpt>
      <trkpt lat="45.00605" lon="5.58488">
        <ele>1650.8</ele>
        <time>2015-07-04T08:06:17.000Z</time>
      </trkpt>
      <trkpt lat="45.006" lon="5.58491">
        <ele>1651.2</ele>
        <time>2015-07-04T08:06:22.000Z</time>
      </trkpt>
      <trkpt lat="45.00599" lon="5.58491">
        <ele>1651.5</ele>
        <time>2015-07-04T08:06:24.000Z</time>
      </trkpt>
      <trkpt lat="45.00596" lon="5.58492">
        <ele>1651.8</ele>
        <time>2015-07-04T08:06:27.000Z</time>
      </trkpt>
      <trkpt lat="45.00593" lon="5.58495">
        <ele>1651.7</ele>
        <time>2015-07-04T08:06:32.000Z</time>
      </trkpt>
      <trkpt lat="45.00592" lon="5.58495">
        <ele>1651.8</ele>
        <time>2015-07-04T08:06:33.000Z</time>
      </trkpt>
      <trkpt lat="45.0059" lon="5.58496">
        <ele>1652.4</ele>
        <time>2015-07-04T08:06:36.000Z</time>
      </trkpt>
      <trkpt lat="45.00588" lon="5.58497">
        <ele>1652.7</ele>
        <time>2015-07-04T08:06:38.000Z</time>
      </trkpt>
      <trkpt lat="45.00586" lon="5.58497">
        <ele>1653.3</ele>
        <time>2015-07-04T08:06:40.000Z</time>
      </trkpt>
      <trkpt lat="45.00583" lon="5.58497">
        <ele>1654.6</ele>
        <time>2015-07-04T08:06:42.000Z</time>
      </trkpt>
      <trkpt lat="45.0058" lon="5.58496">
        <ele>1655.2</ele>
        <time>2015-07-04T08:06:46.000Z</time>
      </trkpt>
      <trkpt lat="45.00579" lon="5.58497">
        <ele>1655.3</ele>
        <time>2015-07-04T08:06:48.000Z</time>
      </trkpt>
      <trkpt lat="45.00575" lon="5.58498">
        <ele>1655.5</ele>
        <time>2015-07-04T08:06:51.000Z</time>
      </trkpt>
      <trkpt lat="45.0057" lon="5.58497">
        <ele>1656.4</ele>
        <time>2015-07-04T08:06:56.000Z</time>
      </trkpt>
      <trkpt lat="45.00565" lon="5.58495">
        <ele>1658.4</ele>
        <time>2015-07-04T08:07:01.000Z</time>
      </trkpt>
      <trkpt lat="45.00561" lon="5.58494">
        <ele>1659.6</ele>
        <time>2015-07-04T08:07:06.000Z</time>
      </trkpt>
      <trkpt lat="45.00557" lon="5.58492">
        <ele>1661.5</ele>
        <time>2015-07-04T08:07:10.000Z</time>
      </trkpt>
      <trkpt lat="45.00555" lon="5.58493">
        <ele>1661.4</ele>
        <time>2015-07-04T08:07:12.000Z</time>
      </trkpt>
      <trkpt lat="45.0055" lon="5.58495">
        <ele>1661.1</ele>
        <time>2015-07-04T08:07:17.000Z</time>
      </trkpt>
      <trkpt lat="45.00546" lon="5.58494">
        <ele>1662.6</ele>
        <time>2015-07-04T08:07:22.000Z</time>
      </trkpt>
      <trkpt lat="45.00545" lon="5.58493">
        <ele>1662.9</ele>
        <time>2015-07-04T08:07:23.000Z</time>
      </trkpt>
      <trkpt lat="45.0054" lon="5.58492">
        <ele>1664</ele>
        <time>2015-07-04T08:07:27.000Z</time>
      </trkpt>
      <trkpt lat="45.00539" lon="5.58492">
        <ele>1664.8</ele>
        <time>2015-07-04T08:07:29.000Z</time>
      </trkpt>
      <trkpt lat="45.00533" lon="5.5849">
        <ele>1666.4</ele>
        <time>2015-07-04T08:07:35.000Z</time>
      </trkpt>
      <trkpt lat="45.00529" lon="5.58489">
        <ele>1667.5</ele>
        <time>2015-07-04T08:07:39.000Z</time>
      </trkpt>
      <trkpt lat="45.00528" lon="5.58489">
        <ele>1667.6</ele>
        <time>2015-07-04T08:07:40.000Z</time>
      </trkpt>
      <trkpt lat="45.00523" lon="5.58488">
        <ele>1669.1</ele>
        <time>2015-07-04T08:07:45.000Z</time>
      </trkpt>
      <trkpt lat="45.00521" lon="5.58486">
        <ele>1669.9</ele>
        <time>2015-07-04T08:07:48.000Z</time>
      </trkpt>
      <trkpt lat="45.00519" lon="5.58485">
        <ele>1670.6</ele>
        <time>2015-07-04T08:07:50.000Z</time>
      </trkpt>
      <trkpt lat="45.00515" lon="5.58484">
        <ele>1671.9</ele>
        <time>2015-07-04T08:07:54.000Z</time>
      </trkpt>
      <trkpt lat="45.00513" lon="5.58483">
        <ele>1672.4</ele>
        <time>2015-07-04T08:07:56.000Z</time>
      </trkpt>
      <trkpt lat="45.00508" lon="5.58482">
        <ele>1673.3</ele>
        <time>2015-07-04T08:08:01.000Z</time>
      </trkpt>
      <trkpt lat="45.00503" lon="5.5848">
        <ele>1674.7</ele>
        <time>2015-07-04T08:08:07.000Z</time>
      </trkpt>
      <trkpt lat="45.00498" lon="5.58478">
        <ele>1675.2</ele>
        <time>2015-07-04T08:08:12.000Z</time>
      </trkpt>
      <trkpt lat="45.00495" lon="5.58477">
        <ele>1675.7</ele>
        <time>2015-07-04T08:08:15.000Z</time>
      </trkpt>
      <trkpt lat="45.00494" lon="5.58476">
        <ele>1675.8</ele>
        <time>2015-07-04T08:08:16.000Z</time>
      </trkpt>
      <trkpt lat="45.0049" lon="5.58474">
        <ele>1676.4</ele>
        <time>2015-07-04T08:08:20.000Z</time>
      </trkpt>
      <trkpt lat="45.00484" lon="5.58471">
        <ele>1677.4</ele>
        <time>2015-07-04T08:08:26.000Z</time>
      </trkpt>
      <trkpt lat="45.0048" lon="5.58469">
        <ele>1678.2</ele>
        <time>2015-07-04T08:08:31.000Z</time>
      </trkpt>
      <trkpt lat="45.00474" lon="5.58465">
        <ele>1679.3</ele>
        <time>2015-07-04T08:08:37.000Z</time>
      </trkpt>
      <trkpt lat="45.00471" lon="5.58461">
        <ele>1680.2</ele>
        <time>2015-07-04T08:08:42.000Z</time>
      </trkpt>
      <trkpt lat="45.00465" lon="5.58458">
        <ele>1678.5</ele>
        <time>2015-07-04T08:08:48.000Z</time>
      </trkpt>
      <trkpt lat="45.00462" lon="5.58454">
        <ele>1678.3</ele>
        <time>2015-07-04T08:08:52.000Z</time>
      </trkpt>
      <trkpt lat="45.00462" lon="5.58452">
        <ele>1678.8</ele>
        <time>2015-07-04T08:08:54.000Z</time>
      </trkpt>
      <trkpt lat="45.00465" lon="5.58452">
        <ele>1680.9</ele>
        <time>2015-07-04T08:08:58.000Z</time>
      </trkpt>
      <trkpt lat="45.00469" lon="5.58452">
        <ele>1683.1</ele>
        <time>2015-07-04T08:09:02.000Z</time>
      </trkpt>
      <trkpt lat="45.0047" lon="5.58453">
        <ele>1683.4</ele>
        <time>2015-07-04T08:09:03.000Z</time>
      </trkpt>
      <trkpt lat="45.00476" lon="5.58452">
        <ele>1685.2</ele>
        <time>2015-07-04T08:09:08.000Z</time>
      </trkpt>
      <trkpt lat="45.00479" lon="5.5845">
        <ele>1686.4</ele>
        <time>2015-07-04T08:09:13.000Z</time>
      </trkpt>
      <trkpt lat="45.00485" lon="5.58448">
        <ele>1688.3</ele>
        <time>2015-07-04T08:09:26.000Z</time>
      </trkpt>
      <trkpt lat="45.00491" lon="5.58446">
        <ele>1689.9</ele>
        <time>2015-07-04T08:09:32.000Z</time>
      </trkpt>
      <trkpt lat="45.00496" lon="5.58443">
        <ele>1691.9</ele>
        <time>2015-07-04T08:09:37.000Z</time>
      </trkpt>
      <trkpt lat="45.00497" lon="5.58443">
        <ele>1692.2</ele>
        <time>2015-07-04T08:09:38.000Z</time>
      </trkpt>
      <trkpt lat="45.005" lon="5.58441">
        <ele>1693.4</ele>
        <time>2015-07-04T08:09:42.000Z</time>
      </trkpt>
      <trkpt lat="45.00502" lon="5.58441">
        <ele>1693.6</ele>
        <time>2015-07-04T08:09:43.000Z</time>
      </trkpt>
      <trkpt lat="45.00508" lon="5.58439">
        <ele>1694.3</ele>
        <time>2015-07-04T08:09:49.000Z</time>
      </trkpt>
      <trkpt lat="45.00512" lon="5.58437">
        <ele>1694.9</ele>
        <time>2015-07-04T08:09:53.000Z</time>
      </trkpt>
      <trkpt lat="45.00514" lon="5.58436">
        <ele>1695.2</ele>
        <time>2015-07-04T08:09:55.000Z</time>
      </trkpt>
      <trkpt lat="45.00517" lon="5.58433">
        <ele>1696.2</ele>
        <time>2015-07-04T08:09:59.000Z</time>
      </trkpt>
      <trkpt lat="45.00521" lon="5.58431">
        <ele>1697</ele>
        <time>2015-07-04T08:10:04.000Z</time>
      </trkpt>
      <trkpt lat="45.00524" lon="5.5843">
        <ele>1697.3</ele>
        <time>2015-07-04T08:10:07.000Z</time>
      </trkpt>
      <trkpt lat="45.00526" lon="5.58429">
        <ele>1697.7</ele>
        <time>2015-07-04T08:10:09.000Z</time>
      </trkpt>
      <trkpt lat="45.00527" lon="5.58428">
        <ele>1698.5</ele>
        <time>2015-07-04T08:10:12.000Z</time>
      </trkpt>
      <trkpt lat="45.00529" lon="5.58427">
        <ele>1698.5</ele>
        <time>2015-07-04T08:10:13.000Z</time>
      </trkpt>
      <trkpt lat="45.0053" lon="5.58427">
        <ele>1698.6</ele>
        <time>2015-07-04T08:10:14.000Z</time>
      </trkpt>
      <trkpt lat="45.00535" lon="5.58424">
        <ele>1699.4</ele>
        <time>2015-07-04T08:10:20.000Z</time>
      </trkpt>
      <trkpt lat="45.00536" lon="5.58423">
        <ele>1699.9</ele>
        <time>2015-07-04T08:10:21.000Z</time>
      </trkpt>
      <trkpt lat="45.00538" lon="5.5842">
        <ele>1700.8</ele>
        <time>2015-07-04T08:10:24.000Z</time>
      </trkpt>
      <trkpt lat="45.00542" lon="5.58416">
        <ele>1702.1</ele>
        <time>2015-07-04T08:10:29.000Z</time>
      </trkpt>
      <trkpt lat="45.00541" lon="5.58415">
        <ele>1703</ele>
        <time>2015-07-04T08:10:33.000Z</time>
      </trkpt>
      <trkpt lat="45.0054" lon="5.58415">
        <ele>1702.8</ele>
        <time>2015-07-04T08:10:34.000Z</time>
      </trkpt>
      <trkpt lat="45.00535" lon="5.58417">
        <ele>1702.7</ele>
        <time>2015-07-04T08:10:39.000Z</time>
      </trkpt>
      <trkpt lat="45.00529" lon="5.58417">
        <ele>1703.4</ele>
        <time>2015-07-04T08:10:44.000Z</time>
      </trkpt>
      <trkpt lat="45.00528" lon="5.58417">
        <ele>1703.8</ele>
        <time>2015-07-04T08:10:45.000Z</time>
      </trkpt>
      <trkpt lat="45.00523" lon="5.58415">
        <ele>1704.9</ele>
        <time>2015-07-04T08:10:50.000Z</time>
      </trkpt>
      <trkpt lat="45.00518" lon="5.58414">
        <ele>1705.9</ele>
        <time>2015-07-04T08:10:55.000Z</time>
      </trkpt>
      <trkpt lat="45.00516" lon="5.58412">
        <ele>1706.5</ele>
        <time>2015-07-04T08:10:57.000Z</time>
      </trkpt>
      <trkpt lat="45.00514" lon="5.58411">
        <ele>1707.5</ele>
        <time>2015-07-04T08:10:59.000Z</time>
      </trkpt>
      <trkpt lat="45.00513" lon="5.5841">
        <ele>1707.8</ele>
        <time>2015-07-04T08:11:00.000Z</time>
      </trkpt>
      <trkpt lat="45.0051" lon="5.58408">
        <ele>1708.7</ele>
        <time>2015-07-04T08:11:04.000Z</time>
      </trkpt>
      <trkpt lat="45.00504" lon="5.58406">
        <ele>1710</ele>
        <time>2015-07-04T08:11:10.000Z</time>
      </trkpt>
      <trkpt lat="45.00499" lon="5.58402">
        <ele>1711.6</ele>
        <time>2015-07-04T08:11:16.000Z</time>
      </trkpt>
      <trkpt lat="45.00495" lon="5.58398">
        <ele>1711.8</ele>
        <time>2015-07-04T08:11:22.000Z</time>
      </trkpt>
      <trkpt lat="45.00491" lon="5.58395">
        <ele>1711.8</ele>
        <time>2015-07-04T08:11:27.000Z</time>
      </trkpt>
      <trkpt lat="45.00488" lon="5.58395">
        <ele>1710.9</ele>
        <time>2015-07-04T08:11:30.000Z</time>
      </trkpt>
      <trkpt lat="45.00486" lon="5.58394">
        <ele>1710.9</ele>
        <time>2015-07-04T08:11:32.000Z</time>
      </trkpt>
      <trkpt lat="45.00485" lon="5.58393">
        <ele>1710.9</ele>
        <time>2015-07-04T08:11:33.000Z</time>
      </trkpt>
      <trkpt lat="45.00486" lon="5.58389">
        <ele>1712.9</ele>
        <time>2015-07-04T08:11:38.000Z</time>
      </trkpt>
      <trkpt lat="45.00489" lon="5.5839">
        <ele>1713.3</ele>
        <time>2015-07-04T08:11:41.000Z</time>
      </trkpt>
      <trkpt lat="45.00491" lon="5.58391">
        <ele>1714</ele>
        <time>2015-07-04T08:11:43.000Z</time>
      </trkpt>
      <trkpt lat="45.00493" lon="5.5839">
        <ele>1715</ele>
        <time>2015-07-04T08:11:45.000Z</time>
      </trkpt>
      <trkpt lat="45.00496" lon="5.58389">
        <ele>1716.3</ele>
        <time>2015-07-04T08:11:48.000Z</time>
      </trkpt>
      <trkpt lat="45.00499" lon="5.5839">
        <ele>1716.9</ele>
        <time>2015-07-04T08:11:52.000Z</time>
      </trkpt>
      <trkpt lat="45.00501" lon="5.58391">
        <ele>1717.1</ele>
        <time>2015-07-04T08:11:55.000Z</time>
      </trkpt>
      <trkpt lat="45.00505" lon="5.58389">
        <ele>1717.8</ele>
        <time>2015-07-04T08:11:58.000Z</time>
      </trkpt>
      <trkpt lat="45.00507" lon="5.58388">
        <ele>1718.5</ele>
        <time>2015-07-04T08:12:00.000Z</time>
      </trkpt>
      <trkpt lat="45.00508" lon="5.58387">
        <ele>1719</ele>
        <time>2015-07-04T08:12:02.000Z</time>
      </trkpt>
      <trkpt lat="45.00509" lon="5.58386">
        <ele>1719.2</ele>
        <time>2015-07-04T08:12:04.000Z</time>
      </trkpt>
      <trkpt lat="45.00512" lon="5.58385">
        <ele>1719.8</ele>
        <time>2015-07-04T08:12:07.000Z</time>
      </trkpt>
      <trkpt lat="45.00514" lon="5.58384">
        <ele>1720.3</ele>
        <time>2015-07-04T08:12:09.000Z</time>
      </trkpt>
      <trkpt lat="45.00516" lon="5.58383">
        <ele>1720.6</ele>
        <time>2015-07-04T08:12:12.000Z</time>
      </trkpt>
      <trkpt lat="45.00519" lon="5.58382">
        <ele>1721.5</ele>
        <time>2015-07-04T08:12:14.000Z</time>
      </trkpt>
      <trkpt lat="45.0052" lon="5.5838">
        <ele>1722.5</ele>
        <time>2015-07-04T08:12:16.000Z</time>
      </trkpt>
      <trkpt lat="45.00522" lon="5.58378">
        <ele>1723.4</ele>
        <time>2015-07-04T08:12:18.000Z</time>
      </trkpt>
      <trkpt lat="45.00526" lon="5.58375">
        <ele>1724.8</ele>
        <time>2015-07-04T08:12:23.000Z</time>
      </trkpt>
      <trkpt lat="45.00531" lon="5.58373">
        <ele>1725.7</ele>
        <time>2015-07-04T08:12:28.000Z</time>
      </trkpt>
      <trkpt lat="45.00535" lon="5.5837">
        <ele>1726.9</ele>
        <time>2015-07-04T08:12:33.000Z</time>
      </trkpt>
      <trkpt lat="45.00538" lon="5.58367">
        <ele>1727.7</ele>
        <time>2015-07-04T08:12:36.000Z</time>
      </trkpt>
      <trkpt lat="45.00539" lon="5.58366">
        <ele>1728.3</ele>
        <time>2015-07-04T08:12:37.000Z</time>
      </trkpt>
      <trkpt lat="45.00543" lon="5.58362">
        <ele>1729.7</ele>
        <time>2015-07-04T08:12:42.000Z</time>
      </trkpt>
      <trkpt lat="45.00548" lon="5.5836">
        <ele>1730.2</ele>
        <time>2015-07-04T08:12:47.000Z</time>
      </trkpt>
      <trkpt lat="45.00552" lon="5.58358">
        <ele>1731.1</ele>
        <time>2015-07-04T08:12:52.000Z</time>
      </trkpt>
      <trkpt lat="45.00557" lon="5.58355">
        <ele>1731.8</ele>
        <time>2015-07-04T08:12:57.000Z</time>
      </trkpt>
      <trkpt lat="45.00558" lon="5.58355">
        <ele>1731.5</ele>
        <time>2015-07-04T08:12:58.000Z</time>
      </trkpt>
      <trkpt lat="45.00561" lon="5.58352">
        <ele>1732.2</ele>
        <time>2015-07-04T08:13:02.000Z</time>
      </trkpt>
      <trkpt lat="45.00561" lon="5.58352">
        <ele>1732</ele>
        <time>2015-07-04T08:13:03.000Z</time>
      </trkpt>
      <trkpt lat="45.00564" lon="5.5835">
        <ele>1732.2</ele>
        <time>2015-07-04T08:13:06.000Z</time>
      </trkpt>
      <trkpt lat="45.00565" lon="5.58349">
        <ele>1732.5</ele>
        <time>2015-07-04T08:13:07.000Z</time>
      </trkpt>
      <trkpt lat="45.00568" lon="5.58344">
        <ele>1733.1</ele>
        <time>2015-07-04T08:13:13.000Z</time>
      </trkpt>
      <trkpt lat="45.00572" lon="5.58341">
        <ele>1733.2</ele>
        <time>2015-07-04T08:13:18.000Z</time>
      </trkpt>
      <trkpt lat="45.00569" lon="5.58341">
        <ele>1734.3</ele>
        <time>2015-07-04T08:13:23.000Z</time>
      </trkpt>
      <trkpt lat="45.00565" lon="5.58341">
        <ele>1735.6</ele>
        <time>2015-07-04T08:13:28.000Z</time>
      </trkpt>
      <trkpt lat="45.00559" lon="5.5834">
        <ele>1738.1</ele>
        <time>2015-07-04T08:13:34.000Z</time>
      </trkpt>
      <trkpt lat="45.00554" lon="5.5834">
        <ele>1740</ele>
        <time>2015-07-04T08:13:39.000Z</time>
      </trkpt>
      <trkpt lat="45.00553" lon="5.5834">
        <ele>1740</ele>
        <time>2015-07-04T08:13:40.000Z</time>
      </trkpt>
      <trkpt lat="45.00548" lon="5.5834">
        <ele>1740.6</ele>
        <time>2015-07-04T08:13:45.000Z</time>
      </trkpt>
      <trkpt lat="45.00547" lon="5.58337">
        <ele>1742</ele>
        <time>2015-07-04T08:13:49.000Z</time>
      </trkpt>
      <trkpt lat="45.00546" lon="5.58337">
        <ele>1742.4</ele>
        <time>2015-07-04T08:13:50.000Z</time>
      </trkpt>
      <trkpt lat="45.00542" lon="5.58336">
        <ele>1743.4</ele>
        <time>2015-07-04T08:13:55.000Z</time>
      </trkpt>
      <trkpt lat="45.00537" lon="5.58333">
        <ele>1745</ele>
        <time>2015-07-04T08:14:00.000Z</time>
      </trkpt>
      <trkpt lat="45.00531" lon="5.58332">
        <ele>1746</ele>
        <time>2015-07-04T08:14:07.000Z</time>
      </trkpt>
      <trkpt lat="45.00526" lon="5.58332">
        <ele>1746.5</ele>
        <time>2015-07-04T08:14:12.000Z</time>
      </trkpt>
      <trkpt lat="45.00523" lon="5.58332">
        <ele>1746</ele>
        <time>2015-07-04T08:14:14.000Z</time>
      </trkpt>
      <trkpt lat="45.00519" lon="5.58331">
        <ele>1745.9</ele>
        <time>2015-07-04T08:14:18.000Z</time>
      </trkpt>
      <trkpt lat="45.00514" lon="5.58329">
        <ele>1746.1</ele>
        <time>2015-07-04T08:14:23.000Z</time>
      </trkpt>
      <trkpt lat="45.00509" lon="5.58325">
        <ele>1747</ele>
        <time>2015-07-04T08:14:29.000Z</time>
      </trkpt>
      <trkpt lat="45.00507" lon="5.5832">
        <ele>1748.5</ele>
        <time>2015-07-04T08:14:34.000Z</time>
      </trkpt>
      <trkpt lat="45.00506" lon="5.58319">
        <ele>1748.9</ele>
        <time>2015-07-04T08:14:35.000Z</time>
      </trkpt>
      <trkpt lat="45.00505" lon="5.58316">
        <ele>1750</ele>
        <time>2015-07-04T08:14:38.000Z</time>
      </trkpt>
      <trkpt lat="45.00505" lon="5.58314">
        <ele>1750.6</ele>
        <time>2015-07-04T08:14:40.000Z</time>
      </trkpt>
      <trkpt lat="45.00504" lon="5.58314">
        <ele>1750.6</ele>
        <time>2015-07-04T08:14:41.000Z</time>
      </trkpt>
      <trkpt lat="45.00501" lon="5.5831">
        <ele>1751.6</ele>
        <time>2015-07-04T08:14:46.000Z</time>
      </trkpt>
      <trkpt lat="45.00498" lon="5.58306">
        <ele>1752.1</ele>
        <time>2015-07-04T08:14:51.000Z</time>
      </trkpt>
      <trkpt lat="45.00496" lon="5.58302">
        <ele>1752.4</ele>
        <time>2015-07-04T08:14:55.000Z</time>
      </trkpt>
      <trkpt lat="45.00496" lon="5.583">
        <ele>1752.9</ele>
        <time>2015-07-04T08:14:57.000Z</time>
      </trkpt>
      <trkpt lat="45.00498" lon="5.583">
        <ele>1754.1</ele>
        <time>2015-07-04T08:15:00.000Z</time>
      </trkpt>
      <trkpt lat="45.00499" lon="5.583">
        <ele>1754.6</ele>
        <time>2015-07-04T08:15:01.000Z</time>
      </trkpt>
      <trkpt lat="45.00501" lon="5.58301">
        <ele>1754.9</ele>
        <time>2015-07-04T08:15:03.000Z</time>
      </trkpt>
      <trkpt lat="45.00505" lon="5.58302">
        <ele>1755.3</ele>
        <time>2015-07-04T08:15:08.000Z</time>
      </trkpt>
      <trkpt lat="45.00509" lon="5.58304">
        <ele>1755.7</ele>
        <time>2015-07-04T08:15:13.000Z</time>
      </trkpt>
      <trkpt lat="45.00514" lon="5.58304">
        <ele>1756.6</ele>
        <time>2015-07-04T08:15:18.000Z</time>
      </trkpt>
      <trkpt lat="45.00515" lon="5.58303">
        <ele>1756.9</ele>
        <time>2015-07-04T08:15:19.000Z</time>
      </trkpt>
      <trkpt lat="45.00517" lon="5.58303">
        <ele>1757.6</ele>
        <time>2015-07-04T08:15:21.000Z</time>
      </trkpt>
      <trkpt lat="45.00518" lon="5.58302">
        <ele>1758</ele>
        <time>2015-07-04T08:15:23.000Z</time>
      </trkpt>
      <trkpt lat="45.00521" lon="5.583">
        <ele>1759.3</ele>
        <time>2015-07-04T08:15:27.000Z</time>
      </trkpt>
      <trkpt lat="45.00522" lon="5.583">
        <ele>1759.6</ele>
        <time>2015-07-04T08:15:28.000Z</time>
      </trkpt>
      <trkpt lat="45.00529" lon="5.58298">
        <ele>1761.2</ele>
        <time>2015-07-04T08:15:35.000Z</time>
      </trkpt>
      <trkpt lat="45.00535" lon="5.58296">
        <ele>1761.1</ele>
        <time>2015-07-04T08:15:40.000Z</time>
      </trkpt>
      <trkpt lat="45.00538" lon="5.58294">
        <ele>1761.7</ele>
        <time>2015-07-04T08:15:44.000Z</time>
      </trkpt>
      <trkpt lat="45.00538" lon="5.58293">
        <ele>1761.9</ele>
        <time>2015-07-04T08:15:45.000Z</time>
      </trkpt>
      <trkpt lat="45.0054" lon="5.58291">
        <ele>1762.5</ele>
        <time>2015-07-04T08:15:49.000Z</time>
      </trkpt>
      <trkpt lat="45.00541" lon="5.5829">
        <ele>1762.6</ele>
        <time>2015-07-04T08:15:50.000Z</time>
      </trkpt>
      <trkpt lat="45.00542" lon="5.58286">
        <ele>1763.9</ele>
        <time>2015-07-04T08:15:54.000Z</time>
      </trkpt>
      <trkpt lat="45.00544" lon="5.58283">
        <ele>1765</ele>
        <time>2015-07-04T08:15:58.000Z</time>
      </trkpt>
      <trkpt lat="45.00545" lon="5.5828">
        <ele>1765.8</ele>
        <time>2015-07-04T08:16:00.000Z</time>
      </trkpt>
      <trkpt lat="45.00548" lon="5.58277">
        <ele>1767</ele>
        <time>2015-07-04T08:16:03.000Z</time>
      </trkpt>
      <trkpt lat="45.00546" lon="5.58277">
        <ele>1767</ele>
        <time>2015-07-04T08:16:07.000Z</time>
      </trkpt>
      <trkpt lat="45.00542" lon="5.58278">
        <ele>1766.9</ele>
        <time>2015-07-04T08:16:12.000Z</time>
      </trkpt>
      <trkpt lat="45.0054" lon="5.58278">
        <ele>1767.3</ele>
        <time>2015-07-04T08:16:16.000Z</time>
      </trkpt>
      <trkpt lat="45.00535" lon="5.58275">
        <ele>1769</ele>
        <time>2015-07-04T08:16:22.000Z</time>
      </trkpt>
      <trkpt lat="45.00533" lon="5.58273">
        <ele>1770.2</ele>
        <time>2015-07-04T08:16:26.000Z</time>
      </trkpt>
      <trkpt lat="45.0053" lon="5.58271">
        <ele>1771.7</ele>
        <time>2015-07-04T08:16:30.000Z</time>
      </trkpt>
      <trkpt lat="45.00529" lon="5.58271">
        <ele>1771.9</ele>
        <time>2015-07-04T08:16:31.000Z</time>
      </trkpt>
      <trkpt lat="45.00526" lon="5.58269">
        <ele>1772.6</ele>
        <time>2015-07-04T08:16:34.000Z</time>
      </trkpt>
      <trkpt lat="45.00524" lon="5.58266">
        <ele>1774</ele>
        <time>2015-07-04T08:16:38.000Z</time>
      </trkpt>
      <trkpt lat="45.00522" lon="5.58265">
        <ele>1774.4</ele>
        <time>2015-07-04T08:16:42.000Z</time>
      </trkpt>
      <trkpt lat="45.00518" lon="5.58262">
        <ele>1775.3</ele>
        <time>2015-07-04T08:16:47.000Z</time>
      </trkpt>
      <trkpt lat="45.00516" lon="5.58259">
        <ele>1776.2</ele>
        <time>2015-07-04T08:16:51.000Z</time>
      </trkpt>
      <trkpt lat="45.00513" lon="5.58255">
        <ele>1778.1</ele>
        <time>2015-07-04T08:16:56.000Z</time>
      </trkpt>
      <trkpt lat="45.0051" lon="5.58253">
        <ele>1778.5</ele>
        <time>2015-07-04T08:16:59.000Z</time>
      </trkpt>
      <trkpt lat="45.00509" lon="5.58252">
        <ele>1778.9</ele>
        <time>2015-07-04T08:17:00.000Z</time>
      </trkpt>
      <trkpt lat="45.00509" lon="5.58251">
        <ele>1779.4</ele>
        <time>2015-07-04T08:17:01.000Z</time>
      </trkpt>
      <trkpt lat="45.00511" lon="5.58249">
        <ele>1781.2</ele>
        <time>2015-07-04T08:17:04.000Z</time>
      </trkpt>
      <trkpt lat="45.00515" lon="5.58248">
        <ele>1782.7</ele>
        <time>2015-07-04T08:17:10.000Z</time>
      </trkpt>
      <trkpt lat="45.00516" lon="5.58249">
        <ele>1782.6</ele>
        <time>2015-07-04T08:17:20.000Z</time>
      </trkpt>
      <trkpt lat="45.0052" lon="5.58248">
        <ele>1784.5</ele>
        <time>2015-07-04T08:17:26.000Z</time>
      </trkpt>
      <trkpt lat="45.00526" lon="5.58247">
        <ele>1786.7</ele>
        <time>2015-07-04T08:17:32.000Z</time>
      </trkpt>
      <trkpt lat="45.00528" lon="5.58245">
        <ele>1788.4</ele>
        <time>2015-07-04T08:17:35.000Z</time>
      </trkpt>
      <trkpt lat="45.00531" lon="5.58244">
        <ele>1789.8</ele>
        <time>2015-07-04T08:17:38.000Z</time>
      </trkpt>
      <trkpt lat="45.00532" lon="5.58242">
        <ele>1791.2</ele>
        <time>2015-07-04T08:17:39.000Z</time>
      </trkpt>
      <trkpt lat="45.00534" lon="5.58241">
        <ele>1792.5</ele>
        <time>2015-07-04T08:17:41.000Z</time>
      </trkpt>
      <trkpt lat="45.00535" lon="5.5824">
        <ele>1793.3</ele>
        <time>2015-07-04T08:17:42.000Z</time>
      </trkpt>
      <trkpt lat="45.00537" lon="5.58238">
        <ele>1795.4</ele>
        <time>2015-07-04T08:17:45.000Z</time>
      </trkpt>
      <trkpt lat="45.00538" lon="5.58238">
        <ele>1795.4</ele>
        <time>2015-07-04T08:17:46.000Z</time>
      </trkpt>
      <trkpt lat="45.00541" lon="5.58237">
        <ele>1796.7</ele>
        <time>2015-07-04T08:17:49.000Z</time>
      </trkpt>
      <trkpt lat="45.00543" lon="5.58235">
        <ele>1798.8</ele>
        <time>2015-07-04T08:17:52.000Z</time>
      </trkpt>
      <trkpt lat="45.00545" lon="5.58234">
        <ele>1800.2</ele>
        <time>2015-07-04T08:17:55.000Z</time>
      </trkpt>
      <trkpt lat="45.00545" lon="5.58234">
        <ele>1800.3</ele>
        <time>2015-07-04T08:17:56.000Z</time>
      </trkpt>
      <trkpt lat="45.00547" lon="5.58232">
        <ele>1802.6</ele>
        <time>2015-07-04T08:17:59.000Z</time>
      </trkpt>
      <trkpt lat="45.00549" lon="5.5823">
        <ele>1803.9</ele>
        <time>2015-07-04T08:18:03.000Z</time>
      </trkpt>
      <trkpt lat="45.00546" lon="5.58232">
        <ele>1801.6</ele>
        <time>2015-07-04T08:18:19.000Z</time>
      </trkpt>
      <trkpt lat="45.00543" lon="5.58232">
        <ele>1801.7</ele>
        <time>2015-07-04T08:18:24.000Z</time>
      </trkpt>
      <trkpt lat="45.0054" lon="5.58231">
        <ele>1802.6</ele>
        <time>2015-07-04T08:18:29.000Z</time>
      </trkpt>
      <trkpt lat="45.00537" lon="5.58231">
        <ele>1802.3</ele>
        <time>2015-07-04T08:18:41.000Z</time>
      </trkpt>
      <trkpt lat="45.00535" lon="5.58229">
        <ele>1803.8</ele>
        <time>2015-07-04T08:18:46.000Z</time>
      </trkpt>
      <trkpt lat="45.00533" lon="5.58227">
        <ele>1806</ele>
        <time>2015-07-04T08:18:51.000Z</time>
      </trkpt>
      <trkpt lat="45.0053" lon="5.58226">
        <ele>1807.1</ele>
        <time>2015-07-04T08:18:55.000Z</time>
      </trkpt>
      <trkpt lat="45.00527" lon="5.58223">
        <ele>1809.5</ele>
        <time>2015-07-04T08:18:59.000Z</time>
      </trkpt>
      <trkpt lat="45.00526" lon="5.58219">
        <ele>1813.3</ele>
        <time>2015-07-04T08:19:02.000Z</time>
      </trkpt>
      <trkpt lat="45.00527" lon="5.58219">
        <ele>1814.1</ele>
        <time>2015-07-04T08:19:03.000Z</time>
      </trkpt>
      <trkpt lat="45.00528" lon="5.58218">
        <ele>1815.2</ele>
        <time>2015-07-04T08:19:04.000Z</time>
      </trkpt>
      <trkpt lat="45.00531" lon="5.58217">
        <ele>1817.4</ele>
        <time>2015-07-04T08:19:07.000Z</time>
      </trkpt>
      <trkpt lat="45.00534" lon="5.58213">
        <ele>1823.7</ele>
        <time>2015-07-04T08:19:11.000Z</time>
      </trkpt>
      <trkpt lat="45.00536" lon="5.58213">
        <ele>1823.7</ele>
        <time>2015-07-04T08:19:16.000Z</time>
      </trkpt>
      <trkpt lat="45.00539" lon="5.58213">
        <ele>1824.3</ele>
        <time>2015-07-04T08:19:20.000Z</time>
      </trkpt>
      <trkpt lat="45.00539" lon="5.58213">
        <ele>1824.3</ele>
        <time>2015-07-04T08:19:26.000Z</time>
      </trkpt>
      <trkpt lat="45.00538" lon="5.58216">
        <ele>1820.1</ele>
        <time>2015-07-04T08:19:29.000Z</time>
      </trkpt>
      <trkpt lat="45.00536" lon="5.58215">
        <ele>1820.4</ele>
        <time>2015-07-04T08:19:32.000Z</time>
      </trkpt>
      <trkpt lat="45.00533" lon="5.58208">
        <ele>1830.2</ele>
        <time>2015-07-04T08:19:43.000Z</time>
      </trkpt>
      <trkpt lat="45.00531" lon="5.58206">
        <ele>1832.6</ele>
        <time>2015-07-04T08:19:46.000Z</time>
      </trkpt>
      <trkpt lat="45.0053" lon="5.58199">
        <ele>1841.3</ele>
        <time>2015-07-04T08:19:51.000Z</time>
      </trkpt>
      <trkpt lat="45.00531" lon="5.58195">
        <ele>1847</ele>
        <time>2015-07-04T08:19:54.000Z</time>
      </trkpt>
      <trkpt lat="45.00532" lon="5.58194">
        <ele>1848.8</ele>
        <time>2015-07-04T08:19:56.000Z</time>
      </trkpt>
      <trkpt lat="45.00535" lon="5.58191">
        <ele>1854.5</ele>
        <time>2015-07-04T08:20:04.000Z</time>
      </trkpt>
      <trkpt lat="45.00536" lon="5.58193">
        <ele>1850.7</ele>
        <time>2015-07-04T08:20:10.000Z</time>
      </trkpt>
      <trkpt lat="45.00541" lon="5.58192">
        <ele>1853.7</ele>
        <time>2015-07-04T08:20:20.000Z</time>
      </trkpt>
      <trkpt lat="45.00539" lon="5.58188">
        <ele>1859.1</ele>
        <time>2015-07-04T08:20:25.000Z</time>
      </trkpt>
      <trkpt lat="45.00536" lon="5.58186">
        <ele>1861.5</ele>
        <time>2015-07-04T08:20:30.000Z</time>
      </trkpt>
      <trkpt lat="45.00533" lon="5.58185">
        <ele>1863.4</ele>
        <time>2015-07-04T08:20:34.000Z</time>
      </trkpt>
      <trkpt lat="45.00531" lon="5.58183">
        <ele>1866.5</ele>
        <time>2015-07-04T08:20:38.000Z</time>
      </trkpt>
      <trkpt lat="45.00529" lon="5.58179">
        <ele>1872.5</ele>
        <time>2015-07-04T08:20:42.000Z</time>
      </trkpt>
      <trkpt lat="45.00527" lon="5.58175">
        <ele>1877.7</ele>
        <time>2015-07-04T08:20:47.000Z</time>
      </trkpt>
      <trkpt lat="45.00524" lon="5.58173">
        <ele>1880.5</ele>
        <time>2015-07-04T08:20:51.000Z</time>
      </trkpt>
      <trkpt lat="45.00519" lon="5.58171">
        <ele>1882.2</ele>
        <time>2015-07-04T08:20:57.000Z</time>
      </trkpt>
      <trkpt lat="45.00516" lon="5.5817">
        <ele>1881.8</ele>
        <time>2015-07-04T08:21:01.000Z</time>
      </trkpt>
      <trkpt lat="45.00514" lon="5.58169">
        <ele>1882.9</ele>
        <time>2015-07-04T08:21:05.000Z</time>
      </trkpt>
      <trkpt lat="45.00511" lon="5.58168">
        <ele>1882.8</ele>
        <time>2015-07-04T08:21:09.000Z</time>
      </trkpt>
      <trkpt lat="45.00507" lon="5.58168">
        <ele>1881.4</ele>
        <time>2015-07-04T08:21:16.000Z</time>
      </trkpt>
      <trkpt lat="45.005" lon="5.58167">
        <ele>1879.8</ele>
        <time>2015-07-04T08:21:28.000Z</time>
      </trkpt>
      <trkpt lat="45.00498" lon="5.58165">
        <ele>1882.5</ele>
        <time>2015-07-04T08:21:34.000Z</time>
      </trkpt>
      <trkpt lat="45.00495" lon="5.58164">
        <ele>1881.5</ele>
        <time>2015-07-04T08:21:38.000Z</time>
      </trkpt>
      <trkpt lat="45.00493" lon="5.58164">
        <ele>1880</ele>
        <time>2015-07-04T08:21:42.000Z</time>
      </trkpt>
      <trkpt lat="45.0049" lon="5.58164">
        <ele>1877.2</ele>
        <time>2015-07-04T08:21:46.000Z</time>
      </trkpt>
      <trkpt lat="45.00486" lon="5.58165">
        <ele>1873.5</ele>
        <time>2015-07-04T08:21:51.000Z</time>
      </trkpt>
      <trkpt lat="45.00478" lon="5.58154">
        <ele>1887.3</ele>
        <time>2015-07-04T08:22:34.000Z</time>
      </trkpt>
      <trkpt lat="45.00473" lon="5.58139">
        <ele>1910.6</ele>
        <time>2015-07-04T08:22:43.000Z</time>
      </trkpt>
      <trkpt lat="45.00462" lon="5.58123">
        <ele>1928.9</ele>
        <time>2015-07-04T08:22:58.000Z</time>
      </trkpt>
      <trkpt lat="45.00457" lon="5.5812">
        <ele>1927.9</ele>
        <time>2015-07-04T08:23:03.000Z</time>
      </trkpt>
      <trkpt lat="45.00455" lon="5.58119">
        <ele>1929.1</ele>
        <time>2015-07-04T08:23:05.000Z</time>
      </trkpt>
      <trkpt lat="45.00454" lon="5.58118">
        <ele>1928.8</ele>
        <time>2015-07-04T08:23:06.000Z</time>
      </trkpt>
      <trkpt lat="45.00448" lon="5.58114">
        <ele>1928.6</ele>
        <time>2015-07-04T08:23:12.000Z</time>
      </trkpt>
      <trkpt lat="45.00441" lon="5.58108">
        <ele>1931.8</ele>
        <time>2015-07-04T08:23:19.000Z</time>
      </trkpt>
      <trkpt lat="45.00436" lon="5.58105">
        <ele>1929.8</ele>
        <time>2015-07-04T08:23:24.000Z</time>
      </trkpt>
      <trkpt lat="45.00433" lon="5.58105">
        <ele>1927</ele>
        <time>2015-07-04T08:23:26.000Z</time>
      </trkpt>
      <trkpt lat="45.00432" lon="5.58103">
        <ele>1927.4</ele>
        <time>2015-07-04T08:23:27.000Z</time>
      </trkpt>
      <trkpt lat="45.00428" lon="5.58098">
        <ele>1932.8</ele>
        <time>2015-07-04T08:23:31.000Z</time>
      </trkpt>
      <trkpt lat="45.00427" lon="5.58096">
        <ele>1935.3</ele>
        <time>2015-07-04T08:23:32.000Z</time>
      </trkpt>
      <trkpt lat="45.00423" lon="5.58088">
        <ele>1946.6</ele>
        <time>2015-07-04T08:23:37.000Z</time>
      </trkpt>
      <trkpt lat="45.00412" lon="5.58077">
        <ele>1953.9</ele>
        <time>2015-07-04T08:23:45.000Z</time>
      </trkpt>
      <trkpt lat="45.00403" lon="5.58068">
        <ele>1961.6</ele>
        <time>2015-07-04T08:23:53.000Z</time>
      </trkpt>
      <trkpt lat="45.00393" lon="5.58059">
        <ele>1966.1</ele>
        <time>2015-07-04T08:24:01.000Z</time>
      </trkpt>
      <trkpt lat="45.00391" lon="5.58058">
        <ele>1965.8</ele>
        <time>2015-07-04T08:24:02.000Z</time>
      </trkpt>
      <trkpt lat="45.00385" lon="5.58055">
        <ele>1960.5</ele>
        <time>2015-07-04T08:24:07.000Z</time>
      </trkpt>
      <trkpt lat="45.00378" lon="5.5805">
        <ele>1952.3</ele>
        <time>2015-07-04T08:24:13.000Z</time>
      </trkpt>
      <trkpt lat="45.00373" lon="5.58049">
        <ele>1944.1</ele>
        <time>2015-07-04T08:24:19.000Z</time>
      </trkpt>
      <trkpt lat="45.00368" lon="5.5804">
        <ele>1950.1</ele>
        <time>2015-07-04T08:24:34.000Z</time>
      </trkpt>
      <trkpt lat="45.00361" lon="5.58032">
        <ele>1948</ele>
        <time>2015-07-04T08:24:42.000Z</time>
      </trkpt>
      <trkpt lat="45.00358" lon="5.5803">
        <ele>1948.1</ele>
        <time>2015-07-04T08:24:47.000Z</time>
      </trkpt>
      <trkpt lat="45.00356" lon="5.58028">
        <ele>1945.4</ele>
        <time>2015-07-04T08:24:49.000Z</time>
      </trkpt>
      <trkpt lat="45.00351" lon="5.58024">
        <ele>1940.2</ele>
        <time>2015-07-04T08:24:54.000Z</time>
      </trkpt>
      <trkpt lat="45.00341" lon="5.58016">
        <ele>1929.1</ele>
        <time>2015-07-04T08:25:02.000Z</time>
      </trkpt>
      <trkpt lat="45.0033" lon="5.58005">
        <ele>1922.8</ele>
        <time>2015-07-04T08:25:11.000Z</time>
      </trkpt>
      <trkpt lat="45.00321" lon="5.58001">
        <ele>1912.3</ele>
        <time>2015-07-04T08:25:18.000Z</time>
      </trkpt>
      <trkpt lat="45.00313" lon="5.57995">
        <ele>1905.8</ele>
        <time>2015-07-04T08:25:26.000Z</time>
      </trkpt>
      <trkpt lat="45.00301" lon="5.57987">
        <ele>1897.3</ele>
        <time>2015-07-04T08:25:35.000Z</time>
      </trkpt>
      <trkpt lat="45.00293" lon="5.57983">
        <ele>1888.6</ele>
        <time>2015-07-04T08:25:43.000Z</time>
      </trkpt>
      <trkpt lat="45.0029" lon="5.57984">
        <ele>1883.8</ele>
        <time>2015-07-04T08:25:46.000Z</time>
      </trkpt>
      <trkpt lat="45.00289" lon="5.57984">
        <ele>1880.9</ele>
        <time>2015-07-04T08:25:47.000Z</time>
      </trkpt>
      <trkpt lat="45.00286" lon="5.57985">
        <ele>1876</ele>
        <time>2015-07-04T08:25:50.000Z</time>
      </trkpt>
      <trkpt lat="45.00285" lon="5.57984">
        <ele>1875.8</ele>
        <time>2015-07-04T08:25:53.000Z</time>
      </trkpt>
      <trkpt lat="45.00281" lon="5.57981">
        <ele>1873.7</ele>
        <time>2015-07-04T08:26:04.000Z</time>
      </trkpt>
      <trkpt lat="45.00263" lon="5.5795">
        <ele>1892.1</ele>
        <time>2015-07-04T08:26:38.000Z</time>
      </trkpt>
      <trkpt lat="45.00259" lon="5.57949">
        <ele>1887.3</ele>
        <time>2015-07-04T08:26:41.000Z</time>
      </trkpt>
      <trkpt lat="45.00254" lon="5.5794">
        <ele>1892.9</ele>
        <time>2015-07-04T08:26:46.000Z</time>
      </trkpt>
      <trkpt lat="45.00254" lon="5.57938">
        <ele>1894.3</ele>
        <time>2015-07-04T08:26:47.000Z</time>
      </trkpt>
      <trkpt lat="45.00246" lon="5.57936">
        <ele>1888.3</ele>
        <time>2015-07-04T08:26:53.000Z</time>
      </trkpt>
      <trkpt lat="45.00238" lon="5.57935">
        <ele>1879.8</ele>
        <time>2015-07-04T08:27:00.000Z</time>
      </trkpt>
      <trkpt lat="45.00231" lon="5.57935">
        <ele>1872.4</ele>
        <time>2015-07-04T08:27:06.000Z</time>
      </trkpt>
      <trkpt lat="45.00228" lon="5.57934">
        <ele>1870.2</ele>
        <time>2015-07-04T08:27:12.000Z</time>
      </trkpt>
      <trkpt lat="45.00223" lon="5.57924">
        <ele>1878.3</ele>
        <time>2015-07-04T08:27:27.000Z</time>
      </trkpt>
      <trkpt lat="45.00216" lon="5.57919">
        <ele>1876.8</ele>
        <time>2015-07-04T08:27:35.000Z</time>
      </trkpt>
      <trkpt lat="45.0021" lon="5.57912">
        <ele>1879.2</ele>
        <time>2015-07-04T08:27:48.000Z</time>
      </trkpt>
      <trkpt lat="45.00202" lon="5.57911">
        <ele>1872.5</ele>
        <time>2015-07-04T08:27:55.000Z</time>
      </trkpt>
      <trkpt lat="45.00201" lon="5.57909">
        <ele>1873.5</ele>
        <time>2015-07-04T08:27:59.000Z</time>
      </trkpt>
      <trkpt lat="45.00204" lon="5.57912">
        <ele>1872.5</ele>
        <time>2015-07-04T08:28:03.000Z</time>
      </trkpt>
      <trkpt lat="45.00203" lon="5.57916">
        <ele>1866.6</ele>
        <time>2015-07-04T08:28:06.000Z</time>
      </trkpt>
      <trkpt lat="45.0019" lon="5.57913">
        <ele>1858.9</ele>
        <time>2015-07-04T08:28:25.000Z</time>
      </trkpt>
      <trkpt lat="45.00188" lon="5.57913">
        <ele>1856</ele>
        <time>2015-07-04T08:28:27.000Z</time>
      </trkpt>
      <trkpt lat="45.00188" lon="5.57912">
        <ele>1857</ele>
        <time>2015-07-04T08:28:28.000Z</time>
      </trkpt>
      <trkpt lat="45.00187" lon="5.5791">
        <ele>1858.8</ele>
        <time>2015-07-04T08:28:31.000Z</time>
      </trkpt>
      <trkpt lat="45.00186" lon="5.57909">
        <ele>1860.3</ele>
        <time>2015-07-04T08:28:32.000Z</time>
      </trkpt>
      <trkpt lat="45.00186" lon="5.57909">
        <ele>1859.9</ele>
        <time>2015-07-04T08:28:33.000Z</time>
      </trkpt>
      <trkpt lat="45.00184" lon="5.57908">
        <ele>1859</ele>
        <time>2015-07-04T08:28:36.000Z</time>
      </trkpt>
      <trkpt lat="45.00182" lon="5.57908">
        <ele>1857.8</ele>
        <time>2015-07-04T08:28:40.000Z</time>
      </trkpt>
      <trkpt lat="45.00177" lon="5.57908">
        <ele>1853.2</ele>
        <time>2015-07-04T08:28:46.000Z</time>
      </trkpt>
      <trkpt lat="45.00175" lon="5.57907">
        <ele>1853.1</ele>
        <time>2015-07-04T08:28:53.000Z</time>
      </trkpt>
      <trkpt lat="45.00176" lon="5.57909">
        <ele>1850.7</ele>
        <time>2015-07-04T08:29:00.000Z</time>
      </trkpt>
      <trkpt lat="45.00176" lon="5.57913">
        <ele>1845.2</ele>
        <time>2015-07-04T08:29:24.000Z</time>
      </trkpt>
      <trkpt lat="45.00176" lon="5.57916">
        <ele>1841.3</ele>
        <time>2015-07-04T08:29:55.000Z</time>
      </trkpt>
      <trkpt lat="45.00174" lon="5.579">
        <ele>1861.3</ele>
        <time>2015-07-04T08:32:47.000Z</time>
      </trkpt>
      <trkpt lat="45.00172" lon="5.57892">
        <ele>1869.1</ele>
        <time>2015-07-04T08:32:53.000Z</time>
      </trkpt>
      <trkpt lat="45.00168" lon="5.57886">
        <ele>1872.9</ele>
        <time>2015-07-04T08:33:00.000Z</time>
      </trkpt>
      <trkpt lat="45.00165" lon="5.57881">
        <ele>1878.9</ele>
        <time>2015-07-04T08:33:05.000Z</time>
      </trkpt>
      <trkpt lat="45.00164" lon="5.57876">
        <ele>1885.5</ele>
        <time>2015-07-04T08:33:12.000Z</time>
      </trkpt>
      <trkpt lat="45.00163" lon="5.57873">
        <ele>1890</ele>
        <time>2015-07-04T08:33:16.000Z</time>
      </trkpt>
      <trkpt lat="45.00162" lon="5.57873">
        <ele>1888.8</ele>
        <time>2015-07-04T08:33:17.000Z</time>
      </trkpt>
      <trkpt lat="45.00164" lon="5.57873">
        <ele>1890.7</ele>
        <time>2015-07-04T08:33:21.000Z</time>
      </trkpt>
      <trkpt lat="45.00165" lon="5.57881">
        <ele>1880</ele>
        <time>2015-07-04T08:33:28.000Z</time>
      </trkpt>
      <trkpt lat="45.00166" lon="5.57883">
        <ele>1876.3</ele>
        <time>2015-07-04T08:33:30.000Z</time>
      </trkpt>
      <trkpt lat="45.00166" lon="5.5789">
        <ele>1866</ele>
        <time>2015-07-04T08:33:33.000Z</time>
      </trkpt>
      <trkpt lat="45.00166" lon="5.57894">
        <ele>1860.5</ele>
        <time>2015-07-04T08:33:35.000Z</time>
      </trkpt>
      <trkpt lat="45.00168" lon="5.57895">
        <ele>1861.4</ele>
        <time>2015-07-04T08:33:38.000Z</time>
      </trkpt>
      <trkpt lat="45.00167" lon="5.57901">
        <ele>1853.2</ele>
        <time>2015-07-04T08:33:42.000Z</time>
      </trkpt>
      <trkpt lat="45.0017" lon="5.57893">
        <ele>1865.5</ele>
        <time>2015-07-04T08:33:49.000Z</time>
      </trkpt>
      <trkpt lat="45.00168" lon="5.57891">
        <ele>1866.2</ele>
        <time>2015-07-04T08:33:52.000Z</time>
      </trkpt>
      <trkpt lat="45.00167" lon="5.57886">
        <ele>1872.4</ele>
        <time>2015-07-04T08:33:57.000Z</time>
      </trkpt>
      <trkpt lat="45.00166" lon="5.57884">
        <ele>1875.7</ele>
        <time>2015-07-04T08:33:59.000Z</time>
      </trkpt>
      <trkpt lat="45.00166" lon="5.57881">
        <ele>1879.8</ele>
        <time>2015-07-04T08:34:01.000Z</time>
      </trkpt>
      <trkpt lat="45.00176" lon="5.57879">
        <ele>1893.1</ele>
        <time>2015-07-04T08:34:12.000Z</time>
      </trkpt>
      <trkpt lat="45.00177" lon="5.57879">
        <ele>1894.3</ele>
        <time>2015-07-04T08:34:14.000Z</time>
      </trkpt>
      <trkpt lat="45.00181" lon="5.57877">
        <ele>1901.2</ele>
        <time>2015-07-04T08:34:17.000Z</time>
      </trkpt>
      <trkpt lat="45.00185" lon="5.57874">
        <ele>1909.9</ele>
        <time>2015-07-04T08:34:20.000Z</time>
      </trkpt>
      <trkpt lat="45.00189" lon="5.57875">
        <ele>1912.7</ele>
        <time>2015-07-04T08:34:26.000Z</time>
      </trkpt>
      <trkpt lat="45.0019" lon="5.57877">
        <ele>1909.4</ele>
        <time>2015-07-04T08:34:30.000Z</time>
      </trkpt>
      <trkpt lat="45.00191" lon="5.57879">
        <ele>1908</ele>
        <time>2015-07-04T08:34:36.000Z</time>
      </trkpt>
      <trkpt lat="45.00195" lon="5.5788">
        <ele>1910</ele>
        <time>2015-07-04T08:34:51.000Z</time>
      </trkpt>
      <trkpt lat="45.00198" lon="5.57881">
        <ele>1910.2</ele>
        <time>2015-07-04T08:35:00.000Z</time>
      </trkpt>
      <trkpt lat="45.00203" lon="5.57898">
        <ele>1890.6</ele>
        <time>2015-07-04T08:35:31.000Z</time>
      </trkpt>
      <trkpt lat="45.00206" lon="5.57899">
        <ele>1891.9</ele>
        <time>2015-07-04T08:35:35.000Z</time>
      </trkpt>
      <trkpt lat="45.00208" lon="5.57898">
        <ele>1894.4</ele>
        <time>2015-07-04T08:35:40.000Z</time>
      </trkpt>
      <trkpt lat="45.00208" lon="5.57895">
        <ele>1898.8</ele>
        <time>2015-07-04T08:35:45.000Z</time>
      </trkpt>
      <trkpt lat="45.00208" lon="5.57893">
        <ele>1900.4</ele>
        <time>2015-07-04T08:35:47.000Z</time>
      </trkpt>
      <trkpt lat="45.00206" lon="5.5789">
        <ele>1903.6</ele>
        <time>2015-07-04T08:35:51.000Z</time>
      </trkpt>
      <trkpt lat="45.00208" lon="5.57889">
        <ele>1905.3</ele>
        <time>2015-07-04T08:35:55.000Z</time>
      </trkpt>
      <trkpt lat="45.00211" lon="5.57891">
        <ele>1906.3</ele>
        <time>2015-07-04T08:36:05.000Z</time>
      </trkpt>
      <trkpt lat="45.00213" lon="5.57888">
        <ele>1911.4</ele>
        <time>2015-07-04T08:36:23.000Z</time>
      </trkpt>
      <trkpt lat="45.00213" lon="5.57885">
        <ele>1915.6</ele>
        <time>2015-07-04T08:36:26.000Z</time>
      </trkpt>
      <trkpt lat="45.00214" lon="5.57883">
        <ele>1919.5</ele>
        <time>2015-07-04T08:36:29.000Z</time>
      </trkpt>
      <trkpt lat="45.00215" lon="5.57883">
        <ele>1919.6</ele>
        <time>2015-07-04T08:36:31.000Z</time>
      </trkpt>
      <trkpt lat="45.00216" lon="5.57885">
        <ele>1918.6</ele>
        <time>2015-07-04T08:36:33.000Z</time>
      </trkpt>
      <trkpt lat="45.00219" lon="5.57887">
        <ele>1917.8</ele>
        <time>2015-07-04T08:36:37.000Z</time>
      </trkpt>
      <trkpt lat="45.00223" lon="5.57889">
        <ele>1918.2</ele>
        <time>2015-07-04T08:36:44.000Z</time>
      </trkpt>
      <trkpt lat="45.00223" lon="5.57884">
        <ele>1924.3</ele>
        <time>2015-07-04T08:36:51.000Z</time>
      </trkpt>
      <trkpt lat="45.00223" lon="5.57879">
        <ele>1931.1</ele>
        <time>2015-07-04T08:36:57.000Z</time>
      </trkpt>
      <trkpt lat="45.00224" lon="5.57876">
        <ele>1934.9</ele>
        <time>2015-07-04T08:37:01.000Z</time>
      </trkpt>
      <trkpt lat="45.00225" lon="5.57873">
        <ele>1939</ele>
        <time>2015-07-04T08:37:06.000Z</time>
      </trkpt>
      <trkpt lat="45.00226" lon="5.57869">
        <ele>1943.9</ele>
        <time>2015-07-04T08:37:11.000Z</time>
      </trkpt>
      <trkpt lat="45.00228" lon="5.5787">
        <ele>1944.1</ele>
        <time>2015-07-04T08:37:17.000Z</time>
      </trkpt>
      <trkpt lat="45.0023" lon="5.57871">
        <ele>1942.7</ele>
        <time>2015-07-04T08:37:22.000Z</time>
      </trkpt>
      <trkpt lat="45.00231" lon="5.57872">
        <ele>1943.2</ele>
        <time>2015-07-04T08:37:27.000Z</time>
      </trkpt>
      <trkpt lat="45.00231" lon="5.5787">
        <ele>1945.1</ele>
        <time>2015-07-04T08:37:31.000Z</time>
      </trkpt>
      <trkpt lat="45.00231" lon="5.57871">
        <ele>1943.3</ele>
        <time>2015-07-04T08:37:34.000Z</time>
      </trkpt>
      <trkpt lat="45.00234" lon="5.57879">
        <ele>1936.1</ele>
        <time>2015-07-04T08:37:38.000Z</time>
      </trkpt>
      <trkpt lat="45.00235" lon="5.5788">
        <ele>1934.9</ele>
        <time>2015-07-04T08:37:39.000Z</time>
      </trkpt>
      <trkpt lat="45.00237" lon="5.57886">
        <ele>1930.6</ele>
        <time>2015-07-04T08:37:43.000Z</time>
      </trkpt>
      <trkpt lat="45.00238" lon="5.57888">
        <ele>1929.1</ele>
        <time>2015-07-04T08:37:46.000Z</time>
      </trkpt>
      <trkpt lat="45.00238" lon="5.57888">
        <ele>1928.9</ele>
        <time>2015-07-04T08:37:47.000Z</time>
      </trkpt>
      <trkpt lat="45.00238" lon="5.57884">
        <ele>1933.6</ele>
        <time>2015-07-04T08:37:55.000Z</time>
      </trkpt>
      <trkpt lat="45.00238" lon="5.57881">
        <ele>1936.4</ele>
        <time>2015-07-04T08:38:01.000Z</time>
      </trkpt>
      <trkpt lat="45.00239" lon="5.57878">
        <ele>1939</ele>
        <time>2015-07-04T08:38:06.000Z</time>
      </trkpt>
      <trkpt lat="45.00241" lon="5.57873">
        <ele>1945.2</ele>
        <time>2015-07-04T08:38:15.000Z</time>
      </trkpt>
      <trkpt lat="45.00242" lon="5.57872">
        <ele>1946.9</ele>
        <time>2015-07-04T08:38:20.000Z</time>
      </trkpt>
      <trkpt lat="45.00242" lon="5.57873">
        <ele>1946</ele>
        <time>2015-07-04T08:38:26.000Z</time>
      </trkpt>
      <trkpt lat="45.00246" lon="5.5789">
        <ele>1932.5</ele>
        <time>2015-07-04T08:39:22.000Z</time>
      </trkpt>
      <trkpt lat="45.00246" lon="5.57887">
        <ele>1935.1</ele>
        <time>2015-07-04T08:39:26.000Z</time>
      </trkpt>
      <trkpt lat="45.00246" lon="5.57886">
        <ele>1935.4</ele>
        <time>2015-07-04T08:39:27.000Z</time>
      </trkpt>
      <trkpt lat="45.00246" lon="5.57876">
        <ele>1945.1</ele>
        <time>2015-07-04T08:39:36.000Z</time>
      </trkpt>
      <trkpt lat="45.00248" lon="5.57876">
        <ele>1945.3</ele>
        <time>2015-07-04T08:39:42.000Z</time>
      </trkpt>
      <trkpt lat="45.0025" lon="5.57879">
        <ele>1944.2</ele>
        <time>2015-07-04T08:39:46.000Z</time>
      </trkpt>
      <trkpt lat="45.00251" lon="5.57873">
        <ele>1948.8</ele>
        <time>2015-07-04T08:39:52.000Z</time>
      </trkpt>
      <trkpt lat="45.00251" lon="5.57871">
        <ele>1950.6</ele>
        <time>2015-07-04T08:39:54.000Z</time>
      </trkpt>
      <trkpt lat="45.00251" lon="5.57871">
        <ele>1950.5</ele>
        <time>2015-07-04T08:39:56.000Z</time>
      </trkpt>
      <trkpt lat="45.00252" lon="5.57863">
        <ele>1956.9</ele>
        <time>2015-07-04T08:40:05.000Z</time>
      </trkpt>
      <trkpt lat="45.00254" lon="5.57863">
        <ele>1957.8</ele>
        <time>2015-07-04T08:40:09.000Z</time>
      </trkpt>
      <trkpt lat="45.00256" lon="5.57867">
        <ele>1955.7</ele>
        <time>2015-07-04T08:40:13.000Z</time>
      </trkpt>
      <trkpt lat="45.00257" lon="5.57865">
        <ele>1957.1</ele>
        <time>2015-07-04T08:40:17.000Z</time>
      </trkpt>
      <trkpt lat="45.00257" lon="5.57862">
        <ele>1960</ele>
        <time>2015-07-04T08:40:21.000Z</time>
      </trkpt>
      <trkpt lat="45.00259" lon="5.5786">
        <ele>1962.3</ele>
        <time>2015-07-04T08:40:25.000Z</time>
      </trkpt>
      <trkpt lat="45.00259" lon="5.57852">
        <ele>1971</ele>
        <time>2015-07-04T08:40:37.000Z</time>
      </trkpt>
      <trkpt lat="45.00259" lon="5.5785">
        <ele>1972.5</ele>
        <time>2015-07-04T08:40:42.000Z</time>
      </trkpt>
      <trkpt lat="45.00259" lon="5.57848">
        <ele>1974.5</ele>
        <time>2015-07-04T08:40:50.000Z</time>
      </trkpt>
      <trkpt lat="45.0026" lon="5.57848">
        <ele>1974.7</ele>
        <time>2015-07-04T08:40:53.000Z</time>
      </trkpt>
      <trkpt lat="45.00264" lon="5.57849">
        <ele>1975</ele>
        <time>2015-07-04T08:40:59.000Z</time>
      </trkpt>
      <trkpt lat="45.00268" lon="5.57848">
        <ele>1976.3</ele>
        <time>2015-07-04T08:41:04.000Z</time>
      </trkpt>
      <trkpt lat="45.00266" lon="5.57845">
        <ele>1978.1</ele>
        <time>2015-07-04T08:41:09.000Z</time>
      </trkpt>
      <trkpt lat="45.00263" lon="5.57843">
        <ele>1980.4</ele>
        <time>2015-07-04T08:41:14.000Z</time>
      </trkpt>
      <trkpt lat="45.00263" lon="5.5784">
        <ele>1983.4</ele>
        <time>2015-07-04T08:41:18.000Z</time>
      </trkpt>
      <trkpt lat="45.00262" lon="5.57837">
        <ele>1986.4</ele>
        <time>2015-07-04T08:41:23.000Z</time>
      </trkpt>
      <trkpt lat="45.00264" lon="5.57836">
        <ele>1987</ele>
        <time>2015-07-04T08:41:27.000Z</time>
      </trkpt>
      <trkpt lat="45.00268" lon="5.57836">
        <ele>1986.5</ele>
        <time>2015-07-04T08:41:32.000Z</time>
      </trkpt>
      <trkpt lat="45.00271" lon="5.57835">
        <ele>1987.6</ele>
        <time>2015-07-04T08:41:36.000Z</time>
      </trkpt>
      <trkpt lat="45.00274" lon="5.57834">
        <ele>1988.4</ele>
        <time>2015-07-04T08:41:40.000Z</time>
      </trkpt>
      <trkpt lat="45.00273" lon="5.57827">
        <ele>1997.1</ele>
        <time>2015-07-04T08:41:50.000Z</time>
      </trkpt>
      <trkpt lat="45.00273" lon="5.57825">
        <ele>1998.5</ele>
        <time>2015-07-04T08:41:52.000Z</time>
      </trkpt>
      <trkpt lat="45.00277" lon="5.5782">
        <ele>2003.4</ele>
        <time>2015-07-04T08:41:58.000Z</time>
      </trkpt>
      <trkpt lat="45.00276" lon="5.57819">
        <ele>2005.3</ele>
        <time>2015-07-04T08:42:04.000Z</time>
      </trkpt>
      <trkpt lat="45.00286" lon="5.57797">
        <ele>2026.2</ele>
        <time>2015-07-04T08:42:34.000Z</time>
      </trkpt>
      <trkpt lat="45.00294" lon="5.57782">
        <ele>2039.5</ele>
        <time>2015-07-04T08:42:52.000Z</time>
      </trkpt>
      <trkpt lat="45.00301" lon="5.57758">
        <ele>2055.1</ele>
        <time>2015-07-04T08:43:13.000Z</time>
      </trkpt>
      <trkpt lat="45.00301" lon="5.57756">
        <ele>2056</ele>
        <time>2015-07-04T08:43:14.000Z</time>
      </trkpt>
      <trkpt lat="45.00301" lon="5.57746">
        <ele>2061.8</ele>
        <time>2015-07-04T08:43:17.000Z</time>
      </trkpt>
      <trkpt lat="45.00303" lon="5.5774">
        <ele>2063.8</ele>
        <time>2015-07-04T08:43:21.000Z</time>
      </trkpt>
      <trkpt lat="45.00306" lon="5.57735">
        <ele>2063.7</ele>
        <time>2015-07-04T08:43:25.000Z</time>
      </trkpt>
      <trkpt lat="45.00312" lon="5.57737">
        <ele>2060.6</ele>
        <time>2015-07-04T08:43:31.000Z</time>
      </trkpt>
      <trkpt lat="45.00317" lon="5.57729">
        <ele>2061.4</ele>
        <time>2015-07-04T08:43:34.000Z</time>
      </trkpt>
      <trkpt lat="45.00325" lon="5.57722">
        <ele>2060.7</ele>
        <time>2015-07-04T08:43:42.000Z</time>
      </trkpt>
      <trkpt lat="45.0033" lon="5.57716">
        <ele>2059.4</ele>
        <time>2015-07-04T08:43:47.000Z</time>
      </trkpt>
      <trkpt lat="45.00334" lon="5.57717">
        <ele>2057.6</ele>
        <time>2015-07-04T08:43:49.000Z</time>
      </trkpt>
      <trkpt lat="45.00335" lon="5.57701">
        <ele>2059.7</ele>
        <time>2015-07-04T08:44:02.000Z</time>
      </trkpt>
      <trkpt lat="45.0033" lon="5.57696">
        <ele>2062</ele>
        <time>2015-07-04T08:44:16.000Z</time>
      </trkpt>
      <trkpt lat="45.00349" lon="5.57684">
        <ele>2056.9</ele>
        <time>2015-07-04T08:45:19.000Z</time>
      </trkpt>
      <trkpt lat="45.0035" lon="5.5768">
        <ele>2056.7</ele>
        <time>2015-07-04T08:45:21.000Z</time>
      </trkpt>
      <trkpt lat="45.00345" lon="5.57655">
        <ele>2056.3</ele>
        <time>2015-07-04T08:45:49.000Z</time>
      </trkpt>
      <trkpt lat="45.00332" lon="5.57764">
        <ele>2042.1</ele>
        <time>2015-07-04T08:45:56.000Z</time>
      </trkpt>
      <trkpt lat="45.00329" lon="5.5779">
        <ele>2028.6</ele>
        <time>2015-07-04T08:45:58.000Z</time>
      </trkpt>
      <trkpt lat="45.00328" lon="5.57794">
        <ele>2026.3</ele>
        <time>2015-07-04T08:45:59.000Z</time>
      </trkpt>
      <trkpt lat="45.00327" lon="5.57806">
        <ele>2019.1</ele>
        <time>2015-07-04T08:46:02.000Z</time>
      </trkpt>
      <trkpt lat="45.00325" lon="5.57815">
        <ele>2015.4</ele>
        <time>2015-07-04T08:46:05.000Z</time>
      </trkpt>
      <trkpt lat="45.00325" lon="5.57823">
        <ele>2011.9</ele>
        <time>2015-07-04T08:46:09.000Z</time>
      </trkpt>
      <trkpt lat="45.00324" lon="5.57825">
        <ele>2010.7</ele>
        <time>2015-07-04T08:46:10.000Z</time>
      </trkpt>
      <trkpt lat="45.00323" lon="5.57825">
        <ele>2010.4</ele>
        <time>2015-07-04T08:46:16.000Z</time>
      </trkpt>
      <trkpt lat="45.00324" lon="5.57821">
        <ele>2012.8</ele>
        <time>2015-07-04T08:46:21.000Z</time>
      </trkpt>
      <trkpt lat="45.00326" lon="5.57818">
        <ele>2014.8</ele>
        <time>2015-07-04T08:46:25.000Z</time>
      </trkpt>
      <trkpt lat="45.00328" lon="5.57814">
        <ele>2016.9</ele>
        <time>2015-07-04T08:46:30.000Z</time>
      </trkpt>
      <trkpt lat="45.00327" lon="5.57805">
        <ele>2019.9</ele>
        <time>2015-07-04T08:46:44.000Z</time>
      </trkpt>
      <trkpt lat="45.00328" lon="5.57797">
        <ele>2024.6</ele>
        <time>2015-07-04T08:46:54.000Z</time>
      </trkpt>
      <trkpt lat="45.0033" lon="5.57799">
        <ele>2023.8</ele>
        <time>2015-07-04T08:47:01.000Z</time>
      </trkpt>
      <trkpt lat="45.00332" lon="5.57799">
        <ele>2024.1</ele>
        <time>2015-07-04T08:47:05.000Z</time>
      </trkpt>
      <trkpt lat="45.00333" lon="5.57796">
        <ele>2025.8</ele>
        <time>2015-07-04T08:47:28.000Z</time>
      </trkpt>
      <trkpt lat="45.00334" lon="5.57793">
        <ele>2027.8</ele>
        <time>2015-07-04T08:47:32.000Z</time>
      </trkpt>
      <trkpt lat="45.00337" lon="5.57784">
        <ele>2033.3</ele>
        <time>2015-07-04T08:47:39.000Z</time>
      </trkpt>
      <trkpt lat="45.00337" lon="5.57781">
        <ele>2034.7</ele>
        <time>2015-07-04T08:47:42.000Z</time>
      </trkpt>
      <trkpt lat="45.00341" lon="5.57776">
        <ele>2037.6</ele>
        <time>2015-07-04T08:47:46.000Z</time>
      </trkpt>
      <trkpt lat="45.00342" lon="5.57775">
        <ele>2038.2</ele>
        <time>2015-07-04T08:47:47.000Z</time>
      </trkpt>
      <trkpt lat="45.00342" lon="5.57777">
        <ele>2037.2</ele>
        <time>2015-07-04T08:47:51.000Z</time>
      </trkpt>
      <trkpt lat="45.00341" lon="5.57782">
        <ele>2035.1</ele>
        <time>2015-07-04T08:47:56.000Z</time>
      </trkpt>
      <trkpt lat="45.00344" lon="5.57783">
        <ele>2035.4</ele>
        <time>2015-07-04T08:47:59.000Z</time>
      </trkpt>
      <trkpt lat="45.00344" lon="5.5779">
        <ele>2033.2</ele>
        <time>2015-07-04T08:48:04.000Z</time>
      </trkpt>
      <trkpt lat="45.00347" lon="5.57794">
        <ele>2033</ele>
        <time>2015-07-04T08:48:09.000Z</time>
      </trkpt>
      <trkpt lat="45.00347" lon="5.578">
        <ele>2031.5</ele>
        <time>2015-07-04T08:48:15.000Z</time>
      </trkpt>
      <trkpt lat="45.00348" lon="5.57795">
        <ele>2033.5</ele>
        <time>2015-07-04T08:48:20.000Z</time>
      </trkpt>
      <trkpt lat="45.00348" lon="5.57792">
        <ele>2034.3</ele>
        <time>2015-07-04T08:48:25.000Z</time>
      </trkpt>
      <trkpt lat="45.00348" lon="5.57785">
        <ele>2036</ele>
        <time>2015-07-04T08:48:37.000Z</time>
      </trkpt>
      <trkpt lat="45.00349" lon="5.57782">
        <ele>2037.5</ele>
        <time>2015-07-04T08:48:42.000Z</time>
      </trkpt>
      <trkpt lat="45.00348" lon="5.57777">
        <ele>2038.4</ele>
        <time>2015-07-04T08:48:47.000Z</time>
      </trkpt>
      <trkpt lat="45.0035" lon="5.57774">
        <ele>2039.8</ele>
        <time>2015-07-04T08:48:50.000Z</time>
      </trkpt>
      <trkpt lat="45.00351" lon="5.57778">
        <ele>2038.9</ele>
        <time>2015-07-04T08:48:54.000Z</time>
      </trkpt>
      <trkpt lat="45.00353" lon="5.57782">
        <ele>2038.3</ele>
        <time>2015-07-04T08:48:59.000Z</time>
      </trkpt>
      <trkpt lat="45.00353" lon="5.57778">
        <ele>2039.2</ele>
        <time>2015-07-04T08:49:04.000Z</time>
      </trkpt>
      <trkpt lat="45.00353" lon="5.57774">
        <ele>2040.5</ele>
        <time>2015-07-04T08:49:08.000Z</time>
      </trkpt>
      <trkpt lat="45.00352" lon="5.57772">
        <ele>2040.9</ele>
        <time>2015-07-04T08:49:14.000Z</time>
      </trkpt>
      <trkpt lat="45.00354" lon="5.57767">
        <ele>2042.7</ele>
        <time>2015-07-04T08:49:29.000Z</time>
      </trkpt>
      <trkpt lat="45.00354" lon="5.57765">
        <ele>2043.1</ele>
        <time>2015-07-04T08:49:30.000Z</time>
      </trkpt>
      <trkpt lat="45.00354" lon="5.57762">
        <ele>2044</ele>
        <time>2015-07-04T08:49:33.000Z</time>
      </trkpt>
      <trkpt lat="45.00353" lon="5.57756">
        <ele>2045.7</ele>
        <time>2015-07-04T08:49:38.000Z</time>
      </trkpt>
      <trkpt lat="45.00353" lon="5.57751">
        <ele>2047.2</ele>
        <time>2015-07-04T08:49:42.000Z</time>
      </trkpt>
      <trkpt lat="45.00351" lon="5.57745">
        <ele>2048.8</ele>
        <time>2015-07-04T08:49:47.000Z</time>
      </trkpt>
      <trkpt lat="45.00354" lon="5.57749">
        <ele>2047.7</ele>
        <time>2015-07-04T08:49:50.000Z</time>
      </trkpt>
      <trkpt lat="45.00355" lon="5.5775">
        <ele>2047.4</ele>
        <time>2015-07-04T08:49:51.000Z</time>
      </trkpt>
      <trkpt lat="45.00355" lon="5.57748">
        <ele>2047.8</ele>
        <time>2015-07-04T08:49:58.000Z</time>
      </trkpt>
      <trkpt lat="45.00352" lon="5.57747">
        <ele>2048.2</ele>
        <time>2015-07-04T08:50:05.000Z</time>
      </trkpt>
      <trkpt lat="45.00355" lon="5.57756">
        <ele>2045.8</ele>
        <time>2015-07-04T08:50:12.000Z</time>
      </trkpt>
      <trkpt lat="45.00358" lon="5.57759">
        <ele>2044.9</ele>
        <time>2015-07-04T08:50:16.000Z</time>
      </trkpt>
      <trkpt lat="45.00361" lon="5.57761">
        <ele>2044.5</ele>
        <time>2015-07-04T08:50:22.000Z</time>
      </trkpt>
      <trkpt lat="45.00362" lon="5.5776">
        <ele>2045</ele>
        <time>2015-07-04T08:50:36.000Z</time>
      </trkpt>
      <trkpt lat="45.00362" lon="5.57756">
        <ele>2045.9</ele>
        <time>2015-07-04T08:50:40.000Z</time>
      </trkpt>
      <trkpt lat="45.00362" lon="5.57756">
        <ele>2045.8</ele>
        <time>2015-07-04T08:50:41.000Z</time>
      </trkpt>
      <trkpt lat="45.00363" lon="5.57755">
        <ele>2046.3</ele>
        <time>2015-07-04T08:50:42.000Z</time>
      </trkpt>
      <trkpt lat="45.00363" lon="5.57753">
        <ele>2046.6</ele>
        <time>2015-07-04T08:50:44.000Z</time>
      </trkpt>
      <trkpt lat="45.00363" lon="5.5775">
        <ele>2047.3</ele>
        <time>2015-07-04T08:50:46.000Z</time>
      </trkpt>
      <trkpt lat="45.00363" lon="5.57749">
        <ele>2047.3</ele>
        <time>2015-07-04T08:50:47.000Z</time>
      </trkpt>
      <trkpt lat="45.00363" lon="5.57746">
        <ele>2047.7</ele>
        <time>2015-07-04T08:50:50.000Z</time>
      </trkpt>
      <trkpt lat="45.00361" lon="5.57738">
        <ele>2048.7</ele>
        <time>2015-07-04T08:50:55.000Z</time>
      </trkpt>
      <trkpt lat="45.00364" lon="5.57732">
        <ele>2049.6</ele>
        <time>2015-07-04T08:51:02.000Z</time>
      </trkpt>
      <trkpt lat="45.00366" lon="5.57727">
        <ele>2050.1</ele>
        <time>2015-07-04T08:51:08.000Z</time>
      </trkpt>
      <trkpt lat="45.00369" lon="5.57724">
        <ele>2050.2</ele>
        <time>2015-07-04T08:51:12.000Z</time>
      </trkpt>
      <trkpt lat="45.0037" lon="5.5772">
        <ele>2050.5</ele>
        <time>2015-07-04T08:51:17.000Z</time>
      </trkpt>
      <trkpt lat="45.00372" lon="5.57718">
        <ele>2050.5</ele>
        <time>2015-07-04T08:51:24.000Z</time>
      </trkpt>
      <trkpt lat="45.00376" lon="5.57716">
        <ele>2050.3</ele>
        <time>2015-07-04T08:51:32.000Z</time>
      </trkpt>
      <trkpt lat="45.00376" lon="5.57715">
        <ele>2050.3</ele>
        <time>2015-07-04T08:53:06.000Z</time>
      </trkpt>
      <trkpt lat="45.00371" lon="5.57722">
        <ele>2050.3</ele>
        <time>2015-07-04T08:56:23.000Z</time>
      </trkpt>
      <trkpt lat="45.00367" lon="5.57716">
        <ele>2051.1</ele>
        <time>2015-07-04T08:56:28.000Z</time>
      </trkpt>
      <trkpt lat="45.00366" lon="5.57714">
        <ele>2051.4</ele>
        <time>2015-07-04T08:56:30.000Z</time>
      </trkpt>
      <trkpt lat="45.00364" lon="5.57709">
        <ele>2052.1</ele>
        <time>2015-07-04T08:56:34.000Z</time>
      </trkpt>
      <trkpt lat="45.00357" lon="5.57699">
        <ele>2054.5</ele>
        <time>2015-07-04T08:56:42.000Z</time>
      </trkpt>
      <trkpt lat="45.00352" lon="5.57687">
        <ele>2056.2</ele>
        <time>2015-07-04T08:56:51.000Z</time>
      </trkpt>
      <trkpt lat="45.00349" lon="5.57683">
        <ele>2056.8</ele>
        <time>2015-07-04T08:56:55.000Z</time>
      </trkpt>
      <trkpt lat="45.00347" lon="5.57681">
        <ele>2057.4</ele>
        <time>2015-07-04T08:56:58.000Z</time>
      </trkpt>
      <trkpt lat="45.00346" lon="5.5768">
        <ele>2057.5</ele>
        <time>2015-07-04T08:56:59.000Z</time>
      </trkpt>
      <trkpt lat="45.00345" lon="5.57676">
        <ele>2057.6</ele>
        <time>2015-07-04T08:57:02.000Z</time>
      </trkpt>
      <trkpt lat="45.00345" lon="5.5767">
        <ele>2057.6</ele>
        <time>2015-07-04T08:57:06.000Z</time>
      </trkpt>
      <trkpt lat="45.00343" lon="5.57663">
        <ele>2057.5</ele>
        <time>2015-07-04T08:57:12.000Z</time>
      </trkpt>
      <trkpt lat="45.00343" lon="5.57655">
        <ele>2056.7</ele>
        <time>2015-07-04T08:57:17.000Z</time>
      </trkpt>
      <trkpt lat="45.00341" lon="5.57653">
        <ele>2056.8</ele>
        <time>2015-07-04T08:57:19.000Z</time>
      </trkpt>
      <trkpt lat="45.00335" lon="5.57643">
        <ele>2057</ele>
        <time>2015-07-04T08:57:28.000Z</time>
      </trkpt>
      <trkpt lat="45.00336" lon="5.57634">
        <ele>2056</ele>
        <time>2015-07-04T08:57:35.000Z</time>
      </trkpt>
      <trkpt lat="45.00336" lon="5.57633">
        <ele>2055.9</ele>
        <time>2015-07-04T08:57:36.000Z</time>
      </trkpt>
      <trkpt lat="45.00334" lon="5.57628">
        <ele>2055.9</ele>
        <time>2015-07-04T08:57:40.000Z</time>
      </trkpt>
      <trkpt lat="45.00334" lon="5.57627">
        <ele>2056.1</ele>
        <time>2015-07-04T08:57:41.000Z</time>
      </trkpt>
      <trkpt lat="45.00328" lon="5.57624">
        <ele>2057.8</ele>
        <time>2015-07-04T08:57:47.000Z</time>
      </trkpt>
      <trkpt lat="45.00326" lon="5.5762">
        <ele>2058.3</ele>
        <time>2015-07-04T08:57:51.000Z</time>
      </trkpt>
      <trkpt lat="45.00326" lon="5.57619">
        <ele>2058.3</ele>
        <time>2015-07-04T08:57:52.000Z</time>
      </trkpt>
      <trkpt lat="45.00325" lon="5.57616">
        <ele>2058.3</ele>
        <time>2015-07-04T08:57:55.000Z</time>
      </trkpt>
      <trkpt lat="45.00325" lon="5.57615">
        <ele>2058.2</ele>
        <time>2015-07-04T08:57:56.000Z</time>
      </trkpt>
      <trkpt lat="45.00326" lon="5.57608">
        <ele>2058.1</ele>
        <time>2015-07-04T08:58:01.000Z</time>
      </trkpt>
      <trkpt lat="45.00326" lon="5.57604">
        <ele>2058.3</ele>
        <time>2015-07-04T08:58:05.000Z</time>
      </trkpt>
      <trkpt lat="45.00326" lon="5.57603">
        <ele>2058.4</ele>
        <time>2015-07-04T08:58:06.000Z</time>
      </trkpt>
      <trkpt lat="45.00326" lon="5.57595">
        <ele>2059</ele>
        <time>2015-07-04T08:58:13.000Z</time>
      </trkpt>
      <trkpt lat="45.00328" lon="5.57586">
        <ele>2058.8</ele>
        <time>2015-07-04T08:58:20.000Z</time>
      </trkpt>
      <trkpt lat="45.00329" lon="5.5758">
        <ele>2059</ele>
        <time>2015-07-04T08:58:25.000Z</time>
      </trkpt>
      <trkpt lat="45.0033" lon="5.57578">
        <ele>2058.8</ele>
        <time>2015-07-04T08:58:27.000Z</time>
      </trkpt>
      <trkpt lat="45.0033" lon="5.57577">
        <ele>2058.9</ele>
        <time>2015-07-04T08:58:28.000Z</time>
      </trkpt>
      <trkpt lat="45.00329" lon="5.5757">
        <ele>2059.7</ele>
        <time>2015-07-04T08:58:33.000Z</time>
      </trkpt>
      <trkpt lat="45.00328" lon="5.57567">
        <ele>2060.2</ele>
        <time>2015-07-04T08:58:35.000Z</time>
      </trkpt>
      <trkpt lat="45.00325" lon="5.57563">
        <ele>2061.4</ele>
        <time>2015-07-04T08:58:39.000Z</time>
      </trkpt>
      <trkpt lat="45.00325" lon="5.57562">
        <ele>2061.6</ele>
        <time>2015-07-04T08:58:40.000Z</time>
      </trkpt>
      <trkpt lat="45.00324" lon="5.5756">
        <ele>2062</ele>
        <time>2015-07-04T08:58:43.000Z</time>
      </trkpt>
      <trkpt lat="45.00325" lon="5.57554">
        <ele>2062.2</ele>
        <time>2015-07-04T08:58:47.000Z</time>
      </trkpt>
      <trkpt lat="45.00323" lon="5.57547">
        <ele>2063.5</ele>
        <time>2015-07-04T08:58:53.000Z</time>
      </trkpt>
      <trkpt lat="45.00322" lon="5.57536">
        <ele>2065.6</ele>
        <time>2015-07-04T08:59:02.000Z</time>
      </trkpt>
      <trkpt lat="45.0032" lon="5.57523">
        <ele>2067.9</ele>
        <time>2015-07-04T08:59:11.000Z</time>
      </trkpt>
      <trkpt lat="45.0032" lon="5.57519">
        <ele>2068.6</ele>
        <time>2015-07-04T08:59:16.000Z</time>
      </trkpt>
      <trkpt lat="45.00321" lon="5.57516">
        <ele>2068.7</ele>
        <time>2015-07-04T08:59:18.000Z</time>
      </trkpt>
      <trkpt lat="45.00321" lon="5.57509">
        <ele>2069.4</ele>
        <time>2015-07-04T08:59:24.000Z</time>
      </trkpt>
      <trkpt lat="45.00322" lon="5.57507">
        <ele>2069.5</ele>
        <time>2015-07-04T08:59:26.000Z</time>
      </trkpt>
      <trkpt lat="45.00323" lon="5.57502">
        <ele>2069.7</ele>
        <time>2015-07-04T08:59:29.000Z</time>
      </trkpt>
      <trkpt lat="45.00324" lon="5.57495">
        <ele>2070.2</ele>
        <time>2015-07-04T08:59:34.000Z</time>
      </trkpt>
      <trkpt lat="45.00324" lon="5.57491">
        <ele>2071.2</ele>
        <time>2015-07-04T08:59:39.000Z</time>
      </trkpt>
      <trkpt lat="45.00322" lon="5.57487">
        <ele>2073.1</ele>
        <time>2015-07-04T08:59:44.000Z</time>
      </trkpt>
      <trkpt lat="45.0032" lon="5.5748">
        <ele>2075.3</ele>
        <time>2015-07-04T08:59:50.000Z</time>
      </trkpt>
      <trkpt lat="45.00319" lon="5.57474">
        <ele>2076.6</ele>
        <time>2015-07-04T08:59:55.000Z</time>
      </trkpt>
      <trkpt lat="45.0032" lon="5.57465">
        <ele>2077.3</ele>
        <time>2015-07-04T09:00:01.000Z</time>
      </trkpt>
      <trkpt lat="45.0032" lon="5.57465">
        <ele>2077.3</ele>
        <time>2015-07-04T09:00:02.000Z</time>
      </trkpt>
      <trkpt lat="45.00319" lon="5.57461">
        <ele>2077.7</ele>
        <time>2015-07-04T09:00:04.000Z</time>
      </trkpt>
      <trkpt lat="45.00319" lon="5.5746">
        <ele>2077.8</ele>
        <time>2015-07-04T09:00:05.000Z</time>
      </trkpt>
      <trkpt lat="45.00319" lon="5.57457">
        <ele>2078.1</ele>
        <time>2015-07-04T09:00:08.000Z</time>
      </trkpt>
      <trkpt lat="45.00318" lon="5.57456">
        <ele>2078.4</ele>
        <time>2015-07-04T09:00:09.000Z</time>
      </trkpt>
      <trkpt lat="45.00318" lon="5.57452">
        <ele>2078.9</ele>
        <time>2015-07-04T09:00:12.000Z</time>
      </trkpt>
      <trkpt lat="45.00317" lon="5.57444">
        <ele>2079.7</ele>
        <time>2015-07-04T09:00:16.000Z</time>
      </trkpt>
      <trkpt lat="45.00316" lon="5.5744">
        <ele>2079.9</ele>
        <time>2015-07-04T09:00:19.000Z</time>
      </trkpt>
      <trkpt lat="45.00314" lon="5.57431">
        <ele>2080.8</ele>
        <time>2015-07-04T09:00:25.000Z</time>
      </trkpt>
      <trkpt lat="45.00312" lon="5.57422">
        <ele>2081.9</ele>
        <time>2015-07-04T09:00:31.000Z</time>
      </trkpt>
      <trkpt lat="45.00312" lon="5.5742">
        <ele>2082</ele>
        <time>2015-07-04T09:00:32.000Z</time>
      </trkpt>
      <trkpt lat="45.0031" lon="5.57417">
        <ele>2082.6</ele>
        <time>2015-07-04T09:00:35.000Z</time>
      </trkpt>
      <trkpt lat="45.00309" lon="5.57408">
        <ele>2083.2</ele>
        <time>2015-07-04T09:00:41.000Z</time>
      </trkpt>
      <trkpt lat="45.00309" lon="5.57404">
        <ele>2083.2</ele>
        <time>2015-07-04T09:00:44.000Z</time>
      </trkpt>
      <trkpt lat="45.00309" lon="5.574">
        <ele>2083.4</ele>
        <time>2015-07-04T09:00:47.000Z</time>
      </trkpt>
      <trkpt lat="45.00309" lon="5.57386">
        <ele>2084.3</ele>
        <time>2015-07-04T09:00:55.000Z</time>
      </trkpt>
      <trkpt lat="45.0031" lon="5.57373">
        <ele>2085.2</ele>
        <time>2015-07-04T09:01:02.000Z</time>
      </trkpt>
      <trkpt lat="45.00314" lon="5.57365">
        <ele>2084.8</ele>
        <time>2015-07-04T09:01:08.000Z</time>
      </trkpt>
      <trkpt lat="45.00313" lon="5.57356">
        <ele>2086.2</ele>
        <time>2015-07-04T09:01:15.000Z</time>
      </trkpt>
      <trkpt lat="45.00315" lon="5.57347">
        <ele>2087.1</ele>
        <time>2015-07-04T09:01:20.000Z</time>
      </trkpt>
      <trkpt lat="45.00318" lon="5.57335">
        <ele>2087.7</ele>
        <time>2015-07-04T09:01:27.000Z</time>
      </trkpt>
      <trkpt lat="45.00318" lon="5.57333">
        <ele>2088</ele>
        <time>2015-07-04T09:01:28.000Z</time>
      </trkpt>
      <trkpt lat="45.00319" lon="5.57325">
        <ele>2089</ele>
        <time>2015-07-04T09:01:33.000Z</time>
      </trkpt>
      <trkpt lat="45.0032" lon="5.57323">
        <ele>2089</ele>
        <time>2015-07-04T09:01:34.000Z</time>
      </trkpt>
      <trkpt lat="45.00321" lon="5.57319">
        <ele>2089.2</ele>
        <time>2015-07-04T09:01:38.000Z</time>
      </trkpt>
      <trkpt lat="45.00322" lon="5.57315">
        <ele>2089.4</ele>
        <time>2015-07-04T09:01:41.000Z</time>
      </trkpt>
      <trkpt lat="45.00324" lon="5.5731">
        <ele>2089.7</ele>
        <time>2015-07-04T09:01:44.000Z</time>
      </trkpt>
      <trkpt lat="45.00324" lon="5.57309">
        <ele>2089.8</ele>
        <time>2015-07-04T09:01:45.000Z</time>
      </trkpt>
      <trkpt lat="45.00329" lon="5.57298">
        <ele>2090.2</ele>
        <time>2015-07-04T09:01:52.000Z</time>
      </trkpt>
      <trkpt lat="45.00331" lon="5.5729">
        <ele>2090.7</ele>
        <time>2015-07-04T09:01:58.000Z</time>
      </trkpt>
      <trkpt lat="45.00334" lon="5.57277">
        <ele>2092</ele>
        <time>2015-07-04T09:02:06.000Z</time>
      </trkpt>
      <trkpt lat="45.00336" lon="5.57268">
        <ele>2092.5</ele>
        <time>2015-07-04T09:02:12.000Z</time>
      </trkpt>
      <trkpt lat="45.0034" lon="5.57255">
        <ele>2093.1</ele>
        <time>2015-07-04T09:02:20.000Z</time>
      </trkpt>
      <trkpt lat="45.00342" lon="5.57242">
        <ele>2093.4</ele>
        <time>2015-07-04T09:02:27.000Z</time>
      </trkpt>
      <trkpt lat="45.00344" lon="5.57227">
        <ele>2094.4</ele>
        <time>2015-07-04T09:02:35.000Z</time>
      </trkpt>
      <trkpt lat="45.00345" lon="5.57224">
        <ele>2094.4</ele>
        <time>2015-07-04T09:02:38.000Z</time>
      </trkpt>
      <trkpt lat="45.00346" lon="5.57223">
        <ele>2094.1</ele>
        <time>2015-07-04T09:02:40.000Z</time>
      </trkpt>
      <trkpt lat="45.00346" lon="5.57221">
        <ele>2094.1</ele>
        <time>2015-07-04T09:02:41.000Z</time>
      </trkpt>
      <trkpt lat="45.00349" lon="5.57213">
        <ele>2093.3</ele>
        <time>2015-07-04T09:02:47.000Z</time>
      </trkpt>
      <trkpt lat="45.00355" lon="5.57197">
        <ele>2091.5</ele>
        <time>2015-07-04T09:02:55.000Z</time>
      </trkpt>
      <trkpt lat="45.00358" lon="5.57187">
        <ele>2091.6</ele>
        <time>2015-07-04T09:03:01.000Z</time>
      </trkpt>
      <trkpt lat="45.0036" lon="5.57177">
        <ele>2092.4</ele>
        <time>2015-07-04T09:03:08.000Z</time>
      </trkpt>
      <trkpt lat="45.0036" lon="5.57176">
        <ele>2092.7</ele>
        <time>2015-07-04T09:03:09.000Z</time>
      </trkpt>
      <trkpt lat="45.00361" lon="5.57171">
        <ele>2093.4</ele>
        <time>2015-07-04T09:03:13.000Z</time>
      </trkpt>
      <trkpt lat="45.00362" lon="5.57168">
        <ele>2093.6</ele>
        <time>2015-07-04T09:03:16.000Z</time>
      </trkpt>
      <trkpt lat="45.00362" lon="5.57158">
        <ele>2095.4</ele>
        <time>2015-07-04T09:03:23.000Z</time>
      </trkpt>
      <trkpt lat="45.00364" lon="5.57148">
        <ele>2096.9</ele>
        <time>2015-07-04T09:03:30.000Z</time>
      </trkpt>
      <trkpt lat="45.00364" lon="5.57136">
        <ele>2099.1</ele>
        <time>2015-07-04T09:03:39.000Z</time>
      </trkpt>
      <trkpt lat="45.00365" lon="5.57126">
        <ele>2100.6</ele>
        <time>2015-07-04T09:03:46.000Z</time>
      </trkpt>
      <trkpt lat="45.00365" lon="5.57118">
        <ele>2102.1</ele>
        <time>2015-07-04T09:03:52.000Z</time>
      </trkpt>
      <trkpt lat="45.00366" lon="5.57107">
        <ele>2103.9</ele>
        <time>2015-07-04T09:04:00.000Z</time>
      </trkpt>
      <trkpt lat="45.00366" lon="5.57104">
        <ele>2104.2</ele>
        <time>2015-07-04T09:04:02.000Z</time>
      </trkpt>
      <trkpt lat="45.00367" lon="5.57097">
        <ele>2105.6</ele>
        <time>2015-07-04T09:04:08.000Z</time>
      </trkpt>
      <trkpt lat="45.00369" lon="5.57088">
        <ele>2106.4</ele>
        <time>2015-07-04T09:04:15.000Z</time>
      </trkpt>
      <trkpt lat="45.00373" lon="5.57074">
        <ele>2108</ele>
        <time>2015-07-04T09:04:25.000Z</time>
      </trkpt>
      <trkpt lat="45.00377" lon="5.57064">
        <ele>2108.8</ele>
        <time>2015-07-04T09:04:33.000Z</time>
      </trkpt>
      <trkpt lat="45.00378" lon="5.57061">
        <ele>2109</ele>
        <time>2015-07-04T09:04:36.000Z</time>
      </trkpt>
      <trkpt lat="45.00379" lon="5.57058">
        <ele>2109.1</ele>
        <time>2015-07-04T09:04:39.000Z</time>
      </trkpt>
      <trkpt lat="45.0038" lon="5.57057">
        <ele>2109.2</ele>
        <time>2015-07-04T09:04:40.000Z</time>
      </trkpt>
      <trkpt lat="45.00382" lon="5.57046">
        <ele>2111.4</ele>
        <time>2015-07-04T09:04:49.000Z</time>
      </trkpt>
      <trkpt lat="45.00385" lon="5.57036">
        <ele>2113.1</ele>
        <time>2015-07-04T09:04:58.000Z</time>
      </trkpt>
      <trkpt lat="45.00388" lon="5.5703">
        <ele>2113.8</ele>
        <time>2015-07-04T09:05:04.000Z</time>
      </trkpt>
      <trkpt lat="45.00392" lon="5.57021">
        <ele>2115.1</ele>
        <time>2015-07-04T09:05:11.000Z</time>
      </trkpt>
      <trkpt lat="45.00395" lon="5.57013">
        <ele>2116.1</ele>
        <time>2015-07-04T09:05:18.000Z</time>
      </trkpt>
      <trkpt lat="45.00397" lon="5.57004">
        <ele>2118.4</ele>
        <time>2015-07-04T09:05:25.000Z</time>
      </trkpt>
      <trkpt lat="45.00399" lon="5.56997">
        <ele>2119.9</ele>
        <time>2015-07-04T09:05:30.000Z</time>
      </trkpt>
      <trkpt lat="45.00399" lon="5.56997">
        <ele>2120.1</ele>
        <time>2015-07-04T09:05:31.000Z</time>
      </trkpt>
      <trkpt lat="45.00399" lon="5.56995">
        <ele>2120.7</ele>
        <time>2015-07-04T09:05:32.000Z</time>
      </trkpt>
      <trkpt lat="45.00401" lon="5.56992">
        <ele>2120.9</ele>
        <time>2015-07-04T09:05:35.000Z</time>
      </trkpt>
      <trkpt lat="45.00403" lon="5.56992">
        <ele>2120.4</ele>
        <time>2015-07-04T09:05:38.000Z</time>
      </trkpt>
      <trkpt lat="45.00403" lon="5.56991">
        <ele>2120.5</ele>
        <time>2015-07-04T09:05:39.000Z</time>
      </trkpt>
      <trkpt lat="45.00405" lon="5.5699">
        <ele>2120.5</ele>
        <time>2015-07-04T09:05:41.000Z</time>
      </trkpt>
      <trkpt lat="45.00406" lon="5.56986">
        <ele>2121.5</ele>
        <time>2015-07-04T09:05:47.000Z</time>
      </trkpt>
      <trkpt lat="45.00409" lon="5.56981">
        <ele>2122.4</ele>
        <time>2015-07-04T09:05:54.000Z</time>
      </trkpt>
      <trkpt lat="45.00411" lon="5.56976">
        <ele>2123.4</ele>
        <time>2015-07-04T09:06:00.000Z</time>
      </trkpt>
      <trkpt lat="45.00412" lon="5.56967">
        <ele>2125.5</ele>
        <time>2015-07-04T09:06:06.000Z</time>
      </trkpt>
      <trkpt lat="45.00412" lon="5.56966">
        <ele>2125.9</ele>
        <time>2015-07-04T09:06:07.000Z</time>
      </trkpt>
      <trkpt lat="45.00413" lon="5.56961">
        <ele>2127.1</ele>
        <time>2015-07-04T09:06:11.000Z</time>
      </trkpt>
      <trkpt lat="45.00415" lon="5.56957">
        <ele>2128</ele>
        <time>2015-07-04T09:06:16.000Z</time>
      </trkpt>
      <trkpt lat="45.00415" lon="5.56956">
        <ele>2128.1</ele>
        <time>2015-07-04T09:06:17.000Z</time>
      </trkpt>
      <trkpt lat="45.00416" lon="5.56954">
        <ele>2128.4</ele>
        <time>2015-07-04T09:06:20.000Z</time>
      </trkpt>
      <trkpt lat="45.00416" lon="5.56951">
        <ele>2129.4</ele>
        <time>2015-07-04T09:06:24.000Z</time>
      </trkpt>
      <trkpt lat="45.00416" lon="5.56948">
        <ele>2130</ele>
        <time>2015-07-04T09:06:28.000Z</time>
      </trkpt>
      <trkpt lat="45.00417" lon="5.56944">
        <ele>2131.1</ele>
        <time>2015-07-04T09:06:32.000Z</time>
      </trkpt>
      <trkpt lat="45.00418" lon="5.56938">
        <ele>2131.9</ele>
        <time>2015-07-04T09:06:38.000Z</time>
      </trkpt>
      <trkpt lat="45.00418" lon="5.56934">
        <ele>2133.1</ele>
        <time>2015-07-04T09:06:42.000Z</time>
      </trkpt>
      <trkpt lat="45.00418" lon="5.56927">
        <ele>2134.4</ele>
        <time>2015-07-04T09:06:49.000Z</time>
      </trkpt>
      <trkpt lat="45.00419" lon="5.56916">
        <ele>2136.3</ele>
        <time>2015-07-04T09:06:56.000Z</time>
      </trkpt>
      <trkpt lat="45.0042" lon="5.56916">
        <ele>2136.3</ele>
        <time>2015-07-04T09:06:57.000Z</time>
      </trkpt>
      <trkpt lat="45.00424" lon="5.56912">
        <ele>2136.1</ele>
        <time>2015-07-04T09:07:02.000Z</time>
      </trkpt>
      <trkpt lat="45.00425" lon="5.56908">
        <ele>2136.3</ele>
        <time>2015-07-04T09:07:05.000Z</time>
      </trkpt>
      <trkpt lat="45.00427" lon="5.56905">
        <ele>2136.2</ele>
        <time>2015-07-04T09:07:08.000Z</time>
      </trkpt>
      <trkpt lat="45.00428" lon="5.56903">
        <ele>2136.4</ele>
        <time>2015-07-04T09:07:09.000Z</time>
      </trkpt>
      <trkpt lat="45.0043" lon="5.56899">
        <ele>2136.6</ele>
        <time>2015-07-04T09:07:13.000Z</time>
      </trkpt>
      <trkpt lat="45.00431" lon="5.56897">
        <ele>2136.8</ele>
        <time>2015-07-04T09:07:14.000Z</time>
      </trkpt>
      <trkpt lat="45.00434" lon="5.56892">
        <ele>2137</ele>
        <time>2015-07-04T09:07:18.000Z</time>
      </trkpt>
      <trkpt lat="45.00435" lon="5.56888">
        <ele>2137.4</ele>
        <time>2015-07-04T09:07:21.000Z</time>
      </trkpt>
      <trkpt lat="45.00434" lon="5.56882">
        <ele>2138.8</ele>
        <time>2015-07-04T09:07:25.000Z</time>
      </trkpt>
      <trkpt lat="45.00435" lon="5.56881">
        <ele>2138.8</ele>
        <time>2015-07-04T09:07:26.000Z</time>
      </trkpt>
      <trkpt lat="45.00436" lon="5.56877">
        <ele>2139.2</ele>
        <time>2015-07-04T09:07:30.000Z</time>
      </trkpt>
      <trkpt lat="45.00437" lon="5.56876">
        <ele>2139.1</ele>
        <time>2015-07-04T09:07:31.000Z</time>
      </trkpt>
      <trkpt lat="45.00438" lon="5.56873">
        <ele>2139.3</ele>
        <time>2015-07-04T09:07:34.000Z</time>
      </trkpt>
      <trkpt lat="45.00438" lon="5.5687">
        <ele>2139.7</ele>
        <time>2015-07-04T09:07:37.000Z</time>
      </trkpt>
      <trkpt lat="45.00439" lon="5.56867">
        <ele>2140.2</ele>
        <time>2015-07-04T09:07:39.000Z</time>
      </trkpt>
      <trkpt lat="45.00439" lon="5.5686">
        <ele>2141.3</ele>
        <time>2015-07-04T09:07:43.000Z</time>
      </trkpt>
      <trkpt lat="45.00441" lon="5.56848">
        <ele>2143.1</ele>
        <time>2015-07-04T09:07:50.000Z</time>
      </trkpt>
      <trkpt lat="45.00442" lon="5.56843">
        <ele>2143.8</ele>
        <time>2015-07-04T09:07:54.000Z</time>
      </trkpt>
      <trkpt lat="45.00443" lon="5.5684">
        <ele>2144.1</ele>
        <time>2015-07-04T09:07:56.000Z</time>
      </trkpt>
      <trkpt lat="45.00444" lon="5.56834">
        <ele>2144.8</ele>
        <time>2015-07-04T09:08:00.000Z</time>
      </trkpt>
      <trkpt lat="45.00445" lon="5.56831">
        <ele>2145.2</ele>
        <time>2015-07-04T09:08:02.000Z</time>
      </trkpt>
      <trkpt lat="45.00446" lon="5.56826">
        <ele>2146</ele>
        <time>2015-07-04T09:08:05.000Z</time>
      </trkpt>
      <trkpt lat="45.00446" lon="5.56825">
        <ele>2146.2</ele>
        <time>2015-07-04T09:08:06.000Z</time>
      </trkpt>
      <trkpt lat="45.00448" lon="5.56816">
        <ele>2147.4</ele>
        <time>2015-07-04T09:08:11.000Z</time>
      </trkpt>
      <trkpt lat="45.00449" lon="5.56807">
        <ele>2148.7</ele>
        <time>2015-07-04T09:08:16.000Z</time>
      </trkpt>
      <trkpt lat="45.00449" lon="5.56805">
        <ele>2149</ele>
        <time>2015-07-04T09:08:17.000Z</time>
      </trkpt>
      <trkpt lat="45.0045" lon="5.56799">
        <ele>2149.2</ele>
        <time>2015-07-04T09:08:22.000Z</time>
      </trkpt>
      <trkpt lat="45.0045" lon="5.56799">
        <ele>2149</ele>
        <time>2015-07-04T09:08:29.000Z</time>
      </trkpt>
      <trkpt lat="45.0045" lon="5.56793">
        <ele>2149.5</ele>
        <time>2015-07-04T09:08:53.000Z</time>
      </trkpt>
      <trkpt lat="45.00451" lon="5.56776">
        <ele>2150</ele>
        <time>2015-07-04T09:09:03.000Z</time>
      </trkpt>
      <trkpt lat="45.00453" lon="5.56761">
        <ele>2148.2</ele>
        <time>2015-07-04T09:09:12.000Z</time>
      </trkpt>
      <trkpt lat="45.00453" lon="5.5676">
        <ele>2148.1</ele>
        <time>2015-07-04T09:09:19.000Z</time>
      </trkpt>
      <trkpt lat="45.00456" lon="5.56761">
        <ele>2147.9</ele>
        <time>2015-07-04T09:10:20.000Z</time>
      </trkpt>
      <trkpt lat="45.00459" lon="5.56754">
        <ele>2148</ele>
        <time>2015-07-04T09:11:07.000Z</time>
      </trkpt>
      <trkpt lat="45.00463" lon="5.56749">
        <ele>2148.7</ele>
        <time>2015-07-04T09:11:13.000Z</time>
      </trkpt>
      <trkpt lat="45.00464" lon="5.56748">
        <ele>2148.9</ele>
        <time>2015-07-04T09:11:14.000Z</time>
      </trkpt>
      <trkpt lat="45.00465" lon="5.56743">
        <ele>2149.8</ele>
        <time>2015-07-04T09:11:19.000Z</time>
      </trkpt>
      <trkpt lat="45.00467" lon="5.56737">
        <ele>2151.5</ele>
        <time>2015-07-04T09:11:26.000Z</time>
      </trkpt>
      <trkpt lat="45.00469" lon="5.56734">
        <ele>2153.2</ele>
        <time>2015-07-04T09:11:30.000Z</time>
      </trkpt>
      <trkpt lat="45.0047" lon="5.56729">
        <ele>2155.4</ele>
        <time>2015-07-04T09:11:36.000Z</time>
      </trkpt>
      <trkpt lat="45.00472" lon="5.56726">
        <ele>2157.4</ele>
        <time>2015-07-04T09:11:42.000Z</time>
      </trkpt>
      <trkpt lat="45.00475" lon="5.56723">
        <ele>2158.2</ele>
        <time>2015-07-04T09:11:47.000Z</time>
      </trkpt>
      <trkpt lat="45.00474" lon="5.56719">
        <ele>2159.3</ele>
        <time>2015-07-04T09:11:52.000Z</time>
      </trkpt>
      <trkpt lat="45.00473" lon="5.56716">
        <ele>2160.5</ele>
        <time>2015-07-04T09:11:56.000Z</time>
      </trkpt>
      <trkpt lat="45.00475" lon="5.56712">
        <ele>2161.5</ele>
        <time>2015-07-04T09:12:02.000Z</time>
      </trkpt>
      <trkpt lat="45.00477" lon="5.5671">
        <ele>2161.6</ele>
        <time>2015-07-04T09:12:07.000Z</time>
      </trkpt>
      <trkpt lat="45.00475" lon="5.56706">
        <ele>2163.4</ele>
        <time>2015-07-04T09:12:13.000Z</time>
      </trkpt>
      <trkpt lat="45.00474" lon="5.56705">
        <ele>2163.8</ele>
        <time>2015-07-04T09:12:14.000Z</time>
      </trkpt>
      <trkpt lat="45.00476" lon="5.567">
        <ele>2164.6</ele>
        <time>2015-07-04T09:12:20.000Z</time>
      </trkpt>
      <trkpt lat="45.00479" lon="5.56698">
        <ele>2165</ele>
        <time>2015-07-04T09:12:25.000Z</time>
      </trkpt>
      <trkpt lat="45.00477" lon="5.56695">
        <ele>2166</ele>
        <time>2015-07-04T09:12:29.000Z</time>
      </trkpt>
      <trkpt lat="45.00475" lon="5.56692">
        <ele>2167</ele>
        <time>2015-07-04T09:12:33.000Z</time>
      </trkpt>
      <trkpt lat="45.00472" lon="5.56689">
        <ele>2167.8</ele>
        <time>2015-07-04T09:12:38.000Z</time>
      </trkpt>
      <trkpt lat="45.00474" lon="5.56685">
        <ele>2168.2</ele>
        <time>2015-07-04T09:12:43.000Z</time>
      </trkpt>
      <trkpt lat="45.00476" lon="5.56683">
        <ele>2168.5</ele>
        <time>2015-07-04T09:12:47.000Z</time>
      </trkpt>
      <trkpt lat="45.00476" lon="5.5668">
        <ele>2169</ele>
        <time>2015-07-04T09:12:52.000Z</time>
      </trkpt>
      <trkpt lat="45.00474" lon="5.56677">
        <ele>2169.5</ele>
        <time>2015-07-04T09:12:57.000Z</time>
      </trkpt>
      <trkpt lat="45.00474" lon="5.56672">
        <ele>2170.3</ele>
        <time>2015-07-04T09:13:03.000Z</time>
      </trkpt>
      <trkpt lat="45.00475" lon="5.5667">
        <ele>2170.7</ele>
        <time>2015-07-04T09:13:08.000Z</time>
      </trkpt>
      <trkpt lat="45.00479" lon="5.56666">
        <ele>2171.8</ele>
        <time>2015-07-04T09:13:14.000Z</time>
      </trkpt>
      <trkpt lat="45.00479" lon="5.56664">
        <ele>2172.6</ele>
        <time>2015-07-04T09:13:18.000Z</time>
      </trkpt>
      <trkpt lat="45.00477" lon="5.56663">
        <ele>2172.8</ele>
        <time>2015-07-04T09:13:22.000Z</time>
      </trkpt>
      <trkpt lat="45.00475" lon="5.56659">
        <ele>2173.4</ele>
        <time>2015-07-04T09:13:27.000Z</time>
      </trkpt>
      <trkpt lat="45.00477" lon="5.56656">
        <ele>2174.4</ele>
        <time>2015-07-04T09:13:32.000Z</time>
      </trkpt>
      <trkpt lat="45.00478" lon="5.56653">
        <ele>2175.6</ele>
        <time>2015-07-04T09:13:37.000Z</time>
      </trkpt>
      <trkpt lat="45.00479" lon="5.5665">
        <ele>2176.8</ele>
        <time>2015-07-04T09:13:42.000Z</time>
      </trkpt>
      <trkpt lat="45.00479" lon="5.56647">
        <ele>2177.9</ele>
        <time>2015-07-04T09:13:47.000Z</time>
      </trkpt>
      <trkpt lat="45.00482" lon="5.56644">
        <ele>2179.4</ele>
        <time>2015-07-04T09:13:51.000Z</time>
      </trkpt>
      <trkpt lat="45.00482" lon="5.56642">
        <ele>2180.1</ele>
        <time>2015-07-04T09:13:55.000Z</time>
      </trkpt>
      <trkpt lat="45.00484" lon="5.56638">
        <ele>2182.1</ele>
        <time>2015-07-04T09:14:01.000Z</time>
      </trkpt>
      <trkpt lat="45.00486" lon="5.56635">
        <ele>2184.3</ele>
        <time>2015-07-04T09:14:06.000Z</time>
      </trkpt>
      <trkpt lat="45.00487" lon="5.56631">
        <ele>2186.9</ele>
        <time>2015-07-04T09:14:10.000Z</time>
      </trkpt>
      <trkpt lat="45.00488" lon="5.5663">
        <ele>2188.1</ele>
        <time>2015-07-04T09:14:14.000Z</time>
      </trkpt>
      <trkpt lat="45.0049" lon="5.56625">
        <ele>2191.1</ele>
        <time>2015-07-04T09:14:20.000Z</time>
      </trkpt>
      <trkpt lat="45.0049" lon="5.56623">
        <ele>2192.2</ele>
        <time>2015-07-04T09:14:24.000Z</time>
      </trkpt>
      <trkpt lat="45.00492" lon="5.56621">
        <ele>2194</ele>
        <time>2015-07-04T09:14:29.000Z</time>
      </trkpt>
      <trkpt lat="45.00491" lon="5.56618">
        <ele>2195.7</ele>
        <time>2015-07-04T09:14:34.000Z</time>
      </trkpt>
      <trkpt lat="45.00489" lon="5.56616">
        <ele>2195.7</ele>
        <time>2015-07-04T09:14:40.000Z</time>
      </trkpt>
      <trkpt lat="45.00487" lon="5.56613">
        <ele>2196.5</ele>
        <time>2015-07-04T09:14:45.000Z</time>
      </trkpt>
      <trkpt lat="45.00486" lon="5.5661">
        <ele>2198</ele>
        <time>2015-07-04T09:14:50.000Z</time>
      </trkpt>
      <trkpt lat="45.00485" lon="5.56607">
        <ele>2199.3</ele>
        <time>2015-07-04T09:14:55.000Z</time>
      </trkpt>
      <trkpt lat="45.00483" lon="5.56607">
        <ele>2198.7</ele>
        <time>2015-07-04T09:14:59.000Z</time>
      </trkpt>
      <trkpt lat="45.00483" lon="5.56604">
        <ele>2200.1</ele>
        <time>2015-07-04T09:15:01.000Z</time>
      </trkpt>
      <trkpt lat="45.00483" lon="5.56602">
        <ele>2201.3</ele>
        <time>2015-07-04T09:15:04.000Z</time>
      </trkpt>
      <trkpt lat="45.0048" lon="5.56602">
        <ele>2200.5</ele>
        <time>2015-07-04T09:15:09.000Z</time>
      </trkpt>
      <trkpt lat="45.00479" lon="5.56597">
        <ele>2203.1</ele>
        <time>2015-07-04T09:15:14.000Z</time>
      </trkpt>
      <trkpt lat="45.0048" lon="5.56593">
        <ele>2205.4</ele>
        <time>2015-07-04T09:15:18.000Z</time>
      </trkpt>
      <trkpt lat="45.00482" lon="5.56591">
        <ele>2207</ele>
        <time>2015-07-04T09:15:25.000Z</time>
      </trkpt>
      <trkpt lat="45.00483" lon="5.56586">
        <ele>2210.4</ele>
        <time>2015-07-04T09:15:30.000Z</time>
      </trkpt>
      <trkpt lat="45.00483" lon="5.56589">
        <ele>2209</ele>
        <time>2015-07-04T09:15:35.000Z</time>
      </trkpt>
      <trkpt lat="45.00485" lon="5.56587">
        <ele>2210.2</ele>
        <time>2015-07-04T09:15:43.000Z</time>
      </trkpt>
      <trkpt lat="45.00484" lon="5.56585">
        <ele>2211</ele>
        <time>2015-07-04T09:15:51.000Z</time>
      </trkpt>
      <trkpt lat="45.00486" lon="5.5658">
        <ele>2214.7</ele>
        <time>2015-07-04T09:16:02.000Z</time>
      </trkpt>
      <trkpt lat="45.00491" lon="5.56576">
        <ele>2217.9</ele>
        <time>2015-07-04T09:16:06.000Z</time>
      </trkpt>
      <trkpt lat="45.00493" lon="5.56574">
        <ele>2219.1</ele>
        <time>2015-07-04T09:16:09.000Z</time>
      </trkpt>
      <trkpt lat="45.00494" lon="5.56571">
        <ele>2220.9</ele>
        <time>2015-07-04T09:16:16.000Z</time>
      </trkpt>
      <trkpt lat="45.00492" lon="5.56568">
        <ele>2221.7</ele>
        <time>2015-07-04T09:16:19.000Z</time>
      </trkpt>
      <trkpt lat="45.00489" lon="5.56566">
        <ele>2221.8</ele>
        <time>2015-07-04T09:16:31.000Z</time>
      </trkpt>
      <trkpt lat="45.00487" lon="5.56564">
        <ele>2222.1</ele>
        <time>2015-07-04T09:16:37.000Z</time>
      </trkpt>
      <trkpt lat="45.00488" lon="5.56562">
        <ele>2223.5</ele>
        <time>2015-07-04T09:16:42.000Z</time>
      </trkpt>
      <trkpt lat="45.00489" lon="5.56556">
        <ele>2226.1</ele>
        <time>2015-07-04T09:16:57.000Z</time>
      </trkpt>
      <trkpt lat="45.00485" lon="5.56557">
        <ele>2225.3</ele>
        <time>2015-07-04T09:17:07.000Z</time>
      </trkpt>
      <trkpt lat="45.00486" lon="5.56554">
        <ele>2226.6</ele>
        <time>2015-07-04T09:17:11.000Z</time>
      </trkpt>
      <trkpt lat="45.00486" lon="5.56553">
        <ele>2227.4</ele>
        <time>2015-07-04T09:17:17.000Z</time>
      </trkpt>
      <trkpt lat="45.00485" lon="5.56552">
        <ele>2227.9</ele>
        <time>2015-07-04T09:17:23.000Z</time>
      </trkpt>
      <trkpt lat="45.00483" lon="5.56551">
        <ele>2227.9</ele>
        <time>2015-07-04T09:17:28.000Z</time>
      </trkpt>
      <trkpt lat="45.00482" lon="5.56549">
        <ele>2228.7</ele>
        <time>2015-07-04T09:17:32.000Z</time>
      </trkpt>
      <trkpt lat="45.00482" lon="5.56546">
        <ele>2230.6</ele>
        <time>2015-07-04T09:17:39.000Z</time>
      </trkpt>
      <trkpt lat="45.00482" lon="5.56542">
        <ele>2232.7</ele>
        <time>2015-07-04T09:17:44.000Z</time>
      </trkpt>
      <trkpt lat="45.00481" lon="5.56539">
        <ele>2234.4</ele>
        <time>2015-07-04T09:17:48.000Z</time>
      </trkpt>
      <trkpt lat="45.0048" lon="5.56538">
        <ele>2235</ele>
        <time>2015-07-04T09:17:53.000Z</time>
      </trkpt>
      <trkpt lat="45.00479" lon="5.56538">
        <ele>2234.7</ele>
        <time>2015-07-04T09:18:11.000Z</time>
      </trkpt>
      <trkpt lat="45.00479" lon="5.56536">
        <ele>2236.1</ele>
        <time>2015-07-04T09:18:18.000Z</time>
      </trkpt>
      <trkpt lat="45.00478" lon="5.56535">
        <ele>2236.5</ele>
        <time>2015-07-04T09:18:23.000Z</time>
      </trkpt>
      <trkpt lat="45.00478" lon="5.56534">
        <ele>2237.3</ele>
        <time>2015-07-04T09:18:28.000Z</time>
      </trkpt>
      <trkpt lat="45.00478" lon="5.56531">
        <ele>2239</ele>
        <time>2015-07-04T09:18:34.000Z</time>
      </trkpt>
      <trkpt lat="45.0048" lon="5.56529">
        <ele>2239.7</ele>
        <time>2015-07-04T09:18:43.000Z</time>
      </trkpt>
      <trkpt lat="45.00481" lon="5.56528">
        <ele>2240.5</ele>
        <time>2015-07-04T09:18:49.000Z</time>
      </trkpt>
      <trkpt lat="45.00484" lon="5.56523">
        <ele>2242.1</ele>
        <time>2015-07-04T09:18:57.000Z</time>
      </trkpt>
      <trkpt lat="45.00485" lon="5.56521">
        <ele>2242.9</ele>
        <time>2015-07-04T09:19:03.000Z</time>
      </trkpt>
      <trkpt lat="45.00486" lon="5.56519">
        <ele>2243.8</ele>
        <time>2015-07-04T09:19:12.000Z</time>
      </trkpt>
      <trkpt lat="45.00487" lon="5.56516">
        <ele>2244.9</ele>
        <time>2015-07-04T09:19:18.000Z</time>
      </trkpt>
      <trkpt lat="45.00487" lon="5.56512">
        <ele>2246.9</ele>
        <time>2015-07-04T09:19:23.000Z</time>
      </trkpt>
      <trkpt lat="45.00483" lon="5.5651">
        <ele>2247.9</ele>
        <time>2015-07-04T09:19:35.000Z</time>
      </trkpt>
      <trkpt lat="45.00482" lon="5.56509">
        <ele>2248.4</ele>
        <time>2015-07-04T09:19:42.000Z</time>
      </trkpt>
      <trkpt lat="45.00483" lon="5.56507">
        <ele>2249.3</ele>
        <time>2015-07-04T09:19:47.000Z</time>
      </trkpt>
      <trkpt lat="45.00483" lon="5.56497">
        <ele>2253.8</ele>
        <time>2015-07-04T09:20:26.000Z</time>
      </trkpt>
      <trkpt lat="45.00482" lon="5.56495">
        <ele>2254.7</ele>
        <time>2015-07-04T09:20:31.000Z</time>
      </trkpt>
      <trkpt lat="45.00481" lon="5.56493">
        <ele>2255.8</ele>
        <time>2015-07-04T09:20:36.000Z</time>
      </trkpt>
      <trkpt lat="45.00481" lon="5.56487">
        <ele>2258.2</ele>
        <time>2015-07-04T09:20:42.000Z</time>
      </trkpt>
      <trkpt lat="45.00481" lon="5.56483">
        <ele>2259.7</ele>
        <time>2015-07-04T09:20:47.000Z</time>
      </trkpt>
      <trkpt lat="45.00482" lon="5.56482">
        <ele>2259.9</ele>
        <time>2015-07-04T09:20:58.000Z</time>
      </trkpt>
      <trkpt lat="45.00482" lon="5.56483">
        <ele>2259.7</ele>
        <time>2015-07-04T09:21:03.000Z</time>
      </trkpt>
      <trkpt lat="45.00484" lon="5.56482">
        <ele>2259.8</ele>
        <time>2015-07-04T09:23:50.000Z</time>
      </trkpt>
      <trkpt lat="45.00486" lon="5.56481">
        <ele>2259.8</ele>
        <time>2015-07-04T09:24:13.000Z</time>
      </trkpt>
      <trkpt lat="45.00486" lon="5.56474">
        <ele>2262.8</ele>
        <time>2015-07-04T09:24:18.000Z</time>
      </trkpt>
      <trkpt lat="45.00488" lon="5.56471">
        <ele>2263.3</ele>
        <time>2015-07-04T09:24:20.000Z</time>
      </trkpt>
      <trkpt lat="45.00488" lon="5.56469">
        <ele>2263.7</ele>
        <time>2015-07-04T09:24:22.000Z</time>
      </trkpt>
      <trkpt lat="45.00489" lon="5.56467">
        <ele>2263.9</ele>
        <time>2015-07-04T09:24:24.000Z</time>
      </trkpt>
      <trkpt lat="45.0049" lon="5.56464">
        <ele>2264.4</ele>
        <time>2015-07-04T09:24:28.000Z</time>
      </trkpt>
      <trkpt lat="45.0049" lon="5.56459">
        <ele>2265.2</ele>
        <time>2015-07-04T09:24:33.000Z</time>
      </trkpt>
      <trkpt lat="45.00488" lon="5.56454">
        <ele>2266.1</ele>
        <time>2015-07-04T09:24:36.000Z</time>
      </trkpt>
      <trkpt lat="45.00488" lon="5.56453">
        <ele>2266.3</ele>
        <time>2015-07-04T09:24:37.000Z</time>
      </trkpt>
      <trkpt lat="45.00488" lon="5.56445">
        <ele>2267.6</ele>
        <time>2015-07-04T09:24:43.000Z</time>
      </trkpt>
      <trkpt lat="45.00488" lon="5.56441">
        <ele>2267.9</ele>
        <time>2015-07-04T09:24:49.000Z</time>
      </trkpt>
      <trkpt lat="45.00488" lon="5.56438">
        <ele>2268</ele>
        <time>2015-07-04T09:24:54.000Z</time>
      </trkpt>
      <trkpt lat="45.00488" lon="5.56433">
        <ele>2268.3</ele>
        <time>2015-07-04T09:24:59.000Z</time>
      </trkpt>
      <trkpt lat="45.0049" lon="5.56426">
        <ele>2269.2</ele>
        <time>2015-07-04T09:25:04.000Z</time>
      </trkpt>
      <trkpt lat="45.00491" lon="5.56423">
        <ele>2269.6</ele>
        <time>2015-07-04T09:25:06.000Z</time>
      </trkpt>
      <trkpt lat="45.00491" lon="5.56421">
        <ele>2269.9</ele>
        <time>2015-07-04T09:25:08.000Z</time>
      </trkpt>
      <trkpt lat="45.00491" lon="5.56416">
        <ele>2270.2</ele>
        <time>2015-07-04T09:25:13.000Z</time>
      </trkpt>
      <trkpt lat="45.0049" lon="5.56411">
        <ele>2270.2</ele>
        <time>2015-07-04T09:25:20.000Z</time>
      </trkpt>
      <trkpt lat="45.00488" lon="5.5641">
        <ele>2269.7</ele>
        <time>2015-07-04T09:25:25.000Z</time>
      </trkpt>
      <trkpt lat="45.0049" lon="5.56407">
        <ele>2270.5</ele>
        <time>2015-07-04T09:25:59.000Z</time>
      </trkpt>
      <trkpt lat="45.00492" lon="5.56403">
        <ele>2271.1</ele>
        <time>2015-07-04T09:26:06.000Z</time>
      </trkpt>
      <trkpt lat="45.00494" lon="5.56393">
        <ele>2272.1</ele>
        <time>2015-07-04T09:26:13.000Z</time>
      </trkpt>
      <trkpt lat="45.00492" lon="5.56382">
        <ele>2270.6</ele>
        <time>2015-07-04T09:26:20.000Z</time>
      </trkpt>
      <trkpt lat="45.00491" lon="5.5638">
        <ele>2269.9</ele>
        <time>2015-07-04T09:26:23.000Z</time>
      </trkpt>
      <trkpt lat="45.00489" lon="5.56375">
        <ele>2268.5</ele>
        <time>2015-07-04T09:26:27.000Z</time>
      </trkpt>
      <trkpt lat="45.00488" lon="5.56372">
        <ele>2267.8</ele>
        <time>2015-07-04T09:26:32.000Z</time>
      </trkpt>
      <trkpt lat="45.00486" lon="5.56369">
        <ele>2266.9</ele>
        <time>2015-07-04T09:26:38.000Z</time>
      </trkpt>
      <trkpt lat="45.00485" lon="5.56367">
        <ele>2266.3</ele>
        <time>2015-07-04T09:26:40.000Z</time>
      </trkpt>
      <trkpt lat="45.00484" lon="5.56366">
        <ele>2266.1</ele>
        <time>2015-07-04T09:26:43.000Z</time>
      </trkpt>
      <trkpt lat="45.00484" lon="5.56365">
        <ele>2266</ele>
        <time>2015-07-04T09:26:57.000Z</time>
      </trkpt>
      <trkpt lat="45.00483" lon="5.56362">
        <ele>2265.2</ele>
        <time>2015-07-04T09:27:06.000Z</time>
      </trkpt>
      <trkpt lat="45.00482" lon="5.56361">
        <ele>2265.1</ele>
        <time>2015-07-04T09:27:15.000Z</time>
      </trkpt>
      <trkpt lat="45.0048" lon="5.56357">
        <ele>2264.9</ele>
        <time>2015-07-04T09:27:20.000Z</time>
      </trkpt>
      <trkpt lat="45.00479" lon="5.56348">
        <ele>2264.9</ele>
        <time>2015-07-04T09:27:25.000Z</time>
      </trkpt>
      <trkpt lat="45.00477" lon="5.56343">
        <ele>2265</ele>
        <time>2015-07-04T09:27:30.000Z</time>
      </trkpt>
      <trkpt lat="45.00478" lon="5.56341">
        <ele>2265</ele>
        <time>2015-07-04T09:27:32.000Z</time>
      </trkpt>
      <trkpt lat="45.00478" lon="5.56339">
        <ele>2265</ele>
        <time>2015-07-04T09:27:36.000Z</time>
      </trkpt>
      <trkpt lat="45.00479" lon="5.56339">
        <ele>2264.9</ele>
        <time>2015-07-04T09:27:58.000Z</time>
      </trkpt>
      <trkpt lat="45.00482" lon="5.56339">
        <ele>2264.7</ele>
        <time>2015-07-04T09:28:30.000Z</time>
      </trkpt>
      <trkpt lat="45.00484" lon="5.56336">
        <ele>2264.3</ele>
        <time>2015-07-04T09:37:37.000Z</time>
      </trkpt>
      <trkpt lat="45.00485" lon="5.56336">
        <ele>2264.3</ele>
        <time>2015-07-04T09:37:51.000Z</time>
      </trkpt>
      <trkpt lat="45.00484" lon="5.56339">
        <ele>2264.5</ele>
        <time>2015-07-04T09:42:54.000Z</time>
      </trkpt>
      <trkpt lat="45.00479" lon="5.56341">
        <ele>2264.9</ele>
        <time>2015-07-04T09:43:03.000Z</time>
      </trkpt>
      <trkpt lat="45.0048" lon="5.56337">
        <ele>2264.8</ele>
        <time>2015-07-04T09:43:47.000Z</time>
      </trkpt>
      <trkpt lat="45.00481" lon="5.56337">
        <ele>2264.8</ele>
        <time>2015-07-04T09:43:54.000Z</time>
      </trkpt>
      <trkpt lat="45.00481" lon="5.56338">
        <ele>2264.7</ele>
        <time>2015-07-04T09:45:54.000Z</time>
      </trkpt>
      <trkpt lat="45.00481" lon="5.56339">
        <ele>2264.8</ele>
        <time>2015-07-04T09:46:17.000Z</time>
      </trkpt>
      <trkpt lat="45.0048" lon="5.56344">
        <ele>2264.9</ele>
        <time>2015-07-04T09:46:38.000Z</time>
      </trkpt>
      <trkpt lat="45.00481" lon="5.5635">
        <ele>2264.9</ele>
        <time>2015-07-04T09:46:44.000Z</time>
      </trkpt>
      <trkpt lat="45.00482" lon="5.56353">
        <ele>2264.9</ele>
        <time>2015-07-04T09:46:49.000Z</time>
      </trkpt>
      <trkpt lat="45.00483" lon="5.56359">
        <ele>2265.1</ele>
        <time>2015-07-04T09:46:56.000Z</time>
      </trkpt>
      <trkpt lat="45.00488" lon="5.56367">
        <ele>2266.7</ele>
        <time>2015-07-04T09:47:04.000Z</time>
      </trkpt>
      <trkpt lat="45.0049" lon="5.56371">
        <ele>2267.8</ele>
        <time>2015-07-04T09:47:08.000Z</time>
      </trkpt>
      <trkpt lat="45.0049" lon="5.56371">
        <ele>2267.9</ele>
        <time>2015-07-04T09:47:09.000Z</time>
      </trkpt>
      <trkpt lat="45.00491" lon="5.56376">
        <ele>2269.1</ele>
        <time>2015-07-04T09:47:13.000Z</time>
      </trkpt>
      <trkpt lat="45.00491" lon="5.56378">
        <ele>2269.6</ele>
        <time>2015-07-04T09:47:14.000Z</time>
      </trkpt>
      <trkpt lat="45.00493" lon="5.56382">
        <ele>2270.7</ele>
        <time>2015-07-04T09:47:17.000Z</time>
      </trkpt>
      <trkpt lat="45.00494" lon="5.56383">
        <ele>2271.1</ele>
        <time>2015-07-04T09:47:18.000Z</time>
      </trkpt>
      <trkpt lat="45.00494" lon="5.56384">
        <ele>2271.6</ele>
        <time>2015-07-04T09:47:19.000Z</time>
      </trkpt>
      <trkpt lat="45.00497" lon="5.56392">
        <ele>2273.2</ele>
        <time>2015-07-04T09:47:24.000Z</time>
      </trkpt>
      <trkpt lat="45.00497" lon="5.56392">
        <ele>2273.2</ele>
        <time>2015-07-04T09:47:25.000Z</time>
      </trkpt>
      <trkpt lat="45.00498" lon="5.564">
        <ele>2272.9</ele>
        <time>2015-07-04T09:47:30.000Z</time>
      </trkpt>
      <trkpt lat="45.00497" lon="5.56402">
        <ele>2272.7</ele>
        <time>2015-07-04T09:47:32.000Z</time>
      </trkpt>
      <trkpt lat="45.00496" lon="5.56407">
        <ele>2272.1</ele>
        <time>2015-07-04T09:47:36.000Z</time>
      </trkpt>
      <trkpt lat="45.00495" lon="5.56407">
        <ele>2271.9</ele>
        <time>2015-07-04T09:47:37.000Z</time>
      </trkpt>
      <trkpt lat="45.00496" lon="5.56412">
        <ele>2271.8</ele>
        <time>2015-07-04T09:47:43.000Z</time>
      </trkpt>
      <trkpt lat="45.00496" lon="5.56419">
        <ele>2271.5</ele>
        <time>2015-07-04T09:47:56.000Z</time>
      </trkpt>
      <trkpt lat="45.00496" lon="5.56421">
        <ele>2271.3</ele>
        <time>2015-07-04T09:47:57.000Z</time>
      </trkpt>
      <trkpt lat="45.00496" lon="5.56424">
        <ele>2270.9</ele>
        <time>2015-07-04T09:48:01.000Z</time>
      </trkpt>
      <trkpt lat="45.00493" lon="5.56422">
        <ele>2270.4</ele>
        <time>2015-07-04T09:48:32.000Z</time>
      </trkpt>
      <trkpt lat="45.00494" lon="5.56426">
        <ele>2270.1</ele>
        <time>2015-07-04T09:49:51.000Z</time>
      </trkpt>
      <trkpt lat="45.00493" lon="5.56431">
        <ele>2269.4</ele>
        <time>2015-07-04T09:49:55.000Z</time>
      </trkpt>
      <trkpt lat="45.00492" lon="5.56435">
        <ele>2269</ele>
        <time>2015-07-04T09:49:57.000Z</time>
      </trkpt>
      <trkpt lat="45.00492" lon="5.56436">
        <ele>2268.8</ele>
        <time>2015-07-04T09:50:00.000Z</time>
      </trkpt>
      <trkpt lat="45.00493" lon="5.56442">
        <ele>2268.5</ele>
        <time>2015-07-04T09:50:09.000Z</time>
      </trkpt>
      <trkpt lat="45.00494" lon="5.5645">
        <ele>2267.2</ele>
        <time>2015-07-04T09:50:14.000Z</time>
      </trkpt>
      <trkpt lat="45.00494" lon="5.5645">
        <ele>2267</ele>
        <time>2015-07-04T09:50:15.000Z</time>
      </trkpt>
      <trkpt lat="45.00494" lon="5.56452">
        <ele>2266.5</ele>
        <time>2015-07-04T09:50:17.000Z</time>
      </trkpt>
      <trkpt lat="45.00493" lon="5.56454">
        <ele>2266.3</ele>
        <time>2015-07-04T09:50:19.000Z</time>
      </trkpt>
      <trkpt lat="45.00492" lon="5.56459">
        <ele>2265.2</ele>
        <time>2015-07-04T09:50:24.000Z</time>
      </trkpt>
      <trkpt lat="45.00492" lon="5.56459">
        <ele>2265.2</ele>
        <time>2015-07-04T09:50:29.000Z</time>
      </trkpt>
      <trkpt lat="45.00493" lon="5.56459">
        <ele>2265.2</ele>
        <time>2015-07-04T09:50:36.000Z</time>
      </trkpt>
      <trkpt lat="45.00494" lon="5.5646">
        <ele>2264.8</ele>
        <time>2015-07-04T09:50:41.000Z</time>
      </trkpt>
      <trkpt lat="45.00493" lon="5.56464">
        <ele>2264</ele>
        <time>2015-07-04T09:50:46.000Z</time>
      </trkpt>
      <trkpt lat="45.00491" lon="5.56469">
        <ele>2263.2</ele>
        <time>2015-07-04T09:50:50.000Z</time>
      </trkpt>
      <trkpt lat="45.0049" lon="5.56475">
        <ele>2261.6</ele>
        <time>2015-07-04T09:50:54.000Z</time>
      </trkpt>
      <trkpt lat="45.0049" lon="5.56477">
        <ele>2260.8</ele>
        <time>2015-07-04T09:50:56.000Z</time>
      </trkpt>
      <trkpt lat="45.00487" lon="5.56483">
        <ele>2258.7</ele>
        <time>2015-07-04T09:51:01.000Z</time>
      </trkpt>
      <trkpt lat="45.00487" lon="5.56484">
        <ele>2258.5</ele>
        <time>2015-07-04T09:51:02.000Z</time>
      </trkpt>
      <trkpt lat="45.00486" lon="5.56487">
        <ele>2257.2</ele>
        <time>2015-07-04T09:51:06.000Z</time>
      </trkpt>
      <trkpt lat="45.00486" lon="5.56489">
        <ele>2256.5</ele>
        <time>2015-07-04T09:51:07.000Z</time>
      </trkpt>
      <trkpt lat="45.00485" lon="5.56495">
        <ele>2254.2</ele>
        <time>2015-07-04T09:51:12.000Z</time>
      </trkpt>
      <trkpt lat="45.00485" lon="5.56495">
        <ele>2254.1</ele>
        <time>2015-07-04T09:51:13.000Z</time>
      </trkpt>
      <trkpt lat="45.00486" lon="5.56497">
        <ele>2253.2</ele>
        <time>2015-07-04T09:51:17.000Z</time>
      </trkpt>
      <trkpt lat="45.00486" lon="5.56499">
        <ele>2252.7</ele>
        <time>2015-07-04T09:51:24.000Z</time>
      </trkpt>
      <trkpt lat="45.00485" lon="5.565">
        <ele>2252.1</ele>
        <time>2015-07-04T09:51:30.000Z</time>
      </trkpt>
      <trkpt lat="45.00485" lon="5.565">
        <ele>2252.3</ele>
        <time>2015-07-04T09:51:36.000Z</time>
      </trkpt>
      <trkpt lat="45.00485" lon="5.56503">
        <ele>2251</ele>
        <time>2015-07-04T09:51:50.000Z</time>
      </trkpt>
      <trkpt lat="45.00483" lon="5.56499">
        <ele>2252.8</ele>
        <time>2015-07-04T09:51:55.000Z</time>
      </trkpt>
      <trkpt lat="45.00484" lon="5.56504">
        <ele>2250.6</ele>
        <time>2015-07-04T09:52:04.000Z</time>
      </trkpt>
      <trkpt lat="45.00485" lon="5.56508">
        <ele>2248.5</ele>
        <time>2015-07-04T09:52:10.000Z</time>
      </trkpt>
      <trkpt lat="45.00485" lon="5.56506">
        <ele>2249.4</ele>
        <time>2015-07-04T09:52:21.000Z</time>
      </trkpt>
      <trkpt lat="45.00485" lon="5.56508">
        <ele>2248.5</ele>
        <time>2015-07-04T09:52:28.000Z</time>
      </trkpt>
      <trkpt lat="45.00485" lon="5.56509">
        <ele>2248.4</ele>
        <time>2015-07-04T09:52:32.000Z</time>
      </trkpt>
      <trkpt lat="45.00488" lon="5.56511">
        <ele>2247</ele>
        <time>2015-07-04T09:52:47.000Z</time>
      </trkpt>
      <trkpt lat="45.00488" lon="5.56508">
        <ele>2248.2</ele>
        <time>2015-07-04T09:52:53.000Z</time>
      </trkpt>
      <trkpt lat="45.00489" lon="5.56513">
        <ele>2245.9</ele>
        <time>2015-07-04T09:52:57.000Z</time>
      </trkpt>
      <trkpt lat="45.00489" lon="5.56517">
        <ele>2244.6</ele>
        <time>2015-07-04T09:53:01.000Z</time>
      </trkpt>
      <trkpt lat="45.00489" lon="5.56519">
        <ele>2243.6</ele>
        <time>2015-07-04T09:53:02.000Z</time>
      </trkpt>
      <trkpt lat="45.00488" lon="5.5652">
        <ele>2243</ele>
        <time>2015-07-04T09:53:05.000Z</time>
      </trkpt>
      <trkpt lat="45.00489" lon="5.56522">
        <ele>2242.5</ele>
        <time>2015-07-04T09:53:10.000Z</time>
      </trkpt>
      <trkpt lat="45.00485" lon="5.56526">
        <ele>2240.8</ele>
        <time>2015-07-04T09:53:18.000Z</time>
      </trkpt>
      <trkpt lat="45.00484" lon="5.56529">
        <ele>2239.3</ele>
        <time>2015-07-04T09:53:22.000Z</time>
      </trkpt>
      <trkpt lat="45.00484" lon="5.56532">
        <ele>2238.1</ele>
        <time>2015-07-04T09:53:28.000Z</time>
      </trkpt>
      <trkpt lat="45.00484" lon="5.56535">
        <ele>2236.2</ele>
        <time>2015-07-04T09:53:33.000Z</time>
      </trkpt>
      <trkpt lat="45.00483" lon="5.56537">
        <ele>2235.2</ele>
        <time>2015-07-04T09:53:37.000Z</time>
      </trkpt>
      <trkpt lat="45.00488" lon="5.56544">
        <ele>2232.1</ele>
        <time>2015-07-04T09:53:46.000Z</time>
      </trkpt>
      <trkpt lat="45.00488" lon="5.56545">
        <ele>2231.3</ele>
        <time>2015-07-04T09:53:51.000Z</time>
      </trkpt>
      <trkpt lat="45.00488" lon="5.56548">
        <ele>2230.1</ele>
        <time>2015-07-04T09:53:57.000Z</time>
      </trkpt>
      <trkpt lat="45.00487" lon="5.56549">
        <ele>2229.4</ele>
        <time>2015-07-04T09:54:03.000Z</time>
      </trkpt>
      <trkpt lat="45.00486" lon="5.56549">
        <ele>2229.5</ele>
        <time>2015-07-04T09:54:08.000Z</time>
      </trkpt>
      <trkpt lat="45.00486" lon="5.5655">
        <ele>2228.6</ele>
        <time>2015-07-04T09:54:13.000Z</time>
      </trkpt>
      <trkpt lat="45.00486" lon="5.56552">
        <ele>2227.9</ele>
        <time>2015-07-04T09:54:19.000Z</time>
      </trkpt>
      <trkpt lat="45.00485" lon="5.56554">
        <ele>2226.8</ele>
        <time>2015-07-04T09:54:27.000Z</time>
      </trkpt>
      <trkpt lat="45.00485" lon="5.56557">
        <ele>2225</ele>
        <time>2015-07-04T09:54:33.000Z</time>
      </trkpt>
      <trkpt lat="45.00487" lon="5.56559">
        <ele>2224.7</ele>
        <time>2015-07-04T09:54:39.000Z</time>
      </trkpt>
      <trkpt lat="45.00487" lon="5.56559">
        <ele>2224.4</ele>
        <time>2015-07-04T09:54:44.000Z</time>
      </trkpt>
      <trkpt lat="45.00489" lon="5.5656">
        <ele>2224.3</ele>
        <time>2015-07-04T09:54:49.000Z</time>
      </trkpt>
      <trkpt lat="45.00488" lon="5.56561">
        <ele>2223.6</ele>
        <time>2015-07-04T09:54:52.000Z</time>
      </trkpt>
      <trkpt lat="45.00488" lon="5.56562">
        <ele>2223.3</ele>
        <time>2015-07-04T09:54:53.000Z</time>
      </trkpt>
      <trkpt lat="45.00489" lon="5.56564">
        <ele>2222.4</ele>
        <time>2015-07-04T09:54:57.000Z</time>
      </trkpt>
      <trkpt lat="45.00487" lon="5.5657">
        <ele>2219.7</ele>
        <time>2015-07-04T09:55:02.000Z</time>
      </trkpt>
      <trkpt lat="45.00486" lon="5.56571">
        <ele>2218.6</ele>
        <time>2015-07-04T09:55:07.000Z</time>
      </trkpt>
      <trkpt lat="45.00486" lon="5.56573">
        <ele>2217.6</ele>
        <time>2015-07-04T09:55:12.000Z</time>
      </trkpt>
      <trkpt lat="45.00487" lon="5.56576">
        <ele>2216.5</ele>
        <time>2015-07-04T09:55:18.000Z</time>
      </trkpt>
      <trkpt lat="45.00487" lon="5.56578">
        <ele>2215.8</ele>
        <time>2015-07-04T09:55:19.000Z</time>
      </trkpt>
      <trkpt lat="45.00487" lon="5.56578">
        <ele>2215.7</ele>
        <time>2015-07-04T09:55:23.000Z</time>
      </trkpt>
      <trkpt lat="45.00488" lon="5.56582">
        <ele>2214.4</ele>
        <time>2015-07-04T09:55:27.000Z</time>
      </trkpt>
      <trkpt lat="45.00488" lon="5.56582">
        <ele>2214.4</ele>
        <time>2015-07-04T09:55:28.000Z</time>
      </trkpt>
      <trkpt lat="45.00489" lon="5.56587">
        <ele>2212.2</ele>
        <time>2015-07-04T09:55:42.000Z</time>
      </trkpt>
      <trkpt lat="45.0049" lon="5.56589">
        <ele>2211.4</ele>
        <time>2015-07-04T09:55:45.000Z</time>
      </trkpt>
      <trkpt lat="45.0049" lon="5.56587">
        <ele>2212.1</ele>
        <time>2015-07-04T09:55:50.000Z</time>
      </trkpt>
      <trkpt lat="45.00486" lon="5.56593">
        <ele>2207.7</ele>
        <time>2015-07-04T09:55:56.000Z</time>
      </trkpt>
      <trkpt lat="45.00485" lon="5.56595">
        <ele>2206.1</ele>
        <time>2015-07-04T09:56:01.000Z</time>
      </trkpt>
      <trkpt lat="45.00484" lon="5.56599">
        <ele>2203.6</ele>
        <time>2015-07-04T09:56:04.000Z</time>
      </trkpt>
      <trkpt lat="45.00482" lon="5.56603">
        <ele>2200.5</ele>
        <time>2015-07-04T09:56:08.000Z</time>
      </trkpt>
      <trkpt lat="45.00484" lon="5.56606">
        <ele>2199.4</ele>
        <time>2015-07-04T09:56:12.000Z</time>
      </trkpt>
      <trkpt lat="45.00487" lon="5.56607">
        <ele>2200</ele>
        <time>2015-07-04T09:56:16.000Z</time>
      </trkpt>
      <trkpt lat="45.0049" lon="5.56611">
        <ele>2199.1</ele>
        <time>2015-07-04T09:56:22.000Z</time>
      </trkpt>
      <trkpt lat="45.00492" lon="5.56615">
        <ele>2197.7</ele>
        <time>2015-07-04T09:56:27.000Z</time>
      </trkpt>
      <trkpt lat="45.00494" lon="5.56617">
        <ele>2197.4</ele>
        <time>2015-07-04T09:56:28.000Z</time>
      </trkpt>
      <trkpt lat="45.00497" lon="5.56618">
        <ele>2197.7</ele>
        <time>2015-07-04T09:56:31.000Z</time>
      </trkpt>
      <trkpt lat="45.00495" lon="5.56622">
        <ele>2194.7</ele>
        <time>2015-07-04T09:56:35.000Z</time>
      </trkpt>
      <trkpt lat="45.00495" lon="5.56623">
        <ele>2194.3</ele>
        <time>2015-07-04T09:56:36.000Z</time>
      </trkpt>
      <trkpt lat="45.00494" lon="5.56624">
        <ele>2193.4</ele>
        <time>2015-07-04T09:56:38.000Z</time>
      </trkpt>
      <trkpt lat="45.00494" lon="5.56627">
        <ele>2191.5</ele>
        <time>2015-07-04T09:56:41.000Z</time>
      </trkpt>
      <trkpt lat="45.00493" lon="5.56631">
        <ele>2189.1</ele>
        <time>2015-07-04T09:56:43.000Z</time>
      </trkpt>
      <trkpt lat="45.00492" lon="5.56632">
        <ele>2188.1</ele>
        <time>2015-07-04T09:56:44.000Z</time>
      </trkpt>
      <trkpt lat="45.00491" lon="5.56633">
        <ele>2187.5</ele>
        <time>2015-07-04T09:56:45.000Z</time>
      </trkpt>
      <trkpt lat="45.00489" lon="5.56638">
        <ele>2184.2</ele>
        <time>2015-07-04T09:56:50.000Z</time>
      </trkpt>
      <trkpt lat="45.00488" lon="5.56641">
        <ele>2182.3</ele>
        <time>2015-07-04T09:56:53.000Z</time>
      </trkpt>
      <trkpt lat="45.00487" lon="5.56643">
        <ele>2181.2</ele>
        <time>2015-07-04T09:56:55.000Z</time>
      </trkpt>
      <trkpt lat="45.00485" lon="5.56646">
        <ele>2179.5</ele>
        <time>2015-07-04T09:56:58.000Z</time>
      </trkpt>
      <trkpt lat="45.00484" lon="5.56649">
        <ele>2178.5</ele>
        <time>2015-07-04T09:57:01.000Z</time>
      </trkpt>
      <trkpt lat="45.00482" lon="5.56653">
        <ele>2176.6</ele>
        <time>2015-07-04T09:57:07.000Z</time>
      </trkpt>
      <trkpt lat="45.0048" lon="5.56658">
        <ele>2174.7</ele>
        <time>2015-07-04T09:57:12.000Z</time>
      </trkpt>
      <trkpt lat="45.00482" lon="5.5666">
        <ele>2174.2</ele>
        <time>2015-07-04T09:57:17.000Z</time>
      </trkpt>
      <trkpt lat="45.00484" lon="5.56661">
        <ele>2174</ele>
        <time>2015-07-04T09:57:19.000Z</time>
      </trkpt>
      <trkpt lat="45.00486" lon="5.56664">
        <ele>2173.4</ele>
        <time>2015-07-04T09:57:23.000Z</time>
      </trkpt>
      <trkpt lat="45.00482" lon="5.56668">
        <ele>2171.8</ele>
        <time>2015-07-04T09:57:28.000Z</time>
      </trkpt>
      <trkpt lat="45.0048" lon="5.56669">
        <ele>2171.3</ele>
        <time>2015-07-04T09:57:31.000Z</time>
      </trkpt>
      <trkpt lat="45.0048" lon="5.5667">
        <ele>2171.1</ele>
        <time>2015-07-04T09:57:33.000Z</time>
      </trkpt>
      <trkpt lat="45.00479" lon="5.56674">
        <ele>2170.2</ele>
        <time>2015-07-04T09:57:37.000Z</time>
      </trkpt>
      <trkpt lat="45.00479" lon="5.56676">
        <ele>2169.8</ele>
        <time>2015-07-04T09:57:39.000Z</time>
      </trkpt>
      <trkpt lat="45.00481" lon="5.56683">
        <ele>2168.4</ele>
        <time>2015-07-04T09:57:45.000Z</time>
      </trkpt>
      <trkpt lat="45.0048" lon="5.56684">
        <ele>2168.1</ele>
        <time>2015-07-04T09:57:46.000Z</time>
      </trkpt>
      <trkpt lat="45.00478" lon="5.56687">
        <ele>2167.8</ele>
        <time>2015-07-04T09:57:50.000Z</time>
      </trkpt>
      <trkpt lat="45.00478" lon="5.5669">
        <ele>2167</ele>
        <time>2015-07-04T09:57:56.000Z</time>
      </trkpt>
      <trkpt lat="45.00484" lon="5.56695">
        <ele>2165.2</ele>
        <time>2015-07-04T09:58:03.000Z</time>
      </trkpt>
      <trkpt lat="45.00479" lon="5.56698">
        <ele>2164.8</ele>
        <time>2015-07-04T09:58:08.000Z</time>
      </trkpt>
      <trkpt lat="45.00479" lon="5.56699">
        <ele>2164.7</ele>
        <time>2015-07-04T09:58:09.000Z</time>
      </trkpt>
      <trkpt lat="45.00479" lon="5.567">
        <ele>2164.5</ele>
        <time>2015-07-04T09:58:10.000Z</time>
      </trkpt>
      <trkpt lat="45.00478" lon="5.56702">
        <ele>2163.8</ele>
        <time>2015-07-04T09:58:12.000Z</time>
      </trkpt>
      <trkpt lat="45.00482" lon="5.56706">
        <ele>2162.1</ele>
        <time>2015-07-04T09:58:16.000Z</time>
      </trkpt>
      <trkpt lat="45.00482" lon="5.56708">
        <ele>2161.4</ele>
        <time>2015-07-04T09:58:17.000Z</time>
      </trkpt>
      <trkpt lat="45.00482" lon="5.5671">
        <ele>2160.8</ele>
        <time>2015-07-04T09:58:18.000Z</time>
      </trkpt>
      <trkpt lat="45.00479" lon="5.56712">
        <ele>2160.7</ele>
        <time>2015-07-04T09:58:21.000Z</time>
      </trkpt>
      <trkpt lat="45.00479" lon="5.56718">
        <ele>2158.8</ele>
        <time>2015-07-04T09:58:26.000Z</time>
      </trkpt>
      <trkpt lat="45.0048" lon="5.56719">
        <ele>2158.3</ele>
        <time>2015-07-04T09:58:27.000Z</time>
      </trkpt>
      <trkpt lat="45.0048" lon="5.56722">
        <ele>2157.3</ele>
        <time>2015-07-04T09:58:29.000Z</time>
      </trkpt>
      <trkpt lat="45.00478" lon="5.56725">
        <ele>2156.9</ele>
        <time>2015-07-04T09:58:32.000Z</time>
      </trkpt>
      <trkpt lat="45.00475" lon="5.56729">
        <ele>2156.2</ele>
        <time>2015-07-04T09:58:36.000Z</time>
      </trkpt>
      <trkpt lat="45.00474" lon="5.56731">
        <ele>2155.5</ele>
        <time>2015-07-04T09:58:38.000Z</time>
      </trkpt>
      <trkpt lat="45.00471" lon="5.56739">
        <ele>2152.9</ele>
        <time>2015-07-04T09:58:45.000Z</time>
      </trkpt>
      <trkpt lat="45.00471" lon="5.5674">
        <ele>2152.7</ele>
        <time>2015-07-04T09:58:46.000Z</time>
      </trkpt>
      <trkpt lat="45.0047" lon="5.56744">
        <ele>2151.3</ele>
        <time>2015-07-04T09:58:49.000Z</time>
      </trkpt>
      <trkpt lat="45.0047" lon="5.56745">
        <ele>2150.8</ele>
        <time>2015-07-04T09:58:50.000Z</time>
      </trkpt>
      <trkpt lat="45.00469" lon="5.56746">
        <ele>2150.3</ele>
        <time>2015-07-04T09:58:51.000Z</time>
      </trkpt>
      <trkpt lat="45.00467" lon="5.56752">
        <ele>2148.8</ele>
        <time>2015-07-04T09:58:55.000Z</time>
      </trkpt>
      <trkpt lat="45.00466" lon="5.56754">
        <ele>2148.4</ele>
        <time>2015-07-04T09:58:56.000Z</time>
      </trkpt>
      <trkpt lat="45.00461" lon="5.5676">
        <ele>2147.7</ele>
        <time>2015-07-04T09:59:02.000Z</time>
      </trkpt>
      <trkpt lat="45.00461" lon="5.56763">
        <ele>2147.5</ele>
        <time>2015-07-04T10:00:06.000Z</time>
      </trkpt>
      <trkpt lat="45.00459" lon="5.56766">
        <ele>2147.6</ele>
        <time>2015-07-04T10:00:08.000Z</time>
      </trkpt>
      <trkpt lat="45.00457" lon="5.56779">
        <ele>2148</ele>
        <time>2015-07-04T10:00:14.000Z</time>
      </trkpt>
      <trkpt lat="45.00458" lon="5.5678">
        <ele>2147.6</ele>
        <time>2015-07-04T10:00:15.000Z</time>
      </trkpt>
      <trkpt lat="45.00457" lon="5.56787">
        <ele>2147.3</ele>
        <time>2015-07-04T10:00:18.000Z</time>
      </trkpt>
      <trkpt lat="45.00457" lon="5.56795">
        <ele>2146.5</ele>
        <time>2015-07-04T10:00:22.000Z</time>
      </trkpt>
      <trkpt lat="45.00457" lon="5.56798">
        <ele>2146.2</ele>
        <time>2015-07-04T10:00:24.000Z</time>
      </trkpt>
      <trkpt lat="45.00457" lon="5.56802">
        <ele>2145.9</ele>
        <time>2015-07-04T10:00:26.000Z</time>
      </trkpt>
      <trkpt lat="45.00456" lon="5.56811">
        <ele>2144.9</ele>
        <time>2015-07-04T10:00:31.000Z</time>
      </trkpt>
      <trkpt lat="45.00455" lon="5.5682">
        <ele>2143.7</ele>
        <time>2015-07-04T10:00:35.000Z</time>
      </trkpt>
      <trkpt lat="45.00454" lon="5.56825">
        <ele>2143.1</ele>
        <time>2015-07-04T10:00:38.000Z</time>
      </trkpt>
      <trkpt lat="45.00452" lon="5.56832">
        <ele>2142.1</ele>
        <time>2015-07-04T10:00:42.000Z</time>
      </trkpt>
      <trkpt lat="45.00449" lon="5.56845">
        <ele>2140.9</ele>
        <time>2015-07-04T10:00:49.000Z</time>
      </trkpt>
      <trkpt lat="45.00445" lon="5.5686">
        <ele>2138.9</ele>
        <time>2015-07-04T10:00:57.000Z</time>
      </trkpt>
      <trkpt lat="45.00444" lon="5.56872">
        <ele>2137.2</ele>
        <time>2015-07-04T10:01:03.000Z</time>
      </trkpt>
      <trkpt lat="45.00442" lon="5.5688">
        <ele>2136.4</ele>
        <time>2015-07-04T10:01:07.000Z</time>
      </trkpt>
      <trkpt lat="45.00442" lon="5.56883">
        <ele>2135.8</ele>
        <time>2015-07-04T10:01:09.000Z</time>
      </trkpt>
      <trkpt lat="45.00441" lon="5.56888">
        <ele>2135.4</ele>
        <time>2015-07-04T10:01:12.000Z</time>
      </trkpt>
      <trkpt lat="45.00439" lon="5.56893">
        <ele>2134.9</ele>
        <time>2015-07-04T10:01:15.000Z</time>
      </trkpt>
      <trkpt lat="45.00435" lon="5.56901">
        <ele>2134.9</ele>
        <time>2015-07-04T10:01:20.000Z</time>
      </trkpt>
      <trkpt lat="45.00433" lon="5.56904">
        <ele>2134.7</ele>
        <time>2015-07-04T10:01:22.000Z</time>
      </trkpt>
      <trkpt lat="45.0043" lon="5.56909">
        <ele>2134.5</ele>
        <time>2015-07-04T10:01:26.000Z</time>
      </trkpt>
      <trkpt lat="45.00429" lon="5.5691">
        <ele>2134.6</ele>
        <time>2015-07-04T10:01:27.000Z</time>
      </trkpt>
      <trkpt lat="45.00425" lon="5.56916">
        <ele>2134.8</ele>
        <time>2015-07-04T10:01:32.000Z</time>
      </trkpt>
      <trkpt lat="45.00424" lon="5.56919">
        <ele>2134.5</ele>
        <time>2015-07-04T10:01:34.000Z</time>
      </trkpt>
      <trkpt lat="45.00424" lon="5.56928">
        <ele>2132.5</ele>
        <time>2015-07-04T10:01:38.000Z</time>
      </trkpt>
      <trkpt lat="45.00424" lon="5.56933">
        <ele>2131.2</ele>
        <time>2015-07-04T10:01:41.000Z</time>
      </trkpt>
      <trkpt lat="45.00424" lon="5.56938">
        <ele>2130.3</ele>
        <time>2015-07-04T10:01:43.000Z</time>
      </trkpt>
      <trkpt lat="45.00424" lon="5.56942">
        <ele>2129.6</ele>
        <time>2015-07-04T10:01:45.000Z</time>
      </trkpt>
      <trkpt lat="45.00423" lon="5.56947">
        <ele>2128.6</ele>
        <time>2015-07-04T10:01:48.000Z</time>
      </trkpt>
      <trkpt lat="45.00422" lon="5.56948">
        <ele>2128.2</ele>
        <time>2015-07-04T10:01:49.000Z</time>
      </trkpt>
      <trkpt lat="45.00422" lon="5.56954">
        <ele>2126.8</ele>
        <time>2015-07-04T10:01:52.000Z</time>
      </trkpt>
      <trkpt lat="45.00421" lon="5.56959">
        <ele>2125.7</ele>
        <time>2015-07-04T10:01:55.000Z</time>
      </trkpt>
      <trkpt lat="45.00418" lon="5.56969">
        <ele>2123.3</ele>
        <time>2015-07-04T10:02:01.000Z</time>
      </trkpt>
      <trkpt lat="45.00418" lon="5.56973">
        <ele>2122.5</ele>
        <time>2015-07-04T10:02:03.000Z</time>
      </trkpt>
      <trkpt lat="45.00415" lon="5.56979">
        <ele>2121.1</ele>
        <time>2015-07-04T10:02:07.000Z</time>
      </trkpt>
      <trkpt lat="45.00415" lon="5.56981">
        <ele>2120.7</ele>
        <time>2015-07-04T10:02:08.000Z</time>
      </trkpt>
      <trkpt lat="45.00411" lon="5.56986">
        <ele>2119.9</ele>
        <time>2015-07-04T10:02:12.000Z</time>
      </trkpt>
      <trkpt lat="45.00411" lon="5.5699">
        <ele>2118.9</ele>
        <time>2015-07-04T10:02:15.000Z</time>
      </trkpt>
      <trkpt lat="45.0041" lon="5.56992">
        <ele>2118.4</ele>
        <time>2015-07-04T10:02:17.000Z</time>
      </trkpt>
      <trkpt lat="45.00407" lon="5.56994">
        <ele>2118.6</ele>
        <time>2015-07-04T10:02:20.000Z</time>
      </trkpt>
      <trkpt lat="45.00405" lon="5.56997">
        <ele>2118.2</ele>
        <time>2015-07-04T10:02:22.000Z</time>
      </trkpt>
      <trkpt lat="45.00404" lon="5.57001">
        <ele>2117.4</ele>
        <time>2015-07-04T10:02:24.000Z</time>
      </trkpt>
      <trkpt lat="45.00402" lon="5.57005">
        <ele>2116.6</ele>
        <time>2015-07-04T10:02:26.000Z</time>
      </trkpt>
      <trkpt lat="45.00402" lon="5.57008">
        <ele>2115.5</ele>
        <time>2015-07-04T10:02:28.000Z</time>
      </trkpt>
      <trkpt lat="45.00397" lon="5.5702">
        <ele>2113.4</ele>
        <time>2015-07-04T10:02:35.000Z</time>
      </trkpt>
      <trkpt lat="45.00393" lon="5.57031">
        <ele>2111.5</ele>
        <time>2015-07-04T10:02:42.000Z</time>
      </trkpt>
      <trkpt lat="45.0039" lon="5.57039">
        <ele>2110.3</ele>
        <time>2015-07-04T10:02:48.000Z</time>
      </trkpt>
      <trkpt lat="45.00386" lon="5.57051">
        <ele>2108.4</ele>
        <time>2015-07-04T10:02:55.000Z</time>
      </trkpt>
      <trkpt lat="45.00383" lon="5.57061">
        <ele>2107</ele>
        <time>2015-07-04T10:03:02.000Z</time>
      </trkpt>
      <trkpt lat="45.00379" lon="5.57073">
        <ele>2105.6</ele>
        <time>2015-07-04T10:03:09.000Z</time>
      </trkpt>
      <trkpt lat="45.00377" lon="5.57085">
        <ele>2103.7</ele>
        <time>2015-07-04T10:03:15.000Z</time>
      </trkpt>
      <trkpt lat="45.00374" lon="5.57095">
        <ele>2102.9</ele>
        <time>2015-07-04T10:03:21.000Z</time>
      </trkpt>
      <trkpt lat="45.00373" lon="5.57105">
        <ele>2101.2</ele>
        <time>2015-07-04T10:03:27.000Z</time>
      </trkpt>
      <trkpt lat="45.00372" lon="5.57119">
        <ele>2098.7</ele>
        <time>2015-07-04T10:03:34.000Z</time>
      </trkpt>
      <trkpt lat="45.00372" lon="5.57132">
        <ele>2096.4</ele>
        <time>2015-07-04T10:03:41.000Z</time>
      </trkpt>
      <trkpt lat="45.00371" lon="5.57148">
        <ele>2093.4</ele>
        <time>2015-07-04T10:03:49.000Z</time>
      </trkpt>
      <trkpt lat="45.0037" lon="5.57159">
        <ele>2091.5</ele>
        <time>2015-07-04T10:03:55.000Z</time>
      </trkpt>
      <trkpt lat="45.00369" lon="5.57168">
        <ele>2090.2</ele>
        <time>2015-07-04T10:04:00.000Z</time>
      </trkpt>
      <trkpt lat="45.00369" lon="5.57169">
        <ele>2089.9</ele>
        <time>2015-07-04T10:04:01.000Z</time>
      </trkpt>
      <trkpt lat="45.00367" lon="5.57177">
        <ele>2089.4</ele>
        <time>2015-07-04T10:04:05.000Z</time>
      </trkpt>
      <trkpt lat="45.00367" lon="5.57179">
        <ele>2089.1</ele>
        <time>2015-07-04T10:04:06.000Z</time>
      </trkpt>
      <trkpt lat="45.00366" lon="5.57186">
        <ele>2088.4</ele>
        <time>2015-07-04T10:04:10.000Z</time>
      </trkpt>
      <trkpt lat="45.00365" lon="5.57187">
        <ele>2088.4</ele>
        <time>2015-07-04T10:04:11.000Z</time>
      </trkpt>
      <trkpt lat="45.00362" lon="5.57198">
        <ele>2088.2</ele>
        <time>2015-07-04T10:04:17.000Z</time>
      </trkpt>
      <trkpt lat="45.00363" lon="5.57209">
        <ele>2086.8</ele>
        <time>2015-07-04T10:04:23.000Z</time>
      </trkpt>
      <trkpt lat="45.00361" lon="5.57218">
        <ele>2086.4</ele>
        <time>2015-07-04T10:04:28.000Z</time>
      </trkpt>
      <trkpt lat="45.00361" lon="5.57222">
        <ele>2086</ele>
        <time>2015-07-04T10:04:30.000Z</time>
      </trkpt>
      <trkpt lat="45.00361" lon="5.57226">
        <ele>2085.7</ele>
        <time>2015-07-04T10:04:32.000Z</time>
      </trkpt>
      <trkpt lat="45.00359" lon="5.57235">
        <ele>2085.9</ele>
        <time>2015-07-04T10:04:38.000Z</time>
      </trkpt>
      <trkpt lat="45.00357" lon="5.57245">
        <ele>2085.9</ele>
        <time>2015-07-04T10:04:44.000Z</time>
      </trkpt>
      <trkpt lat="45.00353" lon="5.57255">
        <ele>2086.1</ele>
        <time>2015-07-04T10:04:51.000Z</time>
      </trkpt>
      <trkpt lat="45.00352" lon="5.57267">
        <ele>2084.9</ele>
        <time>2015-07-04T10:04:58.000Z</time>
      </trkpt>
      <trkpt lat="45.00351" lon="5.57275">
        <ele>2084.3</ele>
        <time>2015-07-04T10:05:03.000Z</time>
      </trkpt>
      <trkpt lat="45.00349" lon="5.57287">
        <ele>2083.3</ele>
        <time>2015-07-04T10:05:09.000Z</time>
      </trkpt>
      <trkpt lat="45.00348" lon="5.57293">
        <ele>2082.7</ele>
        <time>2015-07-04T10:05:12.000Z</time>
      </trkpt>
      <trkpt lat="45.00348" lon="5.57298">
        <ele>2081.8</ele>
        <time>2015-07-04T10:05:15.000Z</time>
      </trkpt>
      <trkpt lat="45.00345" lon="5.57309">
        <ele>2081.7</ele>
        <time>2015-07-04T10:05:21.000Z</time>
      </trkpt>
      <trkpt lat="45.00345" lon="5.57321">
        <ele>2080.3</ele>
        <time>2015-07-04T10:05:28.000Z</time>
      </trkpt>
      <trkpt lat="45.00346" lon="5.57337">
        <ele>2078.3</ele>
        <time>2015-07-04T10:05:37.000Z</time>
      </trkpt>
      <trkpt lat="45.00345" lon="5.57347">
        <ele>2077.6</ele>
        <time>2015-07-04T10:05:42.000Z</time>
      </trkpt>
      <trkpt lat="45.00345" lon="5.5735">
        <ele>2077.3</ele>
        <time>2015-07-04T10:05:44.000Z</time>
      </trkpt>
      <trkpt lat="45.00346" lon="5.57355">
        <ele>2076.9</ele>
        <time>2015-07-04T10:05:48.000Z</time>
      </trkpt>
      <trkpt lat="45.00343" lon="5.57357">
        <ele>2077.2</ele>
        <time>2015-07-04T10:05:51.000Z</time>
      </trkpt>
      <trkpt lat="45.00342" lon="5.5736">
        <ele>2077.2</ele>
        <time>2015-07-04T10:05:53.000Z</time>
      </trkpt>
      <trkpt lat="45.00341" lon="5.57369">
        <ele>2076.7</ele>
        <time>2015-07-04T10:05:58.000Z</time>
      </trkpt>
      <trkpt lat="45.00341" lon="5.57381">
        <ele>2075.6</ele>
        <time>2015-07-04T10:06:04.000Z</time>
      </trkpt>
      <trkpt lat="45.00343" lon="5.57393">
        <ele>2074.5</ele>
        <time>2015-07-04T10:06:11.000Z</time>
      </trkpt>
      <trkpt lat="45.00342" lon="5.57406">
        <ele>2074</ele>
        <time>2015-07-04T10:06:18.000Z</time>
      </trkpt>
      <trkpt lat="45.00342" lon="5.57413">
        <ele>2073.6</ele>
        <time>2015-07-04T10:06:22.000Z</time>
      </trkpt>
      <trkpt lat="45.00341" lon="5.57415">
        <ele>2073.6</ele>
        <time>2015-07-04T10:06:23.000Z</time>
      </trkpt>
      <trkpt lat="45.00337" lon="5.57421">
        <ele>2074</ele>
        <time>2015-07-04T10:06:29.000Z</time>
      </trkpt>
      <trkpt lat="45.00333" lon="5.57425">
        <ele>2074.4</ele>
        <time>2015-07-04T10:06:33.000Z</time>
      </trkpt>
      <trkpt lat="45.00332" lon="5.57428">
        <ele>2074.7</ele>
        <time>2015-07-04T10:06:35.000Z</time>
      </trkpt>
      <trkpt lat="45.00326" lon="5.57436">
        <ele>2076.5</ele>
        <time>2015-07-04T10:06:42.000Z</time>
      </trkpt>
      <trkpt lat="45.00325" lon="5.57438">
        <ele>2076.6</ele>
        <time>2015-07-04T10:06:43.000Z</time>
      </trkpt>
      <trkpt lat="45.00323" lon="5.57445">
        <ele>2076.9</ele>
        <time>2015-07-04T10:06:47.000Z</time>
      </trkpt>
      <trkpt lat="45.00322" lon="5.57454">
        <ele>2076.8</ele>
        <time>2015-07-04T10:06:53.000Z</time>
      </trkpt>
      <trkpt lat="45.00323" lon="5.57463">
        <ele>2076</ele>
        <time>2015-07-04T10:06:58.000Z</time>
      </trkpt>
      <trkpt lat="45.00325" lon="5.57478">
        <ele>2073.6</ele>
        <time>2015-07-04T10:07:05.000Z</time>
      </trkpt>
      <trkpt lat="45.00325" lon="5.5748">
        <ele>2073</ele>
        <time>2015-07-04T10:07:06.000Z</time>
      </trkpt>
      <trkpt lat="45.00327" lon="5.57487">
        <ele>2070.5</ele>
        <time>2015-07-04T10:07:11.000Z</time>
      </trkpt>
      <trkpt lat="45.00328" lon="5.57488">
        <ele>2069.8</ele>
        <time>2015-07-04T10:07:12.000Z</time>
      </trkpt>
      <trkpt lat="45.00329" lon="5.5749">
        <ele>2069.2</ele>
        <time>2015-07-04T10:07:13.000Z</time>
      </trkpt>
      <trkpt lat="45.0033" lon="5.57494">
        <ele>2067.6</ele>
        <time>2015-07-04T10:07:17.000Z</time>
      </trkpt>
      <trkpt lat="45.0033" lon="5.57506">
        <ele>2065.8</ele>
        <time>2015-07-04T10:07:23.000Z</time>
      </trkpt>
      <trkpt lat="45.00329" lon="5.57519">
        <ele>2064.5</ele>
        <time>2015-07-04T10:07:29.000Z</time>
      </trkpt>
      <trkpt lat="45.00328" lon="5.57527">
        <ele>2063.7</ele>
        <time>2015-07-04T10:07:33.000Z</time>
      </trkpt>
      <trkpt lat="45.0033" lon="5.57535">
        <ele>2062.1</ele>
        <time>2015-07-04T10:07:37.000Z</time>
      </trkpt>
      <trkpt lat="45.0033" lon="5.57538">
        <ele>2061.7</ele>
        <time>2015-07-04T10:07:38.000Z</time>
      </trkpt>
      <trkpt lat="45.00331" lon="5.57546">
        <ele>2060.6</ele>
        <time>2015-07-04T10:07:43.000Z</time>
      </trkpt>
      <trkpt lat="45.00332" lon="5.57557">
        <ele>2059.5</ele>
        <time>2015-07-04T10:07:49.000Z</time>
      </trkpt>
      <trkpt lat="45.00333" lon="5.57563">
        <ele>2058.7</ele>
        <time>2015-07-04T10:07:53.000Z</time>
      </trkpt>
      <trkpt lat="45.00335" lon="5.57574">
        <ele>2057.3</ele>
        <time>2015-07-04T10:07:58.000Z</time>
      </trkpt>
      <trkpt lat="45.00334" lon="5.57584">
        <ele>2056.9</ele>
        <time>2015-07-04T10:08:03.000Z</time>
      </trkpt>
      <trkpt lat="45.00333" lon="5.57586">
        <ele>2057.1</ele>
        <time>2015-07-04T10:08:04.000Z</time>
      </trkpt>
      <trkpt lat="45.00333" lon="5.57591">
        <ele>2056.4</ele>
        <time>2015-07-04T10:08:07.000Z</time>
      </trkpt>
      <trkpt lat="45.00333" lon="5.57598">
        <ele>2056.3</ele>
        <time>2015-07-04T10:08:11.000Z</time>
      </trkpt>
      <trkpt lat="45.00332" lon="5.57603">
        <ele>2055.9</ele>
        <time>2015-07-04T10:08:15.000Z</time>
      </trkpt>
      <trkpt lat="45.00332" lon="5.57605">
        <ele>2055.8</ele>
        <time>2015-07-04T10:08:16.000Z</time>
      </trkpt>
      <trkpt lat="45.00331" lon="5.57612">
        <ele>2055.8</ele>
        <time>2015-07-04T10:08:19.000Z</time>
      </trkpt>
      <trkpt lat="45.00332" lon="5.57614">
        <ele>2055.7</ele>
        <time>2015-07-04T10:08:20.000Z</time>
      </trkpt>
      <trkpt lat="45.00334" lon="5.57621">
        <ele>2055.5</ele>
        <time>2015-07-04T10:08:25.000Z</time>
      </trkpt>
      <trkpt lat="45.00339" lon="5.57624">
        <ele>2054.3</ele>
        <time>2015-07-04T10:08:29.000Z</time>
      </trkpt>
      <trkpt lat="45.00342" lon="5.57625">
        <ele>2053.5</ele>
        <time>2015-07-04T10:08:31.000Z</time>
      </trkpt>
      <trkpt lat="45.00344" lon="5.57629">
        <ele>2053.4</ele>
        <time>2015-07-04T10:08:33.000Z</time>
      </trkpt>
      <trkpt lat="45.00343" lon="5.57633">
        <ele>2054</ele>
        <time>2015-07-04T10:08:35.000Z</time>
      </trkpt>
      <trkpt lat="45.00344" lon="5.57637">
        <ele>2054.5</ele>
        <time>2015-07-04T10:08:38.000Z</time>
      </trkpt>
      <trkpt lat="45.00346" lon="5.57645">
        <ele>2055.1</ele>
        <time>2015-07-04T10:08:45.000Z</time>
      </trkpt>
      <trkpt lat="45.00349" lon="5.5765">
        <ele>2054.7</ele>
        <time>2015-07-04T10:08:49.000Z</time>
      </trkpt>
      <trkpt lat="45.0035" lon="5.57652">
        <ele>2054.8</ele>
        <time>2015-07-04T10:08:51.000Z</time>
      </trkpt>
      <trkpt lat="45.00349" lon="5.57664">
        <ele>2056.3</ele>
        <time>2015-07-04T10:08:57.000Z</time>
      </trkpt>
      <trkpt lat="45.00351" lon="5.57667">
        <ele>2056.2</ele>
        <time>2015-07-04T10:08:59.000Z</time>
      </trkpt>
      <trkpt lat="45.00356" lon="5.57671">
        <ele>2055.1</ele>
        <time>2015-07-04T10:09:03.000Z</time>
      </trkpt>
      <trkpt lat="45.0036" lon="5.57679">
        <ele>2054.2</ele>
        <time>2015-07-04T10:09:08.000Z</time>
      </trkpt>
      <trkpt lat="45.00362" lon="5.57693">
        <ele>2053.9</ele>
        <time>2015-07-04T10:09:15.000Z</time>
      </trkpt>
      <trkpt lat="45.00362" lon="5.57695">
        <ele>2053.7</ele>
        <time>2015-07-04T10:09:17.000Z</time>
      </trkpt>
      <trkpt lat="45.00366" lon="5.57703">
        <ele>2052.4</ele>
        <time>2015-07-04T10:09:22.000Z</time>
      </trkpt>
      <trkpt lat="45.00371" lon="5.57712">
        <ele>2051</ele>
        <time>2015-07-04T10:09:28.000Z</time>
      </trkpt>
      <trkpt lat="45.00373" lon="5.57715">
        <ele>2050.6</ele>
        <time>2015-07-04T10:09:31.000Z</time>
      </trkpt>
      <trkpt lat="45.00374" lon="5.57717">
        <ele>2050.3</ele>
        <time>2015-07-04T10:09:33.000Z</time>
      </trkpt>
      <trkpt lat="45.00376" lon="5.57717">
        <ele>2050.2</ele>
        <time>2015-07-04T10:09:35.000Z</time>
      </trkpt>
      <trkpt lat="45.00379" lon="5.57714">
        <ele>2050</ele>
        <time>2015-07-04T10:09:38.000Z</time>
      </trkpt>
      <trkpt lat="45.00384" lon="5.57709">
        <ele>2049.6</ele>
        <time>2015-07-04T10:09:43.000Z</time>
      </trkpt>
      <trkpt lat="45.0039" lon="5.57708">
        <ele>2048.9</ele>
        <time>2015-07-04T10:09:49.000Z</time>
      </trkpt>
      <trkpt lat="45.00393" lon="5.57707">
        <ele>2048.7</ele>
        <time>2015-07-04T10:09:53.000Z</time>
      </trkpt>
      <trkpt lat="45.00396" lon="5.57705">
        <ele>2048.4</ele>
        <time>2015-07-04T10:09:57.000Z</time>
      </trkpt>
      <trkpt lat="45.00397" lon="5.57704">
        <ele>2048.3</ele>
        <time>2015-07-04T10:09:58.000Z</time>
      </trkpt>
      <trkpt lat="45.004" lon="5.57702">
        <ele>2048</ele>
        <time>2015-07-04T10:10:01.000Z</time>
      </trkpt>
      <trkpt lat="45.00402" lon="5.57702">
        <ele>2047.8</ele>
        <time>2015-07-04T10:10:03.000Z</time>
      </trkpt>
      <trkpt lat="45.00408" lon="5.57698">
        <ele>2047</ele>
        <time>2015-07-04T10:10:08.000Z</time>
      </trkpt>
      <trkpt lat="45.00414" lon="5.57697">
        <ele>2046.5</ele>
        <time>2015-07-04T10:10:12.000Z</time>
      </trkpt>
      <trkpt lat="45.00418" lon="5.57699">
        <ele>2046.1</ele>
        <time>2015-07-04T10:10:17.000Z</time>
      </trkpt>
      <trkpt lat="45.00425" lon="5.57698">
        <ele>2045.2</ele>
        <time>2015-07-04T10:10:22.000Z</time>
      </trkpt>
      <trkpt lat="45.00432" lon="5.57693">
        <ele>2043.7</ele>
        <time>2015-07-04T10:10:27.000Z</time>
      </trkpt>
      <trkpt lat="45.00439" lon="5.57686">
        <ele>2041.9</ele>
        <time>2015-07-04T10:10:33.000Z</time>
      </trkpt>
      <trkpt lat="45.00444" lon="5.57676">
        <ele>2040</ele>
        <time>2015-07-04T10:10:39.000Z</time>
      </trkpt>
      <trkpt lat="45.00448" lon="5.57666">
        <ele>2038.1</ele>
        <time>2015-07-04T10:10:45.000Z</time>
      </trkpt>
      <trkpt lat="45.00454" lon="5.57656">
        <ele>2036.2</ele>
        <time>2015-07-04T10:10:51.000Z</time>
      </trkpt>
      <trkpt lat="45.00455" lon="5.57654">
        <ele>2036</ele>
        <time>2015-07-04T10:10:52.000Z</time>
      </trkpt>
      <trkpt lat="45.00462" lon="5.57644">
        <ele>2034.4</ele>
        <time>2015-07-04T10:10:59.000Z</time>
      </trkpt>
      <trkpt lat="45.0047" lon="5.57639">
        <ele>2033.3</ele>
        <time>2015-07-04T10:11:05.000Z</time>
      </trkpt>
      <trkpt lat="45.00474" lon="5.5763">
        <ele>2033.1</ele>
        <time>2015-07-04T10:11:11.000Z</time>
      </trkpt>
      <trkpt lat="45.00475" lon="5.57628">
        <ele>2033.1</ele>
        <time>2015-07-04T10:11:12.000Z</time>
      </trkpt>
      <trkpt lat="45.00476" lon="5.57621">
        <ele>2033</ele>
        <time>2015-07-04T10:11:16.000Z</time>
      </trkpt>
      <trkpt lat="45.00477" lon="5.57615">
        <ele>2032.9</ele>
        <time>2015-07-04T10:11:19.000Z</time>
      </trkpt>
      <trkpt lat="45.00477" lon="5.57612">
        <ele>2032.8</ele>
        <time>2015-07-04T10:11:21.000Z</time>
      </trkpt>
      <trkpt lat="45.00478" lon="5.57608">
        <ele>2032.3</ele>
        <time>2015-07-04T10:11:23.000Z</time>
      </trkpt>
      <trkpt lat="45.00478" lon="5.57602">
        <ele>2031.7</ele>
        <time>2015-07-04T10:11:26.000Z</time>
      </trkpt>
      <trkpt lat="45.00478" lon="5.576">
        <ele>2031.4</ele>
        <time>2015-07-04T10:11:27.000Z</time>
      </trkpt>
      <trkpt lat="45.00477" lon="5.57592">
        <ele>2030.4</ele>
        <time>2015-07-04T10:11:31.000Z</time>
      </trkpt>
      <trkpt lat="45.00476" lon="5.57585">
        <ele>2029.3</ele>
        <time>2015-07-04T10:11:35.000Z</time>
      </trkpt>
      <trkpt lat="45.00474" lon="5.5757">
        <ele>2029.5</ele>
        <time>2015-07-04T10:11:42.000Z</time>
      </trkpt>
      <trkpt lat="45.0047" lon="5.57551">
        <ele>2029.9</ele>
        <time>2015-07-04T10:11:52.000Z</time>
      </trkpt>
      <trkpt lat="45.0047" lon="5.57546">
        <ele>2029.6</ele>
        <time>2015-07-04T10:11:58.000Z</time>
      </trkpt>
      <trkpt lat="45.00471" lon="5.57549">
        <ele>2029.6</ele>
        <time>2015-07-04T10:12:06.000Z</time>
      </trkpt>
      <trkpt lat="45.00473" lon="5.57549">
        <ele>2029.6</ele>
        <time>2015-07-04T10:12:57.000Z</time>
      </trkpt>
      <trkpt lat="45.00477" lon="5.57552">
        <ele>2029.9</ele>
        <time>2015-07-04T10:13:15.000Z</time>
      </trkpt>
      <trkpt lat="45.00478" lon="5.5756">
        <ele>2030</ele>
        <time>2015-07-04T10:13:24.000Z</time>
      </trkpt>
      <trkpt lat="45.0048" lon="5.57574">
        <ele>2029.6</ele>
        <time>2015-07-04T10:13:31.000Z</time>
      </trkpt>
      <trkpt lat="45.0048" lon="5.57584">
        <ele>2029.4</ele>
        <time>2015-07-04T10:13:37.000Z</time>
      </trkpt>
      <trkpt lat="45.00483" lon="5.57595">
        <ele>2030.8</ele>
        <time>2015-07-04T10:13:44.000Z</time>
      </trkpt>
      <trkpt lat="45.00484" lon="5.57601">
        <ele>2031.4</ele>
        <time>2015-07-04T10:13:50.000Z</time>
      </trkpt>
      <trkpt lat="45.00485" lon="5.57603">
        <ele>2031.6</ele>
        <time>2015-07-04T10:13:51.000Z</time>
      </trkpt>
      <trkpt lat="45.00486" lon="5.57608">
        <ele>2032.1</ele>
        <time>2015-07-04T10:13:54.000Z</time>
      </trkpt>
      <trkpt lat="45.00487" lon="5.5761">
        <ele>2032.4</ele>
        <time>2015-07-04T10:13:56.000Z</time>
      </trkpt>
      <trkpt lat="45.00487" lon="5.57617">
        <ele>2032.8</ele>
        <time>2015-07-04T10:14:00.000Z</time>
      </trkpt>
      <trkpt lat="45.00489" lon="5.57624">
        <ele>2033.3</ele>
        <time>2015-07-04T10:14:06.000Z</time>
      </trkpt>
      <trkpt lat="45.00497" lon="5.57628">
        <ele>2033.8</ele>
        <time>2015-07-04T10:14:13.000Z</time>
      </trkpt>
      <trkpt lat="45.00504" lon="5.57631">
        <ele>2034.2</ele>
        <time>2015-07-04T10:14:19.000Z</time>
      </trkpt>
      <trkpt lat="45.00506" lon="5.57632">
        <ele>2034.3</ele>
        <time>2015-07-04T10:14:21.000Z</time>
      </trkpt>
      <trkpt lat="45.00511" lon="5.57632">
        <ele>2034.4</ele>
        <time>2015-07-04T10:14:25.000Z</time>
      </trkpt>
      <trkpt lat="45.00519" lon="5.57634">
        <ele>2034.6</ele>
        <time>2015-07-04T10:14:30.000Z</time>
      </trkpt>
      <trkpt lat="45.00526" lon="5.57638">
        <ele>2035</ele>
        <time>2015-07-04T10:14:35.000Z</time>
      </trkpt>
      <trkpt lat="45.00529" lon="5.57644">
        <ele>2035.6</ele>
        <time>2015-07-04T10:14:40.000Z</time>
      </trkpt>
      <trkpt lat="45.00534" lon="5.57647">
        <ele>2035.6</ele>
        <time>2015-07-04T10:14:44.000Z</time>
      </trkpt>
      <trkpt lat="45.00534" lon="5.57647">
        <ele>2035.7</ele>
        <time>2015-07-04T10:14:45.000Z</time>
      </trkpt>
      <trkpt lat="45.00537" lon="5.57649">
        <ele>2035.7</ele>
        <time>2015-07-04T10:14:50.000Z</time>
      </trkpt>
      <trkpt lat="45.0054" lon="5.57648">
        <ele>2035.3</ele>
        <time>2015-07-04T10:14:52.000Z</time>
      </trkpt>
      <trkpt lat="45.00545" lon="5.57649">
        <ele>2035</ele>
        <time>2015-07-04T10:14:55.000Z</time>
      </trkpt>
      <trkpt lat="45.0055" lon="5.57651">
        <ele>2034.8</ele>
        <time>2015-07-04T10:15:00.000Z</time>
      </trkpt>
      <trkpt lat="45.00551" lon="5.57654">
        <ele>2035.1</ele>
        <time>2015-07-04T10:15:03.000Z</time>
      </trkpt>
      <trkpt lat="45.00549" lon="5.57656">
        <ele>2035.6</ele>
        <time>2015-07-04T10:15:06.000Z</time>
      </trkpt>
      <trkpt lat="45.00552" lon="5.57662">
        <ele>2035.8</ele>
        <time>2015-07-04T10:15:11.000Z</time>
      </trkpt>
      <trkpt lat="45.00557" lon="5.57666">
        <ele>2036</ele>
        <time>2015-07-04T10:15:16.000Z</time>
      </trkpt>
      <trkpt lat="45.00558" lon="5.57669">
        <ele>2036.4</ele>
        <time>2015-07-04T10:15:19.000Z</time>
      </trkpt>
      <trkpt lat="45.00559" lon="5.5767">
        <ele>2036.7</ele>
        <time>2015-07-04T10:15:20.000Z</time>
      </trkpt>
      <trkpt lat="45.00561" lon="5.57675">
        <ele>2037.8</ele>
        <time>2015-07-04T10:15:24.000Z</time>
      </trkpt>
      <trkpt lat="45.00562" lon="5.57676">
        <ele>2038.1</ele>
        <time>2015-07-04T10:15:25.000Z</time>
      </trkpt>
      <trkpt lat="45.00565" lon="5.57681">
        <ele>2039.3</ele>
        <time>2015-07-04T10:15:28.000Z</time>
      </trkpt>
      <trkpt lat="45.00566" lon="5.57683">
        <ele>2039.7</ele>
        <time>2015-07-04T10:15:30.000Z</time>
      </trkpt>
      <trkpt lat="45.00567" lon="5.57683">
        <ele>2039.7</ele>
        <time>2015-07-04T10:15:31.000Z</time>
      </trkpt>
      <trkpt lat="45.00571" lon="5.57682">
        <ele>2039.5</ele>
        <time>2015-07-04T10:15:34.000Z</time>
      </trkpt>
      <trkpt lat="45.00575" lon="5.5768">
        <ele>2039.3</ele>
        <time>2015-07-04T10:15:38.000Z</time>
      </trkpt>
      <trkpt lat="45.00576" lon="5.57681">
        <ele>2039.4</ele>
        <time>2015-07-04T10:15:39.000Z</time>
      </trkpt>
      <trkpt lat="45.00578" lon="5.5768">
        <ele>2039.3</ele>
        <time>2015-07-04T10:15:42.000Z</time>
      </trkpt>
      <trkpt lat="45.0058" lon="5.5768">
        <ele>2039.3</ele>
        <time>2015-07-04T10:15:44.000Z</time>
      </trkpt>
      <trkpt lat="45.00581" lon="5.5768">
        <ele>2039.4</ele>
        <time>2015-07-04T10:15:46.000Z</time>
      </trkpt>
      <trkpt lat="45.00584" lon="5.57682">
        <ele>2039.9</ele>
        <time>2015-07-04T10:15:48.000Z</time>
      </trkpt>
      <trkpt lat="45.00584" lon="5.57682">
        <ele>2039.9</ele>
        <time>2015-07-04T10:15:49.000Z</time>
      </trkpt>
      <trkpt lat="45.00589" lon="5.57683">
        <ele>2040.3</ele>
        <time>2015-07-04T10:15:53.000Z</time>
      </trkpt>
      <trkpt lat="45.00591" lon="5.57682">
        <ele>2040.2</ele>
        <time>2015-07-04T10:15:56.000Z</time>
      </trkpt>
      <trkpt lat="45.00592" lon="5.57681">
        <ele>2039.8</ele>
        <time>2015-07-04T10:15:57.000Z</time>
      </trkpt>
      <trkpt lat="45.00597" lon="5.57674">
        <ele>2037.8</ele>
        <time>2015-07-04T10:16:03.000Z</time>
      </trkpt>
      <trkpt lat="45.00598" lon="5.57671">
        <ele>2037</ele>
        <time>2015-07-04T10:16:05.000Z</time>
      </trkpt>
      <trkpt lat="45.00599" lon="5.5767">
        <ele>2036.6</ele>
        <time>2015-07-04T10:16:06.000Z</time>
      </trkpt>
      <trkpt lat="45.00599" lon="5.57668">
        <ele>2035.8</ele>
        <time>2015-07-04T10:16:08.000Z</time>
      </trkpt>
      <trkpt lat="45.00599" lon="5.57667">
        <ele>2035.4</ele>
        <time>2015-07-04T10:16:10.000Z</time>
      </trkpt>
      <trkpt lat="45.00603" lon="5.57664">
        <ele>2034.6</ele>
        <time>2015-07-04T10:16:14.000Z</time>
      </trkpt>
      <trkpt lat="45.00606" lon="5.57664">
        <ele>2034.4</ele>
        <time>2015-07-04T10:16:16.000Z</time>
      </trkpt>
      <trkpt lat="45.00609" lon="5.57665">
        <ele>2034.5</ele>
        <time>2015-07-04T10:16:18.000Z</time>
      </trkpt>
      <trkpt lat="45.00616" lon="5.57665">
        <ele>2034.4</ele>
        <time>2015-07-04T10:16:24.000Z</time>
      </trkpt>
      <trkpt lat="45.0062" lon="5.57666">
        <ele>2034.7</ele>
        <time>2015-07-04T10:16:28.000Z</time>
      </trkpt>
      <trkpt lat="45.00623" lon="5.57666">
        <ele>2034.8</ele>
        <time>2015-07-04T10:16:30.000Z</time>
      </trkpt>
      <trkpt lat="45.00623" lon="5.57665">
        <ele>2034.4</ele>
        <time>2015-07-04T10:16:31.000Z</time>
      </trkpt>
      <trkpt lat="45.00626" lon="5.57663">
        <ele>2033.9</ele>
        <time>2015-07-04T10:16:35.000Z</time>
      </trkpt>
      <trkpt lat="45.00627" lon="5.57663">
        <ele>2033.9</ele>
        <time>2015-07-04T10:16:36.000Z</time>
      </trkpt>
      <trkpt lat="45.00628" lon="5.57661">
        <ele>2033.4</ele>
        <time>2015-07-04T10:16:38.000Z</time>
      </trkpt>
      <trkpt lat="45.00629" lon="5.5766">
        <ele>2033</ele>
        <time>2015-07-04T10:16:39.000Z</time>
      </trkpt>
      <trkpt lat="45.00631" lon="5.57657">
        <ele>2032.1</ele>
        <time>2015-07-04T10:16:42.000Z</time>
      </trkpt>
      <trkpt lat="45.00633" lon="5.57652">
        <ele>2030.7</ele>
        <time>2015-07-04T10:16:45.000Z</time>
      </trkpt>
      <trkpt lat="45.00634" lon="5.57651">
        <ele>2030.6</ele>
        <time>2015-07-04T10:16:46.000Z</time>
      </trkpt>
      <trkpt lat="45.00635" lon="5.57647">
        <ele>2029.3</ele>
        <time>2015-07-04T10:16:49.000Z</time>
      </trkpt>
      <trkpt lat="45.0064" lon="5.57641">
        <ele>2027.5</ele>
        <time>2015-07-04T10:16:54.000Z</time>
      </trkpt>
      <trkpt lat="45.00642" lon="5.57642">
        <ele>2028</ele>
        <time>2015-07-04T10:16:56.000Z</time>
      </trkpt>
      <trkpt lat="45.00645" lon="5.57642">
        <ele>2028.2</ele>
        <time>2015-07-04T10:16:59.000Z</time>
      </trkpt>
      <trkpt lat="45.00652" lon="5.57642">
        <ele>2028.3</ele>
        <time>2015-07-04T10:17:06.000Z</time>
      </trkpt>
      <trkpt lat="45.00653" lon="5.57642">
        <ele>2028.3</ele>
        <time>2015-07-04T10:17:07.000Z</time>
      </trkpt>
      <trkpt lat="45.00655" lon="5.57642">
        <ele>2028.5</ele>
        <time>2015-07-04T10:17:10.000Z</time>
      </trkpt>
      <trkpt lat="45.00658" lon="5.57644">
        <ele>2028.8</ele>
        <time>2015-07-04T10:17:13.000Z</time>
      </trkpt>
      <trkpt lat="45.00659" lon="5.57643">
        <ele>2028.7</ele>
        <time>2015-07-04T10:17:15.000Z</time>
      </trkpt>
      <trkpt lat="45.00663" lon="5.57644">
        <ele>2029.1</ele>
        <time>2015-07-04T10:17:19.000Z</time>
      </trkpt>
      <trkpt lat="45.00664" lon="5.57643">
        <ele>2028.9</ele>
        <time>2015-07-04T10:17:21.000Z</time>
      </trkpt>
      <trkpt lat="45.00665" lon="5.57644">
        <ele>2029</ele>
        <time>2015-07-04T10:17:23.000Z</time>
      </trkpt>
      <trkpt lat="45.00666" lon="5.57645">
        <ele>2029.2</ele>
        <time>2015-07-04T10:17:24.000Z</time>
      </trkpt>
      <trkpt lat="45.00669" lon="5.57647">
        <ele>2029.8</ele>
        <time>2015-07-04T10:17:27.000Z</time>
      </trkpt>
      <trkpt lat="45.00672" lon="5.57649">
        <ele>2030.3</ele>
        <time>2015-07-04T10:17:30.000Z</time>
      </trkpt>
      <trkpt lat="45.00676" lon="5.5765">
        <ele>2030.6</ele>
        <time>2015-07-04T10:17:34.000Z</time>
      </trkpt>
      <trkpt lat="45.00676" lon="5.5765">
        <ele>2030.6</ele>
        <time>2015-07-04T10:17:35.000Z</time>
      </trkpt>
      <trkpt lat="45.00682" lon="5.57652">
        <ele>2031.2</ele>
        <time>2015-07-04T10:17:40.000Z</time>
      </trkpt>
      <trkpt lat="45.00683" lon="5.57652">
        <ele>2031.1</ele>
        <time>2015-07-04T10:17:41.000Z</time>
      </trkpt>
      <trkpt lat="45.00687" lon="5.5765">
        <ele>2030.9</ele>
        <time>2015-07-04T10:17:46.000Z</time>
      </trkpt>
      <trkpt lat="45.00692" lon="5.57651">
        <ele>2031.1</ele>
        <time>2015-07-04T10:17:51.000Z</time>
      </trkpt>
      <trkpt lat="45.00695" lon="5.57655">
        <ele>2031.8</ele>
        <time>2015-07-04T10:18:09.000Z</time>
      </trkpt>
      <trkpt lat="45.00696" lon="5.57656">
        <ele>2031.9</ele>
        <time>2015-07-04T10:18:10.000Z</time>
      </trkpt>
      <trkpt lat="45.00696" lon="5.57661">
        <ele>2032.7</ele>
        <time>2015-07-04T10:18:17.000Z</time>
      </trkpt>
      <trkpt lat="45.00701" lon="5.5767">
        <ele>2033.6</ele>
        <time>2015-07-04T10:18:24.000Z</time>
      </trkpt>
      <trkpt lat="45.00704" lon="5.57677">
        <ele>2035</ele>
        <time>2015-07-04T10:18:28.000Z</time>
      </trkpt>
      <trkpt lat="45.00706" lon="5.57683">
        <ele>2036.2</ele>
        <time>2015-07-04T10:18:32.000Z</time>
      </trkpt>
      <trkpt lat="45.00708" lon="5.57686">
        <ele>2036.9</ele>
        <time>2015-07-04T10:18:37.000Z</time>
      </trkpt>
      <trkpt lat="45.00712" lon="5.5769">
        <ele>2037.3</ele>
        <time>2015-07-04T10:18:41.000Z</time>
      </trkpt>
      <trkpt lat="45.00713" lon="5.5769">
        <ele>2037.4</ele>
        <time>2015-07-04T10:18:42.000Z</time>
      </trkpt>
      <trkpt lat="45.00713" lon="5.57692">
        <ele>2037.8</ele>
        <time>2015-07-04T10:18:43.000Z</time>
      </trkpt>
      <trkpt lat="45.00716" lon="5.57693">
        <ele>2037.9</ele>
        <time>2015-07-04T10:18:46.000Z</time>
      </trkpt>
      <trkpt lat="45.00719" lon="5.57697">
        <ele>2038.8</ele>
        <time>2015-07-04T10:18:51.000Z</time>
      </trkpt>
      <trkpt lat="45.00721" lon="5.57699">
        <ele>2039.1</ele>
        <time>2015-07-04T10:18:54.000Z</time>
      </trkpt>
      <trkpt lat="45.00723" lon="5.577">
        <ele>2039.2</ele>
        <time>2015-07-04T10:18:57.000Z</time>
      </trkpt>
      <trkpt lat="45.00724" lon="5.57701">
        <ele>2039.5</ele>
        <time>2015-07-04T10:18:58.000Z</time>
      </trkpt>
      <trkpt lat="45.00722" lon="5.57704">
        <ele>2040.7</ele>
        <time>2015-07-04T10:19:04.000Z</time>
      </trkpt>
      <trkpt lat="45.00724" lon="5.5771">
        <ele>2042.8</ele>
        <time>2015-07-04T10:19:08.000Z</time>
      </trkpt>
      <trkpt lat="45.00725" lon="5.57711">
        <ele>2043.2</ele>
        <time>2015-07-04T10:19:09.000Z</time>
      </trkpt>
      <trkpt lat="45.00727" lon="5.57714">
        <ele>2044.3</ele>
        <time>2015-07-04T10:19:12.000Z</time>
      </trkpt>
      <trkpt lat="45.00727" lon="5.57714">
        <ele>2044.5</ele>
        <time>2015-07-04T10:19:13.000Z</time>
      </trkpt>
      <trkpt lat="45.00727" lon="5.57713">
        <ele>2044.1</ele>
        <time>2015-07-04T10:19:14.000Z</time>
      </trkpt>
      <trkpt lat="45.00729" lon="5.57712">
        <ele>2043.6</ele>
        <time>2015-07-04T10:19:16.000Z</time>
      </trkpt>
      <trkpt lat="45.00731" lon="5.57714">
        <ele>2044.1</ele>
        <time>2015-07-04T10:19:18.000Z</time>
      </trkpt>
      <trkpt lat="45.00732" lon="5.57715">
        <ele>2044.5</ele>
        <time>2015-07-04T10:19:19.000Z</time>
      </trkpt>
      <trkpt lat="45.00733" lon="5.57719">
        <ele>2045.7</ele>
        <time>2015-07-04T10:19:22.000Z</time>
      </trkpt>
      <trkpt lat="45.00736" lon="5.57724">
        <ele>2047.9</ele>
        <time>2015-07-04T10:19:27.000Z</time>
      </trkpt>
      <trkpt lat="45.00735" lon="5.57724">
        <ele>2047.9</ele>
        <time>2015-07-04T10:19:32.000Z</time>
      </trkpt>
      <trkpt lat="45.00736" lon="5.57724">
        <ele>2048</ele>
        <time>2015-07-04T10:19:33.000Z</time>
      </trkpt>
      <trkpt lat="45.00739" lon="5.57726">
        <ele>2048.8</ele>
        <time>2015-07-04T10:19:36.000Z</time>
      </trkpt>
      <trkpt lat="45.00743" lon="5.57727">
        <ele>2049</ele>
        <time>2015-07-04T10:19:41.000Z</time>
      </trkpt>
      <trkpt lat="45.00746" lon="5.57725">
        <ele>2047.9</ele>
        <time>2015-07-04T10:19:46.000Z</time>
      </trkpt>
      <trkpt lat="45.00749" lon="5.57727">
        <ele>2048.8</ele>
        <time>2015-07-04T10:19:49.000Z</time>
      </trkpt>
      <trkpt lat="45.00749" lon="5.57729">
        <ele>2049.5</ele>
        <time>2015-07-04T10:19:50.000Z</time>
      </trkpt>
      <trkpt lat="45.00751" lon="5.57732">
        <ele>2051.3</ele>
        <time>2015-07-04T10:19:54.000Z</time>
      </trkpt>
      <trkpt lat="45.00756" lon="5.57738">
        <ele>2053.8</ele>
        <time>2015-07-04T10:20:01.000Z</time>
      </trkpt>
      <trkpt lat="45.00764" lon="5.57741">
        <ele>2054.8</ele>
        <time>2015-07-04T10:20:08.000Z</time>
      </trkpt>
      <trkpt lat="45.00768" lon="5.57743">
        <ele>2055.5</ele>
        <time>2015-07-04T10:20:12.000Z</time>
      </trkpt>
      <trkpt lat="45.00772" lon="5.57747">
        <ele>2056.8</ele>
        <time>2015-07-04T10:20:17.000Z</time>
      </trkpt>
      <trkpt lat="45.00779" lon="5.57746">
        <ele>2055.9</ele>
        <time>2015-07-04T10:20:23.000Z</time>
      </trkpt>
      <trkpt lat="45.00781" lon="5.57746">
        <ele>2055.7</ele>
        <time>2015-07-04T10:20:25.000Z</time>
      </trkpt>
      <trkpt lat="45.00783" lon="5.57748">
        <ele>2055.9</ele>
        <time>2015-07-04T10:20:27.000Z</time>
      </trkpt>
      <trkpt lat="45.00788" lon="5.57748">
        <ele>2055.1</ele>
        <time>2015-07-04T10:20:34.000Z</time>
      </trkpt>
      <trkpt lat="45.00792" lon="5.57749">
        <ele>2055</ele>
        <time>2015-07-04T10:20:37.000Z</time>
      </trkpt>
      <trkpt lat="45.00797" lon="5.57751">
        <ele>2055.1</ele>
        <time>2015-07-04T10:20:41.000Z</time>
      </trkpt>
      <trkpt lat="45.00803" lon="5.57753">
        <ele>2055.2</ele>
        <time>2015-07-04T10:20:47.000Z</time>
      </trkpt>
      <trkpt lat="45.00805" lon="5.5775">
        <ele>2053.1</ele>
        <time>2015-07-04T10:20:52.000Z</time>
      </trkpt>
      <trkpt lat="45.00806" lon="5.57755">
        <ele>2056.1</ele>
        <time>2015-07-04T10:20:57.000Z</time>
      </trkpt>
      <trkpt lat="45.00806" lon="5.57756">
        <ele>2056.8</ele>
        <time>2015-07-04T10:20:58.000Z</time>
      </trkpt>
      <trkpt lat="45.00807" lon="5.5776">
        <ele>2059.2</ele>
        <time>2015-07-04T10:21:00.000Z</time>
      </trkpt>
      <trkpt lat="45.00807" lon="5.57763">
        <ele>2060.8</ele>
        <time>2015-07-04T10:21:02.000Z</time>
      </trkpt>
      <trkpt lat="45.00807" lon="5.57763">
        <ele>2061.2</ele>
        <time>2015-07-04T10:21:03.000Z</time>
      </trkpt>
      <trkpt lat="45.00811" lon="5.5777">
        <ele>2063.9</ele>
        <time>2015-07-04T10:21:12.000Z</time>
      </trkpt>
      <trkpt lat="45.00815" lon="5.57773">
        <ele>2064.8</ele>
        <time>2015-07-04T10:21:19.000Z</time>
      </trkpt>
      <trkpt lat="45.00818" lon="5.57778">
        <ele>2066.3</ele>
        <time>2015-07-04T10:21:23.000Z</time>
      </trkpt>
      <trkpt lat="45.00823" lon="5.57777">
        <ele>2064.1</ele>
        <time>2015-07-04T10:21:27.000Z</time>
      </trkpt>
      <trkpt lat="45.00825" lon="5.57777">
        <ele>2063.2</ele>
        <time>2015-07-04T10:21:29.000Z</time>
      </trkpt>
      <trkpt lat="45.00833" lon="5.57773">
        <ele>2058.6</ele>
        <time>2015-07-04T10:21:35.000Z</time>
      </trkpt>
      <trkpt lat="45.00834" lon="5.57772">
        <ele>2057.6</ele>
        <time>2015-07-04T10:21:36.000Z</time>
      </trkpt>
      <trkpt lat="45.00839" lon="5.57771">
        <ele>2055.2</ele>
        <time>2015-07-04T10:21:41.000Z</time>
      </trkpt>
      <trkpt lat="45.00842" lon="5.57771">
        <ele>2054.4</ele>
        <time>2015-07-04T10:21:43.000Z</time>
      </trkpt>
      <trkpt lat="45.00843" lon="5.57771">
        <ele>2054</ele>
        <time>2015-07-04T10:21:44.000Z</time>
      </trkpt>
      <trkpt lat="45.00844" lon="5.57772">
        <ele>2053.6</ele>
        <time>2015-07-04T10:21:46.000Z</time>
      </trkpt>
      <trkpt lat="45.00845" lon="5.5777">
        <ele>2052.3</ele>
        <time>2015-07-04T10:21:48.000Z</time>
      </trkpt>
      <trkpt lat="45.00848" lon="5.5777">
        <ele>2051.3</ele>
        <time>2015-07-04T10:21:50.000Z</time>
      </trkpt>
      <trkpt lat="45.00852" lon="5.57768">
        <ele>2048.6</ele>
        <time>2015-07-04T10:21:55.000Z</time>
      </trkpt>
      <trkpt lat="45.00853" lon="5.57767">
        <ele>2048</ele>
        <time>2015-07-04T10:21:56.000Z</time>
      </trkpt>
      <trkpt lat="45.00854" lon="5.57761">
        <ele>2045.2</ele>
        <time>2015-07-04T10:22:01.000Z</time>
      </trkpt>
      <trkpt lat="45.00861" lon="5.57761">
        <ele>2042.8</ele>
        <time>2015-07-04T10:22:07.000Z</time>
      </trkpt>
      <trkpt lat="45.00862" lon="5.5776">
        <ele>2042.2</ele>
        <time>2015-07-04T10:22:08.000Z</time>
      </trkpt>
      <trkpt lat="45.00867" lon="5.57763">
        <ele>2042.5</ele>
        <time>2015-07-04T10:22:12.000Z</time>
      </trkpt>
      <trkpt lat="45.00872" lon="5.57765">
        <ele>2042.4</ele>
        <time>2015-07-04T10:22:17.000Z</time>
      </trkpt>
      <trkpt lat="45.00875" lon="5.57767">
        <ele>2042.6</ele>
        <time>2015-07-04T10:22:20.000Z</time>
      </trkpt>
      <trkpt lat="45.00876" lon="5.57769">
        <ele>2043.2</ele>
        <time>2015-07-04T10:22:22.000Z</time>
      </trkpt>
      <trkpt lat="45.00876" lon="5.57771">
        <ele>2043.9</ele>
        <time>2015-07-04T10:22:23.000Z</time>
      </trkpt>
      <trkpt lat="45.00881" lon="5.57778">
        <ele>2045.6</ele>
        <time>2015-07-04T10:22:28.000Z</time>
      </trkpt>
      <trkpt lat="45.00885" lon="5.57779">
        <ele>2045.1</ele>
        <time>2015-07-04T10:22:32.000Z</time>
      </trkpt>
      <trkpt lat="45.00892" lon="5.57785">
        <ele>2044.8</ele>
        <time>2015-07-04T10:22:38.000Z</time>
      </trkpt>
      <trkpt lat="45.00894" lon="5.57785">
        <ele>2044.6</ele>
        <time>2015-07-04T10:22:40.000Z</time>
      </trkpt>
      <trkpt lat="45.00899" lon="5.57786">
        <ele>2043.7</ele>
        <time>2015-07-04T10:22:43.000Z</time>
      </trkpt>
      <trkpt lat="45.009" lon="5.57787">
        <ele>2043.4</ele>
        <time>2015-07-04T10:22:45.000Z</time>
      </trkpt>
      <trkpt lat="45.00902" lon="5.57787">
        <ele>2043.2</ele>
        <time>2015-07-04T10:22:47.000Z</time>
      </trkpt>
      <trkpt lat="45.00904" lon="5.57793">
        <ele>2043.8</ele>
        <time>2015-07-04T10:22:53.000Z</time>
      </trkpt>
      <trkpt lat="45.00904" lon="5.57794">
        <ele>2043.9</ele>
        <time>2015-07-04T10:22:54.000Z</time>
      </trkpt>
      <trkpt lat="45.00905" lon="5.57795">
        <ele>2043.9</ele>
        <time>2015-07-04T10:22:55.000Z</time>
      </trkpt>
      <trkpt lat="45.00906" lon="5.57799">
        <ele>2044.1</ele>
        <time>2015-07-04T10:22:59.000Z</time>
      </trkpt>
      <trkpt lat="45.00909" lon="5.57801">
        <ele>2043.7</ele>
        <time>2015-07-04T10:23:04.000Z</time>
      </trkpt>
      <trkpt lat="45.00911" lon="5.578">
        <ele>2042.8</ele>
        <time>2015-07-04T10:23:07.000Z</time>
      </trkpt>
      <trkpt lat="45.00914" lon="5.57799">
        <ele>2042</ele>
        <time>2015-07-04T10:23:10.000Z</time>
      </trkpt>
      <trkpt lat="45.00915" lon="5.57799">
        <ele>2041.8</ele>
        <time>2015-07-04T10:23:11.000Z</time>
      </trkpt>
      <trkpt lat="45.00916" lon="5.57797">
        <ele>2041.3</ele>
        <time>2015-07-04T10:23:13.000Z</time>
      </trkpt>
      <trkpt lat="45.00918" lon="5.57798">
        <ele>2040.8</ele>
        <time>2015-07-04T10:23:16.000Z</time>
      </trkpt>
      <trkpt lat="45.00919" lon="5.57799">
        <ele>2040.5</ele>
        <time>2015-07-04T10:23:17.000Z</time>
      </trkpt>
      <trkpt lat="45.00924" lon="5.57801">
        <ele>2039.1</ele>
        <time>2015-07-04T10:23:21.000Z</time>
      </trkpt>
      <trkpt lat="45.00924" lon="5.57802">
        <ele>2039</ele>
        <time>2015-07-04T10:23:22.000Z</time>
      </trkpt>
      <trkpt lat="45.00925" lon="5.57804">
        <ele>2039</ele>
        <time>2015-07-04T10:23:29.000Z</time>
      </trkpt>
      <trkpt lat="45.00926" lon="5.57808">
        <ele>2038.4</ele>
        <time>2015-07-04T10:23:34.000Z</time>
      </trkpt>
      <trkpt lat="45.00925" lon="5.57806">
        <ele>2038.8</ele>
        <time>2015-07-04T10:23:52.000Z</time>
      </trkpt>
      <trkpt lat="45.00928" lon="5.57807">
        <ele>2037.8</ele>
        <time>2015-07-04T10:23:57.000Z</time>
      </trkpt>
      <trkpt lat="45.0093" lon="5.57805">
        <ele>2037.3</ele>
        <time>2015-07-04T10:24:02.000Z</time>
      </trkpt>
      <trkpt lat="45.0093" lon="5.57802">
        <ele>2037</ele>
        <time>2015-07-04T10:24:07.000Z</time>
      </trkpt>
      <trkpt lat="45.00933" lon="5.57801">
        <ele>2036.2</ele>
        <time>2015-07-04T10:24:11.000Z</time>
      </trkpt>
      <trkpt lat="45.00936" lon="5.578">
        <ele>2035.1</ele>
        <time>2015-07-04T10:24:16.000Z</time>
      </trkpt>
      <trkpt lat="45.00941" lon="5.57801">
        <ele>2033.5</ele>
        <time>2015-07-04T10:24:20.000Z</time>
      </trkpt>
      <trkpt lat="45.00942" lon="5.57802">
        <ele>2033.1</ele>
        <time>2015-07-04T10:24:21.000Z</time>
      </trkpt>
      <trkpt lat="45.00943" lon="5.57802">
        <ele>2032.7</ele>
        <time>2015-07-04T10:24:22.000Z</time>
      </trkpt>
      <trkpt lat="45.00946" lon="5.57805">
        <ele>2031.8</ele>
        <time>2015-07-04T10:24:26.000Z</time>
      </trkpt>
      <trkpt lat="45.00951" lon="5.57805">
        <ele>2031.1</ele>
        <time>2015-07-04T10:24:30.000Z</time>
      </trkpt>
      <trkpt lat="45.00952" lon="5.57805">
        <ele>2031</ele>
        <time>2015-07-04T10:24:31.000Z</time>
      </trkpt>
      <trkpt lat="45.00955" lon="5.57806">
        <ele>2030.4</ele>
        <time>2015-07-04T10:24:35.000Z</time>
      </trkpt>
      <trkpt lat="45.00955" lon="5.57808">
        <ele>2030.3</ele>
        <time>2015-07-04T10:24:36.000Z</time>
      </trkpt>
      <trkpt lat="45.00957" lon="5.57813">
        <ele>2029.5</ele>
        <time>2015-07-04T10:24:40.000Z</time>
      </trkpt>
      <trkpt lat="45.0096" lon="5.57822">
        <ele>2028.1</ele>
        <time>2015-07-04T10:24:46.000Z</time>
      </trkpt>
      <trkpt lat="45.0096" lon="5.57822">
        <ele>2028.1</ele>
        <time>2015-07-04T10:24:53.000Z</time>
      </trkpt>
      <trkpt lat="45.00964" lon="5.57819">
        <ele>2027.7</ele>
        <time>2015-07-04T10:24:57.000Z</time>
      </trkpt>
      <trkpt lat="45.00966" lon="5.57819">
        <ele>2027.3</ele>
        <time>2015-07-04T10:24:58.000Z</time>
      </trkpt>
      <trkpt lat="45.00972" lon="5.57818">
        <ele>2026.4</ele>
        <time>2015-07-04T10:25:02.000Z</time>
      </trkpt>
      <trkpt lat="45.0098" lon="5.57818">
        <ele>2023.8</ele>
        <time>2015-07-04T10:25:08.000Z</time>
      </trkpt>
      <trkpt lat="45.00985" lon="5.5782">
        <ele>2021.9</ele>
        <time>2015-07-04T10:25:13.000Z</time>
      </trkpt>
      <trkpt lat="45.00986" lon="5.5782">
        <ele>2021.8</ele>
        <time>2015-07-04T10:25:14.000Z</time>
      </trkpt>
      <trkpt lat="45.00986" lon="5.5782">
        <ele>2021.6</ele>
        <time>2015-07-04T10:25:15.000Z</time>
      </trkpt>
      <trkpt lat="45.00988" lon="5.5782">
        <ele>2021.3</ele>
        <time>2015-07-04T10:25:20.000Z</time>
      </trkpt>
      <trkpt lat="45.0099" lon="5.5782">
        <ele>2020.4</ele>
        <time>2015-07-04T10:25:22.000Z</time>
      </trkpt>
      <trkpt lat="45.00992" lon="5.5782">
        <ele>2019.8</ele>
        <time>2015-07-04T10:25:24.000Z</time>
      </trkpt>
      <trkpt lat="45.00999" lon="5.57817">
        <ele>2018.3</ele>
        <time>2015-07-04T10:25:29.000Z</time>
      </trkpt>
      <trkpt lat="45.01" lon="5.57818">
        <ele>2017.8</ele>
        <time>2015-07-04T10:25:30.000Z</time>
      </trkpt>
      <trkpt lat="45.01" lon="5.57822">
        <ele>2016.7</ele>
        <time>2015-07-04T10:25:34.000Z</time>
      </trkpt>
      <trkpt lat="45.01001" lon="5.57825">
        <ele>2015.8</ele>
        <time>2015-07-04T10:25:37.000Z</time>
      </trkpt>
      <trkpt lat="45.01002" lon="5.57826">
        <ele>2015.1</ele>
        <time>2015-07-04T10:25:38.000Z</time>
      </trkpt>
      <trkpt lat="45.01002" lon="5.57828">
        <ele>2014.4</ele>
        <time>2015-07-04T10:25:39.000Z</time>
      </trkpt>
      <trkpt lat="45.01003" lon="5.57832">
        <ele>2012.9</ele>
        <time>2015-07-04T10:25:43.000Z</time>
      </trkpt>
      <trkpt lat="45.01006" lon="5.57837">
        <ele>2011.2</ele>
        <time>2015-07-04T10:25:46.000Z</time>
      </trkpt>
      <trkpt lat="45.01006" lon="5.57838">
        <ele>2010.9</ele>
        <time>2015-07-04T10:25:47.000Z</time>
      </trkpt>
      <trkpt lat="45.01007" lon="5.57838">
        <ele>2010.5</ele>
        <time>2015-07-04T10:25:48.000Z</time>
      </trkpt>
      <trkpt lat="45.0101" lon="5.57845">
        <ele>2008.5</ele>
        <time>2015-07-04T10:25:53.000Z</time>
      </trkpt>
      <trkpt lat="45.01011" lon="5.57846">
        <ele>2008</ele>
        <time>2015-07-04T10:25:54.000Z</time>
      </trkpt>
      <trkpt lat="45.01014" lon="5.57847">
        <ele>2006.6</ele>
        <time>2015-07-04T10:25:58.000Z</time>
      </trkpt>
      <trkpt lat="45.01015" lon="5.57848">
        <ele>2006.3</ele>
        <time>2015-07-04T10:25:59.000Z</time>
      </trkpt>
      <trkpt lat="45.01013" lon="5.57851">
        <ele>2006.6</ele>
        <time>2015-07-04T10:26:03.000Z</time>
      </trkpt>
      <trkpt lat="45.01013" lon="5.57852">
        <ele>2006.7</ele>
        <time>2015-07-04T10:26:04.000Z</time>
      </trkpt>
      <trkpt lat="45.01016" lon="5.57854">
        <ele>2005.5</ele>
        <time>2015-07-04T10:26:08.000Z</time>
      </trkpt>
      <trkpt lat="45.01019" lon="5.57857">
        <ele>2004.2</ele>
        <time>2015-07-04T10:26:13.000Z</time>
      </trkpt>
      <trkpt lat="45.0102" lon="5.57863">
        <ele>2003.7</ele>
        <time>2015-07-04T10:26:20.000Z</time>
      </trkpt>
      <trkpt lat="45.01018" lon="5.57869">
        <ele>2004.8</ele>
        <time>2015-07-04T10:26:26.000Z</time>
      </trkpt>
      <trkpt lat="45.01019" lon="5.57872">
        <ele>2004.7</ele>
        <time>2015-07-04T10:26:30.000Z</time>
      </trkpt>
      <trkpt lat="45.01019" lon="5.57873">
        <ele>2004.6</ele>
        <time>2015-07-04T10:26:31.000Z</time>
      </trkpt>
      <trkpt lat="45.01021" lon="5.57878">
        <ele>2004.4</ele>
        <time>2015-07-04T10:26:37.000Z</time>
      </trkpt>
      <trkpt lat="45.01025" lon="5.57883">
        <ele>2003.5</ele>
        <time>2015-07-04T10:26:42.000Z</time>
      </trkpt>
      <trkpt lat="45.01027" lon="5.57886">
        <ele>2003.2</ele>
        <time>2015-07-04T10:26:44.000Z</time>
      </trkpt>
      <trkpt lat="45.01027" lon="5.57889">
        <ele>2003.3</ele>
        <time>2015-07-04T10:26:47.000Z</time>
      </trkpt>
      <trkpt lat="45.01027" lon="5.5789">
        <ele>2003.4</ele>
        <time>2015-07-04T10:26:48.000Z</time>
      </trkpt>
      <trkpt lat="45.01028" lon="5.57892">
        <ele>2003.9</ele>
        <time>2015-07-04T10:26:53.000Z</time>
      </trkpt>
      <trkpt lat="45.01029" lon="5.57895">
        <ele>2004.3</ele>
        <time>2015-07-04T10:26:56.000Z</time>
      </trkpt>
      <trkpt lat="45.0103" lon="5.57897">
        <ele>2004.7</ele>
        <time>2015-07-04T10:26:58.000Z</time>
      </trkpt>
      <trkpt lat="45.01032" lon="5.57899">
        <ele>2004.6</ele>
        <time>2015-07-04T10:27:01.000Z</time>
      </trkpt>
      <trkpt lat="45.01033" lon="5.57898">
        <ele>2004.3</ele>
        <time>2015-07-04T10:27:02.000Z</time>
      </trkpt>
      <trkpt lat="45.01034" lon="5.57899">
        <ele>2004.4</ele>
        <time>2015-07-04T10:27:03.000Z</time>
      </trkpt>
      <trkpt lat="45.01039" lon="5.57906">
        <ele>2005.1</ele>
        <time>2015-07-04T10:27:09.000Z</time>
      </trkpt>
      <trkpt lat="45.01039" lon="5.57907">
        <ele>2005.3</ele>
        <time>2015-07-04T10:27:10.000Z</time>
      </trkpt>
      <trkpt lat="45.01041" lon="5.5791">
        <ele>2005.5</ele>
        <time>2015-07-04T10:27:14.000Z</time>
      </trkpt>
      <trkpt lat="45.01043" lon="5.57911">
        <ele>2005.6</ele>
        <time>2015-07-04T10:27:16.000Z</time>
      </trkpt>
      <trkpt lat="45.01044" lon="5.57913">
        <ele>2005.9</ele>
        <time>2015-07-04T10:27:18.000Z</time>
      </trkpt>
      <trkpt lat="45.01046" lon="5.57915">
        <ele>2005.8</ele>
        <time>2015-07-04T10:27:21.000Z</time>
      </trkpt>
      <trkpt lat="45.01051" lon="5.57918">
        <ele>2005.8</ele>
        <time>2015-07-04T10:27:27.000Z</time>
      </trkpt>
      <trkpt lat="45.01055" lon="5.57918">
        <ele>2004.7</ele>
        <time>2015-07-04T10:27:32.000Z</time>
      </trkpt>
      <trkpt lat="45.01057" lon="5.57919">
        <ele>2004.4</ele>
        <time>2015-07-04T10:27:34.000Z</time>
      </trkpt>
      <trkpt lat="45.01062" lon="5.57919">
        <ele>2003.3</ele>
        <time>2015-07-04T10:27:37.000Z</time>
      </trkpt>
      <trkpt lat="45.01069" lon="5.57919">
        <ele>2001.9</ele>
        <time>2015-07-04T10:27:42.000Z</time>
      </trkpt>
      <trkpt lat="45.01075" lon="5.57919">
        <ele>2000.4</ele>
        <time>2015-07-04T10:27:47.000Z</time>
      </trkpt>
      <trkpt lat="45.01082" lon="5.5792">
        <ele>1998.8</ele>
        <time>2015-07-04T10:27:52.000Z</time>
      </trkpt>
      <trkpt lat="45.01089" lon="5.57926">
        <ele>2000.4</ele>
        <time>2015-07-04T10:27:58.000Z</time>
      </trkpt>
      <trkpt lat="45.01096" lon="5.57934">
        <ele>2003.4</ele>
        <time>2015-07-04T10:28:05.000Z</time>
      </trkpt>
      <trkpt lat="45.01101" lon="5.57939">
        <ele>2004.8</ele>
        <time>2015-07-04T10:28:11.000Z</time>
      </trkpt>
      <trkpt lat="45.01104" lon="5.57944">
        <ele>2006.7</ele>
        <time>2015-07-04T10:28:16.000Z</time>
      </trkpt>
      <trkpt lat="45.01109" lon="5.5795">
        <ele>2009</ele>
        <time>2015-07-04T10:28:21.000Z</time>
      </trkpt>
      <trkpt lat="45.01112" lon="5.57952">
        <ele>2009.6</ele>
        <time>2015-07-04T10:28:25.000Z</time>
      </trkpt>
      <trkpt lat="45.01115" lon="5.57954">
        <ele>2010</ele>
        <time>2015-07-04T10:28:29.000Z</time>
      </trkpt>
      <trkpt lat="45.01116" lon="5.57955">
        <ele>2010.4</ele>
        <time>2015-07-04T10:28:31.000Z</time>
      </trkpt>
      <trkpt lat="45.0112" lon="5.57956">
        <ele>2010.5</ele>
        <time>2015-07-04T10:28:37.000Z</time>
      </trkpt>
      <trkpt lat="45.01125" lon="5.57959">
        <ele>2011.2</ele>
        <time>2015-07-04T10:28:43.000Z</time>
      </trkpt>
      <trkpt lat="45.0113" lon="5.57961">
        <ele>2011.3</ele>
        <time>2015-07-04T10:28:47.000Z</time>
      </trkpt>
      <trkpt lat="45.01132" lon="5.57963">
        <ele>2012</ele>
        <time>2015-07-04T10:28:50.000Z</time>
      </trkpt>
      <trkpt lat="45.01136" lon="5.57964">
        <ele>2011.9</ele>
        <time>2015-07-04T10:28:53.000Z</time>
      </trkpt>
      <trkpt lat="45.01139" lon="5.57966">
        <ele>2012.3</ele>
        <time>2015-07-04T10:28:57.000Z</time>
      </trkpt>
      <trkpt lat="45.01141" lon="5.57966">
        <ele>2012.1</ele>
        <time>2015-07-04T10:29:00.000Z</time>
      </trkpt>
      <trkpt lat="45.01141" lon="5.57966">
        <ele>2012</ele>
        <time>2015-07-04T10:29:01.000Z</time>
      </trkpt>
      <trkpt lat="45.01146" lon="5.5797">
        <ele>2013</ele>
        <time>2015-07-04T10:29:07.000Z</time>
      </trkpt>
      <trkpt lat="45.01148" lon="5.57973">
        <ele>2013.8</ele>
        <time>2015-07-04T10:29:12.000Z</time>
      </trkpt>
      <trkpt lat="45.01149" lon="5.57975">
        <ele>2013.7</ele>
        <time>2015-07-04T10:29:23.000Z</time>
      </trkpt>
      <trkpt lat="45.01153" lon="5.57979">
        <ele>2013.4</ele>
        <time>2015-07-04T10:29:29.000Z</time>
      </trkpt>
      <trkpt lat="45.01155" lon="5.57979">
        <ele>2013</ele>
        <time>2015-07-04T10:29:33.000Z</time>
      </trkpt>
      <trkpt lat="45.01157" lon="5.57979">
        <ele>2012.6</ele>
        <time>2015-07-04T10:29:36.000Z</time>
      </trkpt>
      <trkpt lat="45.01155" lon="5.57974">
        <ele>2012.8</ele>
        <time>2015-07-04T10:29:38.000Z</time>
      </trkpt>
      <trkpt lat="45.01154" lon="5.57974">
        <ele>2012.8</ele>
        <time>2015-07-04T10:29:42.000Z</time>
      </trkpt>
      <trkpt lat="45.01156" lon="5.57976">
        <ele>2012.6</ele>
        <time>2015-07-04T10:29:47.000Z</time>
      </trkpt>
      <trkpt lat="45.01155" lon="5.57976">
        <ele>2012.9</ele>
        <time>2015-07-04T10:29:55.000Z</time>
      </trkpt>
      <trkpt lat="45.01158" lon="5.57977">
        <ele>2012.5</ele>
        <time>2015-07-04T10:30:02.000Z</time>
      </trkpt>
      <trkpt lat="45.01163" lon="5.57979">
        <ele>2011.7</ele>
        <time>2015-07-04T10:30:12.000Z</time>
      </trkpt>
      <trkpt lat="45.01164" lon="5.57981">
        <ele>2011.4</ele>
        <time>2015-07-04T10:30:18.000Z</time>
      </trkpt>
      <trkpt lat="45.01168" lon="5.57981">
        <ele>2011.1</ele>
        <time>2015-07-04T10:30:38.000Z</time>
      </trkpt>
      <trkpt lat="45.01169" lon="5.57978">
        <ele>2011.1</ele>
        <time>2015-07-04T10:30:45.000Z</time>
      </trkpt>
      <trkpt lat="45.01171" lon="5.57974">
        <ele>2011.1</ele>
        <time>2015-07-04T10:30:51.000Z</time>
      </trkpt>
      <trkpt lat="45.01175" lon="5.57973">
        <ele>2011</ele>
        <time>2015-07-04T10:30:57.000Z</time>
      </trkpt>
      <trkpt lat="45.0118" lon="5.57973">
        <ele>2011.1</ele>
        <time>2015-07-04T10:31:01.000Z</time>
      </trkpt>
      <trkpt lat="45.0119" lon="5.57972">
        <ele>2010.9</ele>
        <time>2015-07-04T10:31:06.000Z</time>
      </trkpt>
      <trkpt lat="45.01198" lon="5.57977">
        <ele>2012.2</ele>
        <time>2015-07-04T10:31:12.000Z</time>
      </trkpt>
      <trkpt lat="45.01202" lon="5.57977">
        <ele>2012.6</ele>
        <time>2015-07-04T10:31:16.000Z</time>
      </trkpt>
      <trkpt lat="45.01204" lon="5.57976">
        <ele>2012.1</ele>
        <time>2015-07-04T10:31:18.000Z</time>
      </trkpt>
      <trkpt lat="45.01208" lon="5.57974">
        <ele>2011.5</ele>
        <time>2015-07-04T10:31:21.000Z</time>
      </trkpt>
      <trkpt lat="45.01209" lon="5.57974">
        <ele>2011.5</ele>
        <time>2015-07-04T10:31:22.000Z</time>
      </trkpt>
      <trkpt lat="45.01216" lon="5.57978">
        <ele>2013.7</ele>
        <time>2015-07-04T10:31:28.000Z</time>
      </trkpt>
      <trkpt lat="45.01221" lon="5.57983">
        <ele>2016.4</ele>
        <time>2015-07-04T10:31:34.000Z</time>
      </trkpt>
      <trkpt lat="45.01225" lon="5.57988">
        <ele>2018.6</ele>
        <time>2015-07-04T10:31:37.000Z</time>
      </trkpt>
      <trkpt lat="45.01226" lon="5.57989">
        <ele>2019.2</ele>
        <time>2015-07-04T10:31:38.000Z</time>
      </trkpt>
      <trkpt lat="45.01232" lon="5.57993">
        <ele>2021.4</ele>
        <time>2015-07-04T10:31:43.000Z</time>
      </trkpt>
      <trkpt lat="45.01235" lon="5.57996">
        <ele>2022.5</ele>
        <time>2015-07-04T10:31:47.000Z</time>
      </trkpt>
      <trkpt lat="45.01245" lon="5.57997">
        <ele>2023.2</ele>
        <time>2015-07-04T10:31:55.000Z</time>
      </trkpt>
      <trkpt lat="45.01246" lon="5.57998">
        <ele>2023.9</ele>
        <time>2015-07-04T10:31:56.000Z</time>
      </trkpt>
      <trkpt lat="45.01248" lon="5.58">
        <ele>2025.1</ele>
        <time>2015-07-04T10:32:00.000Z</time>
      </trkpt>
      <trkpt lat="45.01248" lon="5.58002">
        <ele>2026</ele>
        <time>2015-07-04T10:32:04.000Z</time>
      </trkpt>
      <trkpt lat="45.01249" lon="5.58002">
        <ele>2026</ele>
        <time>2015-07-04T10:32:08.000Z</time>
      </trkpt>
      <trkpt lat="45.01251" lon="5.58001">
        <ele>2025.6</ele>
        <time>2015-07-04T10:32:09.000Z</time>
      </trkpt>
      <trkpt lat="45.01257" lon="5.58">
        <ele>2024.7</ele>
        <time>2015-07-04T10:32:13.000Z</time>
      </trkpt>
      <trkpt lat="45.01264" lon="5.58002">
        <ele>2024.9</ele>
        <time>2015-07-04T10:32:18.000Z</time>
      </trkpt>
      <trkpt lat="45.01267" lon="5.58001">
        <ele>2024.4</ele>
        <time>2015-07-04T10:32:22.000Z</time>
      </trkpt>
      <trkpt lat="45.01268" lon="5.58001">
        <ele>2024</ele>
        <time>2015-07-04T10:32:23.000Z</time>
      </trkpt>
      <trkpt lat="45.01273" lon="5.58001">
        <ele>2023.7</ele>
        <time>2015-07-04T10:32:28.000Z</time>
      </trkpt>
      <trkpt lat="45.01275" lon="5.58001">
        <ele>2023.7</ele>
        <time>2015-07-04T10:32:32.000Z</time>
      </trkpt>
      <trkpt lat="45.01283" lon="5.58003">
        <ele>2024.2</ele>
        <time>2015-07-04T10:32:39.000Z</time>
      </trkpt>
      <trkpt lat="45.01284" lon="5.58005">
        <ele>2025.6</ele>
        <time>2015-07-04T10:32:46.000Z</time>
      </trkpt>
      <trkpt lat="45.01286" lon="5.58005">
        <ele>2025.5</ele>
        <time>2015-07-04T10:32:53.000Z</time>
      </trkpt>
      <trkpt lat="45.01288" lon="5.58002">
        <ele>2023.5</ele>
        <time>2015-07-04T10:32:59.000Z</time>
      </trkpt>
      <trkpt lat="45.0129" lon="5.58001">
        <ele>2022.3</ele>
        <time>2015-07-04T10:33:04.000Z</time>
      </trkpt>
      <trkpt lat="45.01296" lon="5.57999">
        <ele>2020.2</ele>
        <time>2015-07-04T10:33:11.000Z</time>
      </trkpt>
      <trkpt lat="45.01305" lon="5.57999">
        <ele>2019.6</ele>
        <time>2015-07-04T10:33:18.000Z</time>
      </trkpt>
      <trkpt lat="45.01308" lon="5.57999">
        <ele>2019</ele>
        <time>2015-07-04T10:33:22.000Z</time>
      </trkpt>
      <trkpt lat="45.01311" lon="5.57998">
        <ele>2017.7</ele>
        <time>2015-07-04T10:33:26.000Z</time>
      </trkpt>
      <trkpt lat="45.01314" lon="5.57997">
        <ele>2016.5</ele>
        <time>2015-07-04T10:33:32.000Z</time>
      </trkpt>
      <trkpt lat="45.01313" lon="5.57995">
        <ele>2015.5</ele>
        <time>2015-07-04T10:33:39.000Z</time>
      </trkpt>
      <trkpt lat="45.01313" lon="5.57992">
        <ele>2013.2</ele>
        <time>2015-07-04T10:33:45.000Z</time>
      </trkpt>
      <trkpt lat="45.01315" lon="5.57991">
        <ele>2012.5</ele>
        <time>2015-07-04T10:33:51.000Z</time>
      </trkpt>
      <trkpt lat="45.01313" lon="5.57991">
        <ele>2012</ele>
        <time>2015-07-04T10:33:56.000Z</time>
      </trkpt>
      <trkpt lat="45.01315" lon="5.57991">
        <ele>2011.8</ele>
        <time>2015-07-04T10:34:00.000Z</time>
      </trkpt>
      <trkpt lat="45.01316" lon="5.5799">
        <ele>2011</ele>
        <time>2015-07-04T10:34:05.000Z</time>
      </trkpt>
      <trkpt lat="45.01316" lon="5.57988">
        <ele>2009.5</ele>
        <time>2015-07-04T10:34:10.000Z</time>
      </trkpt>
      <trkpt lat="45.01314" lon="5.57986">
        <ele>2008.5</ele>
        <time>2015-07-04T10:34:14.000Z</time>
      </trkpt>
      <trkpt lat="45.01315" lon="5.57987">
        <ele>2008.6</ele>
        <time>2015-07-04T10:34:16.000Z</time>
      </trkpt>
      <trkpt lat="45.01317" lon="5.57988">
        <ele>2009.4</ele>
        <time>2015-07-04T10:34:18.000Z</time>
      </trkpt>
      <trkpt lat="45.01319" lon="5.57988">
        <ele>2009.6</ele>
        <time>2015-07-04T10:34:23.000Z</time>
      </trkpt>
      <trkpt lat="45.01319" lon="5.57987">
        <ele>2008.2</ele>
        <time>2015-07-04T10:34:25.000Z</time>
      </trkpt>
      <trkpt lat="45.0132" lon="5.57986">
        <ele>2007.5</ele>
        <time>2015-07-04T10:34:26.000Z</time>
      </trkpt>
      <trkpt lat="45.01322" lon="5.57986">
        <ele>2007.1</ele>
        <time>2015-07-04T10:34:30.000Z</time>
      </trkpt>
      <trkpt lat="45.01324" lon="5.57985">
        <ele>2006.6</ele>
        <time>2015-07-04T10:34:35.000Z</time>
      </trkpt>
      <trkpt lat="45.01325" lon="5.57985">
        <ele>2006.4</ele>
        <time>2015-07-04T10:34:38.000Z</time>
      </trkpt>
      <trkpt lat="45.01325" lon="5.57983">
        <ele>2004.5</ele>
        <time>2015-07-04T10:34:40.000Z</time>
      </trkpt>
      <trkpt lat="45.01325" lon="5.57981">
        <ele>2002.9</ele>
        <time>2015-07-04T10:34:41.000Z</time>
      </trkpt>
      <trkpt lat="45.01329" lon="5.57976">
        <ele>1998.6</ele>
        <time>2015-07-04T10:34:45.000Z</time>
      </trkpt>
      <trkpt lat="45.01331" lon="5.57976">
        <ele>1998.1</ele>
        <time>2015-07-04T10:34:46.000Z</time>
      </trkpt>
      <trkpt lat="45.01333" lon="5.57976">
        <ele>1997.7</ele>
        <time>2015-07-04T10:34:49.000Z</time>
      </trkpt>
      <trkpt lat="45.01337" lon="5.57975">
        <ele>1996.5</ele>
        <time>2015-07-04T10:34:56.000Z</time>
      </trkpt>
      <trkpt lat="45.01336" lon="5.57974">
        <ele>1995.9</ele>
        <time>2015-07-04T10:35:01.000Z</time>
      </trkpt>
      <trkpt lat="45.01335" lon="5.57971">
        <ele>1994.2</ele>
        <time>2015-07-04T10:35:03.000Z</time>
      </trkpt>
      <trkpt lat="45.01334" lon="5.5797">
        <ele>1993.4</ele>
        <time>2015-07-04T10:35:06.000Z</time>
      </trkpt>
      <trkpt lat="45.01334" lon="5.5797">
        <ele>1992.9</ele>
        <time>2015-07-04T10:35:08.000Z</time>
      </trkpt>
      <trkpt lat="45.01338" lon="5.5797">
        <ele>1993</ele>
        <time>2015-07-04T10:35:11.000Z</time>
      </trkpt>
      <trkpt lat="45.01341" lon="5.5797">
        <ele>1992.8</ele>
        <time>2015-07-04T10:35:13.000Z</time>
      </trkpt>
      <trkpt lat="45.01343" lon="5.5797">
        <ele>1992.1</ele>
        <time>2015-07-04T10:35:15.000Z</time>
      </trkpt>
      <trkpt lat="45.01345" lon="5.57969">
        <ele>1990.8</ele>
        <time>2015-07-04T10:35:18.000Z</time>
      </trkpt>
      <trkpt lat="45.01346" lon="5.5797">
        <ele>1991.4</ele>
        <time>2015-07-04T10:35:19.000Z</time>
      </trkpt>
      <trkpt lat="45.01349" lon="5.57969">
        <ele>1990.7</ele>
        <time>2015-07-04T10:35:22.000Z</time>
      </trkpt>
      <trkpt lat="45.01355" lon="5.57967">
        <ele>1988.7</ele>
        <time>2015-07-04T10:35:26.000Z</time>
      </trkpt>
      <trkpt lat="45.01356" lon="5.57967">
        <ele>1988.4</ele>
        <time>2015-07-04T10:35:27.000Z</time>
      </trkpt>
      <trkpt lat="45.01358" lon="5.57968">
        <ele>1988.7</ele>
        <time>2015-07-04T10:35:29.000Z</time>
      </trkpt>
      <trkpt lat="45.01364" lon="5.57968">
        <ele>1988.5</ele>
        <time>2015-07-04T10:35:32.000Z</time>
      </trkpt>
      <trkpt lat="45.01366" lon="5.57968">
        <ele>1987.6</ele>
        <time>2015-07-04T10:35:34.000Z</time>
      </trkpt>
      <trkpt lat="45.01367" lon="5.57968">
        <ele>1987.3</ele>
        <time>2015-07-04T10:35:35.000Z</time>
      </trkpt>
      <trkpt lat="45.01373" lon="5.57967">
        <ele>1986.3</ele>
        <time>2015-07-04T10:35:39.000Z</time>
      </trkpt>
      <trkpt lat="45.01376" lon="5.57967">
        <ele>1985.8</ele>
        <time>2015-07-04T10:35:41.000Z</time>
      </trkpt>
      <trkpt lat="45.01382" lon="5.5797">
        <ele>1987.6</ele>
        <time>2015-07-04T10:35:47.000Z</time>
      </trkpt>
      <trkpt lat="45.01388" lon="5.57972">
        <ele>1987.6</ele>
        <time>2015-07-04T10:35:53.000Z</time>
      </trkpt>
      <trkpt lat="45.01394" lon="5.57971">
        <ele>1986.2</ele>
        <time>2015-07-04T10:35:58.000Z</time>
      </trkpt>
      <trkpt lat="45.01396" lon="5.57971">
        <ele>1986.6</ele>
        <time>2015-07-04T10:36:00.000Z</time>
      </trkpt>
      <trkpt lat="45.01401" lon="5.57973">
        <ele>1987.1</ele>
        <time>2015-07-04T10:36:03.000Z</time>
      </trkpt>
      <trkpt lat="45.01404" lon="5.57975">
        <ele>1987.8</ele>
        <time>2015-07-04T10:36:05.000Z</time>
      </trkpt>
      <trkpt lat="45.0141" lon="5.57976">
        <ele>1987.7</ele>
        <time>2015-07-04T10:36:09.000Z</time>
      </trkpt>
      <trkpt lat="45.01416" lon="5.57975">
        <ele>1986.4</ele>
        <time>2015-07-04T10:36:14.000Z</time>
      </trkpt>
      <trkpt lat="45.01421" lon="5.57973">
        <ele>1985</ele>
        <time>2015-07-04T10:36:17.000Z</time>
      </trkpt>
      <trkpt lat="45.01422" lon="5.57971">
        <ele>1983.5</ele>
        <time>2015-07-04T10:36:19.000Z</time>
      </trkpt>
      <trkpt lat="45.01424" lon="5.5797">
        <ele>1982.3</ele>
        <time>2015-07-04T10:36:21.000Z</time>
      </trkpt>
      <trkpt lat="45.01431" lon="5.5797">
        <ele>1980.9</ele>
        <time>2015-07-04T10:36:26.000Z</time>
      </trkpt>
      <trkpt lat="45.01436" lon="5.5797">
        <ele>1979.7</ele>
        <time>2015-07-04T10:36:30.000Z</time>
      </trkpt>
      <trkpt lat="45.01437" lon="5.57969">
        <ele>1979.1</ele>
        <time>2015-07-04T10:36:31.000Z</time>
      </trkpt>
      <trkpt lat="45.0144" lon="5.57968">
        <ele>1978.2</ele>
        <time>2015-07-04T10:36:34.000Z</time>
      </trkpt>
      <trkpt lat="45.01441" lon="5.57969">
        <ele>1978.4</ele>
        <time>2015-07-04T10:36:36.000Z</time>
      </trkpt>
      <trkpt lat="45.01443" lon="5.57972">
        <ele>1980.3</ele>
        <time>2015-07-04T10:36:41.000Z</time>
      </trkpt>
      <trkpt lat="45.01444" lon="5.57977">
        <ele>1981.9</ele>
        <time>2015-07-04T10:36:46.000Z</time>
      </trkpt>
      <trkpt lat="45.01447" lon="5.5798">
        <ele>1982.4</ele>
        <time>2015-07-04T10:36:51.000Z</time>
      </trkpt>
      <trkpt lat="45.01449" lon="5.5798">
        <ele>1981.6</ele>
        <time>2015-07-04T10:36:56.000Z</time>
      </trkpt>
      <trkpt lat="45.0145" lon="5.57981">
        <ele>1981.8</ele>
        <time>2015-07-04T10:37:01.000Z</time>
      </trkpt>
      <trkpt lat="45.01448" lon="5.57979">
        <ele>1981.5</ele>
        <time>2015-07-04T10:37:06.000Z</time>
      </trkpt>
      <trkpt lat="45.01449" lon="5.57978">
        <ele>1980.8</ele>
        <time>2015-07-04T10:37:14.000Z</time>
      </trkpt>
      <trkpt lat="45.01449" lon="5.57977">
        <ele>1980.5</ele>
        <time>2015-07-04T10:37:18.000Z</time>
      </trkpt>
      <trkpt lat="45.01451" lon="5.57974">
        <ele>1979.3</ele>
        <time>2015-07-04T10:37:23.000Z</time>
      </trkpt>
      <trkpt lat="45.01451" lon="5.57974">
        <ele>1979</ele>
        <time>2015-07-04T10:37:24.000Z</time>
      </trkpt>
      <trkpt lat="45.01451" lon="5.57975">
        <ele>1979.3</ele>
        <time>2015-07-04T10:37:28.000Z</time>
      </trkpt>
      <trkpt lat="45.01454" lon="5.57975">
        <ele>1978.7</ele>
        <time>2015-07-04T10:37:35.000Z</time>
      </trkpt>
      <trkpt lat="45.01456" lon="5.57976">
        <ele>1978.6</ele>
        <time>2015-07-04T10:37:38.000Z</time>
      </trkpt>
      <trkpt lat="45.01463" lon="5.5798">
        <ele>1978.3</ele>
        <time>2015-07-04T10:37:42.000Z</time>
      </trkpt>
      <trkpt lat="45.01469" lon="5.57984">
        <ele>1977.8</ele>
        <time>2015-07-04T10:37:48.000Z</time>
      </trkpt>
      <trkpt lat="45.01475" lon="5.57986">
        <ele>1977.4</ele>
        <time>2015-07-04T10:37:54.000Z</time>
      </trkpt>
      <trkpt lat="45.01482" lon="5.57988">
        <ele>1978.2</ele>
        <time>2015-07-04T10:38:00.000Z</time>
      </trkpt>
      <trkpt lat="45.01483" lon="5.57989">
        <ele>1978.4</ele>
        <time>2015-07-04T10:38:01.000Z</time>
      </trkpt>
      <trkpt lat="45.01488" lon="5.57992">
        <ele>1979.4</ele>
        <time>2015-07-04T10:38:07.000Z</time>
      </trkpt>
      <trkpt lat="45.0149" lon="5.57994">
        <ele>1980.2</ele>
        <time>2015-07-04T10:38:12.000Z</time>
      </trkpt>
      <trkpt lat="45.01493" lon="5.57995">
        <ele>1980.4</ele>
        <time>2015-07-04T10:38:15.000Z</time>
      </trkpt>
      <trkpt lat="45.01494" lon="5.57995">
        <ele>1980.4</ele>
        <time>2015-07-04T10:38:17.000Z</time>
      </trkpt>
      <trkpt lat="45.015" lon="5.57996">
        <ele>1980.9</ele>
        <time>2015-07-04T10:38:23.000Z</time>
      </trkpt>
      <trkpt lat="45.015" lon="5.57995">
        <ele>1980.7</ele>
        <time>2015-07-04T10:38:24.000Z</time>
      </trkpt>
      <trkpt lat="45.01504" lon="5.57995">
        <ele>1982.1</ele>
        <time>2015-07-04T10:38:27.000Z</time>
      </trkpt>
      <trkpt lat="45.01504" lon="5.57994">
        <ele>1981.6</ele>
        <time>2015-07-04T10:38:29.000Z</time>
      </trkpt>
      <trkpt lat="45.01506" lon="5.57992">
        <ele>1981.5</ele>
        <time>2015-07-04T10:38:33.000Z</time>
      </trkpt>
      <trkpt lat="45.01509" lon="5.57979">
        <ele>1978.1</ele>
        <time>2015-07-04T10:38:39.000Z</time>
      </trkpt>
      <trkpt lat="45.01511" lon="5.57974">
        <ele>1977.2</ele>
        <time>2015-07-04T10:38:42.000Z</time>
      </trkpt>
      <trkpt lat="45.01512" lon="5.57972">
        <ele>1977</ele>
        <time>2015-07-04T10:38:44.000Z</time>
      </trkpt>
      <trkpt lat="45.01513" lon="5.5797">
        <ele>1976.5</ele>
        <time>2015-07-04T10:38:47.000Z</time>
      </trkpt>
      <trkpt lat="45.01515" lon="5.57966">
        <ele>1975.3</ele>
        <time>2015-07-04T10:38:50.000Z</time>
      </trkpt>
      <trkpt lat="45.01515" lon="5.57963">
        <ele>1974.2</ele>
        <time>2015-07-04T10:38:53.000Z</time>
      </trkpt>
      <trkpt lat="45.01516" lon="5.57956">
        <ele>1971.9</ele>
        <time>2015-07-04T10:38:57.000Z</time>
      </trkpt>
      <trkpt lat="45.01518" lon="5.5795">
        <ele>1969.8</ele>
        <time>2015-07-04T10:39:03.000Z</time>
      </trkpt>
      <trkpt lat="45.01521" lon="5.5795">
        <ele>1970.8</ele>
        <time>2015-07-04T10:39:08.000Z</time>
      </trkpt>
      <trkpt lat="45.01526" lon="5.57947">
        <ele>1970.8</ele>
        <time>2015-07-04T10:39:13.000Z</time>
      </trkpt>
      <trkpt lat="45.01531" lon="5.57947">
        <ele>1971.5</ele>
        <time>2015-07-04T10:39:18.000Z</time>
      </trkpt>
      <trkpt lat="45.01532" lon="5.57945">
        <ele>1970.7</ele>
        <time>2015-07-04T10:39:20.000Z</time>
      </trkpt>
      <trkpt lat="45.01536" lon="5.5794">
        <ele>1968.7</ele>
        <time>2015-07-04T10:39:25.000Z</time>
      </trkpt>
      <trkpt lat="45.01541" lon="5.57935">
        <ele>1966.7</ele>
        <time>2015-07-04T10:39:32.000Z</time>
      </trkpt>
      <trkpt lat="45.01544" lon="5.57933">
        <ele>1965.6</ele>
        <time>2015-07-04T10:39:35.000Z</time>
      </trkpt>
      <trkpt lat="45.01546" lon="5.57932">
        <ele>1965.4</ele>
        <time>2015-07-04T10:39:38.000Z</time>
      </trkpt>
      <trkpt lat="45.0155" lon="5.57931">
        <ele>1964.8</ele>
        <time>2015-07-04T10:39:42.000Z</time>
      </trkpt>
      <trkpt lat="45.01557" lon="5.57929">
        <ele>1964.3</ele>
        <time>2015-07-04T10:39:49.000Z</time>
      </trkpt>
      <trkpt lat="45.01564" lon="5.57928">
        <ele>1963.9</ele>
        <time>2015-07-04T10:39:56.000Z</time>
      </trkpt>
      <trkpt lat="45.01567" lon="5.57927">
        <ele>1963.1</ele>
        <time>2015-07-04T10:40:02.000Z</time>
      </trkpt>
      <trkpt lat="45.0157" lon="5.57925">
        <ele>1961.8</ele>
        <time>2015-07-04T10:40:18.000Z</time>
      </trkpt>
      <trkpt lat="45.01571" lon="5.57925">
        <ele>1961.8</ele>
        <time>2015-07-04T10:40:19.000Z</time>
      </trkpt>
      <trkpt lat="45.01573" lon="5.57926">
        <ele>1962.4</ele>
        <time>2015-07-04T10:40:24.000Z</time>
      </trkpt>
      <trkpt lat="45.01574" lon="5.57925">
        <ele>1961.8</ele>
        <time>2015-07-04T10:41:08.000Z</time>
      </trkpt>
      <trkpt lat="45.01579" lon="5.57923">
        <ele>1960.4</ele>
        <time>2015-07-04T10:41:38.000Z</time>
      </trkpt>
      <trkpt lat="45.01583" lon="5.57923">
        <ele>1959.9</ele>
        <time>2015-07-04T10:41:41.000Z</time>
      </trkpt>
      <trkpt lat="45.01587" lon="5.57924">
        <ele>1960.4</ele>
        <time>2015-07-04T10:41:45.000Z</time>
      </trkpt>
      <trkpt lat="45.01592" lon="5.57924">
        <ele>1959.7</ele>
        <time>2015-07-04T10:41:50.000Z</time>
      </trkpt>
      <trkpt lat="45.01598" lon="5.57924">
        <ele>1958.6</ele>
        <time>2015-07-04T10:41:57.000Z</time>
      </trkpt>
      <trkpt lat="45.01607" lon="5.57921">
        <ele>1955.4</ele>
        <time>2015-07-04T10:42:05.000Z</time>
      </trkpt>
      <trkpt lat="45.01612" lon="5.5792">
        <ele>1954.3</ele>
        <time>2015-07-04T10:42:09.000Z</time>
      </trkpt>
      <trkpt lat="45.01614" lon="5.5792">
        <ele>1954.3</ele>
        <time>2015-07-04T10:42:11.000Z</time>
      </trkpt>
      <trkpt lat="45.01618" lon="5.5792">
        <ele>1953.8</ele>
        <time>2015-07-04T10:42:14.000Z</time>
      </trkpt>
      <trkpt lat="45.01619" lon="5.5792">
        <ele>1953.4</ele>
        <time>2015-07-04T10:42:15.000Z</time>
      </trkpt>
      <trkpt lat="45.01621" lon="5.57918">
        <ele>1952</ele>
        <time>2015-07-04T10:42:17.000Z</time>
      </trkpt>
      <trkpt lat="45.01629" lon="5.57917">
        <ele>1950.1</ele>
        <time>2015-07-04T10:42:24.000Z</time>
      </trkpt>
      <trkpt lat="45.0163" lon="5.57917">
        <ele>1950</ele>
        <time>2015-07-04T10:42:25.000Z</time>
      </trkpt>
      <trkpt lat="45.01633" lon="5.57915">
        <ele>1948.4</ele>
        <time>2015-07-04T10:42:28.000Z</time>
      </trkpt>
      <trkpt lat="45.01636" lon="5.57911">
        <ele>1945.7</ele>
        <time>2015-07-04T10:42:32.000Z</time>
      </trkpt>
      <trkpt lat="45.0164" lon="5.57909">
        <ele>1943.6</ele>
        <time>2015-07-04T10:42:39.000Z</time>
      </trkpt>
      <trkpt lat="45.01643" lon="5.57907">
        <ele>1942.2</ele>
        <time>2015-07-04T10:42:42.000Z</time>
      </trkpt>
      <trkpt lat="45.01645" lon="5.57907">
        <ele>1941.9</ele>
        <time>2015-07-04T10:42:44.000Z</time>
      </trkpt>
      <trkpt lat="45.01648" lon="5.57906">
        <ele>1940.3</ele>
        <time>2015-07-04T10:42:48.000Z</time>
      </trkpt>
      <trkpt lat="45.01653" lon="5.57904">
        <ele>1938.6</ele>
        <time>2015-07-04T10:42:53.000Z</time>
      </trkpt>
      <trkpt lat="45.01654" lon="5.57903">
        <ele>1938.2</ele>
        <time>2015-07-04T10:42:54.000Z</time>
      </trkpt>
      <trkpt lat="45.01658" lon="5.57899">
        <ele>1935.3</ele>
        <time>2015-07-04T10:42:58.000Z</time>
      </trkpt>
      <trkpt lat="45.0166" lon="5.57899">
        <ele>1934.5</ele>
        <time>2015-07-04T10:43:00.000Z</time>
      </trkpt>
      <trkpt lat="45.01667" lon="5.57896">
        <ele>1932.6</ele>
        <time>2015-07-04T10:43:05.000Z</time>
      </trkpt>
      <trkpt lat="45.01668" lon="5.57896">
        <ele>1932.2</ele>
        <time>2015-07-04T10:43:06.000Z</time>
      </trkpt>
      <trkpt lat="45.01675" lon="5.57894">
        <ele>1930.6</ele>
        <time>2015-07-04T10:43:12.000Z</time>
      </trkpt>
      <trkpt lat="45.01676" lon="5.57894">
        <ele>1930.5</ele>
        <time>2015-07-04T10:43:13.000Z</time>
      </trkpt>
      <trkpt lat="45.01681" lon="5.57893">
        <ele>1929.2</ele>
        <time>2015-07-04T10:43:18.000Z</time>
      </trkpt>
      <trkpt lat="45.01688" lon="5.5789">
        <ele>1927.3</ele>
        <time>2015-07-04T10:43:24.000Z</time>
      </trkpt>
      <trkpt lat="45.01692" lon="5.5789">
        <ele>1926.7</ele>
        <time>2015-07-04T10:43:30.000Z</time>
      </trkpt>
      <trkpt lat="45.01693" lon="5.5789">
        <ele>1926.7</ele>
        <time>2015-07-04T10:43:31.000Z</time>
      </trkpt>
      <trkpt lat="45.01698" lon="5.5789">
        <ele>1926.2</ele>
        <time>2015-07-04T10:43:35.000Z</time>
      </trkpt>
      <trkpt lat="45.01698" lon="5.57889">
        <ele>1925.8</ele>
        <time>2015-07-04T10:43:36.000Z</time>
      </trkpt>
      <trkpt lat="45.017" lon="5.57889">
        <ele>1925.2</ele>
        <time>2015-07-04T10:43:39.000Z</time>
      </trkpt>
      <trkpt lat="45.01708" lon="5.57888">
        <ele>1923.8</ele>
        <time>2015-07-04T10:43:46.000Z</time>
      </trkpt>
      <trkpt lat="45.0171" lon="5.57887">
        <ele>1923.4</ele>
        <time>2015-07-04T10:43:48.000Z</time>
      </trkpt>
      <trkpt lat="45.01714" lon="5.57887">
        <ele>1922.8</ele>
        <time>2015-07-04T10:43:51.000Z</time>
      </trkpt>
      <trkpt lat="45.01716" lon="5.57887">
        <ele>1922.6</ele>
        <time>2015-07-04T10:43:53.000Z</time>
      </trkpt>
      <trkpt lat="45.01723" lon="5.57887">
        <ele>1921.8</ele>
        <time>2015-07-04T10:43:58.000Z</time>
      </trkpt>
      <trkpt lat="45.0173" lon="5.57887">
        <ele>1921.2</ele>
        <time>2015-07-04T10:44:04.000Z</time>
      </trkpt>
      <trkpt lat="45.01734" lon="5.57888">
        <ele>1921.4</ele>
        <time>2015-07-04T10:44:11.000Z</time>
      </trkpt>
      <trkpt lat="45.01738" lon="5.57886">
        <ele>1919.8</ele>
        <time>2015-07-04T10:45:00.000Z</time>
      </trkpt>
      <trkpt lat="45.01742" lon="5.57887">
        <ele>1919.8</ele>
        <time>2015-07-04T10:45:06.000Z</time>
      </trkpt>
      <trkpt lat="45.01748" lon="5.57887">
        <ele>1919.1</ele>
        <time>2015-07-04T10:45:12.000Z</time>
      </trkpt>
      <trkpt lat="45.01751" lon="5.57887">
        <ele>1919</ele>
        <time>2015-07-04T10:45:15.000Z</time>
      </trkpt>
      <trkpt lat="45.01754" lon="5.57887">
        <ele>1918.4</ele>
        <time>2015-07-04T10:45:18.000Z</time>
      </trkpt>
      <trkpt lat="45.01756" lon="5.57885">
        <ele>1917.4</ele>
        <time>2015-07-04T10:45:21.000Z</time>
      </trkpt>
      <trkpt lat="45.01757" lon="5.57885">
        <ele>1917.2</ele>
        <time>2015-07-04T10:45:22.000Z</time>
      </trkpt>
      <trkpt lat="45.01764" lon="5.57886">
        <ele>1916.7</ele>
        <time>2015-07-04T10:45:28.000Z</time>
      </trkpt>
      <trkpt lat="45.01772" lon="5.57888">
        <ele>1916.2</ele>
        <time>2015-07-04T10:45:35.000Z</time>
      </trkpt>
      <trkpt lat="45.01775" lon="5.57888">
        <ele>1916.1</ele>
        <time>2015-07-04T10:45:39.000Z</time>
      </trkpt>
      <trkpt lat="45.01779" lon="5.5789">
        <ele>1916.1</ele>
        <time>2015-07-04T10:45:45.000Z</time>
      </trkpt>
      <trkpt lat="45.01785" lon="5.5789">
        <ele>1914.9</ele>
        <time>2015-07-04T10:45:51.000Z</time>
      </trkpt>
      <trkpt lat="45.01787" lon="5.57891">
        <ele>1914.9</ele>
        <time>2015-07-04T10:45:57.000Z</time>
      </trkpt>
      <trkpt lat="45.01788" lon="5.57891">
        <ele>1915.2</ele>
        <time>2015-07-04T10:46:09.000Z</time>
      </trkpt>
      <trkpt lat="45.01789" lon="5.57891">
        <ele>1914.9</ele>
        <time>2015-07-04T10:46:34.000Z</time>
      </trkpt>
      <trkpt lat="45.01796" lon="5.57891">
        <ele>1913.3</ele>
        <time>2015-07-04T10:46:40.000Z</time>
      </trkpt>
      <trkpt lat="45.01802" lon="5.57892">
        <ele>1912.9</ele>
        <time>2015-07-04T10:46:46.000Z</time>
      </trkpt>
      <trkpt lat="45.01807" lon="5.57893">
        <ele>1912.5</ele>
        <time>2015-07-04T10:46:51.000Z</time>
      </trkpt>
      <trkpt lat="45.01811" lon="5.57893">
        <ele>1911.7</ele>
        <time>2015-07-04T10:46:58.000Z</time>
      </trkpt>
      <trkpt lat="45.01815" lon="5.57894">
        <ele>1911.6</ele>
        <time>2015-07-04T10:47:11.000Z</time>
      </trkpt>
      <trkpt lat="45.01817" lon="5.57894">
        <ele>1911.3</ele>
        <time>2015-07-04T10:47:13.000Z</time>
      </trkpt>
      <trkpt lat="45.01818" lon="5.57895">
        <ele>1911.9</ele>
        <time>2015-07-04T10:47:15.000Z</time>
      </trkpt>
      <trkpt lat="45.01819" lon="5.57895">
        <ele>1911.7</ele>
        <time>2015-07-04T10:47:16.000Z</time>
      </trkpt>
      <trkpt lat="45.01822" lon="5.57895">
        <ele>1911.3</ele>
        <time>2015-07-04T10:47:19.000Z</time>
      </trkpt>
      <trkpt lat="45.01824" lon="5.57895">
        <ele>1911</ele>
        <time>2015-07-04T10:47:22.000Z</time>
      </trkpt>
      <trkpt lat="45.01824" lon="5.57894">
        <ele>1910.6</ele>
        <time>2015-07-04T10:47:25.000Z</time>
      </trkpt>
      <trkpt lat="45.01828" lon="5.57897">
        <ele>1911.2</ele>
        <time>2015-07-04T10:47:41.000Z</time>
      </trkpt>
      <trkpt lat="45.0183" lon="5.57899">
        <ele>1912.1</ele>
        <time>2015-07-04T10:47:45.000Z</time>
      </trkpt>
      <trkpt lat="45.01835" lon="5.57902">
        <ele>1913.3</ele>
        <time>2015-07-04T10:47:50.000Z</time>
      </trkpt>
      <trkpt lat="45.01837" lon="5.57903">
        <ele>1913.6</ele>
        <time>2015-07-04T10:47:52.000Z</time>
      </trkpt>
      <trkpt lat="45.01837" lon="5.57905">
        <ele>1914.4</ele>
        <time>2015-07-04T10:47:53.000Z</time>
      </trkpt>
      <trkpt lat="45.01839" lon="5.57906">
        <ele>1914.8</ele>
        <time>2015-07-04T10:47:56.000Z</time>
      </trkpt>
      <trkpt lat="45.01845" lon="5.5791">
        <ele>1916</ele>
        <time>2015-07-04T10:48:02.000Z</time>
      </trkpt>
      <trkpt lat="45.01846" lon="5.5791">
        <ele>1916.1</ele>
        <time>2015-07-04T10:48:05.000Z</time>
      </trkpt>
      <trkpt lat="45.01848" lon="5.5791">
        <ele>1915.8</ele>
        <time>2015-07-04T10:48:07.000Z</time>
      </trkpt>
      <trkpt lat="45.0185" lon="5.57912">
        <ele>1916.5</ele>
        <time>2015-07-04T10:48:10.000Z</time>
      </trkpt>
      <trkpt lat="45.01851" lon="5.57913">
        <ele>1916.6</ele>
        <time>2015-07-04T10:48:11.000Z</time>
      </trkpt>
      <trkpt lat="45.01856" lon="5.57916">
        <ele>1917.7</ele>
        <time>2015-07-04T10:48:17.000Z</time>
      </trkpt>
      <trkpt lat="45.01862" lon="5.5792">
        <ele>1918.9</ele>
        <time>2015-07-04T10:48:23.000Z</time>
      </trkpt>
      <trkpt lat="45.01866" lon="5.57924">
        <ele>1921.5</ele>
        <time>2015-07-04T10:48:29.000Z</time>
      </trkpt>
      <trkpt lat="45.01866" lon="5.57925">
        <ele>1921.8</ele>
        <time>2015-07-04T10:48:30.000Z</time>
      </trkpt>
      <trkpt lat="45.01872" lon="5.5793">
        <ele>1924.5</ele>
        <time>2015-07-04T10:48:37.000Z</time>
      </trkpt>
      <trkpt lat="45.01873" lon="5.57929">
        <ele>1924.1</ele>
        <time>2015-07-04T10:48:39.000Z</time>
      </trkpt>
      <trkpt lat="45.01876" lon="5.57931">
        <ele>1925.3</ele>
        <time>2015-07-04T10:48:42.000Z</time>
      </trkpt>
      <trkpt lat="45.01876" lon="5.57931">
        <ele>1925.2</ele>
        <time>2015-07-04T10:48:43.000Z</time>
      </trkpt>
      <trkpt lat="45.01876" lon="5.57932">
        <ele>1925.7</ele>
        <time>2015-07-04T10:48:44.000Z</time>
      </trkpt>
      <trkpt lat="45.01877" lon="5.57933">
        <ele>1926.3</ele>
        <time>2015-07-04T10:48:46.000Z</time>
      </trkpt>
      <trkpt lat="45.01878" lon="5.57933">
        <ele>1926.1</ele>
        <time>2015-07-04T10:48:48.000Z</time>
      </trkpt>
      <trkpt lat="45.0188" lon="5.57934">
        <ele>1926.6</ele>
        <time>2015-07-04T10:48:51.000Z</time>
      </trkpt>
      <trkpt lat="45.01882" lon="5.57937">
        <ele>1928.3</ele>
        <time>2015-07-04T10:48:58.000Z</time>
      </trkpt>
      <trkpt lat="45.01885" lon="5.57938">
        <ele>1928.8</ele>
        <time>2015-07-04T10:49:02.000Z</time>
      </trkpt>
      <trkpt lat="45.01888" lon="5.57941">
        <ele>1931</ele>
        <time>2015-07-04T10:49:07.000Z</time>
      </trkpt>
      <trkpt lat="45.01891" lon="5.57942">
        <ele>1931.7</ele>
        <time>2015-07-04T10:49:15.000Z</time>
      </trkpt>
      <trkpt lat="45.01894" lon="5.57942">
        <ele>1931.8</ele>
        <time>2015-07-04T10:49:19.000Z</time>
      </trkpt>
      <trkpt lat="45.01893" lon="5.57943">
        <ele>1932.1</ele>
        <time>2015-07-04T10:49:25.000Z</time>
      </trkpt>
      <trkpt lat="45.01897" lon="5.57944">
        <ele>1933.1</ele>
        <time>2015-07-04T10:49:32.000Z</time>
      </trkpt>
      <trkpt lat="45.01902" lon="5.57946">
        <ele>1934.7</ele>
        <time>2015-07-04T10:49:38.000Z</time>
      </trkpt>
      <trkpt lat="45.01904" lon="5.57947">
        <ele>1935.1</ele>
        <time>2015-07-04T10:49:42.000Z</time>
      </trkpt>
      <trkpt lat="45.01906" lon="5.57948">
        <ele>1936.2</ele>
        <time>2015-07-04T10:49:46.000Z</time>
      </trkpt>
      <trkpt lat="45.01908" lon="5.57949">
        <ele>1936.7</ele>
        <time>2015-07-04T10:49:51.000Z</time>
      </trkpt>
      <trkpt lat="45.01909" lon="5.57949">
        <ele>1937.1</ele>
        <time>2015-07-04T10:49:58.000Z</time>
      </trkpt>
      <trkpt lat="45.01912" lon="5.5795">
        <ele>1937.6</ele>
        <time>2015-07-04T10:50:06.000Z</time>
      </trkpt>
      <trkpt lat="45.01912" lon="5.57949">
        <ele>1936.9</ele>
        <time>2015-07-04T10:50:08.000Z</time>
      </trkpt>
      <trkpt lat="45.01914" lon="5.57951">
        <ele>1938.8</ele>
        <time>2015-07-04T10:50:13.000Z</time>
      </trkpt>
      <trkpt lat="45.01915" lon="5.57951">
        <ele>1938.9</ele>
        <time>2015-07-04T10:50:14.000Z</time>
      </trkpt>
      <trkpt lat="45.01917" lon="5.57951">
        <ele>1938.5</ele>
        <time>2015-07-04T10:50:18.000Z</time>
      </trkpt>
      <trkpt lat="45.01919" lon="5.57952">
        <ele>1939.4</ele>
        <time>2015-07-04T10:50:23.000Z</time>
      </trkpt>
      <trkpt lat="45.0192" lon="5.57951">
        <ele>1939.2</ele>
        <time>2015-07-04T10:50:28.000Z</time>
      </trkpt>
      <trkpt lat="45.01924" lon="5.57949">
        <ele>1938.1</ele>
        <time>2015-07-04T10:50:43.000Z</time>
      </trkpt>
      <trkpt lat="45.01926" lon="5.57951">
        <ele>1939.2</ele>
        <time>2015-07-04T10:50:48.000Z</time>
      </trkpt>
      <trkpt lat="45.01927" lon="5.57952">
        <ele>1940.2</ele>
        <time>2015-07-04T10:50:55.000Z</time>
      </trkpt>
      <trkpt lat="45.01929" lon="5.57954">
        <ele>1942.1</ele>
        <time>2015-07-04T10:51:00.000Z</time>
      </trkpt>
      <trkpt lat="45.0193" lon="5.57959">
        <ele>1945.3</ele>
        <time>2015-07-04T10:51:05.000Z</time>
      </trkpt>
      <trkpt lat="45.01933" lon="5.5796">
        <ele>1946.2</ele>
        <time>2015-07-04T10:51:14.000Z</time>
      </trkpt>
      <trkpt lat="45.0193" lon="5.5796">
        <ele>1946.5</ele>
        <time>2015-07-04T10:51:27.000Z</time>
      </trkpt>
      <trkpt lat="45.01928" lon="5.57961">
        <ele>1946.6</ele>
        <time>2015-07-04T10:51:43.000Z</time>
      </trkpt>
      <trkpt lat="45.01928" lon="5.57964">
        <ele>1948.9</ele>
        <time>2015-07-04T10:51:48.000Z</time>
      </trkpt>
      <trkpt lat="45.01928" lon="5.57968">
        <ele>1951.5</ele>
        <time>2015-07-04T10:51:52.000Z</time>
      </trkpt>
      <trkpt lat="45.01927" lon="5.57972">
        <ele>1954.5</ele>
        <time>2015-07-04T10:51:57.000Z</time>
      </trkpt>
      <trkpt lat="45.01927" lon="5.57975">
        <ele>1957</ele>
        <time>2015-07-04T10:52:02.000Z</time>
      </trkpt>
      <trkpt lat="45.01925" lon="5.57977">
        <ele>1958.2</ele>
        <time>2015-07-04T10:52:08.000Z</time>
      </trkpt>
      <trkpt lat="45.01924" lon="5.57981">
        <ele>1961</ele>
        <time>2015-07-04T10:52:13.000Z</time>
      </trkpt>
      <trkpt lat="45.01921" lon="5.57984">
        <ele>1963.2</ele>
        <time>2015-07-04T10:52:18.000Z</time>
      </trkpt>
      <trkpt lat="45.01919" lon="5.57986">
        <ele>1964.2</ele>
        <time>2015-07-04T10:52:23.000Z</time>
      </trkpt>
      <trkpt lat="45.01916" lon="5.57989">
        <ele>1966.3</ele>
        <time>2015-07-04T10:52:28.000Z</time>
      </trkpt>
      <trkpt lat="45.01914" lon="5.57989">
        <ele>1966.1</ele>
        <time>2015-07-04T10:52:34.000Z</time>
      </trkpt>
      <trkpt lat="45.01913" lon="5.5799">
        <ele>1967.2</ele>
        <time>2015-07-04T10:52:43.000Z</time>
      </trkpt>
      <trkpt lat="45.01914" lon="5.57993">
        <ele>1969.4</ele>
        <time>2015-07-04T10:52:49.000Z</time>
      </trkpt>
      <trkpt lat="45.01914" lon="5.57996">
        <ele>1971.4</ele>
        <time>2015-07-04T10:52:54.000Z</time>
      </trkpt>
      <trkpt lat="45.01912" lon="5.57998">
        <ele>1973.2</ele>
        <time>2015-07-04T10:53:00.000Z</time>
      </trkpt>
      <trkpt lat="45.01911" lon="5.58001">
        <ele>1975.1</ele>
        <time>2015-07-04T10:53:05.000Z</time>
      </trkpt>
      <trkpt lat="45.0191" lon="5.58003">
        <ele>1976.6</ele>
        <time>2015-07-04T10:53:12.000Z</time>
      </trkpt>
      <trkpt lat="45.0191" lon="5.58005">
        <ele>1977.6</ele>
        <time>2015-07-04T10:53:18.000Z</time>
      </trkpt>
      <trkpt lat="45.01908" lon="5.58011">
        <ele>1981.4</ele>
        <time>2015-07-04T10:53:31.000Z</time>
      </trkpt>
      <trkpt lat="45.01907" lon="5.58013">
        <ele>1982.6</ele>
        <time>2015-07-04T10:53:37.000Z</time>
      </trkpt>
      <trkpt lat="45.01909" lon="5.58016">
        <ele>1984.6</ele>
        <time>2015-07-04T10:53:46.000Z</time>
      </trkpt>
      <trkpt lat="45.01907" lon="5.58018">
        <ele>1985.8</ele>
        <time>2015-07-04T10:53:54.000Z</time>
      </trkpt>
      <trkpt lat="45.01906" lon="5.58021">
        <ele>1987.4</ele>
        <time>2015-07-04T10:53:59.000Z</time>
      </trkpt>
      <trkpt lat="45.01905" lon="5.58023">
        <ele>1988.9</ele>
        <time>2015-07-04T10:54:03.000Z</time>
      </trkpt>
      <trkpt lat="45.01905" lon="5.58025">
        <ele>1990.3</ele>
        <time>2015-07-04T10:54:11.000Z</time>
      </trkpt>
      <trkpt lat="45.01905" lon="5.58026">
        <ele>1990.7</ele>
        <time>2015-07-04T10:54:16.000Z</time>
      </trkpt>
      <trkpt lat="45.01906" lon="5.58029">
        <ele>1992.4</ele>
        <time>2015-07-04T10:54:23.000Z</time>
      </trkpt>
      <trkpt lat="45.01905" lon="5.5803">
        <ele>1992.7</ele>
        <time>2015-07-04T10:54:29.000Z</time>
      </trkpt>
      <trkpt lat="45.01904" lon="5.5803">
        <ele>1992.8</ele>
        <time>2015-07-04T10:54:35.000Z</time>
      </trkpt>
      <trkpt lat="45.01902" lon="5.58033">
        <ele>1994</ele>
        <time>2015-07-04T10:54:43.000Z</time>
      </trkpt>
      <trkpt lat="45.01901" lon="5.58034">
        <ele>1994.3</ele>
        <time>2015-07-04T10:54:44.000Z</time>
      </trkpt>
      <trkpt lat="45.01901" lon="5.58036">
        <ele>1995</ele>
        <time>2015-07-04T10:54:48.000Z</time>
      </trkpt>
      <trkpt lat="45.01898" lon="5.58039">
        <ele>1996</ele>
        <time>2015-07-04T10:54:59.000Z</time>
      </trkpt>
      <trkpt lat="45.01897" lon="5.58037">
        <ele>1995.5</ele>
        <time>2015-07-04T10:55:05.000Z</time>
      </trkpt>
      <trkpt lat="45.01896" lon="5.58038">
        <ele>1995.8</ele>
        <time>2015-07-04T10:55:09.000Z</time>
      </trkpt>
      <trkpt lat="45.01895" lon="5.58041">
        <ele>1997.1</ele>
        <time>2015-07-04T10:55:15.000Z</time>
      </trkpt>
      <trkpt lat="45.01898" lon="5.58042">
        <ele>1997.2</ele>
        <time>2015-07-04T10:55:23.000Z</time>
      </trkpt>
      <trkpt lat="45.01899" lon="5.58042">
        <ele>1997.3</ele>
        <time>2015-07-04T10:55:34.000Z</time>
      </trkpt>
      <trkpt lat="45.01899" lon="5.58045">
        <ele>1998.2</ele>
        <time>2015-07-04T10:55:40.000Z</time>
      </trkpt>
      <trkpt lat="45.019" lon="5.58047">
        <ele>1999.2</ele>
        <time>2015-07-04T10:55:48.000Z</time>
      </trkpt>
      <trkpt lat="45.01898" lon="5.58049">
        <ele>1999.8</ele>
        <time>2015-07-04T10:55:53.000Z</time>
      </trkpt>
      <trkpt lat="45.01898" lon="5.58052">
        <ele>2000.9</ele>
        <time>2015-07-04T10:55:59.000Z</time>
      </trkpt>
      <trkpt lat="45.01899" lon="5.58055">
        <ele>2002.1</ele>
        <time>2015-07-04T10:56:06.000Z</time>
      </trkpt>
      <trkpt lat="45.01901" lon="5.58058">
        <ele>2001.7</ele>
        <time>2015-07-04T10:56:13.000Z</time>
      </trkpt>
      <trkpt lat="45.019" lon="5.58061">
        <ele>2001.2</ele>
        <time>2015-07-04T10:56:18.000Z</time>
      </trkpt>
      <trkpt lat="45.01897" lon="5.58061">
        <ele>2001.4</ele>
        <time>2015-07-04T10:56:25.000Z</time>
      </trkpt>
      <trkpt lat="45.01897" lon="5.58066">
        <ele>2000.4</ele>
        <time>2015-07-04T10:56:34.000Z</time>
      </trkpt>
      <trkpt lat="45.01899" lon="5.58069">
        <ele>1999.7</ele>
        <time>2015-07-04T10:56:38.000Z</time>
      </trkpt>
      <trkpt lat="45.01899" lon="5.58073">
        <ele>1998.8</ele>
        <time>2015-07-04T10:56:43.000Z</time>
      </trkpt>
      <trkpt lat="45.019" lon="5.58074">
        <ele>1998.5</ele>
        <time>2015-07-04T10:56:48.000Z</time>
      </trkpt>
      <trkpt lat="45.01902" lon="5.58078">
        <ele>1997.4</ele>
        <time>2015-07-04T10:57:38.000Z</time>
      </trkpt>
      <trkpt lat="45.01903" lon="5.58079">
        <ele>1996.9</ele>
        <time>2015-07-04T10:57:45.000Z</time>
      </trkpt>
      <trkpt lat="45.01903" lon="5.58078">
        <ele>1997.2</ele>
        <time>2015-07-04T10:58:36.000Z</time>
      </trkpt>
      <trkpt lat="45.01904" lon="5.58077">
        <ele>1997.1</ele>
        <time>2015-07-04T10:58:51.000Z</time>
      </trkpt>
      <trkpt lat="45.01902" lon="5.58076">
        <ele>1997.8</ele>
        <time>2015-07-04T11:00:30.000Z</time>
      </trkpt>
      <trkpt lat="45.01898" lon="5.58075">
        <ele>1998.6</ele>
        <time>2015-07-04T11:00:48.000Z</time>
      </trkpt>
      <trkpt lat="45.01897" lon="5.58075">
        <ele>1998.9</ele>
        <time>2015-07-04T11:00:50.000Z</time>
      </trkpt>
      <trkpt lat="45.01892" lon="5.58074">
        <ele>1999.9</ele>
        <time>2015-07-04T11:00:56.000Z</time>
      </trkpt>
      <trkpt lat="45.0189" lon="5.58074">
        <ele>2000.1</ele>
        <time>2015-07-04T11:00:58.000Z</time>
      </trkpt>
      <trkpt lat="45.0189" lon="5.58076">
        <ele>1999.9</ele>
        <time>2015-07-04T11:01:01.000Z</time>
      </trkpt>
      <trkpt lat="45.01887" lon="5.58079">
        <ele>2000.3</ele>
        <time>2015-07-04T11:01:06.000Z</time>
      </trkpt>
      <trkpt lat="45.01884" lon="5.58077">
        <ele>2001.2</ele>
        <time>2015-07-04T11:01:10.000Z</time>
      </trkpt>
      <trkpt lat="45.0188" lon="5.58077">
        <ele>2002.5</ele>
        <time>2015-07-04T11:01:14.000Z</time>
      </trkpt>
      <trkpt lat="45.0188" lon="5.58077">
        <ele>2002.5</ele>
        <time>2015-07-04T11:01:15.000Z</time>
      </trkpt>
      <trkpt lat="45.01875" lon="5.58077">
        <ele>2003.8</ele>
        <time>2015-07-04T11:01:21.000Z</time>
      </trkpt>
      <trkpt lat="45.01874" lon="5.58077">
        <ele>2004</ele>
        <time>2015-07-04T11:01:22.000Z</time>
      </trkpt>
      <trkpt lat="45.0187" lon="5.58077">
        <ele>2005.4</ele>
        <time>2015-07-04T11:01:28.000Z</time>
      </trkpt>
      <trkpt lat="45.01867" lon="5.58078">
        <ele>2006</ele>
        <time>2015-07-04T11:01:33.000Z</time>
      </trkpt>
      <trkpt lat="45.01864" lon="5.5808">
        <ele>2006.9</ele>
        <time>2015-07-04T11:01:37.000Z</time>
      </trkpt>
      <trkpt lat="45.01859" lon="5.58082">
        <ele>2008.6</ele>
        <time>2015-07-04T11:01:44.000Z</time>
      </trkpt>
      <trkpt lat="45.01858" lon="5.58082">
        <ele>2009.4</ele>
        <time>2015-07-04T11:01:48.000Z</time>
      </trkpt>
      <trkpt lat="45.01854" lon="5.58085">
        <ele>2010.5</ele>
        <time>2015-07-04T11:01:56.000Z</time>
      </trkpt>
      <trkpt lat="45.01851" lon="5.58086">
        <ele>2011.3</ele>
        <time>2015-07-04T11:02:00.000Z</time>
      </trkpt>
      <trkpt lat="45.01847" lon="5.58088">
        <ele>2012.7</ele>
        <time>2015-07-04T11:02:06.000Z</time>
      </trkpt>
      <trkpt lat="45.01843" lon="5.5809">
        <ele>2014.1</ele>
        <time>2015-07-04T11:02:11.000Z</time>
      </trkpt>
      <trkpt lat="45.01838" lon="5.58093">
        <ele>2015.8</ele>
        <time>2015-07-04T11:02:17.000Z</time>
      </trkpt>
      <trkpt lat="45.01832" lon="5.58096">
        <ele>2017.9</ele>
        <time>2015-07-04T11:02:24.000Z</time>
      </trkpt>
      <trkpt lat="45.01831" lon="5.58097">
        <ele>2018.2</ele>
        <time>2015-07-04T11:02:26.000Z</time>
      </trkpt>
      <trkpt lat="45.01828" lon="5.58097">
        <ele>2018.9</ele>
        <time>2015-07-04T11:02:30.000Z</time>
      </trkpt>
      <trkpt lat="45.01828" lon="5.58098">
        <ele>2018.8</ele>
        <time>2015-07-04T11:02:31.000Z</time>
      </trkpt>
      <trkpt lat="45.01825" lon="5.581">
        <ele>2019.6</ele>
        <time>2015-07-04T11:02:35.000Z</time>
      </trkpt>
      <trkpt lat="45.0182" lon="5.58102">
        <ele>2021</ele>
        <time>2015-07-04T11:02:42.000Z</time>
      </trkpt>
      <trkpt lat="45.01815" lon="5.58103">
        <ele>2022.5</ele>
        <time>2015-07-04T11:02:49.000Z</time>
      </trkpt>
      <trkpt lat="45.0181" lon="5.58107">
        <ele>2024.4</ele>
        <time>2015-07-04T11:02:56.000Z</time>
      </trkpt>
      <trkpt lat="45.01807" lon="5.58108">
        <ele>2025.2</ele>
        <time>2015-07-04T11:03:03.000Z</time>
      </trkpt>
      <trkpt lat="45.01801" lon="5.5811">
        <ele>2026.9</ele>
        <time>2015-07-04T11:03:22.000Z</time>
      </trkpt>
      <trkpt lat="45.01796" lon="5.5811">
        <ele>2027.9</ele>
        <time>2015-07-04T11:03:29.000Z</time>
      </trkpt>
      <trkpt lat="45.0179" lon="5.58111">
        <ele>2029.3</ele>
        <time>2015-07-04T11:03:36.000Z</time>
      </trkpt>
      <trkpt lat="45.01785" lon="5.58113">
        <ele>2029.9</ele>
        <time>2015-07-04T11:03:42.000Z</time>
      </trkpt>
      <trkpt lat="45.01782" lon="5.58112">
        <ele>2030.8</ele>
        <time>2015-07-04T11:03:46.000Z</time>
      </trkpt>
      <trkpt lat="45.01779" lon="5.58113">
        <ele>2031.2</ele>
        <time>2015-07-04T11:03:49.000Z</time>
      </trkpt>
      <trkpt lat="45.01778" lon="5.58114">
        <ele>2031.3</ele>
        <time>2015-07-04T11:03:50.000Z</time>
      </trkpt>
      <trkpt lat="45.01772" lon="5.58114">
        <ele>2032.4</ele>
        <time>2015-07-04T11:03:56.000Z</time>
      </trkpt>
      <trkpt lat="45.01766" lon="5.58116">
        <ele>2033.1</ele>
        <time>2015-07-04T11:04:03.000Z</time>
      </trkpt>
      <trkpt lat="45.01765" lon="5.58116">
        <ele>2033.4</ele>
        <time>2015-07-04T11:04:05.000Z</time>
      </trkpt>
      <trkpt lat="45.01761" lon="5.58116">
        <ele>2034</ele>
        <time>2015-07-04T11:04:09.000Z</time>
      </trkpt>
      <trkpt lat="45.01758" lon="5.58117">
        <ele>2034.7</ele>
        <time>2015-07-04T11:04:13.000Z</time>
      </trkpt>
      <trkpt lat="45.01756" lon="5.58118">
        <ele>2034.9</ele>
        <time>2015-07-04T11:04:15.000Z</time>
      </trkpt>
      <trkpt lat="45.01748" lon="5.58118">
        <ele>2036.3</ele>
        <time>2015-07-04T11:04:22.000Z</time>
      </trkpt>
      <trkpt lat="45.01741" lon="5.58118">
        <ele>2037.9</ele>
        <time>2015-07-04T11:04:29.000Z</time>
      </trkpt>
      <trkpt lat="45.01735" lon="5.5812">
        <ele>2038.9</ele>
        <time>2015-07-04T11:04:35.000Z</time>
      </trkpt>
      <trkpt lat="45.0173" lon="5.58122">
        <ele>2039.6</ele>
        <time>2015-07-04T11:04:41.000Z</time>
      </trkpt>
      <trkpt lat="45.01729" lon="5.58122">
        <ele>2039.6</ele>
        <time>2015-07-04T11:04:42.000Z</time>
      </trkpt>
      <trkpt lat="45.01728" lon="5.58122">
        <ele>2039.9</ele>
        <time>2015-07-04T11:04:43.000Z</time>
      </trkpt>
      <trkpt lat="45.01725" lon="5.5812">
        <ele>2041.1</ele>
        <time>2015-07-04T11:04:47.000Z</time>
      </trkpt>
      <trkpt lat="45.01723" lon="5.5812">
        <ele>2041.6</ele>
        <time>2015-07-04T11:04:50.000Z</time>
      </trkpt>
      <trkpt lat="45.01719" lon="5.58122">
        <ele>2042.1</ele>
        <time>2015-07-04T11:04:53.000Z</time>
      </trkpt>
      <trkpt lat="45.01711" lon="5.58124">
        <ele>2043.2</ele>
        <time>2015-07-04T11:05:00.000Z</time>
      </trkpt>
      <trkpt lat="45.0171" lon="5.58125">
        <ele>2043.1</ele>
        <time>2015-07-04T11:05:01.000Z</time>
      </trkpt>
      <trkpt lat="45.01706" lon="5.58127">
        <ele>2043.5</ele>
        <time>2015-07-04T11:05:05.000Z</time>
      </trkpt>
      <trkpt lat="45.01698" lon="5.58127">
        <ele>2045.2</ele>
        <time>2015-07-04T11:05:13.000Z</time>
      </trkpt>
      <trkpt lat="45.0169" lon="5.58128">
        <ele>2046.5</ele>
        <time>2015-07-04T11:05:21.000Z</time>
      </trkpt>
      <trkpt lat="45.01682" lon="5.58128">
        <ele>2047.7</ele>
        <time>2015-07-04T11:05:30.000Z</time>
      </trkpt>
      <trkpt lat="45.01675" lon="5.58126">
        <ele>2048.7</ele>
        <time>2015-07-04T11:05:37.000Z</time>
      </trkpt>
      <trkpt lat="45.01671" lon="5.58126">
        <ele>2049.4</ele>
        <time>2015-07-04T11:05:41.000Z</time>
      </trkpt>
      <trkpt lat="45.01668" lon="5.58126">
        <ele>2049.7</ele>
        <time>2015-07-04T11:05:43.000Z</time>
      </trkpt>
      <trkpt lat="45.01662" lon="5.58128">
        <ele>2049.9</ele>
        <time>2015-07-04T11:05:48.000Z</time>
      </trkpt>
      <trkpt lat="45.01658" lon="5.58128">
        <ele>2050.1</ele>
        <time>2015-07-04T11:05:52.000Z</time>
      </trkpt>
      <trkpt lat="45.01655" lon="5.58127">
        <ele>2050.3</ele>
        <time>2015-07-04T11:05:54.000Z</time>
      </trkpt>
      <trkpt lat="45.01646" lon="5.58129">
        <ele>2050.7</ele>
        <time>2015-07-04T11:06:00.000Z</time>
      </trkpt>
      <trkpt lat="45.0163" lon="5.58132">
        <ele>2051.7</ele>
        <time>2015-07-04T11:06:06.000Z</time>
      </trkpt>
      <trkpt lat="45.01619" lon="5.58134">
        <ele>2053</ele>
        <time>2015-07-04T11:06:11.000Z</time>
      </trkpt>
      <trkpt lat="45.01605" lon="5.58136">
        <ele>2054.4</ele>
        <time>2015-07-04T11:06:17.000Z</time>
      </trkpt>
      <trkpt lat="45.01592" lon="5.58137">
        <ele>2055.3</ele>
        <time>2015-07-04T11:06:24.000Z</time>
      </trkpt>
      <trkpt lat="45.01589" lon="5.58135">
        <ele>2055.5</ele>
        <time>2015-07-04T11:06:27.000Z</time>
      </trkpt>
      <trkpt lat="45.01588" lon="5.58135">
        <ele>2055.5</ele>
        <time>2015-07-04T11:06:29.000Z</time>
      </trkpt>
      <trkpt lat="45.01585" lon="5.58135">
        <ele>2055.7</ele>
        <time>2015-07-04T11:06:34.000Z</time>
      </trkpt>
      <trkpt lat="45.01584" lon="5.58136">
        <ele>2055.8</ele>
        <time>2015-07-04T11:06:50.000Z</time>
      </trkpt>
      <trkpt lat="45.01583" lon="5.58133">
        <ele>2055.7</ele>
        <time>2015-07-04T11:07:27.000Z</time>
      </trkpt>
      <trkpt lat="45.01583" lon="5.58131">
        <ele>2055.6</ele>
        <time>2015-07-04T11:08:26.000Z</time>
      </trkpt>
      <trkpt lat="45.01578" lon="5.58136">
        <ele>2054.7</ele>
        <time>2015-07-04T11:08:53.000Z</time>
      </trkpt>
      <trkpt lat="45.01573" lon="5.58133">
        <ele>2053.6</ele>
        <time>2015-07-04T11:08:59.000Z</time>
      </trkpt>
      <trkpt lat="45.01569" lon="5.58132">
        <ele>2052.9</ele>
        <time>2015-07-04T11:09:05.000Z</time>
      </trkpt>
      <trkpt lat="45.01568" lon="5.58132">
        <ele>2052.6</ele>
        <time>2015-07-04T11:09:12.000Z</time>
      </trkpt>
      <trkpt lat="45.0157" lon="5.58136">
        <ele>2052.8</ele>
        <time>2015-07-04T11:09:29.000Z</time>
      </trkpt>
      <trkpt lat="45.01571" lon="5.58138">
        <ele>2052.9</ele>
        <time>2015-07-04T11:09:36.000Z</time>
      </trkpt>
      <trkpt lat="45.01571" lon="5.58141">
        <ele>2051.6</ele>
        <time>2015-07-04T11:09:42.000Z</time>
      </trkpt>
      <trkpt lat="45.01566" lon="5.58138">
        <ele>2051.7</ele>
        <time>2015-07-04T11:09:47.000Z</time>
      </trkpt>
      <trkpt lat="45.01562" lon="5.58137">
        <ele>2050.8</ele>
        <time>2015-07-04T11:09:51.000Z</time>
      </trkpt>
      <trkpt lat="45.01562" lon="5.58136">
        <ele>2050.8</ele>
        <time>2015-07-04T11:09:52.000Z</time>
      </trkpt>
      <trkpt lat="45.01559" lon="5.58133">
        <ele>2050.6</ele>
        <time>2015-07-04T11:09:57.000Z</time>
      </trkpt>
      <trkpt lat="45.01559" lon="5.58134">
        <ele>2050.4</ele>
        <time>2015-07-04T11:09:58.000Z</time>
      </trkpt>
      <trkpt lat="45.01557" lon="5.58132">
        <ele>2050.3</ele>
        <time>2015-07-04T11:10:01.000Z</time>
      </trkpt>
      <trkpt lat="45.01553" lon="5.58136">
        <ele>2048.8</ele>
        <time>2015-07-04T11:10:05.000Z</time>
      </trkpt>
      <trkpt lat="45.01543" lon="5.58138">
        <ele>2046.7</ele>
        <time>2015-07-04T11:10:10.000Z</time>
      </trkpt>
      <trkpt lat="45.01533" lon="5.58144">
        <ele>2042.9</ele>
        <time>2015-07-04T11:10:16.000Z</time>
      </trkpt>
      <trkpt lat="45.01532" lon="5.58144">
        <ele>2042.7</ele>
        <time>2015-07-04T11:10:18.000Z</time>
      </trkpt>
      <trkpt lat="45.01529" lon="5.58144">
        <ele>2042.2</ele>
        <time>2015-07-04T11:10:22.000Z</time>
      </trkpt>
      <trkpt lat="45.01524" lon="5.58148">
        <ele>2040.5</ele>
        <time>2015-07-04T11:10:31.000Z</time>
      </trkpt>
      <trkpt lat="45.01528" lon="5.58153">
        <ele>2038.4</ele>
        <time>2015-07-04T11:10:39.000Z</time>
      </trkpt>
      <trkpt lat="45.01529" lon="5.58155">
        <ele>2037.9</ele>
        <time>2015-07-04T11:10:41.000Z</time>
      </trkpt>
      <trkpt lat="45.0153" lon="5.58157">
        <ele>2037</ele>
        <time>2015-07-04T11:10:45.000Z</time>
      </trkpt>
      <trkpt lat="45.01533" lon="5.58158">
        <ele>2036.9</ele>
        <time>2015-07-04T11:10:50.000Z</time>
      </trkpt>
      <trkpt lat="45.01536" lon="5.58162">
        <ele>2035.9</ele>
        <time>2015-07-04T11:10:55.000Z</time>
      </trkpt>
      <trkpt lat="45.01537" lon="5.58164">
        <ele>2035.1</ele>
        <time>2015-07-04T11:10:56.000Z</time>
      </trkpt>
      <trkpt lat="45.01537" lon="5.58165">
        <ele>2034.6</ele>
        <time>2015-07-04T11:10:58.000Z</time>
      </trkpt>
      <trkpt lat="45.01538" lon="5.58169">
        <ele>2032.9</ele>
        <time>2015-07-04T11:11:01.000Z</time>
      </trkpt>
      <trkpt lat="45.01541" lon="5.58176">
        <ele>2030.3</ele>
        <time>2015-07-04T11:11:07.000Z</time>
      </trkpt>
      <trkpt lat="45.01541" lon="5.58179">
        <ele>2028.9</ele>
        <time>2015-07-04T11:11:10.000Z</time>
      </trkpt>
      <trkpt lat="45.01541" lon="5.5818">
        <ele>2028.4</ele>
        <time>2015-07-04T11:11:11.000Z</time>
      </trkpt>
      <trkpt lat="45.0154" lon="5.58183">
        <ele>2027.1</ele>
        <time>2015-07-04T11:11:14.000Z</time>
      </trkpt>
      <trkpt lat="45.01539" lon="5.58188">
        <ele>2024.7</ele>
        <time>2015-07-04T11:11:20.000Z</time>
      </trkpt>
      <trkpt lat="45.01534" lon="5.58195">
        <ele>2021.4</ele>
        <time>2015-07-04T11:11:27.000Z</time>
      </trkpt>
      <trkpt lat="45.01533" lon="5.58196">
        <ele>2020.9</ele>
        <time>2015-07-04T11:11:28.000Z</time>
      </trkpt>
      <trkpt lat="45.01529" lon="5.58199">
        <ele>2019.2</ele>
        <time>2015-07-04T11:11:33.000Z</time>
      </trkpt>
      <trkpt lat="45.01527" lon="5.58201">
        <ele>2018.4</ele>
        <time>2015-07-04T11:11:35.000Z</time>
      </trkpt>
      <trkpt lat="45.01527" lon="5.58201">
        <ele>2018.5</ele>
        <time>2015-07-04T11:11:36.000Z</time>
      </trkpt>
      <trkpt lat="45.01524" lon="5.58205">
        <ele>2017.8</ele>
        <time>2015-07-04T11:11:40.000Z</time>
      </trkpt>
      <trkpt lat="45.01524" lon="5.58211">
        <ele>2015.4</ele>
        <time>2015-07-04T11:11:46.000Z</time>
      </trkpt>
      <trkpt lat="45.01523" lon="5.58213">
        <ele>2014.9</ele>
        <time>2015-07-04T11:11:47.000Z</time>
      </trkpt>
      <trkpt lat="45.01521" lon="5.58216">
        <ele>2014.3</ele>
        <time>2015-07-04T11:11:50.000Z</time>
      </trkpt>
      <trkpt lat="45.01521" lon="5.58218">
        <ele>2013.2</ele>
        <time>2015-07-04T11:11:51.000Z</time>
      </trkpt>
      <trkpt lat="45.0152" lon="5.58223">
        <ele>2011.5</ele>
        <time>2015-07-04T11:11:54.000Z</time>
      </trkpt>
      <trkpt lat="45.01518" lon="5.58231">
        <ele>2009.1</ele>
        <time>2015-07-04T11:11:59.000Z</time>
      </trkpt>
      <trkpt lat="45.01517" lon="5.58232">
        <ele>2008.6</ele>
        <time>2015-07-04T11:12:00.000Z</time>
      </trkpt>
      <trkpt lat="45.01516" lon="5.5824">
        <ele>2005.8</ele>
        <time>2015-07-04T11:12:05.000Z</time>
      </trkpt>
      <trkpt lat="45.01516" lon="5.58243">
        <ele>2004.7</ele>
        <time>2015-07-04T11:12:07.000Z</time>
      </trkpt>
      <trkpt lat="45.01515" lon="5.58249">
        <ele>2002.7</ele>
        <time>2015-07-04T11:12:10.000Z</time>
      </trkpt>
      <trkpt lat="45.01514" lon="5.58251">
        <ele>2002.2</ele>
        <time>2015-07-04T11:12:11.000Z</time>
      </trkpt>
      <trkpt lat="45.01511" lon="5.58258">
        <ele>2000</ele>
        <time>2015-07-04T11:12:16.000Z</time>
      </trkpt>
      <trkpt lat="45.01509" lon="5.58266">
        <ele>1997.5</ele>
        <time>2015-07-04T11:12:22.000Z</time>
      </trkpt>
      <trkpt lat="45.01509" lon="5.58268">
        <ele>1996.8</ele>
        <time>2015-07-04T11:12:23.000Z</time>
      </trkpt>
      <trkpt lat="45.01509" lon="5.58274">
        <ele>1994.8</ele>
        <time>2015-07-04T11:12:26.000Z</time>
      </trkpt>
      <trkpt lat="45.01509" lon="5.58277">
        <ele>1993.2</ele>
        <time>2015-07-04T11:12:28.000Z</time>
      </trkpt>
      <trkpt lat="45.01509" lon="5.58281">
        <ele>1992</ele>
        <time>2015-07-04T11:12:30.000Z</time>
      </trkpt>
      <trkpt lat="45.01508" lon="5.58282">
        <ele>1991.6</ele>
        <time>2015-07-04T11:12:31.000Z</time>
      </trkpt>
      <trkpt lat="45.01508" lon="5.58292">
        <ele>1987.4</ele>
        <time>2015-07-04T11:12:38.000Z</time>
      </trkpt>
      <trkpt lat="45.0151" lon="5.58301">
        <ele>1983.6</ele>
        <time>2015-07-04T11:12:43.000Z</time>
      </trkpt>
      <trkpt lat="45.0151" lon="5.58303">
        <ele>1982.8</ele>
        <time>2015-07-04T11:12:44.000Z</time>
      </trkpt>
      <trkpt lat="45.0151" lon="5.58305">
        <ele>1982</ele>
        <time>2015-07-04T11:12:45.000Z</time>
      </trkpt>
      <trkpt lat="45.01509" lon="5.58309">
        <ele>1980.2</ele>
        <time>2015-07-04T11:12:47.000Z</time>
      </trkpt>
      <trkpt lat="45.01508" lon="5.58314">
        <ele>1978.5</ele>
        <time>2015-07-04T11:12:49.000Z</time>
      </trkpt>
      <trkpt lat="45.01505" lon="5.58324">
        <ele>1974.5</ele>
        <time>2015-07-04T11:12:55.000Z</time>
      </trkpt>
      <trkpt lat="45.01505" lon="5.58328">
        <ele>1972.7</ele>
        <time>2015-07-04T11:12:57.000Z</time>
      </trkpt>
      <trkpt lat="45.01505" lon="5.58332">
        <ele>1971.4</ele>
        <time>2015-07-04T11:12:59.000Z</time>
      </trkpt>
      <trkpt lat="45.01506" lon="5.58333">
        <ele>1970.7</ele>
        <time>2015-07-04T11:13:00.000Z</time>
      </trkpt>
      <trkpt lat="45.01507" lon="5.58342">
        <ele>1967.5</ele>
        <time>2015-07-04T11:13:05.000Z</time>
      </trkpt>
      <trkpt lat="45.01507" lon="5.58358">
        <ele>1962.5</ele>
        <time>2015-07-04T11:13:12.000Z</time>
      </trkpt>
      <trkpt lat="45.01504" lon="5.58372">
        <ele>1957.9</ele>
        <time>2015-07-04T11:13:19.000Z</time>
      </trkpt>
      <trkpt lat="45.01505" lon="5.58378">
        <ele>1955.6</ele>
        <time>2015-07-04T11:13:23.000Z</time>
      </trkpt>
      <trkpt lat="45.01507" lon="5.58382">
        <ele>1954.2</ele>
        <time>2015-07-04T11:13:25.000Z</time>
      </trkpt>
      <trkpt lat="45.01506" lon="5.58389">
        <ele>1951.7</ele>
        <time>2015-07-04T11:13:28.000Z</time>
      </trkpt>
      <trkpt lat="45.01506" lon="5.58391">
        <ele>1951</ele>
        <time>2015-07-04T11:13:30.000Z</time>
      </trkpt>
      <trkpt lat="45.01503" lon="5.58388">
        <ele>1951.8</ele>
        <time>2015-07-04T11:13:57.000Z</time>
      </trkpt>
      <trkpt lat="45.01502" lon="5.58393">
        <ele>1949.9</ele>
        <time>2015-07-04T11:14:26.000Z</time>
      </trkpt>
      <trkpt lat="45.01502" lon="5.58395">
        <ele>1948.9</ele>
        <time>2015-07-04T11:14:28.000Z</time>
      </trkpt>
      <trkpt lat="45.015" lon="5.58395">
        <ele>1948.4</ele>
        <time>2015-07-04T11:14:35.000Z</time>
      </trkpt>
      <trkpt lat="45.01496" lon="5.58393">
        <ele>1946.9</ele>
        <time>2015-07-04T11:15:02.000Z</time>
      </trkpt>
      <trkpt lat="45.01493" lon="5.58393">
        <ele>1944.1</ele>
        <time>2015-07-04T11:15:06.000Z</time>
      </trkpt>
      <trkpt lat="45.01489" lon="5.58391">
        <ele>1942.2</ele>
        <time>2015-07-04T11:15:11.000Z</time>
      </trkpt>
      <trkpt lat="45.01486" lon="5.58392">
        <ele>1939.2</ele>
        <time>2015-07-04T11:15:13.000Z</time>
      </trkpt>
      <trkpt lat="45.01481" lon="5.58394">
        <ele>1935</ele>
        <time>2015-07-04T11:15:17.000Z</time>
      </trkpt>
      <trkpt lat="45.0148" lon="5.58393">
        <ele>1934.4</ele>
        <time>2015-07-04T11:15:18.000Z</time>
      </trkpt>
      <trkpt lat="45.01479" lon="5.5839">
        <ele>1935.6</ele>
        <time>2015-07-04T11:15:21.000Z</time>
      </trkpt>
      <trkpt lat="45.01478" lon="5.58385">
        <ele>1937.2</ele>
        <time>2015-07-04T11:15:25.000Z</time>
      </trkpt>
      <trkpt lat="45.01477" lon="5.58382">
        <ele>1937.6</ele>
        <time>2015-07-04T11:15:27.000Z</time>
      </trkpt>
      <trkpt lat="45.01475" lon="5.58381">
        <ele>1936.6</ele>
        <time>2015-07-04T11:15:29.000Z</time>
      </trkpt>
      <trkpt lat="45.01473" lon="5.5838">
        <ele>1936</ele>
        <time>2015-07-04T11:15:30.000Z</time>
      </trkpt>
      <trkpt lat="45.01465" lon="5.58379">
        <ele>1927.5</ele>
        <time>2015-07-04T11:15:35.000Z</time>
      </trkpt>
      <trkpt lat="45.01467" lon="5.5838">
        <ele>1929.1</ele>
        <time>2015-07-04T11:15:37.000Z</time>
      </trkpt>
      <trkpt lat="45.01468" lon="5.58383">
        <ele>1928.9</ele>
        <time>2015-07-04T11:15:39.000Z</time>
      </trkpt>
      <trkpt lat="45.01472" lon="5.58387">
        <ele>1931.4</ele>
        <time>2015-07-04T11:15:42.000Z</time>
      </trkpt>
      <trkpt lat="45.01472" lon="5.58386">
        <ele>1932.2</ele>
        <time>2015-07-04T11:15:43.000Z</time>
      </trkpt>
      <trkpt lat="45.01472" lon="5.58388">
        <ele>1931.4</ele>
        <time>2015-07-04T11:15:45.000Z</time>
      </trkpt>
      <trkpt lat="45.01472" lon="5.58388">
        <ele>1930.8</ele>
        <time>2015-07-04T11:15:47.000Z</time>
      </trkpt>
      <trkpt lat="45.01469" lon="5.58389">
        <ele>1927.7</ele>
        <time>2015-07-04T11:15:51.000Z</time>
      </trkpt>
      <trkpt lat="45.01471" lon="5.58393">
        <ele>1927.4</ele>
        <time>2015-07-04T11:15:55.000Z</time>
      </trkpt>
      <trkpt lat="45.01471" lon="5.58398">
        <ele>1925.3</ele>
        <time>2015-07-04T11:15:57.000Z</time>
      </trkpt>
      <trkpt lat="45.01473" lon="5.58403">
        <ele>1924.3</ele>
        <time>2015-07-04T11:16:00.000Z</time>
      </trkpt>
      <trkpt lat="45.01474" lon="5.58402">
        <ele>1925.9</ele>
        <time>2015-07-04T11:16:02.000Z</time>
      </trkpt>
      <trkpt lat="45.01476" lon="5.58404">
        <ele>1926.4</ele>
        <time>2015-07-04T11:16:05.000Z</time>
      </trkpt>
      <trkpt lat="45.01473" lon="5.584">
        <ele>1926</ele>
        <time>2015-07-04T11:16:09.000Z</time>
      </trkpt>
      <trkpt lat="45.01472" lon="5.58402">
        <ele>1923.9</ele>
        <time>2015-07-04T11:16:10.000Z</time>
      </trkpt>
      <trkpt lat="45.0147" lon="5.58398">
        <ele>1923.5</ele>
        <time>2015-07-04T11:16:13.000Z</time>
      </trkpt>
      <trkpt lat="45.01465" lon="5.58397">
        <ele>1919.3</ele>
        <time>2015-07-04T11:16:17.000Z</time>
      </trkpt>
      <trkpt lat="45.01461" lon="5.58393">
        <ele>1917.3</ele>
        <time>2015-07-04T11:16:20.000Z</time>
      </trkpt>
      <trkpt lat="45.01459" lon="5.58391">
        <ele>1915.7</ele>
        <time>2015-07-04T11:16:22.000Z</time>
      </trkpt>
      <trkpt lat="45.01456" lon="5.58395">
        <ele>1911.3</ele>
        <time>2015-07-04T11:16:26.000Z</time>
      </trkpt>
      <trkpt lat="45.01453" lon="5.58396">
        <ele>1908.1</ele>
        <time>2015-07-04T11:16:29.000Z</time>
      </trkpt>
      <trkpt lat="45.01452" lon="5.58392">
        <ele>1908.4</ele>
        <time>2015-07-04T11:16:31.000Z</time>
      </trkpt>
      <trkpt lat="45.0145" lon="5.58383">
        <ele>1909.6</ele>
        <time>2015-07-04T11:16:36.000Z</time>
      </trkpt>
      <trkpt lat="45.01448" lon="5.5838">
        <ele>1908.6</ele>
        <time>2015-07-04T11:16:38.000Z</time>
      </trkpt>
      <trkpt lat="45.01447" lon="5.58381">
        <ele>1906.8</ele>
        <time>2015-07-04T11:16:40.000Z</time>
      </trkpt>
      <trkpt lat="45.01446" lon="5.58383">
        <ele>1905</ele>
        <time>2015-07-04T11:16:41.000Z</time>
      </trkpt>
      <trkpt lat="45.0144" lon="5.58396">
        <ele>1894</ele>
        <time>2015-07-04T11:16:46.000Z</time>
      </trkpt>
      <trkpt lat="45.01438" lon="5.58396">
        <ele>1892.6</ele>
        <time>2015-07-04T11:16:47.000Z</time>
      </trkpt>
      <trkpt lat="45.01437" lon="5.58393">
        <ele>1891.9</ele>
        <time>2015-07-04T11:16:49.000Z</time>
      </trkpt>
      <trkpt lat="45.01433" lon="5.58385">
        <ele>1890.6</ele>
        <time>2015-07-04T11:16:54.000Z</time>
      </trkpt>
      <trkpt lat="45.01432" lon="5.58382">
        <ele>1890.2</ele>
        <time>2015-07-04T11:16:56.000Z</time>
      </trkpt>
      <trkpt lat="45.01435" lon="5.58372">
        <ele>1895.6</ele>
        <time>2015-07-04T11:17:01.000Z</time>
      </trkpt>
      <trkpt lat="45.01436" lon="5.5837">
        <ele>1896.9</ele>
        <time>2015-07-04T11:17:02.000Z</time>
      </trkpt>
      <trkpt lat="45.01439" lon="5.58361">
        <ele>1903.5</ele>
        <time>2015-07-04T11:17:07.000Z</time>
      </trkpt>
      <trkpt lat="45.01442" lon="5.58355">
        <ele>1907.3</ele>
        <time>2015-07-04T11:17:11.000Z</time>
      </trkpt>
      <trkpt lat="45.01442" lon="5.58356">
        <ele>1907.1</ele>
        <time>2015-07-04T11:17:12.000Z</time>
      </trkpt>
      <trkpt lat="45.01442" lon="5.58347">
        <ele>1907.4</ele>
        <time>2015-07-04T11:17:22.000Z</time>
      </trkpt>
      <trkpt lat="45.01439" lon="5.58349">
        <ele>1903.9</ele>
        <time>2015-07-04T11:17:28.000Z</time>
      </trkpt>
      <trkpt lat="45.01435" lon="5.58352">
        <ele>1899.2</ele>
        <time>2015-07-04T11:17:33.000Z</time>
      </trkpt>
      <trkpt lat="45.0143" lon="5.58356">
        <ele>1892.9</ele>
        <time>2015-07-04T11:17:37.000Z</time>
      </trkpt>
      <trkpt lat="45.01427" lon="5.58359">
        <ele>1888.8</ele>
        <time>2015-07-04T11:17:39.000Z</time>
      </trkpt>
      <trkpt lat="45.01424" lon="5.58362">
        <ele>1884.9</ele>
        <time>2015-07-04T11:17:41.000Z</time>
      </trkpt>
      <trkpt lat="45.01423" lon="5.58362">
        <ele>1883.1</ele>
        <time>2015-07-04T11:17:45.000Z</time>
      </trkpt>
      <trkpt lat="45.01425" lon="5.58354">
        <ele>1887.1</ele>
        <time>2015-07-04T11:17:49.000Z</time>
      </trkpt>
      <trkpt lat="45.01425" lon="5.58353">
        <ele>1886.7</ele>
        <time>2015-07-04T11:17:50.000Z</time>
      </trkpt>
      <trkpt lat="45.01423" lon="5.58348">
        <ele>1884.7</ele>
        <time>2015-07-04T11:17:53.000Z</time>
      </trkpt>
      <trkpt lat="45.01424" lon="5.58344">
        <ele>1886</ele>
        <time>2015-07-04T11:17:56.000Z</time>
      </trkpt>
      <trkpt lat="45.01426" lon="5.58343">
        <ele>1887.8</ele>
        <time>2015-07-04T11:17:58.000Z</time>
      </trkpt>
      <trkpt lat="45.01425" lon="5.58342">
        <ele>1887</ele>
        <time>2015-07-04T11:17:59.000Z</time>
      </trkpt>
      <trkpt lat="45.01422" lon="5.58338">
        <ele>1883.5</ele>
        <time>2015-07-04T11:18:02.000Z</time>
      </trkpt>
      <trkpt lat="45.01418" lon="5.58332">
        <ele>1881.1</ele>
        <time>2015-07-04T11:18:06.000Z</time>
      </trkpt>
      <trkpt lat="45.01416" lon="5.58326">
        <ele>1883</ele>
        <time>2015-07-04T11:18:10.000Z</time>
      </trkpt>
      <trkpt lat="45.01411" lon="5.58322">
        <ele>1882.4</ele>
        <time>2015-07-04T11:18:14.000Z</time>
      </trkpt>
      <trkpt lat="45.01408" lon="5.58321">
        <ele>1881.2</ele>
        <time>2015-07-04T11:18:16.000Z</time>
      </trkpt>
      <trkpt lat="45.01402" lon="5.58318">
        <ele>1879.7</ele>
        <time>2015-07-04T11:18:20.000Z</time>
      </trkpt>
      <trkpt lat="45.01401" lon="5.58317">
        <ele>1879.7</ele>
        <time>2015-07-04T11:18:22.000Z</time>
      </trkpt>
      <trkpt lat="45.01403" lon="5.58315">
        <ele>1882.2</ele>
        <time>2015-07-04T11:18:25.000Z</time>
      </trkpt>
      <trkpt lat="45.01405" lon="5.5832">
        <ele>1880.3</ele>
        <time>2015-07-04T11:18:30.000Z</time>
      </trkpt>
      <trkpt lat="45.01404" lon="5.5832">
        <ele>1879.5</ele>
        <time>2015-07-04T11:18:31.000Z</time>
      </trkpt>
      <trkpt lat="45.01407" lon="5.58325">
        <ele>1878.2</ele>
        <time>2015-07-04T11:18:35.000Z</time>
      </trkpt>
      <trkpt lat="45.01406" lon="5.58325">
        <ele>1876.8</ele>
        <time>2015-07-04T11:18:37.000Z</time>
      </trkpt>
      <trkpt lat="45.01402" lon="5.58323">
        <ele>1875.7</ele>
        <time>2015-07-04T11:18:39.000Z</time>
      </trkpt>
      <trkpt lat="45.01401" lon="5.58322">
        <ele>1875.5</ele>
        <time>2015-07-04T11:18:42.000Z</time>
      </trkpt>
      <trkpt lat="45.01402" lon="5.58323">
        <ele>1876</ele>
        <time>2015-07-04T11:18:43.000Z</time>
      </trkpt>
      <trkpt lat="45.014" lon="5.58323">
        <ele>1874.1</ele>
        <time>2015-07-04T11:18:48.000Z</time>
      </trkpt>
      <trkpt lat="45.01403" lon="5.58329">
        <ele>1872.6</ele>
        <time>2015-07-04T11:18:53.000Z</time>
      </trkpt>
      <trkpt lat="45.01403" lon="5.5833">
        <ele>1871.9</ele>
        <time>2015-07-04T11:18:54.000Z</time>
      </trkpt>
      <trkpt lat="45.01405" lon="5.58333">
        <ele>1871</ele>
        <time>2015-07-04T11:18:59.000Z</time>
      </trkpt>
      <trkpt lat="45.01405" lon="5.58335">
        <ele>1870</ele>
        <time>2015-07-04T11:19:02.000Z</time>
      </trkpt>
      <trkpt lat="45.01404" lon="5.58335">
        <ele>1869.4</ele>
        <time>2015-07-04T11:19:04.000Z</time>
      </trkpt>
      <trkpt lat="45.01406" lon="5.58337">
        <ele>1870.1</ele>
        <time>2015-07-04T11:19:06.000Z</time>
      </trkpt>
      <trkpt lat="45.01406" lon="5.58338">
        <ele>1870.1</ele>
        <time>2015-07-04T11:19:08.000Z</time>
      </trkpt>
      <trkpt lat="45.01404" lon="5.58343">
        <ele>1867.8</ele>
        <time>2015-07-04T11:19:13.000Z</time>
      </trkpt>
      <trkpt lat="45.01403" lon="5.58342">
        <ele>1866.7</ele>
        <time>2015-07-04T11:19:14.000Z</time>
      </trkpt>
      <trkpt lat="45.01402" lon="5.58341">
        <ele>1866.4</ele>
        <time>2015-07-04T11:19:17.000Z</time>
      </trkpt>
      <trkpt lat="45.014" lon="5.58344">
        <ele>1864.1</ele>
        <time>2015-07-04T11:19:23.000Z</time>
      </trkpt>
      <trkpt lat="45.01402" lon="5.58348">
        <ele>1864.7</ele>
        <time>2015-07-04T11:19:27.000Z</time>
      </trkpt>
      <trkpt lat="45.01401" lon="5.5835">
        <ele>1863.2</ele>
        <time>2015-07-04T11:19:30.000Z</time>
      </trkpt>
      <trkpt lat="45.01401" lon="5.5835">
        <ele>1863</ele>
        <time>2015-07-04T11:19:31.000Z</time>
      </trkpt>
      <trkpt lat="45.014" lon="5.58351">
        <ele>1862.2</ele>
        <time>2015-07-04T11:19:32.000Z</time>
      </trkpt>
      <trkpt lat="45.01399" lon="5.58351">
        <ele>1860.8</ele>
        <time>2015-07-04T11:19:35.000Z</time>
      </trkpt>
      <trkpt lat="45.01399" lon="5.58354">
        <ele>1860.8</ele>
        <time>2015-07-04T11:19:42.000Z</time>
      </trkpt>
      <trkpt lat="45.01399" lon="5.58357">
        <ele>1859.5</ele>
        <time>2015-07-04T11:19:49.000Z</time>
      </trkpt>
      <trkpt lat="45.014" lon="5.58361">
        <ele>1859.2</ele>
        <time>2015-07-04T11:19:54.000Z</time>
      </trkpt>
      <trkpt lat="45.01396" lon="5.58359">
        <ele>1856.3</ele>
        <time>2015-07-04T11:19:57.000Z</time>
      </trkpt>
      <trkpt lat="45.01395" lon="5.58357">
        <ele>1856.2</ele>
        <time>2015-07-04T11:19:58.000Z</time>
      </trkpt>
      <trkpt lat="45.01396" lon="5.58358">
        <ele>1856.3</ele>
        <time>2015-07-04T11:20:02.000Z</time>
      </trkpt>
      <trkpt lat="45.01395" lon="5.5836">
        <ele>1854.7</ele>
        <time>2015-07-04T11:20:05.000Z</time>
      </trkpt>
      <trkpt lat="45.01395" lon="5.5836">
        <ele>1854.9</ele>
        <time>2015-07-04T11:20:06.000Z</time>
      </trkpt>
      <trkpt lat="45.01394" lon="5.5836">
        <ele>1853.8</ele>
        <time>2015-07-04T11:20:10.000Z</time>
      </trkpt>
      <trkpt lat="45.01393" lon="5.58361">
        <ele>1852</ele>
        <time>2015-07-04T11:20:15.000Z</time>
      </trkpt>
      <trkpt lat="45.0139" lon="5.58361">
        <ele>1849</ele>
        <time>2015-07-04T11:20:19.000Z</time>
      </trkpt>
      <trkpt lat="45.01389" lon="5.58357">
        <ele>1850</ele>
        <time>2015-07-04T11:20:25.000Z</time>
      </trkpt>
      <trkpt lat="45.01387" lon="5.5836">
        <ele>1847</ele>
        <time>2015-07-04T11:20:33.000Z</time>
      </trkpt>
      <trkpt lat="45.01386" lon="5.58362">
        <ele>1846.3</ele>
        <time>2015-07-04T11:20:34.000Z</time>
      </trkpt>
      <trkpt lat="45.01379" lon="5.58366">
        <ele>1841.2</ele>
        <time>2015-07-04T11:20:38.000Z</time>
      </trkpt>
      <trkpt lat="45.01376" lon="5.5837">
        <ele>1837.8</ele>
        <time>2015-07-04T11:20:42.000Z</time>
      </trkpt>
      <trkpt lat="45.01375" lon="5.5837">
        <ele>1837.6</ele>
        <time>2015-07-04T11:20:43.000Z</time>
      </trkpt>
      <trkpt lat="45.01372" lon="5.5837">
        <ele>1835.1</ele>
        <time>2015-07-04T11:20:47.000Z</time>
      </trkpt>
      <trkpt lat="45.01368" lon="5.58374">
        <ele>1831.2</ele>
        <time>2015-07-04T11:20:51.000Z</time>
      </trkpt>
      <trkpt lat="45.01364" lon="5.58377">
        <ele>1826.9</ele>
        <time>2015-07-04T11:20:53.000Z</time>
      </trkpt>
      <trkpt lat="45.01363" lon="5.58378">
        <ele>1825.3</ele>
        <time>2015-07-04T11:20:55.000Z</time>
      </trkpt>
      <trkpt lat="45.0136" lon="5.58379">
        <ele>1822.7</ele>
        <time>2015-07-04T11:20:58.000Z</time>
      </trkpt>
      <trkpt lat="45.0136" lon="5.58383">
        <ele>1820.8</ele>
        <time>2015-07-04T11:21:03.000Z</time>
      </trkpt>
      <trkpt lat="45.01361" lon="5.58384">
        <ele>1821.4</ele>
        <time>2015-07-04T11:21:07.000Z</time>
      </trkpt>
      <trkpt lat="45.01363" lon="5.58384">
        <ele>1823.1</ele>
        <time>2015-07-04T11:21:13.000Z</time>
      </trkpt>
      <trkpt lat="45.01362" lon="5.58387">
        <ele>1821</ele>
        <time>2015-07-04T11:21:20.000Z</time>
      </trkpt>
      <trkpt lat="45.01364" lon="5.58389">
        <ele>1821.1</ele>
        <time>2015-07-04T11:21:25.000Z</time>
      </trkpt>
      <trkpt lat="45.01363" lon="5.58391">
        <ele>1820.1</ele>
        <time>2015-07-04T11:21:30.000Z</time>
      </trkpt>
      <trkpt lat="45.01366" lon="5.58393">
        <ele>1821.3</ele>
        <time>2015-07-04T11:21:35.000Z</time>
      </trkpt>
      <trkpt lat="45.01366" lon="5.58394">
        <ele>1821.8</ele>
        <time>2015-07-04T11:21:36.000Z</time>
      </trkpt>
      <trkpt lat="45.01368" lon="5.58396">
        <ele>1823.1</ele>
        <time>2015-07-04T11:21:41.000Z</time>
      </trkpt>
      <trkpt lat="45.01368" lon="5.58397">
        <ele>1822.5</ele>
        <time>2015-07-04T11:21:45.000Z</time>
      </trkpt>
      <trkpt lat="45.0137" lon="5.58397">
        <ele>1824</ele>
        <time>2015-07-04T11:21:46.000Z</time>
      </trkpt>
      <trkpt lat="45.01373" lon="5.58399">
        <ele>1826.3</ele>
        <time>2015-07-04T11:21:49.000Z</time>
      </trkpt>
      <trkpt lat="45.01371" lon="5.584">
        <ele>1823.8</ele>
        <time>2015-07-04T11:21:52.000Z</time>
      </trkpt>
      <trkpt lat="45.0137" lon="5.584">
        <ele>1822.9</ele>
        <time>2015-07-04T11:21:53.000Z</time>
      </trkpt>
      <trkpt lat="45.01366" lon="5.58401">
        <ele>1819.2</ele>
        <time>2015-07-04T11:21:59.000Z</time>
      </trkpt>
      <trkpt lat="45.01362" lon="5.58399">
        <ele>1815.4</ele>
        <time>2015-07-04T11:22:06.000Z</time>
      </trkpt>
      <trkpt lat="45.0136" lon="5.58399">
        <ele>1813.7</ele>
        <time>2015-07-04T11:22:11.000Z</time>
      </trkpt>
      <trkpt lat="45.01361" lon="5.58407">
        <ele>1811.6</ele>
        <time>2015-07-04T11:22:16.000Z</time>
      </trkpt>
      <trkpt lat="45.01355" lon="5.58403">
        <ele>1807.9</ele>
        <time>2015-07-04T11:22:20.000Z</time>
      </trkpt>
      <trkpt lat="45.01354" lon="5.5841">
        <ele>1804.5</ele>
        <time>2015-07-04T11:22:24.000Z</time>
      </trkpt>
      <trkpt lat="45.0135" lon="5.58412">
        <ele>1800</ele>
        <time>2015-07-04T11:22:29.000Z</time>
      </trkpt>
      <trkpt lat="45.01349" lon="5.58409">
        <ele>1800</ele>
        <time>2015-07-04T11:22:30.000Z</time>
      </trkpt>
      <trkpt lat="45.01342" lon="5.58398">
        <ele>1796.7</ele>
        <time>2015-07-04T11:22:34.000Z</time>
      </trkpt>
      <trkpt lat="45.0134" lon="5.58392">
        <ele>1796.4</ele>
        <time>2015-07-04T11:22:36.000Z</time>
      </trkpt>
      <trkpt lat="45.01339" lon="5.58386">
        <ele>1796.9</ele>
        <time>2015-07-04T11:22:38.000Z</time>
      </trkpt>
      <trkpt lat="45.0133" lon="5.58372">
        <ele>1793</ele>
        <time>2015-07-04T11:22:43.000Z</time>
      </trkpt>
      <trkpt lat="45.01329" lon="5.58365">
        <ele>1794.3</ele>
        <time>2015-07-04T11:22:45.000Z</time>
      </trkpt>
      <trkpt lat="45.01324" lon="5.58358">
        <ele>1792.5</ele>
        <time>2015-07-04T11:22:48.000Z</time>
      </trkpt>
      <trkpt lat="45.01317" lon="5.58349">
        <ele>1790.3</ele>
        <time>2015-07-04T11:22:52.000Z</time>
      </trkpt>
      <trkpt lat="45.01305" lon="5.58341">
        <ele>1782.1</ele>
        <time>2015-07-04T11:22:58.000Z</time>
      </trkpt>
      <trkpt lat="45.01302" lon="5.5834">
        <ele>1780.7</ele>
        <time>2015-07-04T11:23:00.000Z</time>
      </trkpt>
      <trkpt lat="45.013" lon="5.58337">
        <ele>1780.5</ele>
        <time>2015-07-04T11:23:03.000Z</time>
      </trkpt>
      <trkpt lat="45.01299" lon="5.58337">
        <ele>1780</ele>
        <time>2015-07-04T11:23:04.000Z</time>
      </trkpt>
      <trkpt lat="45.01296" lon="5.58335">
        <ele>1779.2</ele>
        <time>2015-07-04T11:23:08.000Z</time>
      </trkpt>
      <trkpt lat="45.01293" lon="5.58336">
        <ele>1776.2</ele>
        <time>2015-07-04T11:23:13.000Z</time>
      </trkpt>
      <trkpt lat="45.01297" lon="5.58339">
        <ele>1777.6</ele>
        <time>2015-07-04T11:23:17.000Z</time>
      </trkpt>
      <trkpt lat="45.01298" lon="5.5834">
        <ele>1777.5</ele>
        <time>2015-07-04T11:23:19.000Z</time>
      </trkpt>
      <trkpt lat="45.01298" lon="5.58341">
        <ele>1777.6</ele>
        <time>2015-07-04T11:23:20.000Z</time>
      </trkpt>
      <trkpt lat="45.01299" lon="5.58343">
        <ele>1777.1</ele>
        <time>2015-07-04T11:23:22.000Z</time>
      </trkpt>
      <trkpt lat="45.01304" lon="5.58352">
        <ele>1774.4</ele>
        <time>2015-07-04T11:23:28.000Z</time>
      </trkpt>
      <trkpt lat="45.01304" lon="5.58354">
        <ele>1773.3</ele>
        <time>2015-07-04T11:23:29.000Z</time>
      </trkpt>
      <trkpt lat="45.01305" lon="5.58356">
        <ele>1773</ele>
        <time>2015-07-04T11:23:32.000Z</time>
      </trkpt>
      <trkpt lat="45.01304" lon="5.58358">
        <ele>1771.3</ele>
        <time>2015-07-04T11:23:39.000Z</time>
      </trkpt>
      <trkpt lat="45.01302" lon="5.5836">
        <ele>1768.3</ele>
        <time>2015-07-04T11:23:42.000Z</time>
      </trkpt>
      <trkpt lat="45.01299" lon="5.5836">
        <ele>1767.1</ele>
        <time>2015-07-04T11:23:45.000Z</time>
      </trkpt>
      <trkpt lat="45.01298" lon="5.58362">
        <ele>1765.5</ele>
        <time>2015-07-04T11:23:47.000Z</time>
      </trkpt>
      <trkpt lat="45.01297" lon="5.58361">
        <ele>1765.3</ele>
        <time>2015-07-04T11:23:48.000Z</time>
      </trkpt>
      <trkpt lat="45.01297" lon="5.58362">
        <ele>1765.3</ele>
        <time>2015-07-04T11:23:50.000Z</time>
      </trkpt>
      <trkpt lat="45.01296" lon="5.58364">
        <ele>1763.8</ele>
        <time>2015-07-04T11:23:55.000Z</time>
      </trkpt>
      <trkpt lat="45.01292" lon="5.58365">
        <ele>1761.3</ele>
        <time>2015-07-04T11:24:00.000Z</time>
      </trkpt>
      <trkpt lat="45.01291" lon="5.58372">
        <ele>1758.5</ele>
        <time>2015-07-04T11:24:04.000Z</time>
      </trkpt>
      <trkpt lat="45.01287" lon="5.58376">
        <ele>1755.1</ele>
        <time>2015-07-04T11:24:08.000Z</time>
      </trkpt>
      <trkpt lat="45.01284" lon="5.5838">
        <ele>1751.8</ele>
        <time>2015-07-04T11:24:12.000Z</time>
      </trkpt>
      <trkpt lat="45.01283" lon="5.5838">
        <ele>1750.9</ele>
        <time>2015-07-04T11:24:14.000Z</time>
      </trkpt>
      <trkpt lat="45.01282" lon="5.58381">
        <ele>1750.6</ele>
        <time>2015-07-04T11:24:16.000Z</time>
      </trkpt>
      <trkpt lat="45.01279" lon="5.58384">
        <ele>1747.4</ele>
        <time>2015-07-04T11:24:19.000Z</time>
      </trkpt>
      <trkpt lat="45.01278" lon="5.58385">
        <ele>1746.7</ele>
        <time>2015-07-04T11:24:21.000Z</time>
      </trkpt>
      <trkpt lat="45.01274" lon="5.58392">
        <ele>1742.1</ele>
        <time>2015-07-04T11:24:28.000Z</time>
      </trkpt>
      <trkpt lat="45.01269" lon="5.58399">
        <ele>1738</ele>
        <time>2015-07-04T11:24:33.000Z</time>
      </trkpt>
      <trkpt lat="45.01269" lon="5.58404">
        <ele>1736.3</ele>
        <time>2015-07-04T11:24:36.000Z</time>
      </trkpt>
      <trkpt lat="45.01267" lon="5.58406">
        <ele>1734.9</ele>
        <time>2015-07-04T11:24:38.000Z</time>
      </trkpt>
      <trkpt lat="45.01263" lon="5.58412">
        <ele>1730.7</ele>
        <time>2015-07-04T11:24:43.000Z</time>
      </trkpt>
      <trkpt lat="45.01263" lon="5.58413">
        <ele>1730.5</ele>
        <time>2015-07-04T11:24:44.000Z</time>
      </trkpt>
      <trkpt lat="45.0126" lon="5.58417">
        <ele>1727.5</ele>
        <time>2015-07-04T11:24:49.000Z</time>
      </trkpt>
      <trkpt lat="45.01258" lon="5.58419">
        <ele>1725.6</ele>
        <time>2015-07-04T11:24:52.000Z</time>
      </trkpt>
      <trkpt lat="45.01258" lon="5.58419">
        <ele>1725.4</ele>
        <time>2015-07-04T11:24:53.000Z</time>
      </trkpt>
      <trkpt lat="45.01255" lon="5.58421">
        <ele>1723.4</ele>
        <time>2015-07-04T11:24:57.000Z</time>
      </trkpt>
      <trkpt lat="45.01252" lon="5.58425">
        <ele>1721</ele>
        <time>2015-07-04T11:25:02.000Z</time>
      </trkpt>
      <trkpt lat="45.01252" lon="5.58426">
        <ele>1720.7</ele>
        <time>2015-07-04T11:25:03.000Z</time>
      </trkpt>
      <trkpt lat="45.01254" lon="5.58427">
        <ele>1721.1</ele>
        <time>2015-07-04T11:25:06.000Z</time>
      </trkpt>
      <trkpt lat="45.01257" lon="5.58422">
        <ele>1724.2</ele>
        <time>2015-07-04T11:25:10.000Z</time>
      </trkpt>
      <trkpt lat="45.01263" lon="5.58418">
        <ele>1728.5</ele>
        <time>2015-07-04T11:25:19.000Z</time>
      </trkpt>
      <trkpt lat="45.01263" lon="5.58421">
        <ele>1728</ele>
        <time>2015-07-04T11:25:25.000Z</time>
      </trkpt>
      <trkpt lat="45.01266" lon="5.58418">
        <ele>1730.2</ele>
        <time>2015-07-04T11:26:04.000Z</time>
      </trkpt>
      <trkpt lat="45.01262" lon="5.58415">
        <ele>1729.1</ele>
        <time>2015-07-04T11:26:20.000Z</time>
      </trkpt>
      <trkpt lat="45.01259" lon="5.58414">
        <ele>1727.8</ele>
        <time>2015-07-04T11:26:23.000Z</time>
      </trkpt>
      <trkpt lat="45.01258" lon="5.58414">
        <ele>1727.5</ele>
        <time>2015-07-04T11:26:24.000Z</time>
      </trkpt>
      <trkpt lat="45.01256" lon="5.58414">
        <ele>1726.5</ele>
        <time>2015-07-04T11:26:26.000Z</time>
      </trkpt>
      <trkpt lat="45.01255" lon="5.58414">
        <ele>1725.6</ele>
        <time>2015-07-04T11:26:29.000Z</time>
      </trkpt>
      <trkpt lat="45.01253" lon="5.58421">
        <ele>1722.4</ele>
        <time>2015-07-04T11:26:34.000Z</time>
      </trkpt>
      <trkpt lat="45.01253" lon="5.58423">
        <ele>1722.1</ele>
        <time>2015-07-04T11:26:35.000Z</time>
      </trkpt>
      <trkpt lat="45.01252" lon="5.58428">
        <ele>1720</ele>
        <time>2015-07-04T11:26:38.000Z</time>
      </trkpt>
      <trkpt lat="45.01246" lon="5.58437">
        <ele>1713.9</ele>
        <time>2015-07-04T11:26:43.000Z</time>
      </trkpt>
      <trkpt lat="45.01243" lon="5.58437">
        <ele>1712.6</ele>
        <time>2015-07-04T11:26:47.000Z</time>
      </trkpt>
      <trkpt lat="45.01236" lon="5.58443">
        <ele>1707.1</ele>
        <time>2015-07-04T11:26:55.000Z</time>
      </trkpt>
      <trkpt lat="45.01229" lon="5.58447">
        <ele>1702</ele>
        <time>2015-07-04T11:27:01.000Z</time>
      </trkpt>
      <trkpt lat="45.01229" lon="5.58449">
        <ele>1700.9</ele>
        <time>2015-07-04T11:27:02.000Z</time>
      </trkpt>
      <trkpt lat="45.01229" lon="5.58453">
        <ele>1699.4</ele>
        <time>2015-07-04T11:27:05.000Z</time>
      </trkpt>
      <trkpt lat="45.01227" lon="5.58458">
        <ele>1697</ele>
        <time>2015-07-04T11:27:07.000Z</time>
      </trkpt>
      <trkpt lat="45.01224" lon="5.58459">
        <ele>1695</ele>
        <time>2015-07-04T11:27:10.000Z</time>
      </trkpt>
      <trkpt lat="45.0122" lon="5.58463">
        <ele>1691.3</ele>
        <time>2015-07-04T11:27:15.000Z</time>
      </trkpt>
      <trkpt lat="45.01219" lon="5.58464">
        <ele>1690.7</ele>
        <time>2015-07-04T11:27:16.000Z</time>
      </trkpt>
      <trkpt lat="45.01213" lon="5.58466">
        <ele>1687</ele>
        <time>2015-07-04T11:27:20.000Z</time>
      </trkpt>
      <trkpt lat="45.01212" lon="5.58467">
        <ele>1685.9</ele>
        <time>2015-07-04T11:27:21.000Z</time>
      </trkpt>
      <trkpt lat="45.01206" lon="5.58479">
        <ele>1678.4</ele>
        <time>2015-07-04T11:27:26.000Z</time>
      </trkpt>
      <trkpt lat="45.01205" lon="5.58479">
        <ele>1677.8</ele>
        <time>2015-07-04T11:27:27.000Z</time>
      </trkpt>
      <trkpt lat="45.01201" lon="5.5848">
        <ele>1675.7</ele>
        <time>2015-07-04T11:27:30.000Z</time>
      </trkpt>
      <trkpt lat="45.01201" lon="5.5848">
        <ele>1675.2</ele>
        <time>2015-07-04T11:27:31.000Z</time>
      </trkpt>
      <trkpt lat="45.012" lon="5.58487">
        <ele>1672.4</ele>
        <time>2015-07-04T11:27:33.000Z</time>
      </trkpt>
      <trkpt lat="45.01199" lon="5.58489">
        <ele>1671.1</ele>
        <time>2015-07-04T11:27:34.000Z</time>
      </trkpt>
      <trkpt lat="45.01191" lon="5.58488">
        <ele>1667.4</ele>
        <time>2015-07-04T11:27:38.000Z</time>
      </trkpt>
      <trkpt lat="45.01185" lon="5.58491">
        <ele>1664.4</ele>
        <time>2015-07-04T11:27:42.000Z</time>
      </trkpt>
      <trkpt lat="45.01185" lon="5.58491">
        <ele>1664.2</ele>
        <time>2015-07-04T11:27:43.000Z</time>
      </trkpt>
      <trkpt lat="45.01186" lon="5.58488">
        <ele>1665.5</ele>
        <time>2015-07-04T11:27:47.000Z</time>
      </trkpt>
      <trkpt lat="45.01182" lon="5.58487">
        <ele>1664.8</ele>
        <time>2015-07-04T11:28:08.000Z</time>
      </trkpt>
      <trkpt lat="45.01181" lon="5.58496">
        <ele>1660.4</ele>
        <time>2015-07-04T11:28:13.000Z</time>
      </trkpt>
      <trkpt lat="45.01177" lon="5.58503">
        <ele>1655.6</ele>
        <time>2015-07-04T11:28:17.000Z</time>
      </trkpt>
      <trkpt lat="45.01175" lon="5.58505">
        <ele>1654.2</ele>
        <time>2015-07-04T11:28:18.000Z</time>
      </trkpt>
      <trkpt lat="45.01173" lon="5.58506">
        <ele>1653.2</ele>
        <time>2015-07-04T11:28:20.000Z</time>
      </trkpt>
      <trkpt lat="45.01172" lon="5.58508">
        <ele>1652.1</ele>
        <time>2015-07-04T11:28:22.000Z</time>
      </trkpt>
      <trkpt lat="45.0117" lon="5.58509">
        <ele>1650.5</ele>
        <time>2015-07-04T11:28:25.000Z</time>
      </trkpt>
      <trkpt lat="45.01168" lon="5.58511">
        <ele>1648.9</ele>
        <time>2015-07-04T11:28:27.000Z</time>
      </trkpt>
      <trkpt lat="45.01168" lon="5.58513">
        <ele>1648</ele>
        <time>2015-07-04T11:28:28.000Z</time>
      </trkpt>
      <trkpt lat="45.01161" lon="5.58523">
        <ele>1641.1</ele>
        <time>2015-07-04T11:28:33.000Z</time>
      </trkpt>
      <trkpt lat="45.01157" lon="5.58538">
        <ele>1633.5</ele>
        <time>2015-07-04T11:28:38.000Z</time>
      </trkpt>
      <trkpt lat="45.01153" lon="5.58552">
        <ele>1625.8</ele>
        <time>2015-07-04T11:28:43.000Z</time>
      </trkpt>
      <trkpt lat="45.01151" lon="5.58552">
        <ele>1625.4</ele>
        <time>2015-07-04T11:28:44.000Z</time>
      </trkpt>
      <trkpt lat="45.01148" lon="5.58559">
        <ele>1621.2</ele>
        <time>2015-07-04T11:28:47.000Z</time>
      </trkpt>
      <trkpt lat="45.01143" lon="5.58568">
        <ele>1615.5</ele>
        <time>2015-07-04T11:28:52.000Z</time>
      </trkpt>
      <trkpt lat="45.01138" lon="5.58573">
        <ele>1611.7</ele>
        <time>2015-07-04T11:28:55.000Z</time>
      </trkpt>
      <trkpt lat="45.01135" lon="5.58574">
        <ele>1610.6</ele>
        <time>2015-07-04T11:28:57.000Z</time>
      </trkpt>
      <trkpt lat="45.01134" lon="5.58575">
        <ele>1609.7</ele>
        <time>2015-07-04T11:28:58.000Z</time>
      </trkpt>
      <trkpt lat="45.01124" lon="5.58586">
        <ele>1602.5</ele>
        <time>2015-07-04T11:29:04.000Z</time>
      </trkpt>
      <trkpt lat="45.01123" lon="5.58591">
        <ele>1600.1</ele>
        <time>2015-07-04T11:29:06.000Z</time>
      </trkpt>
      <trkpt lat="45.01121" lon="5.586">
        <ele>1595.8</ele>
        <time>2015-07-04T11:29:09.000Z</time>
      </trkpt>
      <trkpt lat="45.01115" lon="5.58614">
        <ele>1588.1</ele>
        <time>2015-07-04T11:29:14.000Z</time>
      </trkpt>
      <trkpt lat="45.01112" lon="5.58624">
        <ele>1583</ele>
        <time>2015-07-04T11:29:18.000Z</time>
      </trkpt>
      <trkpt lat="45.0111" lon="5.58628">
        <ele>1581.2</ele>
        <time>2015-07-04T11:29:19.000Z</time>
      </trkpt>
      <trkpt lat="45.01103" lon="5.58635">
        <ele>1576.3</ele>
        <time>2015-07-04T11:29:24.000Z</time>
      </trkpt>
      <trkpt lat="45.01104" lon="5.58633">
        <ele>1577.6</ele>
        <time>2015-07-04T11:29:31.000Z</time>
      </trkpt>
      <trkpt lat="45.01098" lon="5.58636">
        <ele>1574.6</ele>
        <time>2015-07-04T11:30:14.000Z</time>
      </trkpt>
      <trkpt lat="45.01097" lon="5.58636">
        <ele>1574</ele>
        <time>2015-07-04T11:30:15.000Z</time>
      </trkpt>
      <trkpt lat="45.01095" lon="5.58638">
        <ele>1572.7</ele>
        <time>2015-07-04T11:30:17.000Z</time>
      </trkpt>
      <trkpt lat="45.01093" lon="5.58639">
        <ele>1571.7</ele>
        <time>2015-07-04T11:30:19.000Z</time>
      </trkpt>
      <trkpt lat="45.01088" lon="5.5864">
        <ele>1569.6</ele>
        <time>2015-07-04T11:30:24.000Z</time>
      </trkpt>
      <trkpt lat="45.01085" lon="5.58642">
        <ele>1568.2</ele>
        <time>2015-07-04T11:30:26.000Z</time>
      </trkpt>
      <trkpt lat="45.01084" lon="5.58641">
        <ele>1568.3</ele>
        <time>2015-07-04T11:30:27.000Z</time>
      </trkpt>
      <trkpt lat="45.01081" lon="5.58644">
        <ele>1566.4</ele>
        <time>2015-07-04T11:30:29.000Z</time>
      </trkpt>
      <trkpt lat="45.01076" lon="5.58647">
        <ele>1563.9</ele>
        <time>2015-07-04T11:30:34.000Z</time>
      </trkpt>
      <trkpt lat="45.01072" lon="5.58651">
        <ele>1561.5</ele>
        <time>2015-07-04T11:30:38.000Z</time>
      </trkpt>
      <trkpt lat="45.01069" lon="5.58652">
        <ele>1560</ele>
        <time>2015-07-04T11:30:41.000Z</time>
      </trkpt>
      <trkpt lat="45.01069" lon="5.58655">
        <ele>1559.1</ele>
        <time>2015-07-04T11:30:43.000Z</time>
      </trkpt>
      <trkpt lat="45.01068" lon="5.58656">
        <ele>1558.2</ele>
        <time>2015-07-04T11:30:44.000Z</time>
      </trkpt>
      <trkpt lat="45.01067" lon="5.58659">
        <ele>1556.7</ele>
        <time>2015-07-04T11:30:49.000Z</time>
      </trkpt>
      <trkpt lat="45.01065" lon="5.58664">
        <ele>1554.3</ele>
        <time>2015-07-04T11:30:54.000Z</time>
      </trkpt>
      <trkpt lat="45.01065" lon="5.58667">
        <ele>1553</ele>
        <time>2015-07-04T11:30:56.000Z</time>
      </trkpt>
      <trkpt lat="45.01064" lon="5.5867">
        <ele>1551.6</ele>
        <time>2015-07-04T11:30:59.000Z</time>
      </trkpt>
      <trkpt lat="45.01064" lon="5.58671">
        <ele>1551.1</ele>
        <time>2015-07-04T11:31:00.000Z</time>
      </trkpt>
      <trkpt lat="45.01064" lon="5.58674">
        <ele>1549.6</ele>
        <time>2015-07-04T11:31:03.000Z</time>
      </trkpt>
      <trkpt lat="45.01064" lon="5.58677">
        <ele>1548.4</ele>
        <time>2015-07-04T11:31:06.000Z</time>
      </trkpt>
      <trkpt lat="45.01064" lon="5.58678">
        <ele>1548.1</ele>
        <time>2015-07-04T11:31:07.000Z</time>
      </trkpt>
      <trkpt lat="45.01064" lon="5.58681">
        <ele>1546.5</ele>
        <time>2015-07-04T11:31:10.000Z</time>
      </trkpt>
      <trkpt lat="45.01063" lon="5.58685">
        <ele>1544.6</ele>
        <time>2015-07-04T11:31:12.000Z</time>
      </trkpt>
      <trkpt lat="45.01061" lon="5.58696">
        <ele>1539.7</ele>
        <time>2015-07-04T11:31:17.000Z</time>
      </trkpt>
      <trkpt lat="45.0106" lon="5.58702">
        <ele>1536.8</ele>
        <time>2015-07-04T11:31:21.000Z</time>
      </trkpt>
      <trkpt lat="45.0106" lon="5.58703">
        <ele>1536.2</ele>
        <time>2015-07-04T11:31:22.000Z</time>
      </trkpt>
      <trkpt lat="45.01059" lon="5.58708">
        <ele>1533.7</ele>
        <time>2015-07-04T11:31:26.000Z</time>
      </trkpt>
      <trkpt lat="45.01057" lon="5.58712">
        <ele>1531.8</ele>
        <time>2015-07-04T11:31:29.000Z</time>
      </trkpt>
      <trkpt lat="45.01057" lon="5.58716">
        <ele>1530.2</ele>
        <time>2015-07-04T11:31:31.000Z</time>
      </trkpt>
      <trkpt lat="45.01055" lon="5.58719">
        <ele>1528.4</ele>
        <time>2015-07-04T11:31:34.000Z</time>
      </trkpt>
      <trkpt lat="45.01055" lon="5.5872">
        <ele>1527.7</ele>
        <time>2015-07-04T11:31:35.000Z</time>
      </trkpt>
      <trkpt lat="45.01055" lon="5.58723">
        <ele>1526.8</ele>
        <time>2015-07-04T11:31:36.000Z</time>
      </trkpt>
      <trkpt lat="45.01056" lon="5.58729">
        <ele>1524</ele>
        <time>2015-07-04T11:31:39.000Z</time>
      </trkpt>
      <trkpt lat="45.0105" lon="5.5874">
        <ele>1518.5</ele>
        <time>2015-07-04T11:31:44.000Z</time>
      </trkpt>
      <trkpt lat="45.01047" lon="5.58745">
        <ele>1515.4</ele>
        <time>2015-07-04T11:31:48.000Z</time>
      </trkpt>
      <trkpt lat="45.01045" lon="5.58748">
        <ele>1513.9</ele>
        <time>2015-07-04T11:31:50.000Z</time>
      </trkpt>
      <trkpt lat="45.01044" lon="5.58751">
        <ele>1512.7</ele>
        <time>2015-07-04T11:31:52.000Z</time>
      </trkpt>
      <trkpt lat="45.01044" lon="5.58752">
        <ele>1512.3</ele>
        <time>2015-07-04T11:31:53.000Z</time>
      </trkpt>
      <trkpt lat="45.01048" lon="5.58758">
        <ele>1510.5</ele>
        <time>2015-07-04T11:32:02.000Z</time>
      </trkpt>
      <trkpt lat="45.01056" lon="5.58767">
        <ele>1508.4</ele>
        <time>2015-07-04T11:32:09.000Z</time>
      </trkpt>
      <trkpt lat="45.01061" lon="5.5877">
        <ele>1508.4</ele>
        <time>2015-07-04T11:32:14.000Z</time>
      </trkpt>
      <trkpt lat="45.01062" lon="5.58772">
        <ele>1508.1</ele>
        <time>2015-07-04T11:32:15.000Z</time>
      </trkpt>
      <trkpt lat="45.01066" lon="5.58776">
        <ele>1507.4</ele>
        <time>2015-07-04T11:32:19.000Z</time>
      </trkpt>
      <trkpt lat="45.01072" lon="5.58783">
        <ele>1505.9</ele>
        <time>2015-07-04T11:32:25.000Z</time>
      </trkpt>
      <trkpt lat="45.01078" lon="5.58791">
        <ele>1504</ele>
        <time>2015-07-04T11:32:31.000Z</time>
      </trkpt>
      <trkpt lat="45.01085" lon="5.588">
        <ele>1501.8</ele>
        <time>2015-07-04T11:32:38.000Z</time>
      </trkpt>
      <trkpt lat="45.01089" lon="5.58805">
        <ele>1501</ele>
        <time>2015-07-04T11:32:43.000Z</time>
      </trkpt>
      <trkpt lat="45.01091" lon="5.58808">
        <ele>1500.4</ele>
        <time>2015-07-04T11:32:46.000Z</time>
      </trkpt>
      <trkpt lat="45.01092" lon="5.58809">
        <ele>1499.9</ele>
        <time>2015-07-04T11:32:47.000Z</time>
      </trkpt>
      <trkpt lat="45.01094" lon="5.58814">
        <ele>1498.7</ele>
        <time>2015-07-04T11:32:50.000Z</time>
      </trkpt>
      <trkpt lat="45.01096" lon="5.58819">
        <ele>1497</ele>
        <time>2015-07-04T11:32:53.000Z</time>
      </trkpt>
      <trkpt lat="45.011" lon="5.58826">
        <ele>1495.2</ele>
        <time>2015-07-04T11:32:57.000Z</time>
      </trkpt>
      <trkpt lat="45.01101" lon="5.58829">
        <ele>1494.2</ele>
        <time>2015-07-04T11:32:59.000Z</time>
      </trkpt>
      <trkpt lat="45.01102" lon="5.58833">
        <ele>1493</ele>
        <time>2015-07-04T11:33:01.000Z</time>
      </trkpt>
      <trkpt lat="45.01105" lon="5.58837">
        <ele>1492.1</ele>
        <time>2015-07-04T11:33:04.000Z</time>
      </trkpt>
      <trkpt lat="45.01105" lon="5.58839">
        <ele>1491.5</ele>
        <time>2015-07-04T11:33:05.000Z</time>
      </trkpt>
      <trkpt lat="45.01109" lon="5.58846">
        <ele>1489.5</ele>
        <time>2015-07-04T11:33:09.000Z</time>
      </trkpt>
      <trkpt lat="45.0111" lon="5.58848">
        <ele>1488.9</ele>
        <time>2015-07-04T11:33:11.000Z</time>
      </trkpt>
      <trkpt lat="45.0111" lon="5.58852">
        <ele>1487.6</ele>
        <time>2015-07-04T11:33:13.000Z</time>
      </trkpt>
      <trkpt lat="45.01111" lon="5.58853">
        <ele>1487.2</ele>
        <time>2015-07-04T11:33:14.000Z</time>
      </trkpt>
      <trkpt lat="45.01112" lon="5.58855">
        <ele>1486.6</ele>
        <time>2015-07-04T11:33:16.000Z</time>
      </trkpt>
      <trkpt lat="45.01114" lon="5.5886">
        <ele>1485.2</ele>
        <time>2015-07-04T11:33:19.000Z</time>
      </trkpt>
      <trkpt lat="45.01114" lon="5.58862">
        <ele>1484.5</ele>
        <time>2015-07-04T11:33:20.000Z</time>
      </trkpt>
      <trkpt lat="45.01118" lon="5.58868">
        <ele>1483.1</ele>
        <time>2015-07-04T11:33:24.000Z</time>
      </trkpt>
      <trkpt lat="45.0112" lon="5.58875">
        <ele>1481.2</ele>
        <time>2015-07-04T11:33:29.000Z</time>
      </trkpt>
      <trkpt lat="45.01121" lon="5.58884">
        <ele>1477.7</ele>
        <time>2015-07-04T11:33:34.000Z</time>
      </trkpt>
      <trkpt lat="45.01124" lon="5.58889">
        <ele>1476.6</ele>
        <time>2015-07-04T11:33:39.000Z</time>
      </trkpt>
      <trkpt lat="45.01127" lon="5.58896">
        <ele>1475</ele>
        <time>2015-07-04T11:33:43.000Z</time>
      </trkpt>
      <trkpt lat="45.01128" lon="5.58896">
        <ele>1475.2</ele>
        <time>2015-07-04T11:33:44.000Z</time>
      </trkpt>
      <trkpt lat="45.01131" lon="5.58902">
        <ele>1474</ele>
        <time>2015-07-04T11:33:48.000Z</time>
      </trkpt>
      <trkpt lat="45.01131" lon="5.58904">
        <ele>1473</ele>
        <time>2015-07-04T11:33:50.000Z</time>
      </trkpt>
      <trkpt lat="45.0113" lon="5.58908">
        <ele>1471.5</ele>
        <time>2015-07-04T11:33:53.000Z</time>
      </trkpt>
      <trkpt lat="45.01132" lon="5.58913">
        <ele>1470.1</ele>
        <time>2015-07-04T11:33:56.000Z</time>
      </trkpt>
      <trkpt lat="45.01135" lon="5.58924">
        <ele>1467.7</ele>
        <time>2015-07-04T11:34:00.000Z</time>
      </trkpt>
      <trkpt lat="45.0114" lon="5.58933">
        <ele>1467</ele>
        <time>2015-07-04T11:34:05.000Z</time>
      </trkpt>
      <trkpt lat="45.01143" lon="5.58944">
        <ele>1464.9</ele>
        <time>2015-07-04T11:34:09.000Z</time>
      </trkpt>
      <trkpt lat="45.01143" lon="5.58951">
        <ele>1463.2</ele>
        <time>2015-07-04T11:34:15.000Z</time>
      </trkpt>
      <trkpt lat="45.01145" lon="5.58948">
        <ele>1464.8</ele>
        <time>2015-07-04T11:34:16.000Z</time>
      </trkpt>
      <trkpt lat="45.01146" lon="5.58953">
        <ele>1463.7</ele>
        <time>2015-07-04T11:34:19.000Z</time>
      </trkpt>
      <trkpt lat="45.01149" lon="5.58961">
        <ele>1463.1</ele>
        <time>2015-07-04T11:34:24.000Z</time>
      </trkpt>
      <trkpt lat="45.01152" lon="5.58968">
        <ele>1462.2</ele>
        <time>2015-07-04T11:34:28.000Z</time>
      </trkpt>
      <trkpt lat="45.01151" lon="5.58977">
        <ele>1459.3</ele>
        <time>2015-07-04T11:34:32.000Z</time>
      </trkpt>
      <trkpt lat="45.01152" lon="5.58978">
        <ele>1459.2</ele>
        <time>2015-07-04T11:34:33.000Z</time>
      </trkpt>
      <trkpt lat="45.01152" lon="5.58984">
        <ele>1457.8</ele>
        <time>2015-07-04T11:34:36.000Z</time>
      </trkpt>
      <trkpt lat="45.01152" lon="5.5899">
        <ele>1456.4</ele>
        <time>2015-07-04T11:34:38.000Z</time>
      </trkpt>
      <trkpt lat="45.01149" lon="5.59">
        <ele>1451.9</ele>
        <time>2015-07-04T11:34:42.000Z</time>
      </trkpt>
      <trkpt lat="45.01149" lon="5.59003">
        <ele>1451.2</ele>
        <time>2015-07-04T11:34:43.000Z</time>
      </trkpt>
      <trkpt lat="45.01148" lon="5.59003">
        <ele>1450.7</ele>
        <time>2015-07-04T11:34:44.000Z</time>
      </trkpt>
      <trkpt lat="45.01148" lon="5.59007">
        <ele>1449.6</ele>
        <time>2015-07-04T11:34:46.000Z</time>
      </trkpt>
      <trkpt lat="45.0115" lon="5.59011">
        <ele>1449.4</ele>
        <time>2015-07-04T11:34:47.000Z</time>
      </trkpt>
      <trkpt lat="45.01151" lon="5.59016">
        <ele>1448.8</ele>
        <time>2015-07-04T11:34:49.000Z</time>
      </trkpt>
      <trkpt lat="45.01153" lon="5.59024">
        <ele>1448.3</ele>
        <time>2015-07-04T11:34:52.000Z</time>
      </trkpt>
      <trkpt lat="45.01159" lon="5.59032">
        <ele>1449.5</ele>
        <time>2015-07-04T11:34:58.000Z</time>
      </trkpt>
      <trkpt lat="45.01161" lon="5.59043">
        <ele>1447.4</ele>
        <time>2015-07-04T11:35:02.000Z</time>
      </trkpt>
      <trkpt lat="45.01161" lon="5.59045">
        <ele>1446.9</ele>
        <time>2015-07-04T11:35:03.000Z</time>
      </trkpt>
      <trkpt lat="45.01165" lon="5.59059">
        <ele>1445.4</ele>
        <time>2015-07-04T11:35:08.000Z</time>
      </trkpt>
      <trkpt lat="45.01166" lon="5.59067">
        <ele>1444.1</ele>
        <time>2015-07-04T11:35:13.000Z</time>
      </trkpt>
      <trkpt lat="45.01168" lon="5.59075">
        <ele>1442.9</ele>
        <time>2015-07-04T11:35:16.000Z</time>
      </trkpt>
      <trkpt lat="45.0117" lon="5.59083">
        <ele>1442.1</ele>
        <time>2015-07-04T11:35:19.000Z</time>
      </trkpt>
      <trkpt lat="45.01172" lon="5.59096">
        <ele>1439.8</ele>
        <time>2015-07-04T11:35:24.000Z</time>
      </trkpt>
      <trkpt lat="45.01171" lon="5.59104">
        <ele>1437.3</ele>
        <time>2015-07-04T11:35:27.000Z</time>
      </trkpt>
      <trkpt lat="45.01172" lon="5.5911">
        <ele>1436.5</ele>
        <time>2015-07-04T11:35:29.000Z</time>
      </trkpt>
      <trkpt lat="45.01177" lon="5.59129">
        <ele>1433.3</ele>
        <time>2015-07-04T11:35:35.000Z</time>
      </trkpt>
      <trkpt lat="45.01181" lon="5.59137">
        <ele>1432.9</ele>
        <time>2015-07-04T11:35:39.000Z</time>
      </trkpt>
      <trkpt lat="45.01183" lon="5.59139">
        <ele>1433.3</ele>
        <time>2015-07-04T11:35:40.000Z</time>
      </trkpt>
      <trkpt lat="45.01186" lon="5.59145">
        <ele>1432.7</ele>
        <time>2015-07-04T11:35:43.000Z</time>
      </trkpt>
      <trkpt lat="45.01188" lon="5.5915">
        <ele>1432.6</ele>
        <time>2015-07-04T11:35:45.000Z</time>
      </trkpt>
      <trkpt lat="45.01189" lon="5.59159">
        <ele>1429.9</ele>
        <time>2015-07-04T11:35:50.000Z</time>
      </trkpt>
      <trkpt lat="45.01191" lon="5.59172">
        <ele>1427.2</ele>
        <time>2015-07-04T11:35:54.000Z</time>
      </trkpt>
      <trkpt lat="45.01192" lon="5.59176">
        <ele>1426.2</ele>
        <time>2015-07-04T11:35:55.000Z</time>
      </trkpt>
      <trkpt lat="45.01191" lon="5.59182">
        <ele>1424.2</ele>
        <time>2015-07-04T11:35:57.000Z</time>
      </trkpt>
      <trkpt lat="45.0119" lon="5.59188">
        <ele>1422.1</ele>
        <time>2015-07-04T11:35:59.000Z</time>
      </trkpt>
      <trkpt lat="45.01191" lon="5.59191">
        <ele>1421.6</ele>
        <time>2015-07-04T11:36:00.000Z</time>
      </trkpt>
      <trkpt lat="45.01193" lon="5.59199">
        <ele>1420.1</ele>
        <time>2015-07-04T11:36:03.000Z</time>
      </trkpt>
      <trkpt lat="45.01196" lon="5.59208">
        <ele>1418.4</ele>
        <time>2015-07-04T11:36:07.000Z</time>
      </trkpt>
      <trkpt lat="45.01196" lon="5.59209">
        <ele>1418</ele>
        <time>2015-07-04T11:36:08.000Z</time>
      </trkpt>
      <trkpt lat="45.01202" lon="5.59216">
        <ele>1418.3</ele>
        <time>2015-07-04T11:36:13.000Z</time>
      </trkpt>
      <trkpt lat="45.01203" lon="5.5922">
        <ele>1417.6</ele>
        <time>2015-07-04T11:36:15.000Z</time>
      </trkpt>
      <trkpt lat="45.01204" lon="5.59227">
        <ele>1415.9</ele>
        <time>2015-07-04T11:36:19.000Z</time>
      </trkpt>
      <trkpt lat="45.0121" lon="5.5923">
        <ele>1417</ele>
        <time>2015-07-04T11:36:24.000Z</time>
      </trkpt>
      <trkpt lat="45.01211" lon="5.59235">
        <ele>1416</ele>
        <time>2015-07-04T11:36:26.000Z</time>
      </trkpt>
      <trkpt lat="45.01215" lon="5.59241">
        <ele>1415.8</ele>
        <time>2015-07-04T11:36:29.000Z</time>
      </trkpt>
      <trkpt lat="45.01218" lon="5.59242">
        <ele>1416.6</ele>
        <time>2015-07-04T11:36:31.000Z</time>
      </trkpt>
      <trkpt lat="45.01222" lon="5.59245">
        <ele>1417.8</ele>
        <time>2015-07-04T11:36:34.000Z</time>
      </trkpt>
      <trkpt lat="45.01227" lon="5.5925">
        <ele>1417.6</ele>
        <time>2015-07-04T11:36:39.000Z</time>
      </trkpt>
      <trkpt lat="45.0123" lon="5.59258">
        <ele>1415.4</ele>
        <time>2015-07-04T11:36:43.000Z</time>
      </trkpt>
      <trkpt lat="45.01234" lon="5.59268">
        <ele>1413.1</ele>
        <time>2015-07-04T11:36:48.000Z</time>
      </trkpt>
      <trkpt lat="45.01235" lon="5.5927">
        <ele>1412.7</ele>
        <time>2015-07-04T11:36:50.000Z</time>
      </trkpt>
      <trkpt lat="45.0124" lon="5.59277">
        <ele>1411.5</ele>
        <time>2015-07-04T11:36:53.000Z</time>
      </trkpt>
      <trkpt lat="45.01242" lon="5.59278">
        <ele>1412.1</ele>
        <time>2015-07-04T11:36:54.000Z</time>
      </trkpt>
      <trkpt lat="45.01247" lon="5.59282">
        <ele>1412.1</ele>
        <time>2015-07-04T11:36:57.000Z</time>
      </trkpt>
      <trkpt lat="45.01251" lon="5.59291">
        <ele>1409.8</ele>
        <time>2015-07-04T11:37:02.000Z</time>
      </trkpt>
      <trkpt lat="45.01255" lon="5.59302">
        <ele>1405.6</ele>
        <time>2015-07-04T11:37:07.000Z</time>
      </trkpt>
      <trkpt lat="45.01259" lon="5.59308">
        <ele>1404.5</ele>
        <time>2015-07-04T11:37:12.000Z</time>
      </trkpt>
      <trkpt lat="45.01267" lon="5.59316">
        <ele>1403.1</ele>
        <time>2015-07-04T11:37:17.000Z</time>
      </trkpt>
      <trkpt lat="45.01274" lon="5.5932">
        <ele>1402.8</ele>
        <time>2015-07-04T11:37:22.000Z</time>
      </trkpt>
      <trkpt lat="45.01277" lon="5.59329">
        <ele>1399.9</ele>
        <time>2015-07-04T11:37:26.000Z</time>
      </trkpt>
      <trkpt lat="45.01279" lon="5.5933">
        <ele>1399.4</ele>
        <time>2015-07-04T11:37:27.000Z</time>
      </trkpt>
      <trkpt lat="45.01283" lon="5.59336">
        <ele>1397.8</ele>
        <time>2015-07-04T11:37:31.000Z</time>
      </trkpt>
      <trkpt lat="45.01286" lon="5.59336">
        <ele>1398.5</ele>
        <time>2015-07-04T11:37:33.000Z</time>
      </trkpt>
      <trkpt lat="45.01294" lon="5.59339">
        <ele>1399</ele>
        <time>2015-07-04T11:37:39.000Z</time>
      </trkpt>
      <trkpt lat="45.01307" lon="5.59346">
        <ele>1398.2</ele>
        <time>2015-07-04T11:37:46.000Z</time>
      </trkpt>
      <trkpt lat="45.01312" lon="5.59351">
        <ele>1396.9</ele>
        <time>2015-07-04T11:37:50.000Z</time>
      </trkpt>
      <trkpt lat="45.01313" lon="5.59352">
        <ele>1396.5</ele>
        <time>2015-07-04T11:37:51.000Z</time>
      </trkpt>
      <trkpt lat="45.01316" lon="5.59355">
        <ele>1395.7</ele>
        <time>2015-07-04T11:37:54.000Z</time>
      </trkpt>
      <trkpt lat="45.0132" lon="5.59356">
        <ele>1395.8</ele>
        <time>2015-07-04T11:37:56.000Z</time>
      </trkpt>
      <trkpt lat="45.01326" lon="5.59358">
        <ele>1395.9</ele>
        <time>2015-07-04T11:38:00.000Z</time>
      </trkpt>
      <trkpt lat="45.01327" lon="5.59362">
        <ele>1394.7</ele>
        <time>2015-07-04T11:38:02.000Z</time>
      </trkpt>
      <trkpt lat="45.01329" lon="5.59368">
        <ele>1392.1</ele>
        <time>2015-07-04T11:38:07.000Z</time>
      </trkpt>
      <trkpt lat="45.01323" lon="5.5937">
        <ele>1390.2</ele>
        <time>2015-07-04T11:38:11.000Z</time>
      </trkpt>
      <trkpt lat="45.01321" lon="5.59371">
        <ele>1389.5</ele>
        <time>2015-07-04T11:38:12.000Z</time>
      </trkpt>
      <trkpt lat="45.0131" lon="5.59376">
        <ele>1385.3</ele>
        <time>2015-07-04T11:38:18.000Z</time>
      </trkpt>
      <trkpt lat="45.01303" lon="5.59382">
        <ele>1381.3</ele>
        <time>2015-07-04T11:38:24.000Z</time>
      </trkpt>
      <trkpt lat="45.01309" lon="5.59385">
        <ele>1381.4</ele>
        <time>2015-07-04T11:38:30.000Z</time>
      </trkpt>
      <trkpt lat="45.01314" lon="5.59389">
        <ele>1380.6</ele>
        <time>2015-07-04T11:38:34.000Z</time>
      </trkpt>
      <trkpt lat="45.01315" lon="5.59391">
        <ele>1380</ele>
        <time>2015-07-04T11:38:35.000Z</time>
      </trkpt>
      <trkpt lat="45.01321" lon="5.59398">
        <ele>1377.9</ele>
        <time>2015-07-04T11:38:40.000Z</time>
      </trkpt>
      <trkpt lat="45.01321" lon="5.594">
        <ele>1377.2</ele>
        <time>2015-07-04T11:38:41.000Z</time>
      </trkpt>
      <trkpt lat="45.01324" lon="5.59402">
        <ele>1376.5</ele>
        <time>2015-07-04T11:38:45.000Z</time>
      </trkpt>
      <trkpt lat="45.01321" lon="5.59406">
        <ele>1374.4</ele>
        <time>2015-07-04T11:38:49.000Z</time>
      </trkpt>
      <trkpt lat="45.0132" lon="5.59406">
        <ele>1374</ele>
        <time>2015-07-04T11:38:50.000Z</time>
      </trkpt>
      <trkpt lat="45.01312" lon="5.5941">
        <ele>1370.9</ele>
        <time>2015-07-04T11:38:57.000Z</time>
      </trkpt>
      <trkpt lat="45.01311" lon="5.59412">
        <ele>1370.1</ele>
        <time>2015-07-04T11:38:58.000Z</time>
      </trkpt>
      <trkpt lat="45.01304" lon="5.59415">
        <ele>1367.4</ele>
        <time>2015-07-04T11:39:03.000Z</time>
      </trkpt>
      <trkpt lat="45.01299" lon="5.59415">
        <ele>1366.6</ele>
        <time>2015-07-04T11:39:07.000Z</time>
      </trkpt>
      <trkpt lat="45.013" lon="5.59415">
        <ele>1366.7</ele>
        <time>2015-07-04T11:39:09.000Z</time>
      </trkpt>
      <trkpt lat="45.01301" lon="5.59415">
        <ele>1366.9</ele>
        <time>2015-07-04T11:39:10.000Z</time>
      </trkpt>
      <trkpt lat="45.01305" lon="5.5942">
        <ele>1365.7</ele>
        <time>2015-07-04T11:39:14.000Z</time>
      </trkpt>
      <trkpt lat="45.0131" lon="5.59421">
        <ele>1365.8</ele>
        <time>2015-07-04T11:39:18.000Z</time>
      </trkpt>
      <trkpt lat="45.01319" lon="5.5943">
        <ele>1363.9</ele>
        <time>2015-07-04T11:39:24.000Z</time>
      </trkpt>
      <trkpt lat="45.01328" lon="5.59437">
        <ele>1362.4</ele>
        <time>2015-07-04T11:39:29.000Z</time>
      </trkpt>
      <trkpt lat="45.01336" lon="5.59442">
        <ele>1361.5</ele>
        <time>2015-07-04T11:39:35.000Z</time>
      </trkpt>
      <trkpt lat="45.01337" lon="5.59443">
        <ele>1361.3</ele>
        <time>2015-07-04T11:39:36.000Z</time>
      </trkpt>
      <trkpt lat="45.01347" lon="5.59447">
        <ele>1361.2</ele>
        <time>2015-07-04T11:39:42.000Z</time>
      </trkpt>
      <trkpt lat="45.01354" lon="5.5945">
        <ele>1361.4</ele>
        <time>2015-07-04T11:39:47.000Z</time>
      </trkpt>
      <trkpt lat="45.01355" lon="5.59451">
        <ele>1361</ele>
        <time>2015-07-04T11:39:48.000Z</time>
      </trkpt>
      <trkpt lat="45.0136" lon="5.59454">
        <ele>1360.6</ele>
        <time>2015-07-04T11:39:52.000Z</time>
      </trkpt>
      <trkpt lat="45.01363" lon="5.59456">
        <ele>1360.4</ele>
        <time>2015-07-04T11:39:54.000Z</time>
      </trkpt>
      <trkpt lat="45.01372" lon="5.59463">
        <ele>1358.4</ele>
        <time>2015-07-04T11:40:01.000Z</time>
      </trkpt>
      <trkpt lat="45.01376" lon="5.59467">
        <ele>1357.3</ele>
        <time>2015-07-04T11:40:04.000Z</time>
      </trkpt>
      <trkpt lat="45.0138" lon="5.5947">
        <ele>1356.6</ele>
        <time>2015-07-04T11:40:07.000Z</time>
      </trkpt>
      <trkpt lat="45.01389" lon="5.59478">
        <ele>1354.3</ele>
        <time>2015-07-04T11:40:13.000Z</time>
      </trkpt>
      <trkpt lat="45.01397" lon="5.59484">
        <ele>1352.6</ele>
        <time>2015-07-04T11:40:18.000Z</time>
      </trkpt>
      <trkpt lat="45.01399" lon="5.59485">
        <ele>1352.2</ele>
        <time>2015-07-04T11:40:20.000Z</time>
      </trkpt>
      <trkpt lat="45.01402" lon="5.59487">
        <ele>1351.9</ele>
        <time>2015-07-04T11:40:23.000Z</time>
      </trkpt>
      <trkpt lat="45.01411" lon="5.5949">
        <ele>1351.7</ele>
        <time>2015-07-04T11:40:29.000Z</time>
      </trkpt>
      <trkpt lat="45.01415" lon="5.59493">
        <ele>1351.1</ele>
        <time>2015-07-04T11:40:32.000Z</time>
      </trkpt>
      <trkpt lat="45.01419" lon="5.59494">
        <ele>1351</ele>
        <time>2015-07-04T11:40:35.000Z</time>
      </trkpt>
      <trkpt lat="45.01425" lon="5.59496">
        <ele>1350.2</ele>
        <time>2015-07-04T11:40:39.000Z</time>
      </trkpt>
      <trkpt lat="45.01427" lon="5.59496">
        <ele>1350.5</ele>
        <time>2015-07-04T11:40:40.000Z</time>
      </trkpt>
      <trkpt lat="45.01436" lon="5.59501">
        <ele>1348.7</ele>
        <time>2015-07-04T11:40:45.000Z</time>
      </trkpt>
      <trkpt lat="45.01437" lon="5.59502">
        <ele>1348.3</ele>
        <time>2015-07-04T11:40:46.000Z</time>
      </trkpt>
      <trkpt lat="45.01447" lon="5.59507">
        <ele>1346.1</ele>
        <time>2015-07-04T11:40:53.000Z</time>
      </trkpt>
      <trkpt lat="45.01455" lon="5.59516">
        <ele>1341.6</ele>
        <time>2015-07-04T11:40:59.000Z</time>
      </trkpt>
      <trkpt lat="45.01458" lon="5.59517">
        <ele>1341.4</ele>
        <time>2015-07-04T11:41:01.000Z</time>
      </trkpt>
      <trkpt lat="45.01463" lon="5.59517">
        <ele>1341.2</ele>
        <time>2015-07-04T11:41:05.000Z</time>
      </trkpt>
      <trkpt lat="45.0147" lon="5.5952">
        <ele>1339.8</ele>
        <time>2015-07-04T11:41:09.000Z</time>
      </trkpt>
      <trkpt lat="45.01472" lon="5.59521">
        <ele>1339.2</ele>
        <time>2015-07-04T11:41:10.000Z</time>
      </trkpt>
      <trkpt lat="45.01478" lon="5.59526">
        <ele>1337.1</ele>
        <time>2015-07-04T11:41:15.000Z</time>
      </trkpt>
      <trkpt lat="45.01479" lon="5.59526">
        <ele>1337</ele>
        <time>2015-07-04T11:41:16.000Z</time>
      </trkpt>
      <trkpt lat="45.01488" lon="5.5953">
        <ele>1334.7</ele>
        <time>2015-07-04T11:41:22.000Z</time>
      </trkpt>
      <trkpt lat="45.01491" lon="5.59534">
        <ele>1333.2</ele>
        <time>2015-07-04T11:41:25.000Z</time>
      </trkpt>
      <trkpt lat="45.01494" lon="5.59536">
        <ele>1332.1</ele>
        <time>2015-07-04T11:41:28.000Z</time>
      </trkpt>
      <trkpt lat="45.01497" lon="5.5954">
        <ele>1330.4</ele>
        <time>2015-07-04T11:41:31.000Z</time>
      </trkpt>
      <trkpt lat="45.015" lon="5.5954">
        <ele>1330.3</ele>
        <time>2015-07-04T11:41:32.000Z</time>
      </trkpt>
      <trkpt lat="45.01509" lon="5.59543">
        <ele>1328.9</ele>
        <time>2015-07-04T11:41:37.000Z</time>
      </trkpt>
      <trkpt lat="45.01518" lon="5.59544">
        <ele>1328.2</ele>
        <time>2015-07-04T11:41:42.000Z</time>
      </trkpt>
      <trkpt lat="45.0152" lon="5.59545">
        <ele>1327.8</ele>
        <time>2015-07-04T11:41:43.000Z</time>
      </trkpt>
      <trkpt lat="45.01529" lon="5.59547">
        <ele>1327.1</ele>
        <time>2015-07-04T11:41:49.000Z</time>
      </trkpt>
      <trkpt lat="45.0153" lon="5.59548">
        <ele>1326.7</ele>
        <time>2015-07-04T11:41:50.000Z</time>
      </trkpt>
      <trkpt lat="45.01533" lon="5.5955">
        <ele>1325.9</ele>
        <time>2015-07-04T11:41:53.000Z</time>
      </trkpt>
      <trkpt lat="45.01537" lon="5.59551">
        <ele>1325.4</ele>
        <time>2015-07-04T11:41:56.000Z</time>
      </trkpt>
      <trkpt lat="45.01542" lon="5.59553">
        <ele>1324.6</ele>
        <time>2015-07-04T11:42:00.000Z</time>
      </trkpt>
      <trkpt lat="45.01543" lon="5.59552">
        <ele>1324.9</ele>
        <time>2015-07-04T11:42:01.000Z</time>
      </trkpt>
      <trkpt lat="45.01552" lon="5.59551">
        <ele>1325.7</ele>
        <time>2015-07-04T11:42:06.000Z</time>
      </trkpt>
      <trkpt lat="45.01556" lon="5.59553">
        <ele>1325.2</ele>
        <time>2015-07-04T11:42:09.000Z</time>
      </trkpt>
      <trkpt lat="45.01561" lon="5.59552">
        <ele>1325.6</ele>
        <time>2015-07-04T11:42:11.000Z</time>
      </trkpt>
      <trkpt lat="45.01568" lon="5.59552">
        <ele>1325.6</ele>
        <time>2015-07-04T11:42:15.000Z</time>
      </trkpt>
      <trkpt lat="45.0157" lon="5.59552">
        <ele>1325.5</ele>
        <time>2015-07-04T11:42:16.000Z</time>
      </trkpt>
      <trkpt lat="45.01579" lon="5.59552">
        <ele>1325.4</ele>
        <time>2015-07-04T11:42:22.000Z</time>
      </trkpt>
      <trkpt lat="45.01582" lon="5.59553">
        <ele>1325</ele>
        <time>2015-07-04T11:42:24.000Z</time>
      </trkpt>
      <trkpt lat="45.01586" lon="5.59554">
        <ele>1324.7</ele>
        <time>2015-07-04T11:42:27.000Z</time>
      </trkpt>
      <trkpt lat="45.01593" lon="5.59557">
        <ele>1323.9</ele>
        <time>2015-07-04T11:42:32.000Z</time>
      </trkpt>
      <trkpt lat="45.01594" lon="5.59557">
        <ele>1323.9</ele>
        <time>2015-07-04T11:42:33.000Z</time>
      </trkpt>
      <trkpt lat="45.01601" lon="5.59557">
        <ele>1324.2</ele>
        <time>2015-07-04T11:42:37.000Z</time>
      </trkpt>
      <trkpt lat="45.0161" lon="5.59562">
        <ele>1322.5</ele>
        <time>2015-07-04T11:42:43.000Z</time>
      </trkpt>
      <trkpt lat="45.01612" lon="5.59564">
        <ele>1321.9</ele>
        <time>2015-07-04T11:42:44.000Z</time>
      </trkpt>
      <trkpt lat="45.01615" lon="5.59565">
        <ele>1321.5</ele>
        <time>2015-07-04T11:42:46.000Z</time>
      </trkpt>
      <trkpt lat="45.01621" lon="5.59567">
        <ele>1321</ele>
        <time>2015-07-04T11:42:50.000Z</time>
      </trkpt>
      <trkpt lat="45.01624" lon="5.59568">
        <ele>1320.6</ele>
        <time>2015-07-04T11:42:52.000Z</time>
      </trkpt>
      <trkpt lat="45.01631" lon="5.59567">
        <ele>1320.7</ele>
        <time>2015-07-04T11:42:55.000Z</time>
      </trkpt>
      <trkpt lat="45.01639" lon="5.5957">
        <ele>1320</ele>
        <time>2015-07-04T11:43:00.000Z</time>
      </trkpt>
      <trkpt lat="45.01648" lon="5.59572">
        <ele>1319.3</ele>
        <time>2015-07-04T11:43:05.000Z</time>
      </trkpt>
      <trkpt lat="45.01654" lon="5.5958">
        <ele>1316.7</ele>
        <time>2015-07-04T11:43:11.000Z</time>
      </trkpt>
      <trkpt lat="45.01654" lon="5.59582">
        <ele>1316.1</ele>
        <time>2015-07-04T11:43:12.000Z</time>
      </trkpt>
      <trkpt lat="45.01661" lon="5.59583">
        <ele>1315.8</ele>
        <time>2015-07-04T11:43:17.000Z</time>
      </trkpt>
      <trkpt lat="45.01665" lon="5.59592">
        <ele>1313.1</ele>
        <time>2015-07-04T11:43:23.000Z</time>
      </trkpt>
      <trkpt lat="45.01666" lon="5.59593">
        <ele>1312.7</ele>
        <time>2015-07-04T11:43:24.000Z</time>
      </trkpt>
      <trkpt lat="45.01671" lon="5.59602">
        <ele>1310</ele>
        <time>2015-07-04T11:43:31.000Z</time>
      </trkpt>
      <trkpt lat="45.01676" lon="5.59603">
        <ele>1309.9</ele>
        <time>2015-07-04T11:43:37.000Z</time>
      </trkpt>
      <trkpt lat="45.01677" lon="5.59601">
        <ele>1310.8</ele>
        <time>2015-07-04T11:43:38.000Z</time>
      </trkpt>
      <trkpt lat="45.01677" lon="5.59601">
        <ele>1310.7</ele>
        <time>2015-07-04T11:43:44.000Z</time>
      </trkpt>
      <trkpt lat="45.01678" lon="5.59602">
        <ele>1310.3</ele>
        <time>2015-07-04T11:43:57.000Z</time>
      </trkpt>
      <trkpt lat="45.01674" lon="5.59603">
        <ele>1309.8</ele>
        <time>2015-07-04T11:44:29.000Z</time>
      </trkpt>
      <trkpt lat="45.01676" lon="5.59599">
        <ele>1311.4</ele>
        <time>2015-07-04T11:44:52.000Z</time>
      </trkpt>
      <trkpt lat="45.01675" lon="5.59599">
        <ele>1311.1</ele>
        <time>2015-07-04T11:44:53.000Z</time>
      </trkpt>
      <trkpt lat="45.01675" lon="5.59603">
        <ele>1310</ele>
        <time>2015-07-04T11:45:16.000Z</time>
      </trkpt>
      <trkpt lat="45.01676" lon="5.596">
        <ele>1310.9</ele>
        <time>2015-07-04T11:45:25.000Z</time>
      </trkpt>
      <trkpt lat="45.01677" lon="5.596">
        <ele>1310.9</ele>
        <time>2015-07-04T11:45:42.000Z</time>
      </trkpt>
      <trkpt lat="45.01676" lon="5.59598">
        <ele>1311.6</ele>
        <time>2015-07-04T11:45:52.000Z</time>
      </trkpt>
      <trkpt lat="45.01676" lon="5.59597">
        <ele>1311.8</ele>
        <time>2015-07-04T11:45:57.000Z</time>
      </trkpt>
      <trkpt lat="45.01678" lon="5.596">
        <ele>1311</ele>
        <time>2015-07-04T11:46:15.000Z</time>
      </trkpt>
      <trkpt lat="45.01674" lon="5.59604">
        <ele>1309.5</ele>
        <time>2015-07-04T11:46:24.000Z</time>
      </trkpt>
      <trkpt lat="45.01671" lon="5.59609">
        <ele>1307.8</ele>
        <time>2015-07-04T11:46:26.000Z</time>
      </trkpt>
      <trkpt lat="45.01671" lon="5.59608">
        <ele>1308.1</ele>
        <time>2015-07-04T11:46:29.000Z</time>
      </trkpt>
      <trkpt lat="45.01674" lon="5.59607">
        <ele>1308.7</ele>
        <time>2015-07-04T11:46:33.000Z</time>
      </trkpt>
      <trkpt lat="45.01672" lon="5.59607">
        <ele>1308.5</ele>
        <time>2015-07-04T11:46:36.000Z</time>
      </trkpt>
      <trkpt lat="45.01671" lon="5.59606">
        <ele>1308.8</ele>
        <time>2015-07-04T11:46:43.000Z</time>
      </trkpt>
      <trkpt lat="45.01673" lon="5.59602">
        <ele>1310.1</ele>
        <time>2015-07-04T11:46:52.000Z</time>
      </trkpt>
      <trkpt lat="45.01673" lon="5.59601">
        <ele>1310.6</ele>
        <time>2015-07-04T11:46:57.000Z</time>
      </trkpt>
      <trkpt lat="45.01673" lon="5.59599">
        <ele>1311.1</ele>
        <time>2015-07-04T11:47:00.000Z</time>
      </trkpt>
      <trkpt lat="45.01673" lon="5.59599">
        <ele>1311.2</ele>
        <time>2015-07-04T11:47:01.000Z</time>
      </trkpt>
      <trkpt lat="45.01676" lon="5.59598">
        <ele>1311.7</ele>
        <time>2015-07-04T11:47:06.000Z</time>
      </trkpt>
      <trkpt lat="45.01677" lon="5.59599">
        <ele>1311.2</ele>
        <time>2015-07-04T11:47:07.000Z</time>
      </trkpt>
      <trkpt lat="45.01676" lon="5.59598">
        <ele>1311.5</ele>
        <time>2015-07-04T11:47:10.000Z</time>
      </trkpt>
      <trkpt lat="45.01675" lon="5.59601">
        <ele>1310.5</ele>
        <time>2015-07-04T11:47:23.000Z</time>
      </trkpt>
      <trkpt lat="45.01679" lon="5.59601">
        <ele>1310.6</ele>
        <time>2015-07-04T11:47:38.000Z</time>
      </trkpt>
      <trkpt lat="45.01676" lon="5.59601">
        <ele>1310.6</ele>
        <time>2015-07-04T11:47:41.000Z</time>
      </trkpt>
      <trkpt lat="45.01676" lon="5.59603">
        <ele>1310</ele>
        <time>2015-07-04T11:47:42.000Z</time>
      </trkpt>
      <trkpt lat="45.01676" lon="5.59605">
        <ele>1309.4</ele>
        <time>2015-07-04T11:47:46.000Z</time>
      </trkpt>
      <trkpt lat="45.01678" lon="5.59602">
        <ele>1310.3</ele>
        <time>2015-07-04T11:47:53.000Z</time>
      </trkpt>
      <trkpt lat="45.01681" lon="5.59595">
        <ele>1312.6</ele>
        <time>2015-07-04T11:47:57.000Z</time>
      </trkpt>
      <trkpt lat="45.0168" lon="5.59594">
        <ele>1313</ele>
        <time>2015-07-04T11:47:58.000Z</time>
      </trkpt>
      <trkpt lat="45.01679" lon="5.59598">
        <ele>1311.6</ele>
        <time>2015-07-04T11:48:02.000Z</time>
      </trkpt>
      <trkpt lat="45.01676" lon="5.596">
        <ele>1310.8</ele>
        <time>2015-07-04T11:48:06.000Z</time>
      </trkpt>
      <trkpt lat="45.01677" lon="5.59594">
        <ele>1313</ele>
        <time>2015-07-04T11:48:11.000Z</time>
      </trkpt>
      <trkpt lat="45.01679" lon="5.59592">
        <ele>1313.6</ele>
        <time>2015-07-04T11:48:12.000Z</time>
      </trkpt>
      <trkpt lat="45.01686" lon="5.59593">
        <ele>1313.7</ele>
        <time>2015-07-04T11:48:16.000Z</time>
      </trkpt>
      <trkpt lat="45.01701" lon="5.59603">
        <ele>1310.6</ele>
        <time>2015-07-04T11:48:21.000Z</time>
      </trkpt>
      <trkpt lat="45.01722" lon="5.59608">
        <ele>1309.2</ele>
        <time>2015-07-04T11:48:25.000Z</time>
      </trkpt>
      <trkpt lat="45.01731" lon="5.59611">
        <ele>1308.2</ele>
        <time>2015-07-04T11:48:27.000Z</time>
      </trkpt>
      <trkpt lat="45.01748" lon="5.5962">
        <ele>1305.8</ele>
        <time>2015-07-04T11:48:31.000Z</time>
      </trkpt>
      <trkpt lat="45.01761" lon="5.59626">
        <ele>1304</ele>
        <time>2015-07-04T11:48:34.000Z</time>
      </trkpt>
      <trkpt lat="45.01779" lon="5.59631">
        <ele>1302.9</ele>
        <time>2015-07-04T11:48:38.000Z</time>
      </trkpt>
      <trkpt lat="45.01782" lon="5.59634">
        <ele>1301.8</ele>
        <time>2015-07-04T11:48:39.000Z</time>
      </trkpt>
      <trkpt lat="45.01787" lon="5.59637">
        <ele>1301</ele>
        <time>2015-07-04T11:48:40.000Z</time>
      </trkpt>
      <trkpt lat="45.01801" lon="5.59642">
        <ele>1299.8</ele>
        <time>2015-07-04T11:48:43.000Z</time>
      </trkpt>
      <trkpt lat="45.0181" lon="5.59647">
        <ele>1298.3</ele>
        <time>2015-07-04T11:48:45.000Z</time>
      </trkpt>
      <trkpt lat="45.01832" lon="5.59656">
        <ele>1295.7</ele>
        <time>2015-07-04T11:48:49.000Z</time>
      </trkpt>
      <trkpt lat="45.01845" lon="5.59662">
        <ele>1294.5</ele>
        <time>2015-07-04T11:48:51.000Z</time>
      </trkpt>
      <trkpt lat="45.01865" lon="5.59671">
        <ele>1293</ele>
        <time>2015-07-04T11:48:54.000Z</time>
      </trkpt>
      <trkpt lat="45.01878" lon="5.59679">
        <ele>1291.8</ele>
        <time>2015-07-04T11:48:56.000Z</time>
      </trkpt>
      <trkpt lat="45.01899" lon="5.59693">
        <ele>1289.5</ele>
        <time>2015-07-04T11:48:59.000Z</time>
      </trkpt>
      <trkpt lat="45.01917" lon="5.59709">
        <ele>1286.4</ele>
        <time>2015-07-04T11:49:02.000Z</time>
      </trkpt>
      <trkpt lat="45.01936" lon="5.59723">
        <ele>1283.8</ele>
        <time>2015-07-04T11:49:05.000Z</time>
      </trkpt>
      <trkpt lat="45.01956" lon="5.59735">
        <ele>1282.2</ele>
        <time>2015-07-04T11:49:08.000Z</time>
      </trkpt>
      <trkpt lat="45.01979" lon="5.59747">
        <ele>1280.4</ele>
        <time>2015-07-04T11:49:11.000Z</time>
      </trkpt>
      <trkpt lat="45.02" lon="5.59761">
        <ele>1277.4</ele>
        <time>2015-07-04T11:49:14.000Z</time>
      </trkpt>
      <trkpt lat="45.02021" lon="5.59776">
        <ele>1274.2</ele>
        <time>2015-07-04T11:49:17.000Z</time>
      </trkpt>
      <trkpt lat="45.0204" lon="5.59791">
        <ele>1271.4</ele>
        <time>2015-07-04T11:49:20.000Z</time>
      </trkpt>
      <trkpt lat="45.02046" lon="5.59797">
        <ele>1270</ele>
        <time>2015-07-04T11:49:21.000Z</time>
      </trkpt>
      <trkpt lat="45.02067" lon="5.59813">
        <ele>1267.1</ele>
        <time>2015-07-04T11:49:24.000Z</time>
      </trkpt>
      <trkpt lat="45.02088" lon="5.59832">
        <ele>1264.2</ele>
        <time>2015-07-04T11:49:27.000Z</time>
      </trkpt>
      <trkpt lat="45.02111" lon="5.5985">
        <ele>1262.1</ele>
        <time>2015-07-04T11:49:30.000Z</time>
      </trkpt>
      <trkpt lat="45.02134" lon="5.59868">
        <ele>1260.5</ele>
        <time>2015-07-04T11:49:33.000Z</time>
      </trkpt>
      <trkpt lat="45.02152" lon="5.59881">
        <ele>1259.9</ele>
        <time>2015-07-04T11:49:35.000Z</time>
      </trkpt>
      <trkpt lat="45.02168" lon="5.59897">
        <ele>1257.9</ele>
        <time>2015-07-04T11:49:37.000Z</time>
      </trkpt>
      <trkpt lat="45.02189" lon="5.5992">
        <ele>1254.4</ele>
        <time>2015-07-04T11:49:40.000Z</time>
      </trkpt>
      <trkpt lat="45.02212" lon="5.59944">
        <ele>1251.7</ele>
        <time>2015-07-04T11:49:43.000Z</time>
      </trkpt>
      <trkpt lat="45.02229" lon="5.59963">
        <ele>1249.4</ele>
        <time>2015-07-04T11:49:45.000Z</time>
      </trkpt>
      <trkpt lat="45.02237" lon="5.59973">
        <ele>1248</ele>
        <time>2015-07-04T11:49:46.000Z</time>
      </trkpt>
      <trkpt lat="45.02252" lon="5.59994">
        <ele>1244.7</ele>
        <time>2015-07-04T11:49:48.000Z</time>
      </trkpt>
      <trkpt lat="45.02265" lon="5.60013">
        <ele>1241.4</ele>
        <time>2015-07-04T11:49:50.000Z</time>
      </trkpt>
      <trkpt lat="45.0227" lon="5.60022">
        <ele>1239.6</ele>
        <time>2015-07-04T11:49:51.000Z</time>
      </trkpt>
      <trkpt lat="45.02289" lon="5.6005">
        <ele>1235.5</ele>
        <time>2015-07-04T11:49:54.000Z</time>
      </trkpt>
      <trkpt lat="45.02302" lon="5.6007">
        <ele>1232.4</ele>
        <time>2015-07-04T11:49:56.000Z</time>
      </trkpt>
      <trkpt lat="45.02308" lon="5.60079">
        <ele>1231.2</ele>
        <time>2015-07-04T11:49:57.000Z</time>
      </trkpt>
      <trkpt lat="45.02326" lon="5.60103">
        <ele>1228</ele>
        <time>2015-07-04T11:50:00.000Z</time>
      </trkpt>
      <trkpt lat="45.02335" lon="5.60117">
        <ele>1225.7</ele>
        <time>2015-07-04T11:50:02.000Z</time>
      </trkpt>
      <trkpt lat="45.02339" lon="5.60121">
        <ele>1225.2</ele>
        <time>2015-07-04T11:50:03.000Z</time>
      </trkpt>
      <trkpt lat="45.02346" lon="5.60123">
        <ele>1225.3</ele>
        <time>2015-07-04T11:50:05.000Z</time>
      </trkpt>
    </trkseg>
  </trk>
</gpx>